<?xml version="1.0" encoding="UTF-8"?>
<gpx version="1.1" creator="2bulu-scraper" xmlns="http://www.topografix.com/GPX/1/1">
  <metadata><name>徒步成渝古道东大路之十五：银山铺-金紫铺-唐明渡-三元塔-珠江驿-资州古城</name><desc>source: 2bulu.com trackId=84450177; exported 2026-09-01T17:59:06.572Z</desc>
    <bounds minlat="29.6839801" minlon="104.8421994" maxlat="29.7806165" maxlon="104.9700371"/>
    <link href="https://www.2bulu.com/track/t-B6B9B%252BWySjHp%252FR2KBg5Tzw%253D%253D.htm"><text>2bulu 源页面</text></link>
  </metadata>
  <wpt lat="29.684" lon="104.9617844"><ele>342</ele><name>
        </name></wpt>
  <wpt lat="29.6943597" lon="104.948724"><ele>291</ele><name>
        </name></wpt>
  <wpt lat="29.6943458" lon="104.9482249"><ele>299</ele><name>
        </name></wpt>
  <wpt lat="29.6934137" lon="104.9436343"><ele>289</ele><name>
        </name></wpt>
  <wpt lat="29.7026974" lon="104.9449871"><ele>295</ele><name>
        </name></wpt>
  <wpt lat="29.711695" lon="104.941485"><ele>286</ele><name>
        </name></wpt>
  <wpt lat="29.7181053" lon="104.9310455"><ele>395</ele><name>
        </name></wpt>
  <wpt lat="29.7179896" lon="104.9311163"><ele>329</ele><name>
        </name></wpt>
  <wpt lat="29.7180245" lon="104.9303517"><ele>332</ele><name>
        </name></wpt>
  <wpt lat="29.7222366" lon="104.9282913"><ele>377</ele><name>
        </name></wpt>
  <wpt lat="29.7358555" lon="104.9177537"><ele>303</ele><name>
        </name></wpt>
  <wpt lat="29.7372304" lon="104.9166374"><ele>299</ele><name>
        </name></wpt>
  <wpt lat="29.7390238" lon="104.9150515"><ele>279</ele><name>
        </name></wpt>
  <wpt lat="29.7399006" lon="104.9124832"><ele>337</ele><name>
        </name></wpt>
  <wpt lat="29.7410946" lon="104.9111986"><ele>278</ele><name>
        </name></wpt>
  <wpt lat="29.7411812" lon="104.9109859"><ele>281</ele><name>
        </name></wpt>
  <wpt lat="29.7415262" lon="104.9104173"><ele>287</ele><name>
        </name></wpt>
  <wpt lat="29.7400463" lon="104.9091318"><ele>280</ele><name>
        </name></wpt>
  <wpt lat="29.7510346" lon="104.9018363"><ele>298</ele><name>
        </name></wpt>
  <wpt lat="29.75203" lon="104.899989"><ele>317</ele><name>
        </name></wpt>
  <wpt lat="29.7568599" lon="104.8920891"><ele>280</ele><name>
        </name></wpt>
  <wpt lat="29.7575381" lon="104.8917894"><ele>264</ele><name>
        </name></wpt>
  <wpt lat="29.7572684" lon="104.8920763"><ele>269</ele><name>
        </name></wpt>
  <wpt lat="29.7593014" lon="104.8937023"><ele>292</ele><name>
        </name></wpt>
  <wpt lat="29.7634746" lon="104.8942565"><ele>276</ele><name>
        </name></wpt>
  <wpt lat="29.7646041" lon="104.8949177"><ele>278</ele><name>
        </name></wpt>
  <wpt lat="29.7637694" lon="104.8959736"><ele>274</ele><name>
        </name></wpt>
  <wpt lat="29.7620268" lon="104.8971377"><ele>294</ele><name>
        </name></wpt>
  <wpt lat="29.7613235" lon="104.8944809"><ele>342</ele><name>
        </name></wpt>
  <wpt lat="29.7588058" lon="104.8956048"><ele>284</ele><name>
        </name></wpt>
  <wpt lat="29.7566891" lon="104.8873461"><ele>277</ele><name>
        </name></wpt>
  <wpt lat="29.7608494" lon="104.8828669"><ele>264</ele><name>
        </name></wpt>
  <wpt lat="29.7737611" lon="104.8581242"><ele>269</ele><name>
        </name></wpt>
  <wpt lat="29.7752521" lon="104.846085"><ele>268</ele><name>
        </name></wpt>
  <wpt lat="29.7791145" lon="104.8480256"><ele>289</ele><name>
        </name></wpt>
  <trk><name>徒步成渝古道东大路之十五：银山铺-金紫铺-唐明渡-三元塔-珠江驿-资州古城</name>
      <trkseg>
        <trkpt lat="29.6859897" lon="104.9700371"><ele>347.1</ele><time>2026-05-17T18:32:02.000Z</time></trkpt>
        <trkpt lat="29.6860519" lon="104.969958"><ele>347.1</ele><time>2026-05-17T18:32:17.000Z</time></trkpt>
        <trkpt lat="29.6860587" lon="104.9698572"><ele>330.84</ele><time>2026-05-17T18:32:39.000Z</time></trkpt>
        <trkpt lat="29.686059" lon="104.9697497"><ele>322.24</ele><time>2026-05-17T18:32:52.000Z</time></trkpt>
        <trkpt lat="29.6861285" lon="104.9697108"><ele>316.47</ele><time>2026-05-17T18:33:20.000Z</time></trkpt>
        <trkpt lat="29.6862229" lon="104.9697235"><ele>310.89</ele><time>2026-05-17T18:33:28.000Z</time></trkpt>
        <trkpt lat="29.686327" lon="104.969748"><ele>307.11</ele><time>2026-05-17T18:33:38.000Z</time></trkpt>
        <trkpt lat="29.6864236" lon="104.9697961"><ele>304.31</ele><time>2026-05-17T18:33:46.000Z</time></trkpt>
        <trkpt lat="29.6865203" lon="104.9698019"><ele>301.62</ele><time>2026-05-17T18:33:55.000Z</time></trkpt>
        <trkpt lat="29.686556" lon="104.9697153"><ele>301.2</ele><time>2026-05-17T18:34:01.000Z</time></trkpt>
        <trkpt lat="29.68658" lon="104.9695943"><ele>301.56</ele><time>2026-05-17T18:34:07.000Z</time></trkpt>
        <trkpt lat="29.6866182" lon="104.969486"><ele>301.78</ele><time>2026-05-17T18:34:11.000Z</time></trkpt>
        <trkpt lat="29.6866721" lon="104.9693917"><ele>301.49</ele><time>2026-05-17T18:34:17.000Z</time></trkpt>
        <trkpt lat="29.6867039" lon="104.9692797"><ele>300.86</ele><time>2026-05-17T18:34:24.000Z</time></trkpt>
        <trkpt lat="29.6867051" lon="104.969172"><ele>300.01</ele><time>2026-05-17T18:34:31.000Z</time></trkpt>
        <trkpt lat="29.6866794" lon="104.9690675"><ele>298.54</ele><time>2026-05-17T18:34:40.000Z</time></trkpt>
        <trkpt lat="29.686655" lon="104.968959"><ele>297.57</ele><time>2026-05-17T18:34:48.000Z</time></trkpt>
        <trkpt lat="29.6866374" lon="104.9688529"><ele>297.27</ele><time>2026-05-17T18:34:54.000Z</time></trkpt>
        <trkpt lat="29.6866137" lon="104.9687423"><ele>297.61</ele><time>2026-05-17T18:35:01.000Z</time></trkpt>
        <trkpt lat="29.6865895" lon="104.968629"><ele>297.96</ele><time>2026-05-17T18:35:09.000Z</time></trkpt>
        <trkpt lat="29.686559" lon="104.9685255"><ele>298.24</ele><time>2026-05-17T18:35:15.000Z</time></trkpt>
        <trkpt lat="29.6865059" lon="104.9684343"><ele>298.94</ele><time>2026-05-17T18:35:24.000Z</time></trkpt>
        <trkpt lat="29.6864502" lon="104.9683427"><ele>299.68</ele><time>2026-05-17T18:35:30.000Z</time></trkpt>
        <trkpt lat="29.6864037" lon="104.9682433"><ele>300.82</ele><time>2026-05-17T18:35:37.000Z</time></trkpt>
        <trkpt lat="29.6863804" lon="104.9681407"><ele>302.03</ele><time>2026-05-17T18:35:45.000Z</time></trkpt>
        <trkpt lat="29.6863116" lon="104.9680809"><ele>303.1</ele><time>2026-05-17T18:35:54.000Z</time></trkpt>
        <trkpt lat="29.6862231" lon="104.9680708"><ele>304.32</ele><time>2026-05-17T18:36:01.000Z</time></trkpt>
        <trkpt lat="29.6862231" lon="104.9680708"><ele>304.32</ele><time>2026-05-17T18:36:19.000Z</time></trkpt>
        <trkpt lat="29.6861571" lon="104.9680116"><ele>305.17</ele><time>2026-05-17T18:36:42.000Z</time></trkpt>
        <trkpt lat="29.6861571" lon="104.9680116"><ele>305.17</ele><time>2026-05-17T18:36:58.000Z</time></trkpt>
        <trkpt lat="29.6862015" lon="104.9680763"><ele>303.65</ele><time>2026-05-17T18:37:03.000Z</time></trkpt>
        <trkpt lat="29.6862809" lon="104.9680545"><ele>301.29</ele><time>2026-05-17T18:37:09.000Z</time></trkpt>
        <trkpt lat="29.6863222" lon="104.9680029"><ele>296.46</ele><time>2026-05-17T18:37:12.000Z</time></trkpt>
        <trkpt lat="29.6863122" lon="104.9679058"><ele>296.24</ele><time>2026-05-17T18:37:22.000Z</time></trkpt>
        <trkpt lat="29.6863085" lon="104.9677902"><ele>298.3</ele><time>2026-05-17T18:37:30.000Z</time></trkpt>
        <trkpt lat="29.6862973" lon="104.9676717"><ele>300.13</ele><time>2026-05-17T18:37:39.000Z</time></trkpt>
        <trkpt lat="29.6862711" lon="104.9675526"><ele>301.4</ele><time>2026-05-17T18:37:47.000Z</time></trkpt>
        <trkpt lat="29.6862107" lon="104.96746"><ele>301.75</ele><time>2026-05-17T18:37:53.000Z</time></trkpt>
        <trkpt lat="29.6861336" lon="104.9673754"><ele>301.9</ele><time>2026-05-17T18:38:00.000Z</time></trkpt>
        <trkpt lat="29.6860573" lon="104.9672844"><ele>302.33</ele><time>2026-05-17T18:38:04.000Z</time></trkpt>
        <trkpt lat="29.6859894" lon="104.9671952"><ele>301.13</ele><time>2026-05-17T18:38:10.000Z</time></trkpt>
        <trkpt lat="29.6859206" lon="104.9671135"><ele>300.57</ele><time>2026-05-17T18:38:16.000Z</time></trkpt>
        <trkpt lat="29.6858577" lon="104.9670286"><ele>300.03</ele><time>2026-05-17T18:38:24.000Z</time></trkpt>
        <trkpt lat="29.6857926" lon="104.966943"><ele>299.09</ele><time>2026-05-17T18:38:32.000Z</time></trkpt>
        <trkpt lat="29.6857246" lon="104.9668708"><ele>296.04</ele><time>2026-05-17T18:38:38.000Z</time></trkpt>
        <trkpt lat="29.685651" lon="104.9668079"><ele>294.44</ele><time>2026-05-17T18:38:43.000Z</time></trkpt>
        <trkpt lat="29.685575" lon="104.966747"><ele>294.18</ele><time>2026-05-17T18:38:51.000Z</time></trkpt>
        <trkpt lat="29.6854906" lon="104.966685"><ele>293.47</ele><time>2026-05-17T18:38:58.000Z</time></trkpt>
        <trkpt lat="29.6854134" lon="104.9666154"><ele>292.75</ele><time>2026-05-17T18:39:06.000Z</time></trkpt>
        <trkpt lat="29.6853436" lon="104.9665391"><ele>292.1</ele><time>2026-05-17T18:39:14.000Z</time></trkpt>
        <trkpt lat="29.6852882" lon="104.9664511"><ele>291.19</ele><time>2026-05-17T18:39:22.000Z</time></trkpt>
        <trkpt lat="29.6852224" lon="104.9663641"><ele>290.39</ele><time>2026-05-17T18:39:30.000Z</time></trkpt>
        <trkpt lat="29.6851626" lon="104.9662763"><ele>289.75</ele><time>2026-05-17T18:39:36.000Z</time></trkpt>
        <trkpt lat="29.6851048" lon="104.9661787"><ele>288.85</ele><time>2026-05-17T18:39:44.000Z</time></trkpt>
        <trkpt lat="29.6850685" lon="104.9660689"><ele>287.92</ele><time>2026-05-17T18:39:52.000Z</time></trkpt>
        <trkpt lat="29.6850214" lon="104.965967"><ele>287.23</ele><time>2026-05-17T18:40:00.000Z</time></trkpt>
        <trkpt lat="29.6849604" lon="104.9658769"><ele>285.75</ele><time>2026-05-17T18:40:07.000Z</time></trkpt>
        <trkpt lat="29.6849102" lon="104.9657746"><ele>283.62</ele><time>2026-05-17T18:40:14.000Z</time></trkpt>
        <trkpt lat="29.6848563" lon="104.965675"><ele>282.22</ele><time>2026-05-17T18:40:21.000Z</time></trkpt>
        <trkpt lat="29.6848265" lon="104.9655726"><ele>281.07</ele><time>2026-05-17T18:40:29.000Z</time></trkpt>
        <trkpt lat="29.684782" lon="104.9654763"><ele>279.65</ele><time>2026-05-17T18:40:38.000Z</time></trkpt>
        <trkpt lat="29.6847367" lon="104.9653706"><ele>278.55</ele><time>2026-05-17T18:40:46.000Z</time></trkpt>
        <trkpt lat="29.684695" lon="104.9652654"><ele>278.23</ele><time>2026-05-17T18:40:52.000Z</time></trkpt>
        <trkpt lat="29.6846598" lon="104.9651547"><ele>278.07</ele><time>2026-05-17T18:40:59.000Z</time></trkpt>
        <trkpt lat="29.6846152" lon="104.9650516"><ele>277.88</ele><time>2026-05-17T18:41:06.000Z</time></trkpt>
        <trkpt lat="29.6845789" lon="104.9649498"><ele>277.97</ele><time>2026-05-17T18:41:13.000Z</time></trkpt>
        <trkpt lat="29.6845472" lon="104.9648281"><ele>278.1</ele><time>2026-05-17T18:41:22.000Z</time></trkpt>
        <trkpt lat="29.6845249" lon="104.9647136"><ele>278.01</ele><time>2026-05-17T18:41:29.000Z</time></trkpt>
        <trkpt lat="29.6845003" lon="104.9646106"><ele>278.55</ele><time>2026-05-17T18:41:36.000Z</time></trkpt>
        <trkpt lat="29.6844761" lon="104.9645103"><ele>279.15</ele><time>2026-05-17T18:41:43.000Z</time></trkpt>
        <trkpt lat="29.6844469" lon="104.9644069"><ele>279.21</ele><time>2026-05-17T18:41:50.000Z</time></trkpt>
        <trkpt lat="29.6844135" lon="104.9642949"><ele>279.13</ele><time>2026-05-17T18:41:58.000Z</time></trkpt>
        <trkpt lat="29.6843993" lon="104.964188"><ele>279.83</ele><time>2026-05-17T18:42:05.000Z</time></trkpt>
        <trkpt lat="29.6843856" lon="104.9640807"><ele>280.11</ele><time>2026-05-17T18:42:14.000Z</time></trkpt>
        <trkpt lat="29.6843693" lon="104.9639761"><ele>280.35</ele><time>2026-05-17T18:42:22.000Z</time></trkpt>
        <trkpt lat="29.6843429" lon="104.9638742"><ele>280.05</ele><time>2026-05-17T18:42:28.000Z</time></trkpt>
        <trkpt lat="29.6843239" lon="104.963764"><ele>280.24</ele><time>2026-05-17T18:42:35.000Z</time></trkpt>
        <trkpt lat="29.6843076" lon="104.9636559"><ele>280.2</ele><time>2026-05-17T18:42:42.000Z</time></trkpt>
        <trkpt lat="29.6842937" lon="104.9635409"><ele>280.15</ele><time>2026-05-17T18:42:50.000Z</time></trkpt>
        <trkpt lat="29.6842771" lon="104.9634334"><ele>279.58</ele><time>2026-05-17T18:42:57.000Z</time></trkpt>
        <trkpt lat="29.6842501" lon="104.9633258"><ele>279.31</ele><time>2026-05-17T18:43:05.000Z</time></trkpt>
        <trkpt lat="29.6842316" lon="104.9632174"><ele>278.8</ele><time>2026-05-17T18:43:12.000Z</time></trkpt>
        <trkpt lat="29.6842079" lon="104.9631104"><ele>278.14</ele><time>2026-05-17T18:43:18.000Z</time></trkpt>
        <trkpt lat="29.684199" lon="104.9629963"><ele>277.12</ele><time>2026-05-17T18:43:25.000Z</time></trkpt>
        <trkpt lat="29.6841821" lon="104.9628887"><ele>275.8</ele><time>2026-05-17T18:43:32.000Z</time></trkpt>
        <trkpt lat="29.6841606" lon="104.9627871"><ele>275.04</ele><time>2026-05-17T18:43:38.000Z</time></trkpt>
        <trkpt lat="29.6841378" lon="104.9626651"><ele>275.34</ele><time>2026-05-17T18:43:46.000Z</time></trkpt>
        <trkpt lat="29.6841143" lon="104.9625565"><ele>276.22</ele><time>2026-05-17T18:43:53.000Z</time></trkpt>
        <trkpt lat="29.6840869" lon="104.9624496"><ele>276.55</ele><time>2026-05-17T18:44:02.000Z</time></trkpt>
        <trkpt lat="29.6840686" lon="104.9623383"><ele>276.68</ele><time>2026-05-17T18:44:08.000Z</time></trkpt>
        <trkpt lat="29.6840511" lon="104.9622213"><ele>276.95</ele><time>2026-05-17T18:44:15.000Z</time></trkpt>
        <trkpt lat="29.6840437" lon="104.9621103"><ele>277.06</ele><time>2026-05-17T18:44:23.000Z</time></trkpt>
        <trkpt lat="29.6840345" lon="104.9619947"><ele>276.58</ele><time>2026-05-17T18:44:32.000Z</time></trkpt>
        <trkpt lat="29.6840208" lon="104.9618698"><ele>275.64</ele><time>2026-05-17T18:44:40.000Z</time></trkpt>
        <trkpt lat="29.6839801" lon="104.9617632"><ele>275.82</ele><time>2026-05-17T18:44:49.000Z</time></trkpt>
        <trkpt lat="29.6839801" lon="104.9617632"><ele>275.82</ele><time>2026-05-17T18:46:21.000Z</time></trkpt>
        <trkpt lat="29.6840527" lon="104.9617163"><ele>275.52</ele><time>2026-05-17T18:46:22.000Z</time></trkpt>
        <trkpt lat="29.6840527" lon="104.9617163"><ele>275.52</ele><time>2026-05-17T18:46:25.000Z</time></trkpt>
        <trkpt lat="29.6840499" lon="104.9616032"><ele>276.27</ele><time>2026-05-17T18:46:41.000Z</time></trkpt>
        <trkpt lat="29.6840818" lon="104.9615049"><ele>276.14</ele><time>2026-05-17T18:47:14.000Z</time></trkpt>
        <trkpt lat="29.68415" lon="104.9614387"><ele>275.04</ele><time>2026-05-17T18:47:51.000Z</time></trkpt>
        <trkpt lat="29.6841376" lon="104.9613389"><ele>274.08</ele><time>2026-05-17T18:48:00.000Z</time></trkpt>
        <trkpt lat="29.6841053" lon="104.9612336"><ele>274.02</ele><time>2026-05-17T18:48:08.000Z</time></trkpt>
        <trkpt lat="29.6840938" lon="104.9611244"><ele>274.11</ele><time>2026-05-17T18:48:16.000Z</time></trkpt>
        <trkpt lat="29.6840922" lon="104.9610169"><ele>273.72</ele><time>2026-05-17T18:48:23.000Z</time></trkpt>
        <trkpt lat="29.6841052" lon="104.9609075"><ele>273.07</ele><time>2026-05-17T18:48:30.000Z</time></trkpt>
        <trkpt lat="29.684132" lon="104.9607973"><ele>272.51</ele><time>2026-05-17T18:48:36.000Z</time></trkpt>
        <trkpt lat="29.6841541" lon="104.9606815"><ele>272.04</ele><time>2026-05-17T18:48:44.000Z</time></trkpt>
        <trkpt lat="29.6841769" lon="104.9605566"><ele>272.15</ele><time>2026-05-17T18:48:52.000Z</time></trkpt>
        <trkpt lat="29.6841958" lon="104.9604375"><ele>272.04</ele><time>2026-05-17T18:49:00.000Z</time></trkpt>
        <trkpt lat="29.6842171" lon="104.960323"><ele>271.52</ele><time>2026-05-17T18:49:08.000Z</time></trkpt>
        <trkpt lat="29.6842293" lon="104.9602135"><ele>270.83</ele><time>2026-05-17T18:49:15.000Z</time></trkpt>
        <trkpt lat="29.6842392" lon="104.9601073"><ele>270.96</ele><time>2026-05-17T18:49:23.000Z</time></trkpt>
        <trkpt lat="29.6842508" lon="104.959999"><ele>271.21</ele><time>2026-05-17T18:49:32.000Z</time></trkpt>
        <trkpt lat="29.6842703" lon="104.9598968"><ele>270.98</ele><time>2026-05-17T18:49:39.000Z</time></trkpt>
        <trkpt lat="29.6842888" lon="104.9597949"><ele>270.06</ele><time>2026-05-17T18:49:46.000Z</time></trkpt>
        <trkpt lat="29.6842967" lon="104.9596892"><ele>269.62</ele><time>2026-05-17T18:49:53.000Z</time></trkpt>
        <trkpt lat="29.6843096" lon="104.9595772"><ele>269.36</ele><time>2026-05-17T18:50:01.000Z</time></trkpt>
        <trkpt lat="29.6843174" lon="104.9594656"><ele>269.02</ele><time>2026-05-17T18:50:09.000Z</time></trkpt>
        <trkpt lat="29.6843248" lon="104.9593534"><ele>268.84</ele><time>2026-05-17T18:50:17.000Z</time></trkpt>
        <trkpt lat="29.6843487" lon="104.9592496"><ele>268.57</ele><time>2026-05-17T18:50:23.000Z</time></trkpt>
        <trkpt lat="29.6843617" lon="104.9591389"><ele>268.78</ele><time>2026-05-17T18:50:30.000Z</time></trkpt>
        <trkpt lat="29.6843936" lon="104.9590326"><ele>269.05</ele><time>2026-05-17T18:50:41.000Z</time></trkpt>
        <trkpt lat="29.684429" lon="104.9589309"><ele>268.69</ele><time>2026-05-17T18:50:48.000Z</time></trkpt>
        <trkpt lat="29.6844583" lon="104.9588269"><ele>267.82</ele><time>2026-05-17T18:50:56.000Z</time></trkpt>
        <trkpt lat="29.6844953" lon="104.9587281"><ele>267.33</ele><time>2026-05-17T18:51:04.000Z</time></trkpt>
        <trkpt lat="29.6845374" lon="104.9586342"><ele>266.4</ele><time>2026-05-17T18:51:11.000Z</time></trkpt>
        <trkpt lat="29.6845849" lon="104.9585458"><ele>265.87</ele><time>2026-05-17T18:51:18.000Z</time></trkpt>
        <trkpt lat="29.6846262" lon="104.9584528"><ele>265.14</ele><time>2026-05-17T18:51:25.000Z</time></trkpt>
        <trkpt lat="29.6846759" lon="104.9583481"><ele>264.67</ele><time>2026-05-17T18:51:34.000Z</time></trkpt>
        <trkpt lat="29.6847621" lon="104.9582779"><ele>264.38</ele><time>2026-05-17T18:51:42.000Z</time></trkpt>
        <trkpt lat="29.6848585" lon="104.958242"><ele>264.54</ele><time>2026-05-17T18:51:48.000Z</time></trkpt>
        <trkpt lat="29.684922" lon="104.9581722"><ele>264.57</ele><time>2026-05-17T18:51:54.000Z</time></trkpt>
        <trkpt lat="29.6849623" lon="104.9580741"><ele>265.2</ele><time>2026-05-17T18:52:03.000Z</time></trkpt>
        <trkpt lat="29.6850278" lon="104.9580048"><ele>266.4</ele><time>2026-05-17T18:52:10.000Z</time></trkpt>
        <trkpt lat="29.6851079" lon="104.9579429"><ele>267.24</ele><time>2026-05-17T18:52:20.000Z</time></trkpt>
        <trkpt lat="29.6851929" lon="104.9578793"><ele>267.91</ele><time>2026-05-17T18:52:28.000Z</time></trkpt>
        <trkpt lat="29.6852458" lon="104.9577863"><ele>268.59</ele><time>2026-05-17T18:52:38.000Z</time></trkpt>
        <trkpt lat="29.6853101" lon="104.9576842"><ele>269.5</ele><time>2026-05-17T18:52:46.000Z</time></trkpt>
        <trkpt lat="29.6853759" lon="104.9576007"><ele>272.1</ele><time>2026-05-17T18:52:54.000Z</time></trkpt>
        <trkpt lat="29.6854319" lon="104.9575168"><ele>273.61</ele><time>2026-05-17T18:53:02.000Z</time></trkpt>
        <trkpt lat="29.6854172" lon="104.9575743"><ele>274.3</ele><time>2026-05-17T18:54:02.000Z</time></trkpt>
        <trkpt lat="29.6853569" lon="104.9576603"><ele>274.89</ele><time>2026-05-17T18:54:12.000Z</time></trkpt>
        <trkpt lat="29.6852749" lon="104.957755"><ele>275.01</ele><time>2026-05-17T18:54:19.000Z</time></trkpt>
        <trkpt lat="29.6852009" lon="104.9578458"><ele>274.64</ele><time>2026-05-17T18:54:26.000Z</time></trkpt>
        <trkpt lat="29.6851294" lon="104.9579293"><ele>274.55</ele><time>2026-05-17T18:54:34.000Z</time></trkpt>
        <trkpt lat="29.6850734" lon="104.9580192"><ele>274.37</ele><time>2026-05-17T18:54:56.000Z</time></trkpt>
        <trkpt lat="29.6851137" lon="104.9579787"><ele>274.26</ele><time>2026-05-17T18:55:12.000Z</time></trkpt>
        <trkpt lat="29.685185" lon="104.9578947"><ele>273.48</ele><time>2026-05-17T18:55:19.000Z</time></trkpt>
        <trkpt lat="29.6852531" lon="104.9577763"><ele>272.84</ele><time>2026-05-17T18:55:28.000Z</time></trkpt>
        <trkpt lat="29.6852262" lon="104.9576789"><ele>272.95</ele><time>2026-05-17T18:56:24.000Z</time></trkpt>
        <trkpt lat="29.6852095" lon="104.9576477"><ele>268.42</ele><time>2026-05-17T18:56:28.000Z</time></trkpt>
        <trkpt lat="29.6852271" lon="104.9575666"><ele>265.62</ele><time>2026-05-17T18:56:45.000Z</time></trkpt>
        <trkpt lat="29.6853008" lon="104.9574817"><ele>263.83</ele><time>2026-05-17T18:56:51.000Z</time></trkpt>
        <trkpt lat="29.6853992" lon="104.9574369"><ele>264.58</ele><time>2026-05-17T18:56:56.000Z</time></trkpt>
        <trkpt lat="29.6854918" lon="104.9573816"><ele>265.19</ele><time>2026-05-17T18:57:05.000Z</time></trkpt>
        <trkpt lat="29.6855536" lon="104.9572841"><ele>265.61</ele><time>2026-05-17T18:57:13.000Z</time></trkpt>
        <trkpt lat="29.6855623" lon="104.9571771"><ele>265.78</ele><time>2026-05-17T18:57:19.000Z</time></trkpt>
        <trkpt lat="29.6855623" lon="104.9571771"><ele>265.78</ele><time>2026-05-17T18:57:37.000Z</time></trkpt>
        <trkpt lat="29.6855733" lon="104.9570685"><ele>266.17</ele><time>2026-05-17T18:57:44.000Z</time></trkpt>
        <trkpt lat="29.6855733" lon="104.9570685"><ele>266.17</ele><time>2026-05-17T18:58:01.000Z</time></trkpt>
        <trkpt lat="29.6856004" lon="104.9569619"><ele>266.78</ele><time>2026-05-17T18:58:08.000Z</time></trkpt>
        <trkpt lat="29.6856514" lon="104.9568715"><ele>267.32</ele><time>2026-05-17T18:58:16.000Z</time></trkpt>
        <trkpt lat="29.6857015" lon="104.9567778"><ele>268.09</ele><time>2026-05-17T18:58:26.000Z</time></trkpt>
        <trkpt lat="29.6857582" lon="104.9566862"><ele>268.59</ele><time>2026-05-17T18:58:34.000Z</time></trkpt>
        <trkpt lat="29.6858227" lon="104.956607"><ele>268.37</ele><time>2026-05-17T18:58:39.000Z</time></trkpt>
        <trkpt lat="29.6858929" lon="104.9565245"><ele>268.73</ele><time>2026-05-17T18:58:46.000Z</time></trkpt>
        <trkpt lat="29.6859706" lon="104.9564652"><ele>269.97</ele><time>2026-05-17T18:58:53.000Z</time></trkpt>
        <trkpt lat="29.6860515" lon="104.9564009"><ele>270.91</ele><time>2026-05-17T18:59:03.000Z</time></trkpt>
        <trkpt lat="29.6861311" lon="104.9563364"><ele>271.58</ele><time>2026-05-17T18:59:11.000Z</time></trkpt>
        <trkpt lat="29.6862159" lon="104.9562791"><ele>271.71</ele><time>2026-05-17T18:59:19.000Z</time></trkpt>
        <trkpt lat="29.6863098" lon="104.9562382"><ele>271.95</ele><time>2026-05-17T18:59:26.000Z</time></trkpt>
        <trkpt lat="29.6864009" lon="104.9561987"><ele>271.95</ele><time>2026-05-17T18:59:33.000Z</time></trkpt>
        <trkpt lat="29.6864922" lon="104.9561763"><ele>271.93</ele><time>2026-05-17T18:59:41.000Z</time></trkpt>
        <trkpt lat="29.6865734" lon="104.9561313"><ele>272.48</ele><time>2026-05-17T18:59:47.000Z</time></trkpt>
        <trkpt lat="29.6866582" lon="104.956083"><ele>273.31</ele><time>2026-05-17T18:59:54.000Z</time></trkpt>
        <trkpt lat="29.6867492" lon="104.9560502"><ele>274</ele><time>2026-05-17T19:00:01.000Z</time></trkpt>
        <trkpt lat="29.6868479" lon="104.956031"><ele>274.58</ele><time>2026-05-17T19:00:10.000Z</time></trkpt>
        <trkpt lat="29.6869468" lon="104.9560113"><ele>274.56</ele><time>2026-05-17T19:00:18.000Z</time></trkpt>
        <trkpt lat="29.6870363" lon="104.9559723"><ele>274.21</ele><time>2026-05-17T19:00:25.000Z</time></trkpt>
        <trkpt lat="29.687126" lon="104.9559226"><ele>274.57</ele><time>2026-05-17T19:00:32.000Z</time></trkpt>
        <trkpt lat="29.687212" lon="104.9558829"><ele>275.31</ele><time>2026-05-17T19:00:39.000Z</time></trkpt>
        <trkpt lat="29.6872992" lon="104.955841"><ele>276.02</ele><time>2026-05-17T19:00:47.000Z</time></trkpt>
        <trkpt lat="29.6873923" lon="104.955803"><ele>276.72</ele><time>2026-05-17T19:00:56.000Z</time></trkpt>
        <trkpt lat="29.6874913" lon="104.9557719"><ele>277.39</ele><time>2026-05-17T19:01:02.000Z</time></trkpt>
        <trkpt lat="29.6876061" lon="104.9557398"><ele>277.56</ele><time>2026-05-17T19:01:10.000Z</time></trkpt>
        <trkpt lat="29.6877118" lon="104.9557193"><ele>277.5</ele><time>2026-05-17T19:01:19.000Z</time></trkpt>
        <trkpt lat="29.6878072" lon="104.9557097"><ele>277.4</ele><time>2026-05-17T19:01:25.000Z</time></trkpt>
        <trkpt lat="29.6878969" lon="104.955673"><ele>277.01</ele><time>2026-05-17T19:01:33.000Z</time></trkpt>
        <trkpt lat="29.687986" lon="104.9556357"><ele>275.77</ele><time>2026-05-17T19:01:42.000Z</time></trkpt>
        <trkpt lat="29.6880837" lon="104.9556069"><ele>274.55</ele><time>2026-05-17T19:01:48.000Z</time></trkpt>
        <trkpt lat="29.6881759" lon="104.9555733"><ele>273.59</ele><time>2026-05-17T19:01:54.000Z</time></trkpt>
        <trkpt lat="29.6882648" lon="104.9555308"><ele>272.72</ele><time>2026-05-17T19:02:02.000Z</time></trkpt>
        <trkpt lat="29.688355" lon="104.9554953"><ele>272.01</ele><time>2026-05-17T19:02:10.000Z</time></trkpt>
        <trkpt lat="29.6884482" lon="104.9554471"><ele>271.56</ele><time>2026-05-17T19:02:17.000Z</time></trkpt>
        <trkpt lat="29.6885308" lon="104.9553932"><ele>271.39</ele><time>2026-05-17T19:02:23.000Z</time></trkpt>
        <trkpt lat="29.6886257" lon="104.9553455"><ele>271.51</ele><time>2026-05-17T19:02:30.000Z</time></trkpt>
        <trkpt lat="29.6887232" lon="104.9553137"><ele>271.75</ele><time>2026-05-17T19:02:35.000Z</time></trkpt>
        <trkpt lat="29.688821" lon="104.955291"><ele>272.09</ele><time>2026-05-17T19:02:43.000Z</time></trkpt>
        <trkpt lat="29.6889157" lon="104.9552622"><ele>272.6</ele><time>2026-05-17T19:02:51.000Z</time></trkpt>
        <trkpt lat="29.6890086" lon="104.9552284"><ele>273</ele><time>2026-05-17T19:02:59.000Z</time></trkpt>
        <trkpt lat="29.6891062" lon="104.9551984"><ele>273.24</ele><time>2026-05-17T19:03:06.000Z</time></trkpt>
        <trkpt lat="29.6892" lon="104.9551674"><ele>273.34</ele><time>2026-05-17T19:03:13.000Z</time></trkpt>
        <trkpt lat="29.6892919" lon="104.9551317"><ele>273.33</ele><time>2026-05-17T19:03:22.000Z</time></trkpt>
        <trkpt lat="29.6893902" lon="104.9550937"><ele>273.43</ele><time>2026-05-17T19:03:30.000Z</time></trkpt>
        <trkpt lat="29.68948" lon="104.9550569"><ele>273.42</ele><time>2026-05-17T19:03:36.000Z</time></trkpt>
        <trkpt lat="29.6895702" lon="104.9550201"><ele>273.53</ele><time>2026-05-17T19:03:44.000Z</time></trkpt>
        <trkpt lat="29.6896588" lon="104.9549925"><ele>273.34</ele><time>2026-05-17T19:03:50.000Z</time></trkpt>
        <trkpt lat="29.6897478" lon="104.9549559"><ele>273.29</ele><time>2026-05-17T19:03:57.000Z</time></trkpt>
        <trkpt lat="29.6898343" lon="104.9549157"><ele>273.7</ele><time>2026-05-17T19:04:06.000Z</time></trkpt>
        <trkpt lat="29.6899319" lon="104.9548831"><ele>274.12</ele><time>2026-05-17T19:04:13.000Z</time></trkpt>
        <trkpt lat="29.6900341" lon="104.9548549"><ele>274.16</ele><time>2026-05-17T19:04:20.000Z</time></trkpt>
        <trkpt lat="29.6901262" lon="104.9548277"><ele>274.21</ele><time>2026-05-17T19:04:28.000Z</time></trkpt>
        <trkpt lat="29.6902222" lon="104.9548083"><ele>274.34</ele><time>2026-05-17T19:04:36.000Z</time></trkpt>
        <trkpt lat="29.690325" lon="104.954797"><ele>274.31</ele><time>2026-05-17T19:04:42.000Z</time></trkpt>
        <trkpt lat="29.6904056" lon="104.9547479"><ele>274.19</ele><time>2026-05-17T19:04:50.000Z</time></trkpt>
        <trkpt lat="29.6904883" lon="104.9547068"><ele>275.52</ele><time>2026-05-17T19:05:00.000Z</time></trkpt>
        <trkpt lat="29.690568" lon="104.9547426"><ele>276.23</ele><time>2026-05-17T19:05:07.000Z</time></trkpt>
        <trkpt lat="29.6906132" lon="104.9548331"><ele>275.84</ele><time>2026-05-17T19:05:27.000Z</time></trkpt>
        <trkpt lat="29.6906132" lon="104.9548331"><ele>275.84</ele><time>2026-05-17T19:06:01.000Z</time></trkpt>
        <trkpt lat="29.6906132" lon="104.9548331"><ele>275.84</ele><time>2026-05-17T19:06:02.000Z</time></trkpt>
        <trkpt lat="29.6906132" lon="104.9548331"><ele>275.84</ele><time>2026-05-17T19:06:29.000Z</time></trkpt>
        <trkpt lat="29.6904954" lon="104.9549495"><ele>274.21</ele><time>2026-05-17T19:06:50.000Z</time></trkpt>
        <trkpt lat="29.6904954" lon="104.9549495"><ele>274.21</ele><time>2026-05-17T19:06:53.000Z</time></trkpt>
        <trkpt lat="29.690595" lon="104.9549183"><ele>274.89</ele><time>2026-05-17T19:06:56.000Z</time></trkpt>
        <trkpt lat="29.690585" lon="104.9548231"><ele>274.01</ele><time>2026-05-17T19:07:00.000Z</time></trkpt>
        <trkpt lat="29.6905312" lon="104.9547241"><ele>273.59</ele><time>2026-05-17T19:07:02.000Z</time></trkpt>
        <trkpt lat="29.6904727" lon="104.9546174"><ele>272.35</ele><time>2026-05-17T19:07:05.000Z</time></trkpt>
        <trkpt lat="29.6904442" lon="104.9545663"><ele>272.14</ele><time>2026-05-17T19:07:06.000Z</time></trkpt>
        <trkpt lat="29.6904276" lon="104.9548542"><ele>272.03</ele><time>2026-05-17T19:07:25.000Z</time></trkpt>
        <trkpt lat="29.690507" lon="104.9548965"><ele>271.02</ele><time>2026-05-17T19:07:28.000Z</time></trkpt>
        <trkpt lat="29.6905145" lon="104.9548238"><ele>271.67</ele><time>2026-05-17T19:07:32.000Z</time></trkpt>
        <trkpt lat="29.6905436" lon="104.9547078"><ele>274.09</ele><time>2026-05-17T19:08:28.000Z</time></trkpt>
        <trkpt lat="29.6906174" lon="104.9546401"><ele>278.97</ele><time>2026-05-17T19:08:37.000Z</time></trkpt>
        <trkpt lat="29.6907101" lon="104.9545983"><ele>280.37</ele><time>2026-05-17T19:08:44.000Z</time></trkpt>
        <trkpt lat="29.6907101" lon="104.9545983"><ele>280.37</ele><time>2026-05-17T19:08:59.000Z</time></trkpt>
        <trkpt lat="29.690803" lon="104.9545641"><ele>280.01</ele><time>2026-05-17T19:09:10.000Z</time></trkpt>
        <trkpt lat="29.690803" lon="104.9545641"><ele>280.01</ele><time>2026-05-17T19:09:22.000Z</time></trkpt>
        <trkpt lat="29.6909014" lon="104.9545433"><ele>277.66</ele><time>2026-05-17T19:09:29.000Z</time></trkpt>
        <trkpt lat="29.6909936" lon="104.9545133"><ele>275.66</ele><time>2026-05-17T19:09:37.000Z</time></trkpt>
        <trkpt lat="29.691085" lon="104.9544886"><ele>274.02</ele><time>2026-05-17T19:09:45.000Z</time></trkpt>
        <trkpt lat="29.691181" lon="104.9544676"><ele>272.77</ele><time>2026-05-17T19:09:53.000Z</time></trkpt>
        <trkpt lat="29.6912797" lon="104.9544591"><ele>271.7</ele><time>2026-05-17T19:09:59.000Z</time></trkpt>
        <trkpt lat="29.691368" lon="104.954415"><ele>270.61</ele><time>2026-05-17T19:10:30.000Z</time></trkpt>
        <trkpt lat="29.6914501" lon="104.9543626"><ele>271.13</ele><time>2026-05-17T19:10:38.000Z</time></trkpt>
        <trkpt lat="29.6915422" lon="104.9543053"><ele>271.14</ele><time>2026-05-17T19:10:46.000Z</time></trkpt>
        <trkpt lat="29.6916308" lon="104.9542528"><ele>271.33</ele><time>2026-05-17T19:10:53.000Z</time></trkpt>
        <trkpt lat="29.6917106" lon="104.9541944"><ele>271.66</ele><time>2026-05-17T19:11:01.000Z</time></trkpt>
        <trkpt lat="29.6917844" lon="104.9541316"><ele>272.66</ele><time>2026-05-17T19:11:08.000Z</time></trkpt>
        <trkpt lat="29.6918649" lon="104.9540633"><ele>272.77</ele><time>2026-05-17T19:11:16.000Z</time></trkpt>
        <trkpt lat="29.6919355" lon="104.9539884"><ele>272.75</ele><time>2026-05-17T19:11:22.000Z</time></trkpt>
        <trkpt lat="29.6919888" lon="104.9538947"><ele>272.54</ele><time>2026-05-17T19:11:31.000Z</time></trkpt>
        <trkpt lat="29.6920319" lon="104.9537969"><ele>272.66</ele><time>2026-05-17T19:11:38.000Z</time></trkpt>
        <trkpt lat="29.6920795" lon="104.9537037"><ele>273.08</ele><time>2026-05-17T19:11:45.000Z</time></trkpt>
        <trkpt lat="29.6921229" lon="104.9536099"><ele>273.43</ele><time>2026-05-17T19:11:54.000Z</time></trkpt>
        <trkpt lat="29.6921788" lon="104.9535231"><ele>273.75</ele><time>2026-05-17T19:12:13.000Z</time></trkpt>
        <trkpt lat="29.6921874" lon="104.9534231"><ele>275.65</ele><time>2026-05-17T19:13:10.000Z</time></trkpt>
        <trkpt lat="29.6922211" lon="104.9533253"><ele>279.47</ele><time>2026-05-17T19:13:18.000Z</time></trkpt>
        <trkpt lat="29.6922647" lon="104.9532163"><ele>281.12</ele><time>2026-05-17T19:13:25.000Z</time></trkpt>
        <trkpt lat="29.6923181" lon="104.9531179"><ele>281.99</ele><time>2026-05-17T19:13:34.000Z</time></trkpt>
        <trkpt lat="29.6923696" lon="104.9530266"><ele>281.3</ele><time>2026-05-17T19:13:43.000Z</time></trkpt>
        <trkpt lat="29.6924142" lon="104.9529305"><ele>280.22</ele><time>2026-05-17T19:13:49.000Z</time></trkpt>
        <trkpt lat="29.6924391" lon="104.9528189"><ele>279.2</ele><time>2026-05-17T19:13:55.000Z</time></trkpt>
        <trkpt lat="29.6924647" lon="104.9527157"><ele>278.56</ele><time>2026-05-17T19:14:01.000Z</time></trkpt>
        <trkpt lat="29.6924969" lon="104.9526179"><ele>278.28</ele><time>2026-05-17T19:14:08.000Z</time></trkpt>
        <trkpt lat="29.6925329" lon="104.9525207"><ele>278.19</ele><time>2026-05-17T19:14:16.000Z</time></trkpt>
        <trkpt lat="29.6925735" lon="104.952425"><ele>278.14</ele><time>2026-05-17T19:14:22.000Z</time></trkpt>
        <trkpt lat="29.692611" lon="104.9523174"><ele>278.16</ele><time>2026-05-17T19:14:29.000Z</time></trkpt>
        <trkpt lat="29.6926272" lon="104.9522114"><ele>277.86</ele><time>2026-05-17T19:14:36.000Z</time></trkpt>
        <trkpt lat="29.6926532" lon="104.9521061"><ele>278.07</ele><time>2026-05-17T19:14:45.000Z</time></trkpt>
        <trkpt lat="29.6926913" lon="104.9520082"><ele>278.07</ele><time>2026-05-17T19:15:01.000Z</time></trkpt>
        <trkpt lat="29.6927326" lon="104.9519128"><ele>277.74</ele><time>2026-05-17T19:15:08.000Z</time></trkpt>
        <trkpt lat="29.6927923" lon="104.9518212"><ele>277.69</ele><time>2026-05-17T19:15:16.000Z</time></trkpt>
        <trkpt lat="29.6928625" lon="104.9517469"><ele>278.19</ele><time>2026-05-17T19:15:23.000Z</time></trkpt>
        <trkpt lat="29.6929399" lon="104.9516841"><ele>278.72</ele><time>2026-05-17T19:15:30.000Z</time></trkpt>
        <trkpt lat="29.6930139" lon="104.9516204"><ele>278.61</ele><time>2026-05-17T19:15:38.000Z</time></trkpt>
        <trkpt lat="29.6930956" lon="104.9515585"><ele>278.63</ele><time>2026-05-17T19:15:47.000Z</time></trkpt>
        <trkpt lat="29.6931826" lon="104.9515045"><ele>279.37</ele><time>2026-05-17T19:15:55.000Z</time></trkpt>
        <trkpt lat="29.6932639" lon="104.9514412"><ele>280.51</ele><time>2026-05-17T19:16:02.000Z</time></trkpt>
        <trkpt lat="29.6933537" lon="104.9513826"><ele>281.69</ele><time>2026-05-17T19:16:10.000Z</time></trkpt>
        <trkpt lat="29.6934367" lon="104.9513282"><ele>282.48</ele><time>2026-05-17T19:16:18.000Z</time></trkpt>
        <trkpt lat="29.6934501" lon="104.9512286"><ele>282.74</ele><time>2026-05-17T19:16:28.000Z</time></trkpt>
        <trkpt lat="29.6934501" lon="104.9512286"><ele>282.74</ele><time>2026-05-17T19:16:43.000Z</time></trkpt>
        <trkpt lat="29.6934241" lon="104.9511149"><ele>282.34</ele><time>2026-05-17T19:17:16.000Z</time></trkpt>
        <trkpt lat="29.6934241" lon="104.9511149"><ele>282.34</ele><time>2026-05-17T19:17:22.000Z</time></trkpt>
        <trkpt lat="29.6934241" lon="104.9511149"><ele>282.34</ele><time>2026-05-17T19:18:05.000Z</time></trkpt>
        <trkpt lat="29.6933818" lon="104.9510006"><ele>282.21</ele><time>2026-05-17T19:18:10.000Z</time></trkpt>
        <trkpt lat="29.6933818" lon="104.9510006"><ele>282.21</ele><time>2026-05-17T19:18:40.000Z</time></trkpt>
        <trkpt lat="29.6934324" lon="104.950912"><ele>282.16</ele><time>2026-05-17T19:18:53.000Z</time></trkpt>
        <trkpt lat="29.6934945" lon="104.9508273"><ele>282.25</ele><time>2026-05-17T19:19:04.000Z</time></trkpt>
        <trkpt lat="29.6935503" lon="104.9507347"><ele>281.72</ele><time>2026-05-17T19:19:13.000Z</time></trkpt>
        <trkpt lat="29.6936103" lon="104.9506465"><ele>281.29</ele><time>2026-05-17T19:19:20.000Z</time></trkpt>
        <trkpt lat="29.6936872" lon="104.9505571"><ele>281.13</ele><time>2026-05-17T19:19:28.000Z</time></trkpt>
        <trkpt lat="29.6937712" lon="104.9504855"><ele>280.66</ele><time>2026-05-17T19:19:36.000Z</time></trkpt>
        <trkpt lat="29.6938369" lon="104.9503975"><ele>280.03</ele><time>2026-05-17T19:19:42.000Z</time></trkpt>
        <trkpt lat="29.693869" lon="104.9502954"><ele>279.79</ele><time>2026-05-17T19:19:48.000Z</time></trkpt>
        <trkpt lat="29.6938648" lon="104.9501868"><ele>279.34</ele><time>2026-05-17T19:19:55.000Z</time></trkpt>
        <trkpt lat="29.6938563" lon="104.9500781"><ele>278.99</ele><time>2026-05-17T19:20:01.000Z</time></trkpt>
        <trkpt lat="29.693873" lon="104.94997"><ele>278.99</ele><time>2026-05-17T19:20:08.000Z</time></trkpt>
        <trkpt lat="29.6939013" lon="104.9498664"><ele>279.29</ele><time>2026-05-17T19:20:15.000Z</time></trkpt>
        <trkpt lat="29.6939433" lon="104.9497712"><ele>279.38</ele><time>2026-05-17T19:20:23.000Z</time></trkpt>
        <trkpt lat="29.6940049" lon="104.9496875"><ele>279.25</ele><time>2026-05-17T19:20:32.000Z</time></trkpt>
        <trkpt lat="29.6940948" lon="104.9496143"><ele>278.97</ele><time>2026-05-17T19:20:40.000Z</time></trkpt>
        <trkpt lat="29.6941836" lon="104.9495557"><ele>278.7</ele><time>2026-05-17T19:20:47.000Z</time></trkpt>
        <trkpt lat="29.6942707" lon="104.9495034"><ele>278.77</ele><time>2026-05-17T19:20:54.000Z</time></trkpt>
        <trkpt lat="29.6943403" lon="104.9494282"><ele>279.2</ele><time>2026-05-17T19:21:02.000Z</time></trkpt>
        <trkpt lat="29.6943246" lon="104.9493241"><ele>279.83</ele><time>2026-05-17T19:21:34.000Z</time></trkpt>
        <trkpt lat="29.694251" lon="104.9492529"><ele>280.61</ele><time>2026-05-17T19:21:44.000Z</time></trkpt>
        <trkpt lat="29.69416" lon="104.9491923"><ele>281.87</ele><time>2026-05-17T19:21:52.000Z</time></trkpt>
        <trkpt lat="29.6940653" lon="104.9491244"><ele>282.77</ele><time>2026-05-17T19:21:59.000Z</time></trkpt>
        <trkpt lat="29.6939755" lon="104.9490598"><ele>283.28</ele><time>2026-05-17T19:22:06.000Z</time></trkpt>
        <trkpt lat="29.693911" lon="104.948981"><ele>283.21</ele><time>2026-05-17T19:22:15.000Z</time></trkpt>
        <trkpt lat="29.6939438" lon="104.9489003"><ele>282.23</ele><time>2026-05-17T19:22:35.000Z</time></trkpt>
        <trkpt lat="29.6940371" lon="104.9488747"><ele>280.53</ele><time>2026-05-17T19:22:40.000Z</time></trkpt>
        <trkpt lat="29.6941357" lon="104.948907"><ele>280.15</ele><time>2026-05-17T19:22:48.000Z</time></trkpt>
        <trkpt lat="29.6942231" lon="104.9488663"><ele>281.01</ele><time>2026-05-17T19:23:04.000Z</time></trkpt>
        <trkpt lat="29.6943088" lon="104.9488151"><ele>281.41</ele><time>2026-05-17T19:23:17.000Z</time></trkpt>
        <trkpt lat="29.6943597" lon="104.948724"><ele>283.18</ele><time>2026-05-17T19:23:46.000Z</time></trkpt>
        <trkpt lat="29.6943631" lon="104.9486125"><ele>287.12</ele><time>2026-05-17T19:23:54.000Z</time></trkpt>
        <trkpt lat="29.6943495" lon="104.948499"><ele>290</ele><time>2026-05-17T19:24:04.000Z</time></trkpt>
        <trkpt lat="29.6942993" lon="104.9484044"><ele>292.69</ele><time>2026-05-17T19:24:17.000Z</time></trkpt>
        <trkpt lat="29.6943299" lon="104.9483246"><ele>295.44</ele><time>2026-05-17T19:24:30.000Z</time></trkpt>
        <trkpt lat="29.6943458" lon="104.9482249"><ele>297.01</ele><time>2026-05-17T19:24:52.000Z</time></trkpt>
        <trkpt lat="29.6943468" lon="104.9481188"><ele>298.78</ele><time>2026-05-17T19:25:03.000Z</time></trkpt>
        <trkpt lat="29.6943408" lon="104.9480133"><ele>300.43</ele><time>2026-05-17T19:25:13.000Z</time></trkpt>
        <trkpt lat="29.6943557" lon="104.9479055"><ele>301.83</ele><time>2026-05-17T19:25:28.000Z</time></trkpt>
        <trkpt lat="29.694303" lon="104.9478252"><ele>302.79</ele><time>2026-05-17T19:25:38.000Z</time></trkpt>
        <trkpt lat="29.6942203" lon="104.9477633"><ele>303.81</ele><time>2026-05-17T19:25:47.000Z</time></trkpt>
        <trkpt lat="29.6941396" lon="104.9476933"><ele>304.84</ele><time>2026-05-17T19:25:57.000Z</time></trkpt>
        <trkpt lat="29.6941611" lon="104.9476132"><ele>306.56</ele><time>2026-05-17T19:26:12.000Z</time></trkpt>
        <trkpt lat="29.6942465" lon="104.9475817"><ele>307.56</ele><time>2026-05-17T19:26:22.000Z</time></trkpt>
        <trkpt lat="29.6943502" lon="104.9475644"><ele>308.4</ele><time>2026-05-17T19:26:37.000Z</time></trkpt>
        <trkpt lat="29.6944473" lon="104.9475186"><ele>310.26</ele><time>2026-05-17T19:26:49.000Z</time></trkpt>
        <trkpt lat="29.69454" lon="104.9474695"><ele>311.43</ele><time>2026-05-17T19:26:59.000Z</time></trkpt>
        <trkpt lat="29.6946203" lon="104.947411"><ele>311.76</ele><time>2026-05-17T19:27:08.000Z</time></trkpt>
        <trkpt lat="29.694687" lon="104.9473237"><ele>312.17</ele><time>2026-05-17T19:27:17.000Z</time></trkpt>
        <trkpt lat="29.6947699" lon="104.9472592"><ele>312.77</ele><time>2026-05-17T19:27:26.000Z</time></trkpt>
        <trkpt lat="29.6948511" lon="104.9472045"><ele>313.29</ele><time>2026-05-17T19:27:37.000Z</time></trkpt>
        <trkpt lat="29.6948218" lon="104.9471369"><ele>314.2</ele><time>2026-05-17T19:27:59.000Z</time></trkpt>
        <trkpt lat="29.6947283" lon="104.9471255"><ele>315.61</ele><time>2026-05-17T19:28:08.000Z</time></trkpt>
        <trkpt lat="29.6946247" lon="104.9471521"><ele>316.76</ele><time>2026-05-17T19:28:20.000Z</time></trkpt>
        <trkpt lat="29.694525" lon="104.9471872"><ele>319.55</ele><time>2026-05-17T19:28:30.000Z</time></trkpt>
        <trkpt lat="29.6944298" lon="104.947184"><ele>322.21</ele><time>2026-05-17T19:28:39.000Z</time></trkpt>
        <trkpt lat="29.6943466" lon="104.9471389"><ele>324.23</ele><time>2026-05-17T19:28:49.000Z</time></trkpt>
        <trkpt lat="29.6942708" lon="104.9470772"><ele>326.35</ele><time>2026-05-17T19:28:57.000Z</time></trkpt>
        <trkpt lat="29.6942066" lon="104.9469937"><ele>327.88</ele><time>2026-05-17T19:29:06.000Z</time></trkpt>
        <trkpt lat="29.6941838" lon="104.9468897"><ele>329.34</ele><time>2026-05-17T19:29:18.000Z</time></trkpt>
        <trkpt lat="29.6941652" lon="104.946783"><ele>330.99</ele><time>2026-05-17T19:29:30.000Z</time></trkpt>
        <trkpt lat="29.694223" lon="104.9467027"><ele>333.2</ele><time>2026-05-17T19:29:52.000Z</time></trkpt>
        <trkpt lat="29.6943008" lon="104.946634"><ele>334.88</ele><time>2026-05-17T19:30:16.000Z</time></trkpt>
        <trkpt lat="29.6942435" lon="104.9466985"><ele>336.47</ele><time>2026-05-17T19:31:32.000Z</time></trkpt>
        <trkpt lat="29.6941529" lon="104.9467047"><ele>339.59</ele><time>2026-05-17T19:31:42.000Z</time></trkpt>
        <trkpt lat="29.6940852" lon="104.9466392"><ele>341.06</ele><time>2026-05-17T19:31:59.000Z</time></trkpt>
        <trkpt lat="29.6941335" lon="104.9465879"><ele>341.67</ele><time>2026-05-17T19:32:15.000Z</time></trkpt>
        <trkpt lat="29.6942191" lon="104.9465311"><ele>341.67</ele><time>2026-05-17T19:32:27.000Z</time></trkpt>
        <trkpt lat="29.6943209" lon="104.9465121"><ele>341.58</ele><time>2026-05-17T19:32:42.000Z</time></trkpt>
        <trkpt lat="29.6944125" lon="104.9464683"><ele>341.16</ele><time>2026-05-17T19:33:07.000Z</time></trkpt>
        <trkpt lat="29.6945099" lon="104.9464766"><ele>341.38</ele><time>2026-05-17T19:33:32.000Z</time></trkpt>
        <trkpt lat="29.6944212" lon="104.9464736"><ele>342.31</ele><time>2026-05-17T19:34:33.000Z</time></trkpt>
        <trkpt lat="29.6943393" lon="104.9465202"><ele>342.62</ele><time>2026-05-17T19:34:58.000Z</time></trkpt>
        <trkpt lat="29.6942523" lon="104.9464901"><ele>343.91</ele><time>2026-05-17T19:35:09.000Z</time></trkpt>
        <trkpt lat="29.6941785" lon="104.946532"><ele>344.66</ele><time>2026-05-17T19:35:27.000Z</time></trkpt>
        <trkpt lat="29.6941014" lon="104.9465903"><ele>345.15</ele><time>2026-05-17T19:35:36.000Z</time></trkpt>
        <trkpt lat="29.6940157" lon="104.946628"><ele>345.18</ele><time>2026-05-17T19:35:50.000Z</time></trkpt>
        <trkpt lat="29.6939403" lon="104.9465891"><ele>344.32</ele><time>2026-05-17T19:36:05.000Z</time></trkpt>
        <trkpt lat="29.6938843" lon="104.946501"><ele>342.25</ele><time>2026-05-17T19:36:10.000Z</time></trkpt>
        <trkpt lat="29.6938977" lon="104.9463885"><ele>340.58</ele><time>2026-05-17T19:36:21.000Z</time></trkpt>
        <trkpt lat="29.6939609" lon="104.9462978"><ele>339.12</ele><time>2026-05-17T19:36:38.000Z</time></trkpt>
        <trkpt lat="29.6940465" lon="104.9462146"><ele>337.37</ele><time>2026-05-17T19:36:47.000Z</time></trkpt>
        <trkpt lat="29.6941328" lon="104.9461475"><ele>335.98</ele><time>2026-05-17T19:36:55.000Z</time></trkpt>
        <trkpt lat="29.6942166" lon="104.9460794"><ele>335.23</ele><time>2026-05-17T19:37:02.000Z</time></trkpt>
        <trkpt lat="29.6942968" lon="104.9460145"><ele>334.63</ele><time>2026-05-17T19:37:11.000Z</time></trkpt>
        <trkpt lat="29.6943797" lon="104.9459676"><ele>334.49</ele><time>2026-05-17T19:37:20.000Z</time></trkpt>
        <trkpt lat="29.6943331" lon="104.9459768"><ele>334.52</ele><time>2026-05-17T19:37:43.000Z</time></trkpt>
        <trkpt lat="29.6942578" lon="104.9460407"><ele>334.75</ele><time>2026-05-17T19:37:51.000Z</time></trkpt>
        <trkpt lat="29.6941755" lon="104.9461199"><ele>334.14</ele><time>2026-05-17T19:38:04.000Z</time></trkpt>
        <trkpt lat="29.694096" lon="104.9462"><ele>333.6</ele><time>2026-05-17T19:38:11.000Z</time></trkpt>
        <trkpt lat="29.6940162" lon="104.9462774"><ele>333.48</ele><time>2026-05-17T19:38:20.000Z</time></trkpt>
        <trkpt lat="29.6939402" lon="104.9463579"><ele>333.6</ele><time>2026-05-17T19:38:29.000Z</time></trkpt>
        <trkpt lat="29.693903" lon="104.9462993"><ele>333.41</ele><time>2026-05-17T19:38:44.000Z</time></trkpt>
        <trkpt lat="29.6938367" lon="104.9462207"><ele>333.07</ele><time>2026-05-17T19:39:02.000Z</time></trkpt>
        <trkpt lat="29.6937483" lon="104.946205"><ele>331.07</ele><time>2026-05-17T19:39:10.000Z</time></trkpt>
        <trkpt lat="29.6936623" lon="104.946246"><ele>329.4</ele><time>2026-05-17T19:39:23.000Z</time></trkpt>
        <trkpt lat="29.6935587" lon="104.9462488"><ele>327.23</ele><time>2026-05-17T19:39:31.000Z</time></trkpt>
        <trkpt lat="29.6934524" lon="104.9462205"><ele>325.33</ele><time>2026-05-17T19:39:35.000Z</time></trkpt>
        <trkpt lat="29.6933595" lon="104.9461782"><ele>323.7</ele><time>2026-05-17T19:39:42.000Z</time></trkpt>
        <trkpt lat="29.693313" lon="104.9460815"><ele>321.85</ele><time>2026-05-17T19:39:53.000Z</time></trkpt>
        <trkpt lat="29.6933411" lon="104.9459713"><ele>319.46</ele><time>2026-05-17T19:40:01.000Z</time></trkpt>
        <trkpt lat="29.6934124" lon="104.9458625"><ele>317.76</ele><time>2026-05-17T19:40:10.000Z</time></trkpt>
        <trkpt lat="29.6934949" lon="104.9457727"><ele>316.82</ele><time>2026-05-17T19:40:18.000Z</time></trkpt>
        <trkpt lat="29.6935765" lon="104.9457035"><ele>315.52</ele><time>2026-05-17T19:40:26.000Z</time></trkpt>
        <trkpt lat="29.6936722" lon="104.9456609"><ele>314.15</ele><time>2026-05-17T19:40:32.000Z</time></trkpt>
        <trkpt lat="29.6937693" lon="104.9456362"><ele>312.79</ele><time>2026-05-17T19:40:40.000Z</time></trkpt>
        <trkpt lat="29.6938635" lon="104.9455997"><ele>312.3</ele><time>2026-05-17T19:40:48.000Z</time></trkpt>
        <trkpt lat="29.6939207" lon="104.9455193"><ele>312</ele><time>2026-05-17T19:40:57.000Z</time></trkpt>
        <trkpt lat="29.6939519" lon="104.9454156"><ele>311.93</ele><time>2026-05-17T19:41:04.000Z</time></trkpt>
        <trkpt lat="29.6939639" lon="104.9453061"><ele>312.19</ele><time>2026-05-17T19:41:10.000Z</time></trkpt>
        <trkpt lat="29.6939859" lon="104.9451986"><ele>312.24</ele><time>2026-05-17T19:41:18.000Z</time></trkpt>
        <trkpt lat="29.694016" lon="104.9450905"><ele>312.7</ele><time>2026-05-17T19:41:26.000Z</time></trkpt>
        <trkpt lat="29.6940392" lon="104.9449843"><ele>312.95</ele><time>2026-05-17T19:41:40.000Z</time></trkpt>
        <trkpt lat="29.6940764" lon="104.9448801"><ele>313.62</ele><time>2026-05-17T19:41:54.000Z</time></trkpt>
        <trkpt lat="29.6941477" lon="104.9448105"><ele>313.27</ele><time>2026-05-17T19:42:09.000Z</time></trkpt>
        <trkpt lat="29.6942394" lon="104.9447742"><ele>312.29</ele><time>2026-05-17T19:42:22.000Z</time></trkpt>
        <trkpt lat="29.6942204" lon="104.9447055"><ele>310.45</ele><time>2026-05-17T19:42:35.000Z</time></trkpt>
        <trkpt lat="29.6941554" lon="104.9446302"><ele>308.05</ele><time>2026-05-17T19:42:43.000Z</time></trkpt>
        <trkpt lat="29.6941118" lon="104.9445192"><ele>306.64</ele><time>2026-05-17T19:42:50.000Z</time></trkpt>
        <trkpt lat="29.6940801" lon="104.9444111"><ele>305.31</ele><time>2026-05-17T19:43:01.000Z</time></trkpt>
        <trkpt lat="29.6940493" lon="104.944308"><ele>303.89</ele><time>2026-05-17T19:43:14.000Z</time></trkpt>
        <trkpt lat="29.6940804" lon="104.9442153"><ele>302.03</ele><time>2026-05-17T19:43:24.000Z</time></trkpt>
        <trkpt lat="29.6941322" lon="104.9441208"><ele>299.55</ele><time>2026-05-17T19:43:33.000Z</time></trkpt>
        <trkpt lat="29.6941435" lon="104.9441762"><ele>297.8</ele><time>2026-05-17T19:44:05.000Z</time></trkpt>
        <trkpt lat="29.6940966" lon="104.944262"><ele>296.35</ele><time>2026-05-17T19:44:17.000Z</time></trkpt>
        <trkpt lat="29.694092" lon="104.9443737"><ele>295.09</ele><time>2026-05-17T19:44:28.000Z</time></trkpt>
        <trkpt lat="29.694143" lon="104.9444678"><ele>294.53</ele><time>2026-05-17T19:44:38.000Z</time></trkpt>
        <trkpt lat="29.6942293" lon="104.9444706"><ele>294.29</ele><time>2026-05-17T19:44:55.000Z</time></trkpt>
        <trkpt lat="29.6943181" lon="104.944424"><ele>294.24</ele><time>2026-05-17T19:45:06.000Z</time></trkpt>
        <trkpt lat="29.6942708" lon="104.944438"><ele>294.27</ele><time>2026-05-17T19:45:20.000Z</time></trkpt>
        <trkpt lat="29.6941836" lon="104.9444809"><ele>294.99</ele><time>2026-05-17T19:45:31.000Z</time></trkpt>
        <trkpt lat="29.6940999" lon="104.9444372"><ele>295.24</ele><time>2026-05-17T19:45:45.000Z</time></trkpt>
        <trkpt lat="29.6940091" lon="104.9443859"><ele>295.46</ele><time>2026-05-17T19:45:55.000Z</time></trkpt>
        <trkpt lat="29.6939231" lon="104.9443304"><ele>295.17</ele><time>2026-05-17T19:46:08.000Z</time></trkpt>
        <trkpt lat="29.6938312" lon="104.9442804"><ele>294.34</ele><time>2026-05-17T19:46:18.000Z</time></trkpt>
        <trkpt lat="29.6937354" lon="104.9442987"><ele>293.62</ele><time>2026-05-17T19:46:29.000Z</time></trkpt>
        <trkpt lat="29.6936458" lon="104.9442809"><ele>293.58</ele><time>2026-05-17T19:46:48.000Z</time></trkpt>
        <trkpt lat="29.6935586" lon="104.9442434"><ele>294.63</ele><time>2026-05-17T19:46:55.000Z</time></trkpt>
        <trkpt lat="29.6934783" lon="104.9441856"><ele>295.15</ele><time>2026-05-17T19:47:06.000Z</time></trkpt>
        <trkpt lat="29.6934839" lon="104.9440904"><ele>295.78</ele><time>2026-05-17T19:47:15.000Z</time></trkpt>
        <trkpt lat="29.6935267" lon="104.9439805"><ele>295.65</ele><time>2026-05-17T19:47:22.000Z</time></trkpt>
        <trkpt lat="29.6935682" lon="104.9438725"><ele>294.58</ele><time>2026-05-17T19:47:31.000Z</time></trkpt>
        <trkpt lat="29.6935448" lon="104.9437725"><ele>293.27</ele><time>2026-05-17T19:47:40.000Z</time></trkpt>
        <trkpt lat="29.6934722" lon="104.9437144"><ele>292.03</ele><time>2026-05-17T19:48:00.000Z</time></trkpt>
        <trkpt lat="29.6934137" lon="104.9436343"><ele>291.48</ele><time>2026-05-17T19:48:19.000Z</time></trkpt>
        <trkpt lat="29.693349" lon="104.9435479"><ele>290.77</ele><time>2026-05-17T19:48:28.000Z</time></trkpt>
        <trkpt lat="29.6933336" lon="104.9434419"><ele>290.05</ele><time>2026-05-17T19:48:35.000Z</time></trkpt>
        <trkpt lat="29.6933243" lon="104.9433326"><ele>288.89</ele><time>2026-05-17T19:48:43.000Z</time></trkpt>
        <trkpt lat="29.6933124" lon="104.9432198"><ele>287.75</ele><time>2026-05-17T19:48:53.000Z</time></trkpt>
        <trkpt lat="29.6933094" lon="104.9431047"><ele>287.17</ele><time>2026-05-17T19:49:02.000Z</time></trkpt>
        <trkpt lat="29.6932922" lon="104.94299"><ele>286.88</ele><time>2026-05-17T19:49:10.000Z</time></trkpt>
        <trkpt lat="29.69328" lon="104.9428803"><ele>286.53</ele><time>2026-05-17T19:49:17.000Z</time></trkpt>
        <trkpt lat="29.6933597" lon="104.9428272"><ele>286.09</ele><time>2026-05-17T19:50:51.000Z</time></trkpt>
        <trkpt lat="29.693272" lon="104.9427814"><ele>287.34</ele><time>2026-05-17T19:51:26.000Z</time></trkpt>
        <trkpt lat="29.6932644" lon="104.9426869"><ele>288.16</ele><time>2026-05-17T19:51:32.000Z</time></trkpt>
        <trkpt lat="29.6932731" lon="104.9425829"><ele>288.58</ele><time>2026-05-17T19:51:39.000Z</time></trkpt>
        <trkpt lat="29.6932536" lon="104.9424791"><ele>288.71</ele><time>2026-05-17T19:51:50.000Z</time></trkpt>
        <trkpt lat="29.6932237" lon="104.9423719"><ele>288.24</ele><time>2026-05-17T19:52:10.000Z</time></trkpt>
        <trkpt lat="29.6932141" lon="104.9422611"><ele>288.09</ele><time>2026-05-17T19:52:25.000Z</time></trkpt>
        <trkpt lat="29.6932092" lon="104.942151"><ele>287.94</ele><time>2026-05-17T19:52:33.000Z</time></trkpt>
        <trkpt lat="29.6931915" lon="104.9420451"><ele>288.33</ele><time>2026-05-17T19:52:41.000Z</time></trkpt>
        <trkpt lat="29.693162" lon="104.9419359"><ele>288.79</ele><time>2026-05-17T19:52:49.000Z</time></trkpt>
        <trkpt lat="29.693162" lon="104.9418206"><ele>288.65</ele><time>2026-05-17T19:52:56.000Z</time></trkpt>
        <trkpt lat="29.6931617" lon="104.9417032"><ele>288.41</ele><time>2026-05-17T19:53:05.000Z</time></trkpt>
        <trkpt lat="29.6931393" lon="104.9415977"><ele>287.92</ele><time>2026-05-17T19:53:33.000Z</time></trkpt>
        <trkpt lat="29.6931017" lon="104.9414987"><ele>287.81</ele><time>2026-05-17T19:53:38.000Z</time></trkpt>
        <trkpt lat="29.6930471" lon="104.9414062"><ele>287.75</ele><time>2026-05-17T19:53:48.000Z</time></trkpt>
        <trkpt lat="29.6930471" lon="104.9414062"><ele>287.75</ele><time>2026-05-17T19:54:07.000Z</time></trkpt>
        <trkpt lat="29.692995" lon="104.9413118"><ele>287.95</ele><time>2026-05-17T19:54:10.000Z</time></trkpt>
        <trkpt lat="29.692995" lon="104.9413118"><ele>287.95</ele><time>2026-05-17T19:54:17.000Z</time></trkpt>
        <trkpt lat="29.692995" lon="104.9413118"><ele>287.95</ele><time>2026-05-17T19:55:25.000Z</time></trkpt>
        <trkpt lat="29.692995" lon="104.9413118"><ele>287.95</ele><time>2026-05-17T19:55:26.000Z</time></trkpt>
        <trkpt lat="29.692995" lon="104.9413118"><ele>287.95</ele><time>2026-05-17T19:56:05.000Z</time></trkpt>
        <trkpt lat="29.6930583" lon="104.941384"><ele>288.04</ele><time>2026-05-17T19:56:08.000Z</time></trkpt>
        <trkpt lat="29.6930583" lon="104.941384"><ele>288.04</ele><time>2026-05-17T19:56:25.000Z</time></trkpt>
        <trkpt lat="29.6931235" lon="104.9414572"><ele>289.32</ele><time>2026-05-17T19:56:41.000Z</time></trkpt>
        <trkpt lat="29.6931774" lon="104.9415456"><ele>289.97</ele><time>2026-05-17T19:56:47.000Z</time></trkpt>
        <trkpt lat="29.6932027" lon="104.9416541"><ele>289.88</ele><time>2026-05-17T19:56:55.000Z</time></trkpt>
        <trkpt lat="29.6932033" lon="104.94177"><ele>289.54</ele><time>2026-05-17T19:57:02.000Z</time></trkpt>
        <trkpt lat="29.6932033" lon="104.9418918"><ele>289.65</ele><time>2026-05-17T19:57:10.000Z</time></trkpt>
        <trkpt lat="29.6932087" lon="104.9420141"><ele>290.23</ele><time>2026-05-17T19:57:17.000Z</time></trkpt>
        <trkpt lat="29.6932242" lon="104.9421293"><ele>290.85</ele><time>2026-05-17T19:57:24.000Z</time></trkpt>
        <trkpt lat="29.6932669" lon="104.9422271"><ele>291.08</ele><time>2026-05-17T19:57:34.000Z</time></trkpt>
        <trkpt lat="29.6932861" lon="104.9423271"><ele>291.14</ele><time>2026-05-17T19:57:41.000Z</time></trkpt>
        <trkpt lat="29.6933114" lon="104.9424358"><ele>291.01</ele><time>2026-05-17T19:57:48.000Z</time></trkpt>
        <trkpt lat="29.6933275" lon="104.9425472"><ele>291.19</ele><time>2026-05-17T19:57:56.000Z</time></trkpt>
        <trkpt lat="29.6933997" lon="104.9425657"><ele>291.67</ele><time>2026-05-17T19:58:07.000Z</time></trkpt>
        <trkpt lat="29.6934917" lon="104.9425281"><ele>291.69</ele><time>2026-05-17T19:58:15.000Z</time></trkpt>
        <trkpt lat="29.6935857" lon="104.9424772"><ele>291.92</ele><time>2026-05-17T19:58:23.000Z</time></trkpt>
        <trkpt lat="29.6936841" lon="104.9424448"><ele>291.72</ele><time>2026-05-17T19:58:32.000Z</time></trkpt>
        <trkpt lat="29.6937801" lon="104.942439"><ele>290.73</ele><time>2026-05-17T19:58:42.000Z</time></trkpt>
        <trkpt lat="29.6938389" lon="104.9425109"><ele>290.25</ele><time>2026-05-17T19:58:51.000Z</time></trkpt>
        <trkpt lat="29.6938436" lon="104.9426192"><ele>290.39</ele><time>2026-05-17T19:59:07.000Z</time></trkpt>
        <trkpt lat="29.6938436" lon="104.9426192"><ele>290.39</ele><time>2026-05-17T19:59:35.000Z</time></trkpt>
        <trkpt lat="29.6938436" lon="104.9426192"><ele>290.39</ele><time>2026-05-17T19:59:36.000Z</time></trkpt>
        <trkpt lat="29.6938436" lon="104.9426192"><ele>290.39</ele><time>2026-05-17T20:00:01.000Z</time></trkpt>
        <trkpt lat="29.6938552" lon="104.9427428"><ele>290.8</ele><time>2026-05-17T20:00:04.000Z</time></trkpt>
        <trkpt lat="29.6938552" lon="104.9427428"><ele>290.8</ele><time>2026-05-17T20:00:09.000Z</time></trkpt>
        <trkpt lat="29.6939158" lon="104.9428294"><ele>291.25</ele><time>2026-05-17T20:00:19.000Z</time></trkpt>
        <trkpt lat="29.694004" lon="104.9428619"><ele>291.26</ele><time>2026-05-17T20:00:26.000Z</time></trkpt>
        <trkpt lat="29.6940923" lon="104.9428919"><ele>290.89</ele><time>2026-05-17T20:00:36.000Z</time></trkpt>
        <trkpt lat="29.6941389" lon="104.9429819"><ele>290.88</ele><time>2026-05-17T20:00:52.000Z</time></trkpt>
        <trkpt lat="29.6940989" lon="104.9430713"><ele>292.4</ele><time>2026-05-17T20:01:03.000Z</time></trkpt>
        <trkpt lat="29.6940602" lon="104.9431752"><ele>293.75</ele><time>2026-05-17T20:01:12.000Z</time></trkpt>
        <trkpt lat="29.6940388" lon="104.943292"><ele>294.87</ele><time>2026-05-17T20:01:20.000Z</time></trkpt>
        <trkpt lat="29.6941014" lon="104.9433339"><ele>295.84</ele><time>2026-05-17T20:01:34.000Z</time></trkpt>
        <trkpt lat="29.6941981" lon="104.9433219"><ele>297.15</ele><time>2026-05-17T20:01:47.000Z</time></trkpt>
        <trkpt lat="29.6943006" lon="104.9433153"><ele>298.64</ele><time>2026-05-17T20:01:57.000Z</time></trkpt>
        <trkpt lat="29.6944004" lon="104.9433017"><ele>300.37</ele><time>2026-05-17T20:02:07.000Z</time></trkpt>
        <trkpt lat="29.694501" lon="104.9432836"><ele>301.43</ele><time>2026-05-17T20:02:17.000Z</time></trkpt>
        <trkpt lat="29.6945982" lon="104.9432843"><ele>302.39</ele><time>2026-05-17T20:02:26.000Z</time></trkpt>
        <trkpt lat="29.694694" lon="104.9432933"><ele>303.67</ele><time>2026-05-17T20:02:37.000Z</time></trkpt>
        <trkpt lat="29.6947849" lon="104.9432846"><ele>304.94</ele><time>2026-05-17T20:02:53.000Z</time></trkpt>
        <trkpt lat="29.6948758" lon="104.9432815"><ele>306.8</ele><time>2026-05-17T20:03:19.000Z</time></trkpt>
        <trkpt lat="29.6948758" lon="104.9432815"><ele>306.8</ele><time>2026-05-17T20:03:45.000Z</time></trkpt>
        <trkpt lat="29.6949548" lon="104.9433329"><ele>310.08</ele><time>2026-05-17T20:03:50.000Z</time></trkpt>
        <trkpt lat="29.6949548" lon="104.9433329"><ele>310.08</ele><time>2026-05-17T20:04:03.000Z</time></trkpt>
        <trkpt lat="29.6949548" lon="104.9433329"><ele>310.08</ele><time>2026-05-17T20:04:17.000Z</time></trkpt>
        <trkpt lat="29.6950329" lon="104.9433973"><ele>312.88</ele><time>2026-05-17T20:04:34.000Z</time></trkpt>
        <trkpt lat="29.6950329" lon="104.9433973"><ele>312.88</ele><time>2026-05-17T20:04:51.000Z</time></trkpt>
        <trkpt lat="29.6951044" lon="104.9434767"><ele>315.14</ele><time>2026-05-17T20:04:59.000Z</time></trkpt>
        <trkpt lat="29.6951883" lon="104.9435301"><ele>316.85</ele><time>2026-05-17T20:05:09.000Z</time></trkpt>
        <trkpt lat="29.6952647" lon="104.9435909"><ele>318.01</ele><time>2026-05-17T20:05:19.000Z</time></trkpt>
        <trkpt lat="29.6953041" lon="104.9436951"><ele>318.29</ele><time>2026-05-17T20:06:27.000Z</time></trkpt>
        <trkpt lat="29.6953449" lon="104.9437955"><ele>317.45</ele><time>2026-05-17T20:06:35.000Z</time></trkpt>
        <trkpt lat="29.6953685" lon="104.9438982"><ele>316.64</ele><time>2026-05-17T20:06:53.000Z</time></trkpt>
        <trkpt lat="29.6954154" lon="104.9439938"><ele>314.57</ele><time>2026-05-17T20:07:03.000Z</time></trkpt>
        <trkpt lat="29.6954586" lon="104.944092"><ele>312.52</ele><time>2026-05-17T20:07:11.000Z</time></trkpt>
        <trkpt lat="29.6954666" lon="104.9441951"><ele>310.84</ele><time>2026-05-17T20:07:21.000Z</time></trkpt>
        <trkpt lat="29.6955323" lon="104.9442316"><ele>310.13</ele><time>2026-05-17T20:07:42.000Z</time></trkpt>
        <trkpt lat="29.6956306" lon="104.9442382"><ele>310.85</ele><time>2026-05-17T20:07:49.000Z</time></trkpt>
        <trkpt lat="29.6957326" lon="104.9442625"><ele>311.19</ele><time>2026-05-17T20:08:00.000Z</time></trkpt>
        <trkpt lat="29.6957326" lon="104.9442625"><ele>311.19</ele><time>2026-05-17T20:08:53.000Z</time></trkpt>
        <trkpt lat="29.6957326" lon="104.9442625"><ele>311.19</ele><time>2026-05-17T20:09:10.000Z</time></trkpt>
        <trkpt lat="29.6957326" lon="104.9442625"><ele>311.19</ele><time>2026-05-17T20:09:21.000Z</time></trkpt>
        <trkpt lat="29.6958273" lon="104.9443048"><ele>311.68</ele><time>2026-05-17T20:09:24.000Z</time></trkpt>
        <trkpt lat="29.6958273" lon="104.9443048"><ele>311.68</ele><time>2026-05-17T20:09:38.000Z</time></trkpt>
        <trkpt lat="29.6959136" lon="104.94434"><ele>312.89</ele><time>2026-05-17T20:09:46.000Z</time></trkpt>
        <trkpt lat="29.6960057" lon="104.9443416"><ele>313.63</ele><time>2026-05-17T20:09:52.000Z</time></trkpt>
        <trkpt lat="29.696091" lon="104.9443092"><ele>314.04</ele><time>2026-05-17T20:09:59.000Z</time></trkpt>
        <trkpt lat="29.696172" lon="104.9442431"><ele>314.21</ele><time>2026-05-17T20:10:07.000Z</time></trkpt>
        <trkpt lat="29.696237" lon="104.944159"><ele>313.86</ele><time>2026-05-17T20:10:24.000Z</time></trkpt>
        <trkpt lat="29.6962915" lon="104.9440646"><ele>313.81</ele><time>2026-05-17T20:10:37.000Z</time></trkpt>
        <trkpt lat="29.6963383" lon="104.9439691"><ele>313.92</ele><time>2026-05-17T20:10:44.000Z</time></trkpt>
        <trkpt lat="29.6963942" lon="104.9438807"><ele>313.94</ele><time>2026-05-17T20:10:52.000Z</time></trkpt>
        <trkpt lat="29.696477" lon="104.943809"><ele>314.22</ele><time>2026-05-17T20:11:04.000Z</time></trkpt>
        <trkpt lat="29.6965477" lon="104.9438616"><ele>314.46</ele><time>2026-05-17T20:11:13.000Z</time></trkpt>
        <trkpt lat="29.6966183" lon="104.9439552"><ele>314.65</ele><time>2026-05-17T20:11:22.000Z</time></trkpt>
        <trkpt lat="29.6966561" lon="104.9440707"><ele>315.19</ele><time>2026-05-17T20:11:30.000Z</time></trkpt>
        <trkpt lat="29.6966706" lon="104.944191"><ele>316.12</ele><time>2026-05-17T20:11:38.000Z</time></trkpt>
        <trkpt lat="29.6966708" lon="104.9443141"><ele>316.71</ele><time>2026-05-17T20:11:47.000Z</time></trkpt>
        <trkpt lat="29.6966562" lon="104.944433"><ele>316.75</ele><time>2026-05-17T20:11:55.000Z</time></trkpt>
        <trkpt lat="29.6966382" lon="104.9445439"><ele>316.24</ele><time>2026-05-17T20:12:02.000Z</time></trkpt>
        <trkpt lat="29.696622" lon="104.944659"><ele>316.06</ele><time>2026-05-17T20:12:10.000Z</time></trkpt>
        <trkpt lat="29.6966178" lon="104.9447749"><ele>315.65</ele><time>2026-05-17T20:12:17.000Z</time></trkpt>
        <trkpt lat="29.6965978" lon="104.9448828"><ele>314.85</ele><time>2026-05-17T20:12:24.000Z</time></trkpt>
        <trkpt lat="29.696595" lon="104.944987"><ele>314.18</ele><time>2026-05-17T20:12:32.000Z</time></trkpt>
        <trkpt lat="29.6966106" lon="104.9451014"><ele>313.55</ele><time>2026-05-17T20:12:41.000Z</time></trkpt>
        <trkpt lat="29.6966712" lon="104.9451988"><ele>313.46</ele><time>2026-05-17T20:12:52.000Z</time></trkpt>
        <trkpt lat="29.6967641" lon="104.9451912"><ele>313.14</ele><time>2026-05-17T20:13:01.000Z</time></trkpt>
        <trkpt lat="29.6968689" lon="104.9451742"><ele>312.61</ele><time>2026-05-17T20:13:08.000Z</time></trkpt>
        <trkpt lat="29.6969662" lon="104.9451982"><ele>312.17</ele><time>2026-05-17T20:13:15.000Z</time></trkpt>
        <trkpt lat="29.6970375" lon="104.9452694"><ele>312.04</ele><time>2026-05-17T20:13:23.000Z</time></trkpt>
        <trkpt lat="29.6970952" lon="104.9453582"><ele>312.2</ele><time>2026-05-17T20:13:31.000Z</time></trkpt>
        <trkpt lat="29.6971434" lon="104.9454646"><ele>312.6</ele><time>2026-05-17T20:13:38.000Z</time></trkpt>
        <trkpt lat="29.6972036" lon="104.9455613"><ele>312.99</ele><time>2026-05-17T20:13:47.000Z</time></trkpt>
        <trkpt lat="29.6972794" lon="104.945626"><ele>312.94</ele><time>2026-05-17T20:13:55.000Z</time></trkpt>
        <trkpt lat="29.6973015" lon="104.9455552"><ele>313.08</ele><time>2026-05-17T20:14:07.000Z</time></trkpt>
        <trkpt lat="29.6972896" lon="104.9454305"><ele>312.4</ele><time>2026-05-17T20:14:14.000Z</time></trkpt>
        <trkpt lat="29.6972724" lon="104.9452802"><ele>311.43</ele><time>2026-05-17T20:14:22.000Z</time></trkpt>
        <trkpt lat="29.6972793" lon="104.9451485"><ele>310.48</ele><time>2026-05-17T20:14:29.000Z</time></trkpt>
        <trkpt lat="29.6973154" lon="104.9450423"><ele>309.89</ele><time>2026-05-17T20:14:36.000Z</time></trkpt>
        <trkpt lat="29.6973713" lon="104.9449543"><ele>309.24</ele><time>2026-05-17T20:14:43.000Z</time></trkpt>
        <trkpt lat="29.6974196" lon="104.9448559"><ele>308.71</ele><time>2026-05-17T20:14:51.000Z</time></trkpt>
        <trkpt lat="29.697476" lon="104.9447696"><ele>307.61</ele><time>2026-05-17T20:15:02.000Z</time></trkpt>
        <trkpt lat="29.69753" lon="104.9446784"><ele>306.48</ele><time>2026-05-17T20:15:10.000Z</time></trkpt>
        <trkpt lat="29.6975748" lon="104.9445867"><ele>305.69</ele><time>2026-05-17T20:15:18.000Z</time></trkpt>
        <trkpt lat="29.6976191" lon="104.9444858"><ele>304.99</ele><time>2026-05-17T20:15:26.000Z</time></trkpt>
        <trkpt lat="29.6976737" lon="104.9443776"><ele>304.37</ele><time>2026-05-17T20:15:34.000Z</time></trkpt>
        <trkpt lat="29.6977288" lon="104.9442855"><ele>303.82</ele><time>2026-05-17T20:15:42.000Z</time></trkpt>
        <trkpt lat="29.6977693" lon="104.9441738"><ele>303.24</ele><time>2026-05-17T20:15:52.000Z</time></trkpt>
        <trkpt lat="29.6978008" lon="104.9440638"><ele>303.03</ele><time>2026-05-17T20:15:59.000Z</time></trkpt>
        <trkpt lat="29.6978124" lon="104.9439556"><ele>303.4</ele><time>2026-05-17T20:16:06.000Z</time></trkpt>
        <trkpt lat="29.6978167" lon="104.9438502"><ele>303.56</ele><time>2026-05-17T20:16:14.000Z</time></trkpt>
        <trkpt lat="29.6978032" lon="104.9437414"><ele>303.61</ele><time>2026-05-17T20:16:22.000Z</time></trkpt>
        <trkpt lat="29.6978334" lon="104.9436413"><ele>303.78</ele><time>2026-05-17T20:16:28.000Z</time></trkpt>
        <trkpt lat="29.6978466" lon="104.9435389"><ele>303.7</ele><time>2026-05-17T20:16:36.000Z</time></trkpt>
        <trkpt lat="29.6978136" lon="104.9434473"><ele>303.87</ele><time>2026-05-17T20:16:47.000Z</time></trkpt>
        <trkpt lat="29.6977535" lon="104.9433541"><ele>304.09</ele><time>2026-05-17T20:16:55.000Z</time></trkpt>
        <trkpt lat="29.697707" lon="104.9432447"><ele>304.2</ele><time>2026-05-17T20:17:01.000Z</time></trkpt>
        <trkpt lat="29.6976602" lon="104.9431442"><ele>304.35</ele><time>2026-05-17T20:17:11.000Z</time></trkpt>
        <trkpt lat="29.6977089" lon="104.9430804"><ele>305.06</ele><time>2026-05-17T20:17:20.000Z</time></trkpt>
        <trkpt lat="29.6978088" lon="104.943052"><ele>305.02</ele><time>2026-05-17T20:17:27.000Z</time></trkpt>
        <trkpt lat="29.6979151" lon="104.9430212"><ele>304.65</ele><time>2026-05-17T20:17:34.000Z</time></trkpt>
        <trkpt lat="29.6980155" lon="104.9429868"><ele>303.9</ele><time>2026-05-17T20:17:41.000Z</time></trkpt>
        <trkpt lat="29.6981129" lon="104.9429508"><ele>303.09</ele><time>2026-05-17T20:17:49.000Z</time></trkpt>
        <trkpt lat="29.6982183" lon="104.942905"><ele>302.47</ele><time>2026-05-17T20:17:58.000Z</time></trkpt>
        <trkpt lat="29.6983162" lon="104.9428673"><ele>301.56</ele><time>2026-05-17T20:18:05.000Z</time></trkpt>
        <trkpt lat="29.6983872" lon="104.9427963"><ele>300.82</ele><time>2026-05-17T20:18:34.000Z</time></trkpt>
        <trkpt lat="29.6983676" lon="104.9427067"><ele>299.8</ele><time>2026-05-17T20:18:44.000Z</time></trkpt>
        <trkpt lat="29.6982966" lon="104.9423782"><ele>299.18</ele><time>2026-05-17T20:19:10.000Z</time></trkpt>
        <trkpt lat="29.6983149" lon="104.9422549"><ele>299.6</ele><time>2026-05-17T20:19:20.000Z</time></trkpt>
        <trkpt lat="29.6983882" lon="104.9422007"><ele>302.21</ele><time>2026-05-17T20:19:26.000Z</time></trkpt>
        <trkpt lat="29.6984581" lon="104.9421343"><ele>301.41</ele><time>2026-05-17T20:19:37.000Z</time></trkpt>
        <trkpt lat="29.6984668" lon="104.9420423"><ele>300.09</ele><time>2026-05-17T20:19:47.000Z</time></trkpt>
        <trkpt lat="29.6983996" lon="104.9419738"><ele>299.05</ele><time>2026-05-17T20:19:55.000Z</time></trkpt>
        <trkpt lat="29.6983996" lon="104.9419738"><ele>299.05</ele><time>2026-05-17T20:20:25.000Z</time></trkpt>
        <trkpt lat="29.6983996" lon="104.9419738"><ele>299.05</ele><time>2026-05-17T20:20:42.000Z</time></trkpt>
        <trkpt lat="29.6983996" lon="104.9419738"><ele>299.05</ele><time>2026-05-17T20:21:01.000Z</time></trkpt>
        <trkpt lat="29.6983629" lon="104.9418733"><ele>298.6</ele><time>2026-05-17T20:21:08.000Z</time></trkpt>
        <trkpt lat="29.6983629" lon="104.9418733"><ele>298.6</ele><time>2026-05-17T20:21:22.000Z</time></trkpt>
        <trkpt lat="29.6983246" lon="104.9417643"><ele>298.95</ele><time>2026-05-17T20:21:43.000Z</time></trkpt>
        <trkpt lat="29.6983246" lon="104.9417643"><ele>298.95</ele><time>2026-05-17T20:21:57.000Z</time></trkpt>
        <trkpt lat="29.6982821" lon="104.941663"><ele>300.17</ele><time>2026-05-17T20:22:00.000Z</time></trkpt>
        <trkpt lat="29.6982821" lon="104.941663"><ele>300.17</ele><time>2026-05-17T20:22:05.000Z</time></trkpt>
        <trkpt lat="29.6982584" lon="104.9415534"><ele>300.64</ele><time>2026-05-17T20:22:14.000Z</time></trkpt>
        <trkpt lat="29.6982455" lon="104.9414443"><ele>300.59</ele><time>2026-05-17T20:22:22.000Z</time></trkpt>
        <trkpt lat="29.6983084" lon="104.9413718"><ele>300.25</ele><time>2026-05-17T20:22:36.000Z</time></trkpt>
        <trkpt lat="29.6983975" lon="104.9413949"><ele>299.18</ele><time>2026-05-17T20:22:56.000Z</time></trkpt>
        <trkpt lat="29.6984833" lon="104.9413625"><ele>299.61</ele><time>2026-05-17T20:23:05.000Z</time></trkpt>
        <trkpt lat="29.6985458" lon="104.9412894"><ele>300.31</ele><time>2026-05-17T20:23:13.000Z</time></trkpt>
        <trkpt lat="29.698567" lon="104.9411811"><ele>300.5</ele><time>2026-05-17T20:23:23.000Z</time></trkpt>
        <trkpt lat="29.6985571" lon="104.9410679"><ele>301.28</ele><time>2026-05-17T20:23:30.000Z</time></trkpt>
        <trkpt lat="29.6985633" lon="104.9409462"><ele>302.18</ele><time>2026-05-17T20:23:40.000Z</time></trkpt>
        <trkpt lat="29.6986066" lon="104.9408452"><ele>302.55</ele><time>2026-05-17T20:24:02.000Z</time></trkpt>
        <trkpt lat="29.6986868" lon="104.9408002"><ele>303.27</ele><time>2026-05-17T20:24:09.000Z</time></trkpt>
        <trkpt lat="29.69878" lon="104.9407836"><ele>304.02</ele><time>2026-05-17T20:24:19.000Z</time></trkpt>
        <trkpt lat="29.6988712" lon="104.9408216"><ele>304.64</ele><time>2026-05-17T20:24:31.000Z</time></trkpt>
        <trkpt lat="29.698926" lon="104.9409118"><ele>306.22</ele><time>2026-05-17T20:24:40.000Z</time></trkpt>
        <trkpt lat="29.6989582" lon="104.941029"><ele>308.04</ele><time>2026-05-17T20:24:49.000Z</time></trkpt>
        <trkpt lat="29.6990305" lon="104.9410471"><ele>309.31</ele><time>2026-05-17T20:25:05.000Z</time></trkpt>
        <trkpt lat="29.6991129" lon="104.9410047"><ele>309.71</ele><time>2026-05-17T20:25:16.000Z</time></trkpt>
        <trkpt lat="29.699202" lon="104.9409578"><ele>309.57</ele><time>2026-05-17T20:25:28.000Z</time></trkpt>
        <trkpt lat="29.6992912" lon="104.940915"><ele>309.18</ele><time>2026-05-17T20:25:37.000Z</time></trkpt>
        <trkpt lat="29.6993846" lon="104.9408922"><ele>309.03</ele><time>2026-05-17T20:25:44.000Z</time></trkpt>
        <trkpt lat="29.6994667" lon="104.9408425"><ele>308.74</ele><time>2026-05-17T20:26:26.000Z</time></trkpt>
        <trkpt lat="29.6995542" lon="104.9408226"><ele>308.49</ele><time>2026-05-17T20:26:53.000Z</time></trkpt>
        <trkpt lat="29.6996452" lon="104.9407967"><ele>308.32</ele><time>2026-05-17T20:27:05.000Z</time></trkpt>
        <trkpt lat="29.6997348" lon="104.9407752"><ele>308.33</ele><time>2026-05-17T20:27:12.000Z</time></trkpt>
        <trkpt lat="29.6998315" lon="104.9407762"><ele>308.24</ele><time>2026-05-17T20:27:21.000Z</time></trkpt>
        <trkpt lat="29.6998801" lon="104.940702"><ele>308.17</ele><time>2026-05-17T20:27:29.000Z</time></trkpt>
        <trkpt lat="29.6998974" lon="104.9405896"><ele>308.09</ele><time>2026-05-17T20:27:36.000Z</time></trkpt>
        <trkpt lat="29.6999065" lon="104.9404698"><ele>308.04</ele><time>2026-05-17T20:27:48.000Z</time></trkpt>
        <trkpt lat="29.699964" lon="104.9403774"><ele>308.2</ele><time>2026-05-17T20:27:56.000Z</time></trkpt>
        <trkpt lat="29.7000318" lon="104.9403016"><ele>308.22</ele><time>2026-05-17T20:28:03.000Z</time></trkpt>
        <trkpt lat="29.7001058" lon="104.9402375"><ele>309.02</ele><time>2026-05-17T20:28:10.000Z</time></trkpt>
        <trkpt lat="29.7001767" lon="104.9401694"><ele>309.91</ele><time>2026-05-17T20:28:19.000Z</time></trkpt>
        <trkpt lat="29.7001407" lon="104.9402767"><ele>311.19</ele><time>2026-05-17T20:29:49.000Z</time></trkpt>
        <trkpt lat="29.7000467" lon="104.9403208"><ele>313.57</ele><time>2026-05-17T20:29:56.000Z</time></trkpt>
        <trkpt lat="29.6999537" lon="104.9403613"><ele>314.84</ele><time>2026-05-17T20:30:04.000Z</time></trkpt>
        <trkpt lat="29.6998849" lon="104.9404302"><ele>315.29</ele><time>2026-05-17T20:30:10.000Z</time></trkpt>
        <trkpt lat="29.699851" lon="104.9405349"><ele>315.19</ele><time>2026-05-17T20:30:18.000Z</time></trkpt>
        <trkpt lat="29.699847" lon="104.9406513"><ele>314.86</ele><time>2026-05-17T20:30:25.000Z</time></trkpt>
        <trkpt lat="29.6998563" lon="104.9407797"><ele>314.18</ele><time>2026-05-17T20:30:34.000Z</time></trkpt>
        <trkpt lat="29.6998747" lon="104.9408988"><ele>313.4</ele><time>2026-05-17T20:30:42.000Z</time></trkpt>
        <trkpt lat="29.6998645" lon="104.9410114"><ele>312.93</ele><time>2026-05-17T20:30:50.000Z</time></trkpt>
        <trkpt lat="29.6998166" lon="104.9411105"><ele>312.59</ele><time>2026-05-17T20:30:58.000Z</time></trkpt>
        <trkpt lat="29.6997476" lon="104.9411941"><ele>312.98</ele><time>2026-05-17T20:31:12.000Z</time></trkpt>
        <trkpt lat="29.6996554" lon="104.9412492"><ele>313.03</ele><time>2026-05-17T20:31:19.000Z</time></trkpt>
        <trkpt lat="29.6995415" lon="104.9412782"><ele>312.73</ele><time>2026-05-17T20:31:28.000Z</time></trkpt>
        <trkpt lat="29.699458" lon="104.9413408"><ele>312.97</ele><time>2026-05-17T20:31:36.000Z</time></trkpt>
        <trkpt lat="29.6994878" lon="104.941295"><ele>313.05</ele><time>2026-05-17T20:31:54.000Z</time></trkpt>
        <trkpt lat="29.6995733" lon="104.9412448"><ele>312.95</ele><time>2026-05-17T20:32:01.000Z</time></trkpt>
        <trkpt lat="29.699682" lon="104.9411929"><ele>312.48</ele><time>2026-05-17T20:32:07.000Z</time></trkpt>
        <trkpt lat="29.6997783" lon="104.9411345"><ele>311.85</ele><time>2026-05-17T20:32:18.000Z</time></trkpt>
        <trkpt lat="29.6998477" lon="104.9410458"><ele>311.77</ele><time>2026-05-17T20:32:27.000Z</time></trkpt>
        <trkpt lat="29.6998751" lon="104.9409379"><ele>312.26</ele><time>2026-05-17T20:32:36.000Z</time></trkpt>
        <trkpt lat="29.6998699" lon="104.9408251"><ele>312.12</ele><time>2026-05-17T20:32:43.000Z</time></trkpt>
        <trkpt lat="29.6999224" lon="104.9408436"><ele>311.64</ele><time>2026-05-17T20:32:54.000Z</time></trkpt>
        <trkpt lat="29.6999862" lon="104.9409298"><ele>310.81</ele><time>2026-05-17T20:33:01.000Z</time></trkpt>
        <trkpt lat="29.7000582" lon="104.9410262"><ele>310.96</ele><time>2026-05-17T20:33:09.000Z</time></trkpt>
        <trkpt lat="29.7001366" lon="104.9411081"><ele>310.89</ele><time>2026-05-17T20:33:17.000Z</time></trkpt>
        <trkpt lat="29.700227" lon="104.9411738"><ele>310.55</ele><time>2026-05-17T20:33:24.000Z</time></trkpt>
        <trkpt lat="29.7003112" lon="104.9412284"><ele>310.57</ele><time>2026-05-17T20:33:30.000Z</time></trkpt>
        <trkpt lat="29.7003938" lon="104.9412742"><ele>310.21</ele><time>2026-05-17T20:33:37.000Z</time></trkpt>
        <trkpt lat="29.7004861" lon="104.9413102"><ele>309.3</ele><time>2026-05-17T20:33:44.000Z</time></trkpt>
        <trkpt lat="29.7005742" lon="104.9413584"><ele>309.28</ele><time>2026-05-17T20:33:52.000Z</time></trkpt>
        <trkpt lat="29.7006374" lon="104.941439"><ele>309.15</ele><time>2026-05-17T20:34:12.000Z</time></trkpt>
        <trkpt lat="29.7006722" lon="104.9415414"><ele>309.06</ele><time>2026-05-17T20:34:20.000Z</time></trkpt>
        <trkpt lat="29.7007277" lon="104.9416388"><ele>309.18</ele><time>2026-05-17T20:34:28.000Z</time></trkpt>
        <trkpt lat="29.7007742" lon="104.9417385"><ele>309.82</ele><time>2026-05-17T20:34:36.000Z</time></trkpt>
        <trkpt lat="29.700815" lon="104.9418352"><ele>309.97</ele><time>2026-05-17T20:34:43.000Z</time></trkpt>
        <trkpt lat="29.7008709" lon="104.9419263"><ele>310.01</ele><time>2026-05-17T20:34:51.000Z</time></trkpt>
        <trkpt lat="29.7009387" lon="104.9420068"><ele>310</ele><time>2026-05-17T20:35:01.000Z</time></trkpt>
        <trkpt lat="29.7010275" lon="104.9420381"><ele>309.65</ele><time>2026-05-17T20:35:23.000Z</time></trkpt>
        <trkpt lat="29.7011189" lon="104.9420637"><ele>309.25</ele><time>2026-05-17T20:35:29.000Z</time></trkpt>
        <trkpt lat="29.701217" lon="104.9420537"><ele>308.96</ele><time>2026-05-17T20:35:37.000Z</time></trkpt>
        <trkpt lat="29.701317" lon="104.9420479"><ele>309.17</ele><time>2026-05-17T20:35:44.000Z</time></trkpt>
        <trkpt lat="29.701416" lon="104.9420473"><ele>308.65</ele><time>2026-05-17T20:35:52.000Z</time></trkpt>
        <trkpt lat="29.701504" lon="104.9420768"><ele>308.06</ele><time>2026-05-17T20:36:02.000Z</time></trkpt>
        <trkpt lat="29.7015502" lon="104.942163"><ele>308.12</ele><time>2026-05-17T20:36:10.000Z</time></trkpt>
        <trkpt lat="29.7015869" lon="104.9422664"><ele>308.27</ele><time>2026-05-17T20:36:17.000Z</time></trkpt>
        <trkpt lat="29.7016198" lon="104.9423806"><ele>308.34</ele><time>2026-05-17T20:36:24.000Z</time></trkpt>
        <trkpt lat="29.7016444" lon="104.9424891"><ele>308.38</ele><time>2026-05-17T20:36:32.000Z</time></trkpt>
        <trkpt lat="29.7016736" lon="104.9425951"><ele>307.73</ele><time>2026-05-17T20:36:39.000Z</time></trkpt>
        <trkpt lat="29.7017177" lon="104.942695"><ele>307.34</ele><time>2026-05-17T20:36:47.000Z</time></trkpt>
        <trkpt lat="29.7017716" lon="104.9427851"><ele>306.69</ele><time>2026-05-17T20:36:54.000Z</time></trkpt>
        <trkpt lat="29.7018372" lon="104.9428631"><ele>305.66</ele><time>2026-05-17T20:37:01.000Z</time></trkpt>
        <trkpt lat="29.7019231" lon="104.9429361"><ele>304.67</ele><time>2026-05-17T20:37:10.000Z</time></trkpt>
        <trkpt lat="29.7019999" lon="104.9430025"><ele>303.56</ele><time>2026-05-17T20:37:18.000Z</time></trkpt>
        <trkpt lat="29.7020809" lon="104.9430553"><ele>302.35</ele><time>2026-05-17T20:37:25.000Z</time></trkpt>
        <trkpt lat="29.7021658" lon="104.9431049"><ele>301.05</ele><time>2026-05-17T20:37:32.000Z</time></trkpt>
        <trkpt lat="29.7022521" lon="104.9431574"><ele>299.99</ele><time>2026-05-17T20:37:40.000Z</time></trkpt>
        <trkpt lat="29.7022864" lon="104.94325"><ele>299.5</ele><time>2026-05-17T20:38:01.000Z</time></trkpt>
        <trkpt lat="29.7022587" lon="104.9433558"><ele>299.82</ele><time>2026-05-17T20:38:09.000Z</time></trkpt>
        <trkpt lat="29.7022301" lon="104.9434702"><ele>300.39</ele><time>2026-05-17T20:38:18.000Z</time></trkpt>
        <trkpt lat="29.7022045" lon="104.9435809"><ele>301.31</ele><time>2026-05-17T20:38:27.000Z</time></trkpt>
        <trkpt lat="29.7021859" lon="104.9436945"><ele>302.04</ele><time>2026-05-17T20:38:34.000Z</time></trkpt>
        <trkpt lat="29.7021771" lon="104.9438064"><ele>302.26</ele><time>2026-05-17T20:38:42.000Z</time></trkpt>
        <trkpt lat="29.7021692" lon="104.9439209"><ele>302.17</ele><time>2026-05-17T20:38:50.000Z</time></trkpt>
        <trkpt lat="29.7021474" lon="104.9440287"><ele>302.31</ele><time>2026-05-17T20:38:59.000Z</time></trkpt>
        <trkpt lat="29.7021164" lon="104.9441289"><ele>302.36</ele><time>2026-05-17T20:39:18.000Z</time></trkpt>
        <trkpt lat="29.7021753" lon="104.9441885"><ele>302.6</ele><time>2026-05-17T20:39:39.000Z</time></trkpt>
        <trkpt lat="29.7022287" lon="104.9442688"><ele>301.94</ele><time>2026-05-17T20:39:47.000Z</time></trkpt>
        <trkpt lat="29.7022661" lon="104.9443704"><ele>301.44</ele><time>2026-05-17T20:39:58.000Z</time></trkpt>
        <trkpt lat="29.7023337" lon="104.9444647"><ele>301.06</ele><time>2026-05-17T20:40:10.000Z</time></trkpt>
        <trkpt lat="29.7022948" lon="104.9445348"><ele>300.62</ele><time>2026-05-17T20:40:20.000Z</time></trkpt>
        <trkpt lat="29.7022043" lon="104.9445932"><ele>300.54</ele><time>2026-05-17T20:40:28.000Z</time></trkpt>
        <trkpt lat="29.7021162" lon="104.944657"><ele>300.64</ele><time>2026-05-17T20:40:35.000Z</time></trkpt>
        <trkpt lat="29.7020287" lon="104.944715"><ele>300.63</ele><time>2026-05-17T20:41:13.000Z</time></trkpt>
        <trkpt lat="29.7019395" lon="104.9447735"><ele>300.06</ele><time>2026-05-17T20:41:22.000Z</time></trkpt>
        <trkpt lat="29.7019486" lon="104.9448639"><ele>298.99</ele><time>2026-05-17T20:41:35.000Z</time></trkpt>
        <trkpt lat="29.7020041" lon="104.9449519"><ele>298.36</ele><time>2026-05-17T20:41:42.000Z</time></trkpt>
        <trkpt lat="29.7020533" lon="104.9450551"><ele>297.79</ele><time>2026-05-17T20:41:48.000Z</time></trkpt>
        <trkpt lat="29.7020978" lon="104.9451546"><ele>296.56</ele><time>2026-05-17T20:42:01.000Z</time></trkpt>
        <trkpt lat="29.7021551" lon="104.9452406"><ele>295.23</ele><time>2026-05-17T20:42:09.000Z</time></trkpt>
        <trkpt lat="29.7022297" lon="104.9453047"><ele>294.08</ele><time>2026-05-17T20:42:26.000Z</time></trkpt>
        <trkpt lat="29.7022745" lon="104.9454024"><ele>292.43</ele><time>2026-05-17T20:42:31.000Z</time></trkpt>
        <trkpt lat="29.7023397" lon="104.9454744"><ele>292.47</ele><time>2026-05-17T20:42:41.000Z</time></trkpt>
        <trkpt lat="29.7024246" lon="104.9454549"><ele>292.35</ele><time>2026-05-17T20:42:47.000Z</time></trkpt>
        <trkpt lat="29.7025142" lon="104.9454025"><ele>291.88</ele><time>2026-05-17T20:42:55.000Z</time></trkpt>
        <trkpt lat="29.7026025" lon="104.9453473"><ele>291.6</ele><time>2026-05-17T20:43:02.000Z</time></trkpt>
        <trkpt lat="29.7026895" lon="104.9452909"><ele>291.32</ele><time>2026-05-17T20:43:10.000Z</time></trkpt>
        <trkpt lat="29.7027761" lon="104.9452465"><ele>290.93</ele><time>2026-05-17T20:43:18.000Z</time></trkpt>
        <trkpt lat="29.7028676" lon="104.9451954"><ele>290.54</ele><time>2026-05-17T20:43:28.000Z</time></trkpt>
        <trkpt lat="29.7028496" lon="104.9451123"><ele>290.32</ele><time>2026-05-17T20:43:39.000Z</time></trkpt>
        <trkpt lat="29.702795" lon="104.9450164"><ele>291.05</ele><time>2026-05-17T20:43:46.000Z</time></trkpt>
        <trkpt lat="29.7026974" lon="104.9449871"><ele>292.34</ele><time>2026-05-17T20:44:34.000Z</time></trkpt>
        <trkpt lat="29.7027564" lon="104.9450338"><ele>294.25</ele><time>2026-05-17T20:45:44.000Z</time></trkpt>
        <trkpt lat="29.7027973" lon="104.9451283"><ele>294</ele><time>2026-05-17T20:45:54.000Z</time></trkpt>
        <trkpt lat="29.7028687" lon="104.9451918"><ele>293.1</ele><time>2026-05-17T20:46:06.000Z</time></trkpt>
        <trkpt lat="29.7029595" lon="104.9451834"><ele>291.87</ele><time>2026-05-17T20:46:17.000Z</time></trkpt>
        <trkpt lat="29.7030483" lon="104.9451367"><ele>291.05</ele><time>2026-05-17T20:46:25.000Z</time></trkpt>
        <trkpt lat="29.7031306" lon="104.9450757"><ele>290.33</ele><time>2026-05-17T20:46:34.000Z</time></trkpt>
        <trkpt lat="29.703221" lon="104.9450371"><ele>289.71</ele><time>2026-05-17T20:46:40.000Z</time></trkpt>
        <trkpt lat="29.7033099" lon="104.9449923"><ele>289.36</ele><time>2026-05-17T20:46:50.000Z</time></trkpt>
        <trkpt lat="29.7034044" lon="104.9449676"><ele>289.65</ele><time>2026-05-17T20:46:58.000Z</time></trkpt>
        <trkpt lat="29.7035004" lon="104.9449364"><ele>290.78</ele><time>2026-05-17T20:47:07.000Z</time></trkpt>
        <trkpt lat="29.7035898" lon="104.9449032"><ele>291.65</ele><time>2026-05-17T20:47:15.000Z</time></trkpt>
        <trkpt lat="29.7036859" lon="104.9448778"><ele>292.58</ele><time>2026-05-17T20:47:24.000Z</time></trkpt>
        <trkpt lat="29.7037752" lon="104.9448482"><ele>293.29</ele><time>2026-05-17T20:47:30.000Z</time></trkpt>
        <trkpt lat="29.7037752" lon="104.9448482"><ele>293.29</ele><time>2026-05-17T20:47:51.000Z</time></trkpt>
        <trkpt lat="29.7038703" lon="104.9448288"><ele>293.54</ele><time>2026-05-17T20:48:14.000Z</time></trkpt>
        <trkpt lat="29.7038703" lon="104.9448288"><ele>293.54</ele><time>2026-05-17T20:48:27.000Z</time></trkpt>
        <trkpt lat="29.7039747" lon="104.9448268"><ele>293.24</ele><time>2026-05-17T20:48:34.000Z</time></trkpt>
        <trkpt lat="29.7040755" lon="104.944807"><ele>292.73</ele><time>2026-05-17T20:48:42.000Z</time></trkpt>
        <trkpt lat="29.704168" lon="104.9447626"><ele>292.4</ele><time>2026-05-17T20:48:50.000Z</time></trkpt>
        <trkpt lat="29.7042588" lon="104.9447114"><ele>292.18</ele><time>2026-05-17T20:48:56.000Z</time></trkpt>
        <trkpt lat="29.7043501" lon="104.9446567"><ele>291.74</ele><time>2026-05-17T20:49:03.000Z</time></trkpt>
        <trkpt lat="29.7044468" lon="104.9445954"><ele>291.74</ele><time>2026-05-17T20:49:10.000Z</time></trkpt>
        <trkpt lat="29.7045429" lon="104.9445436"><ele>291.75</ele><time>2026-05-17T20:49:18.000Z</time></trkpt>
        <trkpt lat="29.7046267" lon="104.944494"><ele>291.91</ele><time>2026-05-17T20:49:25.000Z</time></trkpt>
        <trkpt lat="29.7047027" lon="104.9444337"><ele>292.42</ele><time>2026-05-17T20:49:32.000Z</time></trkpt>
        <trkpt lat="29.7047821" lon="104.9443727"><ele>292.63</ele><time>2026-05-17T20:49:39.000Z</time></trkpt>
        <trkpt lat="29.7048589" lon="104.944293"><ele>292.25</ele><time>2026-05-17T20:49:46.000Z</time></trkpt>
        <trkpt lat="29.7049339" lon="104.9442261"><ele>291.95</ele><time>2026-05-17T20:49:53.000Z</time></trkpt>
        <trkpt lat="29.7050129" lon="104.9441516"><ele>291.29</ele><time>2026-05-17T20:50:00.000Z</time></trkpt>
        <trkpt lat="29.7050947" lon="104.9440749"><ele>290.93</ele><time>2026-05-17T20:50:08.000Z</time></trkpt>
        <trkpt lat="29.7051575" lon="104.9439925"><ele>290.92</ele><time>2026-05-17T20:50:14.000Z</time></trkpt>
        <trkpt lat="29.7052353" lon="104.9439141"><ele>290.91</ele><time>2026-05-17T20:50:22.000Z</time></trkpt>
        <trkpt lat="29.7053181" lon="104.943853"><ele>290.75</ele><time>2026-05-17T20:50:29.000Z</time></trkpt>
        <trkpt lat="29.7054081" lon="104.9437951"><ele>290.78</ele><time>2026-05-17T20:50:36.000Z</time></trkpt>
        <trkpt lat="29.7054882" lon="104.9437311"><ele>290.81</ele><time>2026-05-17T20:50:43.000Z</time></trkpt>
        <trkpt lat="29.7055733" lon="104.9436754"><ele>291.07</ele><time>2026-05-17T20:50:51.000Z</time></trkpt>
        <trkpt lat="29.7056611" lon="104.943633"><ele>291.06</ele><time>2026-05-17T20:50:59.000Z</time></trkpt>
        <trkpt lat="29.7057525" lon="104.9436049"><ele>291.12</ele><time>2026-05-17T20:51:06.000Z</time></trkpt>
        <trkpt lat="29.7058474" lon="104.9435991"><ele>290.65</ele><time>2026-05-17T20:51:13.000Z</time></trkpt>
        <trkpt lat="29.705941" lon="104.9435874"><ele>290.38</ele><time>2026-05-17T20:51:21.000Z</time></trkpt>
        <trkpt lat="29.7060375" lon="104.9435841"><ele>289.9</ele><time>2026-05-17T20:51:30.000Z</time></trkpt>
        <trkpt lat="29.7061334" lon="104.9435913"><ele>289.52</ele><time>2026-05-17T20:51:38.000Z</time></trkpt>
        <trkpt lat="29.7062257" lon="104.9436094"><ele>289.87</ele><time>2026-05-17T20:51:47.000Z</time></trkpt>
        <trkpt lat="29.7063205" lon="104.9436221"><ele>290.17</ele><time>2026-05-17T20:51:56.000Z</time></trkpt>
        <trkpt lat="29.7064103" lon="104.9436444"><ele>290.5</ele><time>2026-05-17T20:52:03.000Z</time></trkpt>
        <trkpt lat="29.7065093" lon="104.9436496"><ele>290.45</ele><time>2026-05-17T20:52:10.000Z</time></trkpt>
        <trkpt lat="29.7066125" lon="104.9436538"><ele>290.46</ele><time>2026-05-17T20:52:18.000Z</time></trkpt>
        <trkpt lat="29.7067149" lon="104.9436512"><ele>290.96</ele><time>2026-05-17T20:52:26.000Z</time></trkpt>
        <trkpt lat="29.706818" lon="104.9436385"><ele>290.82</ele><time>2026-05-17T20:52:34.000Z</time></trkpt>
        <trkpt lat="29.7069133" lon="104.943624"><ele>290.3</ele><time>2026-05-17T20:52:42.000Z</time></trkpt>
        <trkpt lat="29.7070054" lon="104.9436057"><ele>289.52</ele><time>2026-05-17T20:52:50.000Z</time></trkpt>
        <trkpt lat="29.7070931" lon="104.943575"><ele>289.1</ele><time>2026-05-17T20:52:57.000Z</time></trkpt>
        <trkpt lat="29.7071763" lon="104.9435323"><ele>288.18</ele><time>2026-05-17T20:53:05.000Z</time></trkpt>
        <trkpt lat="29.7072662" lon="104.9434848"><ele>287.65</ele><time>2026-05-17T20:53:13.000Z</time></trkpt>
        <trkpt lat="29.7073562" lon="104.9434182"><ele>286.93</ele><time>2026-05-17T20:53:22.000Z</time></trkpt>
        <trkpt lat="29.7074317" lon="104.9433474"><ele>286.47</ele><time>2026-05-17T20:53:29.000Z</time></trkpt>
        <trkpt lat="29.7075086" lon="104.9432769"><ele>285.78</ele><time>2026-05-17T20:53:37.000Z</time></trkpt>
        <trkpt lat="29.707578" lon="104.9431922"><ele>284.59</ele><time>2026-05-17T20:53:46.000Z</time></trkpt>
        <trkpt lat="29.7076522" lon="104.9431207"><ele>283.49</ele><time>2026-05-17T20:53:53.000Z</time></trkpt>
        <trkpt lat="29.7077291" lon="104.9430581"><ele>282.61</ele><time>2026-05-17T20:54:00.000Z</time></trkpt>
        <trkpt lat="29.7078081" lon="104.9429946"><ele>281.96</ele><time>2026-05-17T20:54:08.000Z</time></trkpt>
        <trkpt lat="29.7078919" lon="104.9429245"><ele>281.48</ele><time>2026-05-17T20:54:16.000Z</time></trkpt>
        <trkpt lat="29.7079663" lon="104.9428579"><ele>280.97</ele><time>2026-05-17T20:54:23.000Z</time></trkpt>
        <trkpt lat="29.7080426" lon="104.9427932"><ele>280.88</ele><time>2026-05-17T20:54:30.000Z</time></trkpt>
        <trkpt lat="29.7081223" lon="104.9427251"><ele>280.49</ele><time>2026-05-17T20:54:37.000Z</time></trkpt>
        <trkpt lat="29.7082018" lon="104.9426576"><ele>280.51</ele><time>2026-05-17T20:54:45.000Z</time></trkpt>
        <trkpt lat="29.7082813" lon="104.942595"><ele>280.41</ele><time>2026-05-17T20:54:52.000Z</time></trkpt>
        <trkpt lat="29.708358" lon="104.9425346"><ele>280.22</ele><time>2026-05-17T20:54:58.000Z</time></trkpt>
        <trkpt lat="29.7084318" lon="104.9424586"><ele>279.98</ele><time>2026-05-17T20:55:06.000Z</time></trkpt>
        <trkpt lat="29.7085111" lon="104.9423843"><ele>280.27</ele><time>2026-05-17T20:55:14.000Z</time></trkpt>
        <trkpt lat="29.7085952" lon="104.9423186"><ele>280.89</ele><time>2026-05-17T20:55:22.000Z</time></trkpt>
        <trkpt lat="29.7086658" lon="104.9422451"><ele>281.31</ele><time>2026-05-17T20:55:29.000Z</time></trkpt>
        <trkpt lat="29.7087465" lon="104.9421822"><ele>281.39</ele><time>2026-05-17T20:55:36.000Z</time></trkpt>
        <trkpt lat="29.7088271" lon="104.9421239"><ele>281.15</ele><time>2026-05-17T20:55:43.000Z</time></trkpt>
        <trkpt lat="29.7089044" lon="104.9420633"><ele>280.88</ele><time>2026-05-17T20:55:52.000Z</time></trkpt>
        <trkpt lat="29.7089753" lon="104.9419853"><ele>280.95</ele><time>2026-05-17T20:56:01.000Z</time></trkpt>
        <trkpt lat="29.7090438" lon="104.9419025"><ele>281.56</ele><time>2026-05-17T20:56:09.000Z</time></trkpt>
        <trkpt lat="29.7091187" lon="104.9418346"><ele>281.67</ele><time>2026-05-17T20:56:15.000Z</time></trkpt>
        <trkpt lat="29.7092013" lon="104.9417728"><ele>281.9</ele><time>2026-05-17T20:56:22.000Z</time></trkpt>
        <trkpt lat="29.7092905" lon="104.9417115"><ele>282.51</ele><time>2026-05-17T20:56:30.000Z</time></trkpt>
        <trkpt lat="29.7093755" lon="104.9416467"><ele>282.67</ele><time>2026-05-17T20:56:38.000Z</time></trkpt>
        <trkpt lat="29.7094564" lon="104.9415811"><ele>283.23</ele><time>2026-05-17T20:56:45.000Z</time></trkpt>
        <trkpt lat="29.7095372" lon="104.9415252"><ele>284.18</ele><time>2026-05-17T20:56:51.000Z</time></trkpt>
        <trkpt lat="29.7096126" lon="104.941465"><ele>285.22</ele><time>2026-05-17T20:56:58.000Z</time></trkpt>
        <trkpt lat="29.7096934" lon="104.9414128"><ele>285.95</ele><time>2026-05-17T20:57:05.000Z</time></trkpt>
        <trkpt lat="29.7097837" lon="104.941364"><ele>286.83</ele><time>2026-05-17T20:57:13.000Z</time></trkpt>
        <trkpt lat="29.7098767" lon="104.9413241"><ele>288.15</ele><time>2026-05-17T20:57:20.000Z</time></trkpt>
        <trkpt lat="29.7099668" lon="104.9412917"><ele>288.83</ele><time>2026-05-17T20:57:27.000Z</time></trkpt>
        <trkpt lat="29.7100675" lon="104.9412867"><ele>288.82</ele><time>2026-05-17T20:57:34.000Z</time></trkpt>
        <trkpt lat="29.7101625" lon="104.9412823"><ele>288.56</ele><time>2026-05-17T20:57:41.000Z</time></trkpt>
        <trkpt lat="29.7102569" lon="104.9412709"><ele>288.4</ele><time>2026-05-17T20:57:47.000Z</time></trkpt>
        <trkpt lat="29.7103501" lon="104.9412631"><ele>287.79</ele><time>2026-05-17T20:57:53.000Z</time></trkpt>
        <trkpt lat="29.7104454" lon="104.9412662"><ele>287.2</ele><time>2026-05-17T20:58:00.000Z</time></trkpt>
        <trkpt lat="29.7105479" lon="104.9412675"><ele>286.62</ele><time>2026-05-17T20:58:10.000Z</time></trkpt>
        <trkpt lat="29.7106527" lon="104.9412656"><ele>285.75</ele><time>2026-05-17T20:58:18.000Z</time></trkpt>
        <trkpt lat="29.7107539" lon="104.9412689"><ele>285.27</ele><time>2026-05-17T20:58:25.000Z</time></trkpt>
        <trkpt lat="29.7108548" lon="104.9412791"><ele>285.15</ele><time>2026-05-17T20:58:33.000Z</time></trkpt>
        <trkpt lat="29.7109548" lon="104.9412819"><ele>285.66</ele><time>2026-05-17T20:58:40.000Z</time></trkpt>
        <trkpt lat="29.7110534" lon="104.9412847"><ele>285.77</ele><time>2026-05-17T20:58:49.000Z</time></trkpt>
        <trkpt lat="29.7111529" lon="104.9412963"><ele>286.03</ele><time>2026-05-17T20:58:56.000Z</time></trkpt>
        <trkpt lat="29.7112445" lon="104.9413243"><ele>285.87</ele><time>2026-05-17T20:59:02.000Z</time></trkpt>
        <trkpt lat="29.7113342" lon="104.9413488"><ele>285.77</ele><time>2026-05-17T20:59:10.000Z</time></trkpt>
        <trkpt lat="29.7114261" lon="104.9413863"><ele>285.47</ele><time>2026-05-17T20:59:17.000Z</time></trkpt>
        <trkpt lat="29.7115205" lon="104.941421"><ele>285.18</ele><time>2026-05-17T20:59:25.000Z</time></trkpt>
        <trkpt lat="29.7115205" lon="104.941421"><ele>285.18</ele><time>2026-05-17T21:00:15.000Z</time></trkpt>
        <trkpt lat="29.7116055" lon="104.9414738"><ele>285.29</ele><time>2026-05-17T21:00:20.000Z</time></trkpt>
        <trkpt lat="29.7116055" lon="104.9414738"><ele>285.29</ele><time>2026-05-17T21:01:24.000Z</time></trkpt>
        <trkpt lat="29.711695" lon="104.941485"><ele>285.36</ele><time>2026-05-17T21:01:35.000Z</time></trkpt>
        <trkpt lat="29.7117607" lon="104.9414078"><ele>285.26</ele><time>2026-05-17T21:01:52.000Z</time></trkpt>
        <trkpt lat="29.7117974" lon="104.9413079"><ele>285.7</ele><time>2026-05-17T21:02:00.000Z</time></trkpt>
        <trkpt lat="29.7117974" lon="104.9413079"><ele>285.7</ele><time>2026-05-17T21:03:05.000Z</time></trkpt>
        <trkpt lat="29.7118802" lon="104.9412066"><ele>286.57</ele><time>2026-05-17T21:03:48.000Z</time></trkpt>
        <trkpt lat="29.7118802" lon="104.9412066"><ele>286.57</ele><time>2026-05-17T21:03:48.000Z</time></trkpt>
        <trkpt lat="29.7119251" lon="104.9411096"><ele>282.88</ele><time>2026-05-17T21:04:15.000Z</time></trkpt>
        <trkpt lat="29.7118772" lon="104.9410283"><ele>280.33</ele><time>2026-05-17T21:04:19.000Z</time></trkpt>
        <trkpt lat="29.7118531" lon="104.9409235"><ele>277.46</ele><time>2026-05-17T21:04:28.000Z</time></trkpt>
        <trkpt lat="29.711883" lon="104.9408301"><ele>278.41</ele><time>2026-05-17T21:04:36.000Z</time></trkpt>
        <trkpt lat="29.7119651" lon="104.9407523"><ele>279.24</ele><time>2026-05-17T21:04:46.000Z</time></trkpt>
        <trkpt lat="29.7120616" lon="104.9407046"><ele>279.99</ele><time>2026-05-17T21:04:53.000Z</time></trkpt>
        <trkpt lat="29.7121507" lon="104.9406477"><ele>280.15</ele><time>2026-05-17T21:05:00.000Z</time></trkpt>
        <trkpt lat="29.712237" lon="104.940589"><ele>280.4</ele><time>2026-05-17T21:05:06.000Z</time></trkpt>
        <trkpt lat="29.7123169" lon="104.9405235"><ele>280.61</ele><time>2026-05-17T21:05:12.000Z</time></trkpt>
        <trkpt lat="29.7123576" lon="104.9404266"><ele>281.96</ele><time>2026-05-17T21:05:25.000Z</time></trkpt>
        <trkpt lat="29.7123714" lon="104.9403213"><ele>283.25</ele><time>2026-05-17T21:05:40.000Z</time></trkpt>
        <trkpt lat="29.7123524" lon="104.9402157"><ele>284.26</ele><time>2026-05-17T21:05:47.000Z</time></trkpt>
        <trkpt lat="29.7123121" lon="104.9401152"><ele>285.38</ele><time>2026-05-17T21:05:54.000Z</time></trkpt>
        <trkpt lat="29.7122471" lon="104.9400341"><ele>286.49</ele><time>2026-05-17T21:06:01.000Z</time></trkpt>
        <trkpt lat="29.7121623" lon="104.9399636"><ele>287.84</ele><time>2026-05-17T21:06:08.000Z</time></trkpt>
        <trkpt lat="29.7120666" lon="104.9398988"><ele>288.91</ele><time>2026-05-17T21:06:16.000Z</time></trkpt>
        <trkpt lat="29.7119793" lon="104.9398381"><ele>289.8</ele><time>2026-05-17T21:06:24.000Z</time></trkpt>
        <trkpt lat="29.7118939" lon="104.939786"><ele>290.37</ele><time>2026-05-17T21:06:32.000Z</time></trkpt>
        <trkpt lat="29.7118324" lon="104.9397072"><ele>290.92</ele><time>2026-05-17T21:06:56.000Z</time></trkpt>
        <trkpt lat="29.7117532" lon="104.9396408"><ele>290.91</ele><time>2026-05-17T21:07:10.000Z</time></trkpt>
        <trkpt lat="29.7116709" lon="104.939575"><ele>290.78</ele><time>2026-05-17T21:07:18.000Z</time></trkpt>
        <trkpt lat="29.7115803" lon="104.9395208"><ele>290.26</ele><time>2026-05-17T21:07:26.000Z</time></trkpt>
        <trkpt lat="29.7114959" lon="104.9394653"><ele>289.5</ele><time>2026-05-17T21:07:32.000Z</time></trkpt>
        <trkpt lat="29.7114148" lon="104.9394146"><ele>288.65</ele><time>2026-05-17T21:07:38.000Z</time></trkpt>
        <trkpt lat="29.7113308" lon="104.9393673"><ele>288.27</ele><time>2026-05-17T21:07:46.000Z</time></trkpt>
        <trkpt lat="29.711248" lon="104.9393148"><ele>288.34</ele><time>2026-05-17T21:07:53.000Z</time></trkpt>
        <trkpt lat="29.7111644" lon="104.9392537"><ele>288.4</ele><time>2026-05-17T21:08:01.000Z</time></trkpt>
        <trkpt lat="29.7110887" lon="104.9391844"><ele>287.99</ele><time>2026-05-17T21:08:10.000Z</time></trkpt>
        <trkpt lat="29.7110628" lon="104.9390844"><ele>287.93</ele><time>2026-05-17T21:08:23.000Z</time></trkpt>
        <trkpt lat="29.7111007" lon="104.9389897"><ele>287.61</ele><time>2026-05-17T21:09:03.000Z</time></trkpt>
        <trkpt lat="29.7111558" lon="104.9388942"><ele>287.6</ele><time>2026-05-17T21:09:10.000Z</time></trkpt>
        <trkpt lat="29.7112184" lon="104.938804"><ele>287.9</ele><time>2026-05-17T21:09:19.000Z</time></trkpt>
        <trkpt lat="29.7112797" lon="104.9387092"><ele>288.21</ele><time>2026-05-17T21:09:26.000Z</time></trkpt>
        <trkpt lat="29.711345" lon="104.9386167"><ele>287.99</ele><time>2026-05-17T21:09:35.000Z</time></trkpt>
        <trkpt lat="29.7114069" lon="104.9385221"><ele>288.1</ele><time>2026-05-17T21:09:42.000Z</time></trkpt>
        <trkpt lat="29.7114572" lon="104.9384248"><ele>288.04</ele><time>2026-05-17T21:09:49.000Z</time></trkpt>
        <trkpt lat="29.7114974" lon="104.9383244"><ele>288.1</ele><time>2026-05-17T21:09:57.000Z</time></trkpt>
        <trkpt lat="29.711545" lon="104.9382306"><ele>288.44</ele><time>2026-05-17T21:10:06.000Z</time></trkpt>
        <trkpt lat="29.7115938" lon="104.9381388"><ele>288.48</ele><time>2026-05-17T21:10:13.000Z</time></trkpt>
        <trkpt lat="29.7116486" lon="104.9380481"><ele>288.49</ele><time>2026-05-17T21:10:20.000Z</time></trkpt>
        <trkpt lat="29.7117241" lon="104.9379465"><ele>288.67</ele><time>2026-05-17T21:10:28.000Z</time></trkpt>
        <trkpt lat="29.7117978" lon="104.9378572"><ele>288.35</ele><time>2026-05-17T21:10:35.000Z</time></trkpt>
        <trkpt lat="29.7118533" lon="104.9377641"><ele>287.95</ele><time>2026-05-17T21:10:43.000Z</time></trkpt>
        <trkpt lat="29.7119024" lon="104.9376688"><ele>287.72</ele><time>2026-05-17T21:10:51.000Z</time></trkpt>
        <trkpt lat="29.7119596" lon="104.9375774"><ele>288.1</ele><time>2026-05-17T21:10:59.000Z</time></trkpt>
        <trkpt lat="29.7120213" lon="104.937494"><ele>288.42</ele><time>2026-05-17T21:11:06.000Z</time></trkpt>
        <trkpt lat="29.7120826" lon="104.9374086"><ele>287.88</ele><time>2026-05-17T21:11:14.000Z</time></trkpt>
        <trkpt lat="29.7121367" lon="104.9373163"><ele>287.44</ele><time>2026-05-17T21:11:22.000Z</time></trkpt>
        <trkpt lat="29.7121843" lon="104.9372149"><ele>287.33</ele><time>2026-05-17T21:11:31.000Z</time></trkpt>
        <trkpt lat="29.7122326" lon="104.9370974"><ele>287.45</ele><time>2026-05-17T21:11:40.000Z</time></trkpt>
        <trkpt lat="29.7122695" lon="104.9369931"><ele>287.29</ele><time>2026-05-17T21:11:46.000Z</time></trkpt>
        <trkpt lat="29.712315" lon="104.9368965"><ele>287.5</ele><time>2026-05-17T21:11:54.000Z</time></trkpt>
        <trkpt lat="29.7123684" lon="104.9368088"><ele>288.26</ele><time>2026-05-17T21:12:01.000Z</time></trkpt>
        <trkpt lat="29.7124103" lon="104.9367086"><ele>289.06</ele><time>2026-05-17T21:12:09.000Z</time></trkpt>
        <trkpt lat="29.7124569" lon="104.9366096"><ele>290.23</ele><time>2026-05-17T21:12:17.000Z</time></trkpt>
        <trkpt lat="29.7124966" lon="104.9365133"><ele>290.44</ele><time>2026-05-17T21:12:24.000Z</time></trkpt>
        <trkpt lat="29.7125268" lon="104.9364067"><ele>290.59</ele><time>2026-05-17T21:12:32.000Z</time></trkpt>
        <trkpt lat="29.7125809" lon="104.9363162"><ele>291.25</ele><time>2026-05-17T21:12:40.000Z</time></trkpt>
        <trkpt lat="29.7125809" lon="104.9363162"><ele>291.25</ele><time>2026-05-17T21:12:53.000Z</time></trkpt>
        <trkpt lat="29.7126476" lon="104.9362355"><ele>291.62</ele><time>2026-05-17T21:13:02.000Z</time></trkpt>
        <trkpt lat="29.7126476" lon="104.9362355"><ele>291.62</ele><time>2026-05-17T21:13:21.000Z</time></trkpt>
        <trkpt lat="29.7127391" lon="104.9361827"><ele>291.88</ele><time>2026-05-17T21:13:28.000Z</time></trkpt>
        <trkpt lat="29.7128287" lon="104.9361394"><ele>291.49</ele><time>2026-05-17T21:13:34.000Z</time></trkpt>
        <trkpt lat="29.7129209" lon="104.9361108"><ele>290.91</ele><time>2026-05-17T21:13:41.000Z</time></trkpt>
        <trkpt lat="29.7130149" lon="104.9360991"><ele>290.24</ele><time>2026-05-17T21:13:48.000Z</time></trkpt>
        <trkpt lat="29.7131095" lon="104.9360915"><ele>290.28</ele><time>2026-05-17T21:13:56.000Z</time></trkpt>
        <trkpt lat="29.7132027" lon="104.9360703"><ele>290.24</ele><time>2026-05-17T21:14:07.000Z</time></trkpt>
        <trkpt lat="29.713289" lon="104.9360187"><ele>290.03</ele><time>2026-05-17T21:14:13.000Z</time></trkpt>
        <trkpt lat="29.7133649" lon="104.935949"><ele>289.78</ele><time>2026-05-17T21:14:20.000Z</time></trkpt>
        <trkpt lat="29.7134319" lon="104.9358638"><ele>289.85</ele><time>2026-05-17T21:14:29.000Z</time></trkpt>
        <trkpt lat="29.7134918" lon="104.9357791"><ele>290.38</ele><time>2026-05-17T21:14:36.000Z</time></trkpt>
        <trkpt lat="29.71356" lon="104.9356962"><ele>291.07</ele><time>2026-05-17T21:14:43.000Z</time></trkpt>
        <trkpt lat="29.713614" lon="104.9356077"><ele>291.76</ele><time>2026-05-17T21:14:50.000Z</time></trkpt>
        <trkpt lat="29.7136455" lon="104.9354977"><ele>292.81</ele><time>2026-05-17T21:14:58.000Z</time></trkpt>
        <trkpt lat="29.7136628" lon="104.9353846"><ele>294.41</ele><time>2026-05-17T21:15:06.000Z</time></trkpt>
        <trkpt lat="29.7136665" lon="104.9352723"><ele>295.55</ele><time>2026-05-17T21:15:13.000Z</time></trkpt>
        <trkpt lat="29.7136725" lon="104.935157"><ele>295.97</ele><time>2026-05-17T21:15:21.000Z</time></trkpt>
        <trkpt lat="29.7136776" lon="104.9350438"><ele>296.56</ele><time>2026-05-17T21:15:28.000Z</time></trkpt>
        <trkpt lat="29.7136811" lon="104.9349353"><ele>297.03</ele><time>2026-05-17T21:15:36.000Z</time></trkpt>
        <trkpt lat="29.7137004" lon="104.9348325"><ele>297.3</ele><time>2026-05-17T21:15:43.000Z</time></trkpt>
        <trkpt lat="29.7137377" lon="104.9347246"><ele>297.31</ele><time>2026-05-17T21:15:52.000Z</time></trkpt>
        <trkpt lat="29.7137712" lon="104.934618"><ele>296.93</ele><time>2026-05-17T21:15:59.000Z</time></trkpt>
        <trkpt lat="29.7138241" lon="104.9345264"><ele>296.85</ele><time>2026-05-17T21:16:06.000Z</time></trkpt>
        <trkpt lat="29.7138886" lon="104.93444"><ele>297.02</ele><time>2026-05-17T21:16:14.000Z</time></trkpt>
        <trkpt lat="29.7139471" lon="104.9343504"><ele>297.49</ele><time>2026-05-17T21:16:22.000Z</time></trkpt>
        <trkpt lat="29.7139837" lon="104.934253"><ele>298.13</ele><time>2026-05-17T21:16:29.000Z</time></trkpt>
        <trkpt lat="29.7140341" lon="104.934163"><ele>298.23</ele><time>2026-05-17T21:16:36.000Z</time></trkpt>
        <trkpt lat="29.7140911" lon="104.9340735"><ele>298.17</ele><time>2026-05-17T21:16:44.000Z</time></trkpt>
        <trkpt lat="29.7141447" lon="104.9339839"><ele>297.54</ele><time>2026-05-17T21:16:52.000Z</time></trkpt>
        <trkpt lat="29.7141847" lon="104.9338864"><ele>296.69</ele><time>2026-05-17T21:16:59.000Z</time></trkpt>
        <trkpt lat="29.7142304" lon="104.933791"><ele>296.67</ele><time>2026-05-17T21:17:07.000Z</time></trkpt>
        <trkpt lat="29.7142676" lon="104.9336863"><ele>297.11</ele><time>2026-05-17T21:17:15.000Z</time></trkpt>
        <trkpt lat="29.714311" lon="104.9335881"><ele>296.81</ele><time>2026-05-17T21:17:23.000Z</time></trkpt>
        <trkpt lat="29.7143658" lon="104.9334965"><ele>297</ele><time>2026-05-17T21:17:30.000Z</time></trkpt>
        <trkpt lat="29.71444" lon="104.9334265"><ele>297.18</ele><time>2026-05-17T21:17:38.000Z</time></trkpt>
        <trkpt lat="29.7145224" lon="104.9333696"><ele>297.29</ele><time>2026-05-17T21:17:46.000Z</time></trkpt>
        <trkpt lat="29.7146113" lon="104.9333225"><ele>297.05</ele><time>2026-05-17T21:17:55.000Z</time></trkpt>
        <trkpt lat="29.7147081" lon="104.933309"><ele>297.36</ele><time>2026-05-17T21:18:02.000Z</time></trkpt>
        <trkpt lat="29.7148049" lon="104.9333154"><ele>297.39</ele><time>2026-05-17T21:18:11.000Z</time></trkpt>
        <trkpt lat="29.7148993" lon="104.933334"><ele>297.63</ele><time>2026-05-17T21:18:19.000Z</time></trkpt>
        <trkpt lat="29.7149953" lon="104.9333501"><ele>297.23</ele><time>2026-05-17T21:18:27.000Z</time></trkpt>
        <trkpt lat="29.7150938" lon="104.9333449"><ele>295.95</ele><time>2026-05-17T21:18:36.000Z</time></trkpt>
        <trkpt lat="29.7151801" lon="104.9333049"><ele>295.31</ele><time>2026-05-17T21:18:43.000Z</time></trkpt>
        <trkpt lat="29.7152567" lon="104.9332425"><ele>295.04</ele><time>2026-05-17T21:18:50.000Z</time></trkpt>
        <trkpt lat="29.7153107" lon="104.933149"><ele>295.55</ele><time>2026-05-17T21:18:58.000Z</time></trkpt>
        <trkpt lat="29.7153397" lon="104.9330444"><ele>296.48</ele><time>2026-05-17T21:19:06.000Z</time></trkpt>
        <trkpt lat="29.7153483" lon="104.9329332"><ele>297.11</ele><time>2026-05-17T21:19:14.000Z</time></trkpt>
        <trkpt lat="29.7153483" lon="104.9328207"><ele>297.12</ele><time>2026-05-17T21:19:29.000Z</time></trkpt>
        <trkpt lat="29.7154056" lon="104.9327466"><ele>297.03</ele><time>2026-05-17T21:19:39.000Z</time></trkpt>
        <trkpt lat="29.7155017" lon="104.93272"><ele>297.04</ele><time>2026-05-17T21:19:46.000Z</time></trkpt>
        <trkpt lat="29.715604" lon="104.9327217"><ele>298.04</ele><time>2026-05-17T21:19:54.000Z</time></trkpt>
        <trkpt lat="29.7157045" lon="104.9326949"><ele>298.4</ele><time>2026-05-17T21:20:04.000Z</time></trkpt>
        <trkpt lat="29.7158039" lon="104.9326642"><ele>299.01</ele><time>2026-05-17T21:20:12.000Z</time></trkpt>
        <trkpt lat="29.7159021" lon="104.9326171"><ele>300.39</ele><time>2026-05-17T21:20:22.000Z</time></trkpt>
        <trkpt lat="29.7159621" lon="104.9325277"><ele>301</ele><time>2026-05-17T21:20:31.000Z</time></trkpt>
        <trkpt lat="29.7159864" lon="104.9324224"><ele>301.85</ele><time>2026-05-17T21:20:42.000Z</time></trkpt>
        <trkpt lat="29.7160029" lon="104.9323115"><ele>303.58</ele><time>2026-05-17T21:20:53.000Z</time></trkpt>
        <trkpt lat="29.7159924" lon="104.9322006"><ele>304.74</ele><time>2026-05-17T21:21:02.000Z</time></trkpt>
        <trkpt lat="29.7159553" lon="104.9320976"><ele>305.61</ele><time>2026-05-17T21:21:13.000Z</time></trkpt>
        <trkpt lat="29.7159245" lon="104.9319872"><ele>307.97</ele><time>2026-05-17T21:21:22.000Z</time></trkpt>
        <trkpt lat="29.7159345" lon="104.9318786"><ele>310.49</ele><time>2026-05-17T21:21:31.000Z</time></trkpt>
        <trkpt lat="29.7160058" lon="104.9318068"><ele>313.11</ele><time>2026-05-17T21:21:39.000Z</time></trkpt>
        <trkpt lat="29.7160994" lon="104.9317774"><ele>314.59</ele><time>2026-05-17T21:21:47.000Z</time></trkpt>
        <trkpt lat="29.7161975" lon="104.9317628"><ele>315.78</ele><time>2026-05-17T21:21:54.000Z</time></trkpt>
        <trkpt lat="29.7162875" lon="104.9317294"><ele>316.65</ele><time>2026-05-17T21:22:04.000Z</time></trkpt>
        <trkpt lat="29.716375" lon="104.9316827"><ele>317.31</ele><time>2026-05-17T21:22:12.000Z</time></trkpt>
        <trkpt lat="29.7164642" lon="104.9316458"><ele>317.4</ele><time>2026-05-17T21:22:19.000Z</time></trkpt>
        <trkpt lat="29.7165548" lon="104.9316139"><ele>317.15</ele><time>2026-05-17T21:22:26.000Z</time></trkpt>
        <trkpt lat="29.7166369" lon="104.9315623"><ele>316.77</ele><time>2026-05-17T21:22:33.000Z</time></trkpt>
        <trkpt lat="29.7167225" lon="104.9315058"><ele>316.2</ele><time>2026-05-17T21:22:40.000Z</time></trkpt>
        <trkpt lat="29.7168017" lon="104.9314499"><ele>315.78</ele><time>2026-05-17T21:22:48.000Z</time></trkpt>
        <trkpt lat="29.7168865" lon="104.9314135"><ele>315.37</ele><time>2026-05-17T21:22:55.000Z</time></trkpt>
        <trkpt lat="29.7169737" lon="104.9313733"><ele>314.61</ele><time>2026-05-17T21:23:02.000Z</time></trkpt>
        <trkpt lat="29.7170607" lon="104.9313362"><ele>313.84</ele><time>2026-05-17T21:23:10.000Z</time></trkpt>
        <trkpt lat="29.7171536" lon="104.9313372"><ele>313.21</ele><time>2026-05-17T21:23:18.000Z</time></trkpt>
        <trkpt lat="29.7172444" lon="104.9313712"><ele>312.44</ele><time>2026-05-17T21:23:26.000Z</time></trkpt>
        <trkpt lat="29.7173235" lon="104.9314318"><ele>311.23</ele><time>2026-05-17T21:23:34.000Z</time></trkpt>
        <trkpt lat="29.7173854" lon="104.9315134"><ele>309.96</ele><time>2026-05-17T21:23:43.000Z</time></trkpt>
        <trkpt lat="29.7174438" lon="104.9316011"><ele>308.9</ele><time>2026-05-17T21:23:54.000Z</time></trkpt>
        <trkpt lat="29.7175161" lon="104.9316706"><ele>308.36</ele><time>2026-05-17T21:24:03.000Z</time></trkpt>
        <trkpt lat="29.7175915" lon="104.9317377"><ele>308.37</ele><time>2026-05-17T21:24:18.000Z</time></trkpt>
        <trkpt lat="29.7176758" lon="104.9317765"><ele>310.12</ele><time>2026-05-17T21:24:30.000Z</time></trkpt>
        <trkpt lat="29.7177562" lon="104.9317373"><ele>312.46</ele><time>2026-05-17T21:24:41.000Z</time></trkpt>
        <trkpt lat="29.7178209" lon="104.9316518"><ele>315.28</ele><time>2026-05-17T21:24:50.000Z</time></trkpt>
        <trkpt lat="29.7179023" lon="104.9315983"><ele>317</ele><time>2026-05-17T21:25:01.000Z</time></trkpt>
        <trkpt lat="29.7178857" lon="104.9315141"><ele>318.39</ele><time>2026-05-17T21:25:21.000Z</time></trkpt>
        <trkpt lat="29.7179033" lon="104.9314166"><ele>320.69</ele><time>2026-05-17T21:25:39.000Z</time></trkpt>
        <trkpt lat="29.7179745" lon="104.9313922"><ele>322.28</ele><time>2026-05-17T21:25:50.000Z</time></trkpt>
        <trkpt lat="29.7180566" lon="104.9313537"><ele>323.72</ele><time>2026-05-17T21:26:01.000Z</time></trkpt>
        <trkpt lat="29.7180883" lon="104.9312616"><ele>324.98</ele><time>2026-05-17T21:26:13.000Z</time></trkpt>
        <trkpt lat="29.7181597" lon="104.9312474"><ele>327.2</ele><time>2026-05-17T21:26:47.000Z</time></trkpt>
        <trkpt lat="29.7181597" lon="104.9312474"><ele>327.2</ele><time>2026-05-17T21:27:05.000Z</time></trkpt>
        <trkpt lat="29.7181597" lon="104.9312474"><ele>327.2</ele><time>2026-05-17T21:27:18.000Z</time></trkpt>
        <trkpt lat="29.7181597" lon="104.9312474"><ele>327.2</ele><time>2026-05-17T21:27:37.000Z</time></trkpt>
        <trkpt lat="29.7182344" lon="104.9311853"><ele>329.49</ele><time>2026-05-17T21:27:56.000Z</time></trkpt>
        <trkpt lat="29.7182344" lon="104.9311853"><ele>329.49</ele><time>2026-05-17T21:28:13.000Z</time></trkpt>
        <trkpt lat="29.7182616" lon="104.9310821"><ele>330.38</ele><time>2026-05-17T21:28:22.000Z</time></trkpt>
        <trkpt lat="29.7182034" lon="104.9310153"><ele>330.49</ele><time>2026-05-17T21:28:41.000Z</time></trkpt>
        <trkpt lat="29.7182034" lon="104.9310153"><ele>330.49</ele><time>2026-05-17T21:30:57.000Z</time></trkpt>
        <trkpt lat="29.7182034" lon="104.9310153"><ele>330.49</ele><time>2026-05-17T21:31:02.000Z</time></trkpt>
        <trkpt lat="29.7182034" lon="104.9310153"><ele>330.49</ele><time>2026-05-17T21:32:09.000Z</time></trkpt>
        <trkpt lat="29.7182427" lon="104.9311107"><ele>331.1</ele><time>2026-05-17T21:32:12.000Z</time></trkpt>
        <trkpt lat="29.7182427" lon="104.9311107"><ele>331.1</ele><time>2026-05-17T21:32:52.000Z</time></trkpt>
        <trkpt lat="29.7182087" lon="104.9312113"><ele>330.16</ele><time>2026-05-17T21:33:02.000Z</time></trkpt>
        <trkpt lat="29.7181549" lon="104.9312958"><ele>328.81</ele><time>2026-05-17T21:33:11.000Z</time></trkpt>
        <trkpt lat="29.7180972" lon="104.9313857"><ele>327.75</ele><time>2026-05-17T21:33:21.000Z</time></trkpt>
        <trkpt lat="29.7180141" lon="104.931422"><ele>327.17</ele><time>2026-05-17T21:33:29.000Z</time></trkpt>
        <trkpt lat="29.7179234" lon="104.9314538"><ele>327.05</ele><time>2026-05-17T21:34:12.000Z</time></trkpt>
        <trkpt lat="29.7178626" lon="104.931525"><ele>325.63</ele><time>2026-05-17T21:34:18.000Z</time></trkpt>
        <trkpt lat="29.7178732" lon="104.9316312"><ele>324.67</ele><time>2026-05-17T21:34:28.000Z</time></trkpt>
        <trkpt lat="29.7178831" lon="104.9317444"><ele>323.95</ele><time>2026-05-17T21:34:36.000Z</time></trkpt>
        <trkpt lat="29.7178852" lon="104.9318692"><ele>322.78</ele><time>2026-05-17T21:34:46.000Z</time></trkpt>
        <trkpt lat="29.7179054" lon="104.9319914"><ele>321.05</ele><time>2026-05-17T21:34:57.000Z</time></trkpt>
        <trkpt lat="29.7179282" lon="104.9321024"><ele>318.31</ele><time>2026-05-17T21:35:05.000Z</time></trkpt>
        <trkpt lat="29.7179653" lon="104.9320565"><ele>315.76</ele><time>2026-05-17T21:35:20.000Z</time></trkpt>
        <trkpt lat="29.7179887" lon="104.9319427"><ele>313.37</ele><time>2026-05-17T21:35:28.000Z</time></trkpt>
        <trkpt lat="29.7180218" lon="104.9318181"><ele>311.96</ele><time>2026-05-17T21:35:36.000Z</time></trkpt>
        <trkpt lat="29.7180218" lon="104.9318181"><ele>311.96</ele><time>2026-05-17T21:36:01.000Z</time></trkpt>
        <trkpt lat="29.7180952" lon="104.9317404"><ele>310.39</ele><time>2026-05-17T21:36:08.000Z</time></trkpt>
        <trkpt lat="29.7180952" lon="104.9317404"><ele>310.39</ele><time>2026-05-17T21:36:16.000Z</time></trkpt>
        <trkpt lat="29.7180952" lon="104.9317404"><ele>310.39</ele><time>2026-05-17T21:36:39.000Z</time></trkpt>
        <trkpt lat="29.7180952" lon="104.9317404"><ele>310.39</ele><time>2026-05-17T21:36:42.000Z</time></trkpt>
        <trkpt lat="29.7180952" lon="104.9317404"><ele>310.39</ele><time>2026-05-17T21:36:53.000Z</time></trkpt>
        <trkpt lat="29.7180205" lon="104.9317323"><ele>309.77</ele><time>2026-05-17T21:36:58.000Z</time></trkpt>
        <trkpt lat="29.7180205" lon="104.9317323"><ele>309.77</ele><time>2026-05-17T21:37:33.000Z</time></trkpt>
        <trkpt lat="29.7180205" lon="104.9317323"><ele>309.77</ele><time>2026-05-17T21:37:49.000Z</time></trkpt>
        <trkpt lat="29.7180205" lon="104.9317323"><ele>309.77</ele><time>2026-05-17T21:37:54.000Z</time></trkpt>
        <trkpt lat="29.7180205" lon="104.9317323"><ele>309.77</ele><time>2026-05-17T21:38:09.000Z</time></trkpt>
        <trkpt lat="29.7180205" lon="104.9317323"><ele>309.77</ele><time>2026-05-17T21:38:10.000Z</time></trkpt>
        <trkpt lat="29.7180205" lon="104.9317323"><ele>309.77</ele><time>2026-05-17T21:39:17.000Z</time></trkpt>
        <trkpt lat="29.7180205" lon="104.9317323"><ele>309.77</ele><time>2026-05-17T21:39:32.000Z</time></trkpt>
        <trkpt lat="29.7180205" lon="104.9317323"><ele>309.77</ele><time>2026-05-17T21:39:43.000Z</time></trkpt>
        <trkpt lat="29.7181127" lon="104.9317301"><ele>309.72</ele><time>2026-05-17T21:39:48.000Z</time></trkpt>
        <trkpt lat="29.7181127" lon="104.9317301"><ele>309.72</ele><time>2026-05-17T21:40:20.000Z</time></trkpt>
        <trkpt lat="29.7181936" lon="104.9316586"><ele>308.7</ele><time>2026-05-17T21:40:28.000Z</time></trkpt>
        <trkpt lat="29.7181936" lon="104.9316586"><ele>308.7</ele><time>2026-05-17T21:41:07.000Z</time></trkpt>
        <trkpt lat="29.7182241" lon="104.9315584"><ele>308.36</ele><time>2026-05-17T21:41:08.000Z</time></trkpt>
        <trkpt lat="29.7182241" lon="104.9315584"><ele>308.36</ele><time>2026-05-17T21:41:09.000Z</time></trkpt>
        <trkpt lat="29.7182241" lon="104.9315584"><ele>308.36</ele><time>2026-05-17T21:41:31.000Z</time></trkpt>
        <trkpt lat="29.7182241" lon="104.9315584"><ele>308.36</ele><time>2026-05-17T21:41:56.000Z</time></trkpt>
        <trkpt lat="29.7182241" lon="104.9315584"><ele>308.36</ele><time>2026-05-17T21:42:13.000Z</time></trkpt>
        <trkpt lat="29.7181149" lon="104.9315239"><ele>308.22</ele><time>2026-05-17T21:42:18.000Z</time></trkpt>
        <trkpt lat="29.7181149" lon="104.9315239"><ele>308.22</ele><time>2026-05-17T21:42:20.000Z</time></trkpt>
        <trkpt lat="29.7181149" lon="104.9315239"><ele>308.22</ele><time>2026-05-17T21:42:53.000Z</time></trkpt>
        <trkpt lat="29.7181149" lon="104.9315239"><ele>308.22</ele><time>2026-05-17T21:42:56.000Z</time></trkpt>
        <trkpt lat="29.7181149" lon="104.9315239"><ele>308.22</ele><time>2026-05-17T21:43:19.000Z</time></trkpt>
        <trkpt lat="29.7181876" lon="104.9315868"><ele>308.6</ele><time>2026-05-17T21:43:22.000Z</time></trkpt>
        <trkpt lat="29.7181876" lon="104.9315868"><ele>308.6</ele><time>2026-05-17T21:44:11.000Z</time></trkpt>
        <trkpt lat="29.7181813" lon="104.9316905"><ele>309.8</ele><time>2026-05-17T21:44:32.000Z</time></trkpt>
        <trkpt lat="29.7181231" lon="104.9317692"><ele>310.49</ele><time>2026-05-17T21:44:44.000Z</time></trkpt>
        <trkpt lat="29.7180521" lon="104.9318379"><ele>310.9</ele><time>2026-05-17T21:44:51.000Z</time></trkpt>
        <trkpt lat="29.7180152" lon="104.9319339"><ele>311.05</ele><time>2026-05-17T21:45:04.000Z</time></trkpt>
        <trkpt lat="29.7179917" lon="104.9320355"><ele>310.3</ele><time>2026-05-17T21:45:14.000Z</time></trkpt>
        <trkpt lat="29.7179776" lon="104.932141"><ele>308.86</ele><time>2026-05-17T21:45:24.000Z</time></trkpt>
        <trkpt lat="29.7179456" lon="104.9320983"><ele>307.9</ele><time>2026-05-17T21:45:43.000Z</time></trkpt>
        <trkpt lat="29.7179247" lon="104.9319891"><ele>307.25</ele><time>2026-05-17T21:46:01.000Z</time></trkpt>
        <trkpt lat="29.7179139" lon="104.9318674"><ele>307.07</ele><time>2026-05-17T21:46:12.000Z</time></trkpt>
        <trkpt lat="29.7178939" lon="104.9317506"><ele>307.35</ele><time>2026-05-17T21:46:30.000Z</time></trkpt>
        <trkpt lat="29.7178832" lon="104.9316357"><ele>308.53</ele><time>2026-05-17T21:46:43.000Z</time></trkpt>
        <trkpt lat="29.7178832" lon="104.9316357"><ele>308.53</ele><time>2026-05-17T21:47:09.000Z</time></trkpt>
        <trkpt lat="29.7178703" lon="104.9315272"><ele>309.41</ele><time>2026-05-17T21:47:12.000Z</time></trkpt>
        <trkpt lat="29.7178703" lon="104.9315272"><ele>309.41</ele><time>2026-05-17T21:47:29.000Z</time></trkpt>
        <trkpt lat="29.7179004" lon="104.9314281"><ele>311.38</ele><time>2026-05-17T21:47:59.000Z</time></trkpt>
        <trkpt lat="29.7179004" lon="104.9314281"><ele>311.38</ele><time>2026-05-17T21:48:15.000Z</time></trkpt>
        <trkpt lat="29.7179282" lon="104.9313211"><ele>314.35</ele><time>2026-05-17T21:48:18.000Z</time></trkpt>
        <trkpt lat="29.7179282" lon="104.9313211"><ele>314.35</ele><time>2026-05-17T21:48:26.000Z</time></trkpt>
        <trkpt lat="29.7179565" lon="104.931219"><ele>317.73</ele><time>2026-05-17T21:48:41.000Z</time></trkpt>
        <trkpt lat="29.7179516" lon="104.9312726"><ele>320.57</ele><time>2026-05-17T21:49:40.000Z</time></trkpt>
        <trkpt lat="29.7179755" lon="104.9313765"><ele>323.6</ele><time>2026-05-17T21:49:53.000Z</time></trkpt>
        <trkpt lat="29.7179755" lon="104.9313765"><ele>323.6</ele><time>2026-05-17T21:50:31.000Z</time></trkpt>
        <trkpt lat="29.7179535" lon="104.9313209"><ele>325.26</ele><time>2026-05-17T21:50:32.000Z</time></trkpt>
        <trkpt lat="29.7179535" lon="104.9313209"><ele>325.26</ele><time>2026-05-17T21:51:05.000Z</time></trkpt>
        <trkpt lat="29.7179607" lon="104.9312158"><ele>326.59</ele><time>2026-05-17T21:51:37.000Z</time></trkpt>
        <trkpt lat="29.7179896" lon="104.9311163"><ele>327.19</ele><time>2026-05-17T21:51:52.000Z</time></trkpt>
        <trkpt lat="29.7179912" lon="104.9310128"><ele>327.83</ele><time>2026-05-17T21:52:30.000Z</time></trkpt>
        <trkpt lat="29.7179979" lon="104.9309009"><ele>328.76</ele><time>2026-05-17T21:53:05.000Z</time></trkpt>
        <trkpt lat="29.7180163" lon="104.9307931"><ele>329.14</ele><time>2026-05-17T21:53:45.000Z</time></trkpt>
        <trkpt lat="29.7180253" lon="104.9306859"><ele>329.44</ele><time>2026-05-17T21:54:10.000Z</time></trkpt>
        <trkpt lat="29.7180207" lon="104.930576"><ele>330.14</ele><time>2026-05-17T21:54:50.000Z</time></trkpt>
        <trkpt lat="29.7180207" lon="104.930576"><ele>330.14</ele><time>2026-05-17T21:55:37.000Z</time></trkpt>
        <trkpt lat="29.7180207" lon="104.930576"><ele>330.14</ele><time>2026-05-17T21:55:40.000Z</time></trkpt>
        <trkpt lat="29.7180207" lon="104.930576"><ele>330.14</ele><time>2026-05-17T21:56:05.000Z</time></trkpt>
        <trkpt lat="29.7180207" lon="104.930576"><ele>330.14</ele><time>2026-05-17T21:56:10.000Z</time></trkpt>
        <trkpt lat="29.7180207" lon="104.930576"><ele>330.14</ele><time>2026-05-17T21:56:25.000Z</time></trkpt>
        <trkpt lat="29.7180207" lon="104.930576"><ele>330.14</ele><time>2026-05-17T21:56:28.000Z</time></trkpt>
        <trkpt lat="29.7180207" lon="104.930576"><ele>330.14</ele><time>2026-05-17T21:56:39.000Z</time></trkpt>
        <trkpt lat="29.7180207" lon="104.930576"><ele>330.14</ele><time>2026-05-17T21:56:44.000Z</time></trkpt>
        <trkpt lat="29.7180207" lon="104.930576"><ele>330.14</ele><time>2026-05-17T21:56:59.000Z</time></trkpt>
        <trkpt lat="29.7180207" lon="104.930576"><ele>330.14</ele><time>2026-05-17T21:57:14.000Z</time></trkpt>
        <trkpt lat="29.7180207" lon="104.930576"><ele>330.14</ele><time>2026-05-17T21:57:35.000Z</time></trkpt>
        <trkpt lat="29.7180073" lon="104.9304546"><ele>329.95</ele><time>2026-05-17T21:57:54.000Z</time></trkpt>
        <trkpt lat="29.7180073" lon="104.9304546"><ele>329.95</ele><time>2026-05-17T21:58:08.000Z</time></trkpt>
        <trkpt lat="29.7180245" lon="104.9303517"><ele>329.86</ele><time>2026-05-17T21:59:21.000Z</time></trkpt>
        <trkpt lat="29.7180614" lon="104.9302537"><ele>330.88</ele><time>2026-05-17T21:59:43.000Z</time></trkpt>
        <trkpt lat="29.718077" lon="104.93015"><ele>331.45</ele><time>2026-05-17T21:59:56.000Z</time></trkpt>
        <trkpt lat="29.7180972" lon="104.9300434"><ele>331.97</ele><time>2026-05-17T22:00:14.000Z</time></trkpt>
        <trkpt lat="29.7181434" lon="104.9299519"><ele>333.59</ele><time>2026-05-17T22:00:29.000Z</time></trkpt>
        <trkpt lat="29.7181922" lon="104.929861"><ele>334.23</ele><time>2026-05-17T22:00:43.000Z</time></trkpt>
        <trkpt lat="29.7182739" lon="104.9298149"><ele>334.65</ele><time>2026-05-17T22:00:58.000Z</time></trkpt>
        <trkpt lat="29.7183554" lon="104.929755"><ele>335.21</ele><time>2026-05-17T22:03:03.000Z</time></trkpt>
        <trkpt lat="29.7183554" lon="104.929755"><ele>335.21</ele><time>2026-05-17T22:03:37.000Z</time></trkpt>
        <trkpt lat="29.7183554" lon="104.929755"><ele>335.21</ele><time>2026-05-17T22:03:40.000Z</time></trkpt>
        <trkpt lat="29.7183554" lon="104.929755"><ele>335.21</ele><time>2026-05-17T22:03:51.000Z</time></trkpt>
        <trkpt lat="29.7183554" lon="104.929755"><ele>335.21</ele><time>2026-05-17T22:03:56.000Z</time></trkpt>
        <trkpt lat="29.7183554" lon="104.929755"><ele>335.21</ele><time>2026-05-17T22:04:37.000Z</time></trkpt>
        <trkpt lat="29.7183554" lon="104.929755"><ele>335.21</ele><time>2026-05-17T22:04:46.000Z</time></trkpt>
        <trkpt lat="29.7183554" lon="104.929755"><ele>335.21</ele><time>2026-05-17T22:04:59.000Z</time></trkpt>
        <trkpt lat="29.7183554" lon="104.929755"><ele>335.21</ele><time>2026-05-17T22:05:26.000Z</time></trkpt>
        <trkpt lat="29.7183554" lon="104.929755"><ele>335.21</ele><time>2026-05-17T22:05:37.000Z</time></trkpt>
        <trkpt lat="29.7183554" lon="104.929755"><ele>335.21</ele><time>2026-05-17T22:06:10.000Z</time></trkpt>
        <trkpt lat="29.7183554" lon="104.929755"><ele>335.21</ele><time>2026-05-17T22:06:33.000Z</time></trkpt>
        <trkpt lat="29.7183554" lon="104.929755"><ele>335.21</ele><time>2026-05-17T22:06:48.000Z</time></trkpt>
        <trkpt lat="29.7183554" lon="104.929755"><ele>335.21</ele><time>2026-05-17T22:06:59.000Z</time></trkpt>
        <trkpt lat="29.7182806" lon="104.9298223"><ele>337.47</ele><time>2026-05-17T22:07:12.000Z</time></trkpt>
        <trkpt lat="29.7182806" lon="104.9298223"><ele>337.47</ele><time>2026-05-17T22:07:30.000Z</time></trkpt>
        <trkpt lat="29.718203" lon="104.9298779"><ele>340.54</ele><time>2026-05-17T22:07:41.000Z</time></trkpt>
        <trkpt lat="29.7181542" lon="104.9299656"><ele>342.76</ele><time>2026-05-17T22:07:50.000Z</time></trkpt>
        <trkpt lat="29.7180974" lon="104.9300552"><ele>343.13</ele><time>2026-05-17T22:08:01.000Z</time></trkpt>
        <trkpt lat="29.7180624" lon="104.9301574"><ele>342.22</ele><time>2026-05-17T22:08:11.000Z</time></trkpt>
        <trkpt lat="29.7180427" lon="104.9302624"><ele>341.03</ele><time>2026-05-17T22:08:29.000Z</time></trkpt>
        <trkpt lat="29.7180118" lon="104.9303633"><ele>339.48</ele><time>2026-05-17T22:08:44.000Z</time></trkpt>
        <trkpt lat="29.7180031" lon="104.9304729"><ele>337.79</ele><time>2026-05-17T22:08:58.000Z</time></trkpt>
        <trkpt lat="29.7180227" lon="104.9305778"><ele>336.42</ele><time>2026-05-17T22:09:07.000Z</time></trkpt>
        <trkpt lat="29.7180408" lon="104.9306848"><ele>334.54</ele><time>2026-05-17T22:09:23.000Z</time></trkpt>
        <trkpt lat="29.7180337" lon="104.9307883"><ele>333.16</ele><time>2026-05-17T22:09:31.000Z</time></trkpt>
        <trkpt lat="29.7180161" lon="104.9308935"><ele>332.1</ele><time>2026-05-17T22:09:40.000Z</time></trkpt>
        <trkpt lat="29.718003" lon="104.9310044"><ele>330.93</ele><time>2026-05-17T22:09:50.000Z</time></trkpt>
        <trkpt lat="29.7179952" lon="104.9311191"><ele>329.85</ele><time>2026-05-17T22:09:59.000Z</time></trkpt>
        <trkpt lat="29.7179664" lon="104.9312204"><ele>329.72</ele><time>2026-05-17T22:10:12.000Z</time></trkpt>
        <trkpt lat="29.7179489" lon="104.9313229"><ele>329.38</ele><time>2026-05-17T22:10:23.000Z</time></trkpt>
        <trkpt lat="29.7179297" lon="104.9314278"><ele>328.48</ele><time>2026-05-17T22:10:36.000Z</time></trkpt>
        <trkpt lat="29.7178859" lon="104.931527"><ele>328.37</ele><time>2026-05-17T22:10:48.000Z</time></trkpt>
        <trkpt lat="29.7178376" lon="104.9316206"><ele>327.63</ele><time>2026-05-17T22:11:30.000Z</time></trkpt>
        <trkpt lat="29.7177754" lon="104.9317101"><ele>327.66</ele><time>2026-05-17T22:11:37.000Z</time></trkpt>
        <trkpt lat="29.7176908" lon="104.9317828"><ele>327.05</ele><time>2026-05-17T22:11:44.000Z</time></trkpt>
        <trkpt lat="29.7176085" lon="104.9318512"><ele>325.89</ele><time>2026-05-17T22:11:52.000Z</time></trkpt>
        <trkpt lat="29.7175171" lon="104.9318866"><ele>325.1</ele><time>2026-05-17T22:12:12.000Z</time></trkpt>
        <trkpt lat="29.7174256" lon="104.9319276"><ele>324.82</ele><time>2026-05-17T22:12:20.000Z</time></trkpt>
        <trkpt lat="29.7173278" lon="104.9319401"><ele>324.35</ele><time>2026-05-17T22:12:29.000Z</time></trkpt>
        <trkpt lat="29.7172288" lon="104.9319555"><ele>324.25</ele><time>2026-05-17T22:12:36.000Z</time></trkpt>
        <trkpt lat="29.7171279" lon="104.9319721"><ele>324.56</ele><time>2026-05-17T22:12:43.000Z</time></trkpt>
        <trkpt lat="29.7170288" lon="104.9320225"><ele>324.82</ele><time>2026-05-17T22:12:52.000Z</time></trkpt>
        <trkpt lat="29.7169383" lon="104.9320792"><ele>325.11</ele><time>2026-05-17T22:13:00.000Z</time></trkpt>
        <trkpt lat="29.7168461" lon="104.9321199"><ele>324.68</ele><time>2026-05-17T22:13:10.000Z</time></trkpt>
        <trkpt lat="29.7168461" lon="104.9321199"><ele>324.68</ele><time>2026-05-17T22:13:33.000Z</time></trkpt>
        <trkpt lat="29.7168461" lon="104.9321199"><ele>324.68</ele><time>2026-05-17T22:13:34.000Z</time></trkpt>
        <trkpt lat="29.7168461" lon="104.9321199"><ele>324.68</ele><time>2026-05-17T22:14:17.000Z</time></trkpt>
        <trkpt lat="29.7167508" lon="104.9321123"><ele>324.38</ele><time>2026-05-17T22:14:20.000Z</time></trkpt>
        <trkpt lat="29.7167508" lon="104.9321123"><ele>324.38</ele><time>2026-05-17T22:14:53.000Z</time></trkpt>
        <trkpt lat="29.7166506" lon="104.9321339"><ele>324.26</ele><time>2026-05-17T22:15:03.000Z</time></trkpt>
        <trkpt lat="29.7165576" lon="104.9321672"><ele>324.71</ele><time>2026-05-17T22:15:35.000Z</time></trkpt>
        <trkpt lat="29.7165989" lon="104.9321292"><ele>324.52</ele><time>2026-05-17T22:15:54.000Z</time></trkpt>
        <trkpt lat="29.7166959" lon="104.9320978"><ele>323.2</ele><time>2026-05-17T22:16:02.000Z</time></trkpt>
        <trkpt lat="29.7166959" lon="104.9320978"><ele>323.2</ele><time>2026-05-17T22:17:29.000Z</time></trkpt>
        <trkpt lat="29.7166959" lon="104.9320978"><ele>323.2</ele><time>2026-05-17T22:17:30.000Z</time></trkpt>
        <trkpt lat="29.7166959" lon="104.9320978"><ele>323.2</ele><time>2026-05-17T22:17:41.000Z</time></trkpt>
        <trkpt lat="29.7166959" lon="104.9320978"><ele>323.2</ele><time>2026-05-17T22:17:56.000Z</time></trkpt>
        <trkpt lat="29.7166959" lon="104.9320978"><ele>323.2</ele><time>2026-05-17T22:18:27.000Z</time></trkpt>
        <trkpt lat="29.7166959" lon="104.9320978"><ele>323.2</ele><time>2026-05-17T22:18:36.000Z</time></trkpt>
        <trkpt lat="29.7166959" lon="104.9320978"><ele>323.2</ele><time>2026-05-17T22:18:49.000Z</time></trkpt>
        <trkpt lat="29.7166959" lon="104.9320978"><ele>323.2</ele><time>2026-05-17T22:18:58.000Z</time></trkpt>
        <trkpt lat="29.7166959" lon="104.9320978"><ele>323.2</ele><time>2026-05-17T22:19:13.000Z</time></trkpt>
        <trkpt lat="29.7168161" lon="104.9321517"><ele>322.25</ele><time>2026-05-17T22:19:38.000Z</time></trkpt>
        <trkpt lat="29.7168161" lon="104.9321517"><ele>322.25</ele><time>2026-05-17T22:19:58.000Z</time></trkpt>
        <trkpt lat="29.7169102" lon="104.9321156"><ele>321.97</ele><time>2026-05-17T22:20:57.000Z</time></trkpt>
        <trkpt lat="29.7169851" lon="104.9320514"><ele>322.75</ele><time>2026-05-17T22:21:06.000Z</time></trkpt>
        <trkpt lat="29.7170664" lon="104.9320038"><ele>323.46</ele><time>2026-05-17T22:21:14.000Z</time></trkpt>
        <trkpt lat="29.7171491" lon="104.9319549"><ele>323.9</ele><time>2026-05-17T22:21:23.000Z</time></trkpt>
        <trkpt lat="29.7172458" lon="104.9319236"><ele>324.08</ele><time>2026-05-17T22:21:32.000Z</time></trkpt>
        <trkpt lat="29.7173429" lon="104.931912"><ele>323.9</ele><time>2026-05-17T22:21:41.000Z</time></trkpt>
        <trkpt lat="29.7174378" lon="104.9319016"><ele>323.41</ele><time>2026-05-17T22:21:49.000Z</time></trkpt>
        <trkpt lat="29.7175334" lon="104.9318775"><ele>323.01</ele><time>2026-05-17T22:21:57.000Z</time></trkpt>
        <trkpt lat="29.7176262" lon="104.9318419"><ele>322.55</ele><time>2026-05-17T22:22:06.000Z</time></trkpt>
        <trkpt lat="29.7177052" lon="104.931788"><ele>322.29</ele><time>2026-05-17T22:22:13.000Z</time></trkpt>
        <trkpt lat="29.7177705" lon="104.9317036"><ele>321.93</ele><time>2026-05-17T22:22:22.000Z</time></trkpt>
        <trkpt lat="29.717835" lon="104.931618"><ele>321.66</ele><time>2026-05-17T22:22:30.000Z</time></trkpt>
        <trkpt lat="29.7178893" lon="104.931525"><ele>321.8</ele><time>2026-05-17T22:22:39.000Z</time></trkpt>
        <trkpt lat="29.7179418" lon="104.9314259"><ele>322.17</ele><time>2026-05-17T22:22:48.000Z</time></trkpt>
        <trkpt lat="29.7179418" lon="104.9314259"><ele>322.17</ele><time>2026-05-17T22:23:07.000Z</time></trkpt>
        <trkpt lat="29.7179616" lon="104.9313136"><ele>322.32</ele><time>2026-05-17T22:23:20.000Z</time></trkpt>
        <trkpt lat="29.7179616" lon="104.9313136"><ele>322.32</ele><time>2026-05-17T22:23:43.000Z</time></trkpt>
        <trkpt lat="29.7179796" lon="104.9312078"><ele>322.46</ele><time>2026-05-17T22:23:52.000Z</time></trkpt>
        <trkpt lat="29.717994" lon="104.9310986"><ele>323.13</ele><time>2026-05-17T22:24:06.000Z</time></trkpt>
        <trkpt lat="29.7180053" lon="104.9309909"><ele>324.41</ele><time>2026-05-17T22:24:17.000Z</time></trkpt>
        <trkpt lat="29.718018" lon="104.9308797"><ele>325.63</ele><time>2026-05-17T22:24:34.000Z</time></trkpt>
        <trkpt lat="29.7180257" lon="104.9307713"><ele>326.56</ele><time>2026-05-17T22:24:42.000Z</time></trkpt>
        <trkpt lat="29.7180338" lon="104.9306538"><ele>327.1</ele><time>2026-05-17T22:24:52.000Z</time></trkpt>
        <trkpt lat="29.7180213" lon="104.9305434"><ele>326.84</ele><time>2026-05-17T22:25:00.000Z</time></trkpt>
        <trkpt lat="29.7180169" lon="104.9304326"><ele>327.17</ele><time>2026-05-17T22:25:07.000Z</time></trkpt>
        <trkpt lat="29.7180219" lon="104.930324"><ele>327.95</ele><time>2026-05-17T22:25:17.000Z</time></trkpt>
        <trkpt lat="29.7180563" lon="104.9302179"><ele>328.78</ele><time>2026-05-17T22:25:29.000Z</time></trkpt>
        <trkpt lat="29.7180851" lon="104.9301114"><ele>329.1</ele><time>2026-05-17T22:25:37.000Z</time></trkpt>
        <trkpt lat="29.7181333" lon="104.9300189"><ele>329.92</ele><time>2026-05-17T22:25:47.000Z</time></trkpt>
        <trkpt lat="29.7181799" lon="104.9299244"><ele>331.23</ele><time>2026-05-17T22:25:57.000Z</time></trkpt>
        <trkpt lat="29.7182408" lon="104.9298454"><ele>332.42</ele><time>2026-05-17T22:26:06.000Z</time></trkpt>
        <trkpt lat="29.7183248" lon="104.9297959"><ele>333.67</ele><time>2026-05-17T22:26:18.000Z</time></trkpt>
        <trkpt lat="29.7183913" lon="104.9297196"><ele>335.07</ele><time>2026-05-17T22:26:28.000Z</time></trkpt>
        <trkpt lat="29.7184259" lon="104.9296137"><ele>336.69</ele><time>2026-05-17T22:26:38.000Z</time></trkpt>
        <trkpt lat="29.718478" lon="104.9295193"><ele>337.17</ele><time>2026-05-17T22:26:47.000Z</time></trkpt>
        <trkpt lat="29.7185604" lon="104.9294837"><ele>337.48</ele><time>2026-05-17T22:27:36.000Z</time></trkpt>
        <trkpt lat="29.7186555" lon="104.9294858"><ele>337.24</ele><time>2026-05-17T22:27:55.000Z</time></trkpt>
        <trkpt lat="29.7187514" lon="104.9294828"><ele>337.13</ele><time>2026-05-17T22:28:25.000Z</time></trkpt>
        <trkpt lat="29.7188129" lon="104.9294173"><ele>337.68</ele><time>2026-05-17T22:28:34.000Z</time></trkpt>
        <trkpt lat="29.7188758" lon="104.9293393"><ele>337.68</ele><time>2026-05-17T22:28:47.000Z</time></trkpt>
        <trkpt lat="29.7189419" lon="104.9292626"><ele>338.12</ele><time>2026-05-17T22:29:07.000Z</time></trkpt>
        <trkpt lat="29.7189945" lon="104.9291677"><ele>337.57</ele><time>2026-05-17T22:29:14.000Z</time></trkpt>
        <trkpt lat="29.7190748" lon="104.9291286"><ele>337.38</ele><time>2026-05-17T22:29:32.000Z</time></trkpt>
        <trkpt lat="29.719158" lon="104.9290836"><ele>337.5</ele><time>2026-05-17T22:29:47.000Z</time></trkpt>
        <trkpt lat="29.7192386" lon="104.929027"><ele>336.62</ele><time>2026-05-17T22:29:58.000Z</time></trkpt>
        <trkpt lat="29.7192386" lon="104.929027"><ele>336.62</ele><time>2026-05-17T22:30:21.000Z</time></trkpt>
        <trkpt lat="29.7193297" lon="104.9290032"><ele>335.69</ele><time>2026-05-17T22:30:34.000Z</time></trkpt>
        <trkpt lat="29.7193297" lon="104.9290032"><ele>335.69</ele><time>2026-05-17T22:31:04.000Z</time></trkpt>
        <trkpt lat="29.7194039" lon="104.9289201"><ele>334.05</ele><time>2026-05-17T22:31:23.000Z</time></trkpt>
        <trkpt lat="29.719491" lon="104.9288633"><ele>333.35</ele><time>2026-05-17T22:31:30.000Z</time></trkpt>
        <trkpt lat="29.7195598" lon="104.9287915"><ele>331.8</ele><time>2026-05-17T22:31:39.000Z</time></trkpt>
        <trkpt lat="29.7196488" lon="104.9287587"><ele>330.38</ele><time>2026-05-17T22:31:54.000Z</time></trkpt>
        <trkpt lat="29.7197381" lon="104.9287082"><ele>329.01</ele><time>2026-05-17T22:32:01.000Z</time></trkpt>
        <trkpt lat="29.7198238" lon="104.9286661"><ele>328.04</ele><time>2026-05-17T22:32:09.000Z</time></trkpt>
        <trkpt lat="29.7199133" lon="104.9286258"><ele>327.05</ele><time>2026-05-17T22:32:19.000Z</time></trkpt>
        <trkpt lat="29.7199853" lon="104.9285509"><ele>325.65</ele><time>2026-05-17T22:32:27.000Z</time></trkpt>
        <trkpt lat="29.7200713" lon="104.9285279"><ele>324.54</ele><time>2026-05-17T22:32:40.000Z</time></trkpt>
        <trkpt lat="29.720159" lon="104.9284897"><ele>324.43</ele><time>2026-05-17T22:32:49.000Z</time></trkpt>
        <trkpt lat="29.7202449" lon="104.9284454"><ele>325.72</ele><time>2026-05-17T22:33:00.000Z</time></trkpt>
        <trkpt lat="29.7203032" lon="104.9283642"><ele>327.75</ele><time>2026-05-17T22:33:12.000Z</time></trkpt>
        <trkpt lat="29.7203624" lon="104.9282845"><ele>329.26</ele><time>2026-05-17T22:33:20.000Z</time></trkpt>
        <trkpt lat="29.7204536" lon="104.9282653"><ele>330.73</ele><time>2026-05-17T22:33:34.000Z</time></trkpt>
        <trkpt lat="29.7205495" lon="104.9282826"><ele>332.05</ele><time>2026-05-17T22:33:44.000Z</time></trkpt>
        <trkpt lat="29.7206514" lon="104.9282961"><ele>333.02</ele><time>2026-05-17T22:33:54.000Z</time></trkpt>
        <trkpt lat="29.7207484" lon="104.928311"><ele>333.88</ele><time>2026-05-17T22:34:02.000Z</time></trkpt>
        <trkpt lat="29.7208407" lon="104.9283444"><ele>334.89</ele><time>2026-05-17T22:34:10.000Z</time></trkpt>
        <trkpt lat="29.720921" lon="104.9284028"><ele>336.17</ele><time>2026-05-17T22:34:19.000Z</time></trkpt>
        <trkpt lat="29.7210095" lon="104.9284447"><ele>336.32</ele><time>2026-05-17T22:34:28.000Z</time></trkpt>
        <trkpt lat="29.7211047" lon="104.9284697"><ele>336.21</ele><time>2026-05-17T22:34:37.000Z</time></trkpt>
        <trkpt lat="29.7212007" lon="104.9284732"><ele>336.01</ele><time>2026-05-17T22:34:49.000Z</time></trkpt>
        <trkpt lat="29.7212964" lon="104.9284633"><ele>335.1</ele><time>2026-05-17T22:35:06.000Z</time></trkpt>
        <trkpt lat="29.7213886" lon="104.9284559"><ele>335.1</ele><time>2026-05-17T22:35:14.000Z</time></trkpt>
        <trkpt lat="29.7214821" lon="104.9284691"><ele>334.62</ele><time>2026-05-17T22:35:26.000Z</time></trkpt>
        <trkpt lat="29.7215768" lon="104.9284899"><ele>333.81</ele><time>2026-05-17T22:35:35.000Z</time></trkpt>
        <trkpt lat="29.7216684" lon="104.9284781"><ele>333.48</ele><time>2026-05-17T22:35:45.000Z</time></trkpt>
        <trkpt lat="29.7217656" lon="104.928486"><ele>333.58</ele><time>2026-05-17T22:35:54.000Z</time></trkpt>
        <trkpt lat="29.72186" lon="104.9285009"><ele>333.26</ele><time>2026-05-17T22:36:02.000Z</time></trkpt>
        <trkpt lat="29.7219549" lon="104.928529"><ele>333.07</ele><time>2026-05-17T22:36:10.000Z</time></trkpt>
        <trkpt lat="29.7220395" lon="104.9284899"><ele>333.67</ele><time>2026-05-17T22:36:21.000Z</time></trkpt>
        <trkpt lat="29.7221145" lon="104.9284252"><ele>334.64</ele><time>2026-05-17T22:36:28.000Z</time></trkpt>
        <trkpt lat="29.7221605" lon="104.9283309"><ele>335.6</ele><time>2026-05-17T22:37:22.000Z</time></trkpt>
        <trkpt lat="29.7222347" lon="104.9282869"><ele>334.78</ele><time>2026-05-17T22:37:48.000Z</time></trkpt>
        <trkpt lat="29.7222853" lon="104.9282024"><ele>330.24</ele><time>2026-05-17T22:40:23.000Z</time></trkpt>
        <trkpt lat="29.7223513" lon="104.9281219"><ele>324.04</ele><time>2026-05-17T22:40:38.000Z</time></trkpt>
        <trkpt lat="29.7224198" lon="104.9280435"><ele>319.08</ele><time>2026-05-17T22:40:58.000Z</time></trkpt>
        <trkpt lat="29.7224538" lon="104.9279443"><ele>315.19</ele><time>2026-05-17T22:41:11.000Z</time></trkpt>
        <trkpt lat="29.7225313" lon="104.9279253"><ele>312.99</ele><time>2026-05-17T22:41:26.000Z</time></trkpt>
        <trkpt lat="29.7226223" lon="104.9278994"><ele>310.98</ele><time>2026-05-17T22:41:52.000Z</time></trkpt>
        <trkpt lat="29.7226336" lon="104.9278145"><ele>307.45</ele><time>2026-05-17T22:42:07.000Z</time></trkpt>
        <trkpt lat="29.7225751" lon="104.9277392"><ele>306.53</ele><time>2026-05-17T22:42:16.000Z</time></trkpt>
        <trkpt lat="29.7226224" lon="104.9277227"><ele>305.53</ele><time>2026-05-17T22:42:54.000Z</time></trkpt>
        <trkpt lat="29.7226913" lon="104.9277785"><ele>304.28</ele><time>2026-05-17T22:43:01.000Z</time></trkpt>
        <trkpt lat="29.7227878" lon="104.927877"><ele>303.54</ele><time>2026-05-17T22:43:10.000Z</time></trkpt>
        <trkpt lat="29.7228892" lon="104.9279833"><ele>303.4</ele><time>2026-05-17T22:44:16.000Z</time></trkpt>
        <trkpt lat="29.7228706" lon="104.9280062"><ele>291.7</ele><time>2026-05-17T22:44:22.000Z</time></trkpt>
        <trkpt lat="29.7229555" lon="104.928055"><ele>285.11</ele><time>2026-05-17T22:44:41.000Z</time></trkpt>
        <trkpt lat="29.7229555" lon="104.928055"><ele>285.11</ele><time>2026-05-17T22:45:23.000Z</time></trkpt>
        <trkpt lat="29.7229555" lon="104.928055"><ele>285.11</ele><time>2026-05-17T22:45:24.000Z</time></trkpt>
        <trkpt lat="29.7229555" lon="104.928055"><ele>285.11</ele><time>2026-05-17T22:45:49.000Z</time></trkpt>
        <trkpt lat="29.7229555" lon="104.928055"><ele>285.11</ele><time>2026-05-17T22:45:50.000Z</time></trkpt>
        <trkpt lat="29.7229555" lon="104.928055"><ele>285.11</ele><time>2026-05-17T22:47:01.000Z</time></trkpt>
        <trkpt lat="29.7229555" lon="104.928055"><ele>285.11</ele><time>2026-05-17T22:47:36.000Z</time></trkpt>
        <trkpt lat="29.7229555" lon="104.928055"><ele>285.11</ele><time>2026-05-17T22:47:45.000Z</time></trkpt>
        <trkpt lat="29.7229555" lon="104.928055"><ele>285.11</ele><time>2026-05-17T22:47:48.000Z</time></trkpt>
        <trkpt lat="29.7229555" lon="104.928055"><ele>285.11</ele><time>2026-05-17T22:47:59.000Z</time></trkpt>
        <trkpt lat="29.7229555" lon="104.928055"><ele>285.11</ele><time>2026-05-17T22:48:04.000Z</time></trkpt>
        <trkpt lat="29.7229555" lon="104.928055"><ele>285.11</ele><time>2026-05-17T22:49:09.000Z</time></trkpt>
        <trkpt lat="29.7229555" lon="104.928055"><ele>285.11</ele><time>2026-05-17T22:49:14.000Z</time></trkpt>
        <trkpt lat="29.7229555" lon="104.928055"><ele>285.11</ele><time>2026-05-17T22:49:25.000Z</time></trkpt>
        <trkpt lat="29.723072" lon="104.9280554"><ele>280.63</ele><time>2026-05-17T22:49:42.000Z</time></trkpt>
        <trkpt lat="29.723072" lon="104.9280554"><ele>280.63</ele><time>2026-05-17T22:50:22.000Z</time></trkpt>
        <trkpt lat="29.7231704" lon="104.9280375"><ele>285.85</ele><time>2026-05-17T22:50:31.000Z</time></trkpt>
        <trkpt lat="29.7232524" lon="104.9279821"><ele>288.23</ele><time>2026-05-17T22:50:41.000Z</time></trkpt>
        <trkpt lat="29.7232524" lon="104.9279821"><ele>288.23</ele><time>2026-05-17T22:51:31.000Z</time></trkpt>
        <trkpt lat="29.7233472" lon="104.9279194"><ele>289.47</ele><time>2026-05-17T22:51:34.000Z</time></trkpt>
        <trkpt lat="29.7233472" lon="104.9279194"><ele>289.47</ele><time>2026-05-17T22:51:49.000Z</time></trkpt>
        <trkpt lat="29.7234352" lon="104.9278921"><ele>291.27</ele><time>2026-05-17T22:52:03.000Z</time></trkpt>
        <trkpt lat="29.7235269" lon="104.9278875"><ele>292.29</ele><time>2026-05-17T22:52:21.000Z</time></trkpt>
        <trkpt lat="29.7236194" lon="104.9278912"><ele>293.99</ele><time>2026-05-17T22:52:32.000Z</time></trkpt>
        <trkpt lat="29.723685" lon="104.9278277"><ele>296.26</ele><time>2026-05-17T22:52:43.000Z</time></trkpt>
        <trkpt lat="29.7237511" lon="104.9277543"><ele>298.52</ele><time>2026-05-17T22:52:58.000Z</time></trkpt>
        <trkpt lat="29.7238196" lon="104.9276748"><ele>299.7</ele><time>2026-05-17T22:53:07.000Z</time></trkpt>
        <trkpt lat="29.7238196" lon="104.9276748"><ele>299.7</ele><time>2026-05-17T22:53:37.000Z</time></trkpt>
        <trkpt lat="29.7239023" lon="104.927633"><ele>300.22</ele><time>2026-05-17T22:53:44.000Z</time></trkpt>
        <trkpt lat="29.7239023" lon="104.927633"><ele>300.22</ele><time>2026-05-17T22:53:58.000Z</time></trkpt>
        <trkpt lat="29.7239807" lon="104.9275764"><ele>301.83</ele><time>2026-05-17T22:54:06.000Z</time></trkpt>
        <trkpt lat="29.7240552" lon="104.9275078"><ele>303.76</ele><time>2026-05-17T22:54:12.000Z</time></trkpt>
        <trkpt lat="29.7241234" lon="104.9274259"><ele>305.29</ele><time>2026-05-17T22:54:20.000Z</time></trkpt>
        <trkpt lat="29.7241817" lon="104.9273403"><ele>306.78</ele><time>2026-05-17T22:54:28.000Z</time></trkpt>
        <trkpt lat="29.7242462" lon="104.9272672"><ele>307.38</ele><time>2026-05-17T22:54:36.000Z</time></trkpt>
        <trkpt lat="29.7243159" lon="104.9271886"><ele>307.21</ele><time>2026-05-17T22:54:45.000Z</time></trkpt>
        <trkpt lat="29.7243902" lon="104.927122"><ele>306.54</ele><time>2026-05-17T22:54:53.000Z</time></trkpt>
        <trkpt lat="29.7244576" lon="104.9270494"><ele>305.8</ele><time>2026-05-17T22:55:00.000Z</time></trkpt>
        <trkpt lat="29.7245297" lon="104.9269792"><ele>305.1</ele><time>2026-05-17T22:55:07.000Z</time></trkpt>
        <trkpt lat="29.724607" lon="104.926911"><ele>304.85</ele><time>2026-05-17T22:55:15.000Z</time></trkpt>
        <trkpt lat="29.7246853" lon="104.9268387"><ele>304.55</ele><time>2026-05-17T22:55:23.000Z</time></trkpt>
        <trkpt lat="29.7247487" lon="104.9267524"><ele>305.12</ele><time>2026-05-17T22:55:32.000Z</time></trkpt>
        <trkpt lat="29.7247916" lon="104.9266482"><ele>305.78</ele><time>2026-05-17T22:55:41.000Z</time></trkpt>
        <trkpt lat="29.7248242" lon="104.9265418"><ele>306.73</ele><time>2026-05-17T22:55:48.000Z</time></trkpt>
        <trkpt lat="29.7248868" lon="104.926555"><ele>308.29</ele><time>2026-05-17T22:55:57.000Z</time></trkpt>
        <trkpt lat="29.7249677" lon="104.9266154"><ele>309.75</ele><time>2026-05-17T22:56:10.000Z</time></trkpt>
        <trkpt lat="29.7249677" lon="104.9266154"><ele>309.75</ele><time>2026-05-17T22:58:15.000Z</time></trkpt>
        <trkpt lat="29.7249416" lon="104.9265408"><ele>312.11</ele><time>2026-05-17T22:58:22.000Z</time></trkpt>
        <trkpt lat="29.7249416" lon="104.9265408"><ele>312.11</ele><time>2026-05-17T22:58:35.000Z</time></trkpt>
        <trkpt lat="29.7249187" lon="104.9264352"><ele>316.07</ele><time>2026-05-17T22:58:42.000Z</time></trkpt>
        <trkpt lat="29.7249239" lon="104.9263315"><ele>319.05</ele><time>2026-05-17T22:58:51.000Z</time></trkpt>
        <trkpt lat="29.7249332" lon="104.9262266"><ele>320.63</ele><time>2026-05-17T22:59:00.000Z</time></trkpt>
        <trkpt lat="29.7249299" lon="104.9261179"><ele>321.23</ele><time>2026-05-17T22:59:09.000Z</time></trkpt>
        <trkpt lat="29.7249084" lon="104.9260092"><ele>321.14</ele><time>2026-05-17T22:59:17.000Z</time></trkpt>
        <trkpt lat="29.7248952" lon="104.9259035"><ele>322.08</ele><time>2026-05-17T22:59:26.000Z</time></trkpt>
        <trkpt lat="29.7248934" lon="104.925791"><ele>322.54</ele><time>2026-05-17T22:59:35.000Z</time></trkpt>
        <trkpt lat="29.7249091" lon="104.9256772"><ele>322.68</ele><time>2026-05-17T22:59:44.000Z</time></trkpt>
        <trkpt lat="29.7249404" lon="104.9255677"><ele>322.92</ele><time>2026-05-17T22:59:54.000Z</time></trkpt>
        <trkpt lat="29.7249817" lon="104.9254655"><ele>323.3</ele><time>2026-05-17T23:00:03.000Z</time></trkpt>
        <trkpt lat="29.7250217" lon="104.9253685"><ele>323.41</ele><time>2026-05-17T23:00:11.000Z</time></trkpt>
        <trkpt lat="29.7250654" lon="104.9252756"><ele>323.74</ele><time>2026-05-17T23:00:19.000Z</time></trkpt>
        <trkpt lat="29.7251208" lon="104.9251904"><ele>323.97</ele><time>2026-05-17T23:00:26.000Z</time></trkpt>
        <trkpt lat="29.7251786" lon="104.9251045"><ele>323.85</ele><time>2026-05-17T23:00:35.000Z</time></trkpt>
        <trkpt lat="29.7252354" lon="104.925015"><ele>323.48</ele><time>2026-05-17T23:00:45.000Z</time></trkpt>
        <trkpt lat="29.7252992" lon="104.9249246"><ele>322.71</ele><time>2026-05-17T23:00:53.000Z</time></trkpt>
        <trkpt lat="29.725357" lon="104.924837"><ele>321.97</ele><time>2026-05-17T23:01:02.000Z</time></trkpt>
        <trkpt lat="29.725357" lon="104.924837"><ele>321.97</ele><time>2026-05-17T23:01:43.000Z</time></trkpt>
        <trkpt lat="29.7253957" lon="104.9247369"><ele>320.78</ele><time>2026-05-17T23:01:46.000Z</time></trkpt>
        <trkpt lat="29.7253957" lon="104.9247369"><ele>320.78</ele><time>2026-05-17T23:01:48.000Z</time></trkpt>
        <trkpt lat="29.7254474" lon="104.9246515"><ele>320.22</ele><time>2026-05-17T23:01:54.000Z</time></trkpt>
        <trkpt lat="29.7255173" lon="104.9245642"><ele>320.42</ele><time>2026-05-17T23:02:04.000Z</time></trkpt>
        <trkpt lat="29.7255801" lon="104.9244796"><ele>321.34</ele><time>2026-05-17T23:02:12.000Z</time></trkpt>
        <trkpt lat="29.7256345" lon="104.9243775"><ele>322.39</ele><time>2026-05-17T23:02:22.000Z</time></trkpt>
        <trkpt lat="29.7256969" lon="104.9242919"><ele>322.83</ele><time>2026-05-17T23:02:29.000Z</time></trkpt>
        <trkpt lat="29.7257532" lon="104.9242056"><ele>323.02</ele><time>2026-05-17T23:02:36.000Z</time></trkpt>
        <trkpt lat="29.7258073" lon="104.9241208"><ele>323.47</ele><time>2026-05-17T23:02:45.000Z</time></trkpt>
        <trkpt lat="29.7258748" lon="104.9240531"><ele>324.27</ele><time>2026-05-17T23:02:52.000Z</time></trkpt>
        <trkpt lat="29.725956" lon="104.9240028"><ele>325.51</ele><time>2026-05-17T23:03:00.000Z</time></trkpt>
        <trkpt lat="29.7260426" lon="104.9239611"><ele>327.21</ele><time>2026-05-17T23:03:08.000Z</time></trkpt>
        <trkpt lat="29.7261375" lon="104.9239275"><ele>328.51</ele><time>2026-05-17T23:03:17.000Z</time></trkpt>
        <trkpt lat="29.7262348" lon="104.9239078"><ele>330.36</ele><time>2026-05-17T23:03:26.000Z</time></trkpt>
        <trkpt lat="29.7263274" lon="104.9238873"><ele>332.03</ele><time>2026-05-17T23:03:35.000Z</time></trkpt>
        <trkpt lat="29.7264263" lon="104.9238692"><ele>332.97</ele><time>2026-05-17T23:03:43.000Z</time></trkpt>
        <trkpt lat="29.7265251" lon="104.9238528"><ele>333.11</ele><time>2026-05-17T23:03:52.000Z</time></trkpt>
        <trkpt lat="29.7266166" lon="104.9238107"><ele>333.81</ele><time>2026-05-17T23:04:00.000Z</time></trkpt>
        <trkpt lat="29.7266998" lon="104.9237544"><ele>334.23</ele><time>2026-05-17T23:04:08.000Z</time></trkpt>
        <trkpt lat="29.7267844" lon="104.9237036"><ele>334.71</ele><time>2026-05-17T23:04:17.000Z</time></trkpt>
        <trkpt lat="29.7268534" lon="104.923632"><ele>334.83</ele><time>2026-05-17T23:04:25.000Z</time></trkpt>
        <trkpt lat="29.7269146" lon="104.92354"><ele>334.58</ele><time>2026-05-17T23:04:33.000Z</time></trkpt>
        <trkpt lat="29.7269721" lon="104.9234438"><ele>334.49</ele><time>2026-05-17T23:04:40.000Z</time></trkpt>
        <trkpt lat="29.7270249" lon="104.9233448"><ele>334.16</ele><time>2026-05-17T23:04:48.000Z</time></trkpt>
        <trkpt lat="29.727079" lon="104.9232542"><ele>334.45</ele><time>2026-05-17T23:04:57.000Z</time></trkpt>
        <trkpt lat="29.7271382" lon="104.9231712"><ele>334.6</ele><time>2026-05-17T23:05:04.000Z</time></trkpt>
        <trkpt lat="29.7272012" lon="104.9230964"><ele>334.8</ele><time>2026-05-17T23:05:11.000Z</time></trkpt>
        <trkpt lat="29.7272601" lon="104.9230158"><ele>335.3</ele><time>2026-05-17T23:05:18.000Z</time></trkpt>
        <trkpt lat="29.7273298" lon="104.922946"><ele>336.17</ele><time>2026-05-17T23:05:26.000Z</time></trkpt>
        <trkpt lat="29.7274135" lon="104.9228969"><ele>336.85</ele><time>2026-05-17T23:05:34.000Z</time></trkpt>
        <trkpt lat="29.7274966" lon="104.9228508"><ele>337.09</ele><time>2026-05-17T23:05:41.000Z</time></trkpt>
        <trkpt lat="29.7275874" lon="104.9228233"><ele>337.52</ele><time>2026-05-17T23:05:50.000Z</time></trkpt>
        <trkpt lat="29.7276866" lon="104.9228045"><ele>337.75</ele><time>2026-05-17T23:05:59.000Z</time></trkpt>
        <trkpt lat="29.7277818" lon="104.9227812"><ele>338.28</ele><time>2026-05-17T23:06:07.000Z</time></trkpt>
        <trkpt lat="29.727885" lon="104.9227517"><ele>338.88</ele><time>2026-05-17T23:06:16.000Z</time></trkpt>
        <trkpt lat="29.7279809" lon="104.9227234"><ele>339.36</ele><time>2026-05-17T23:06:24.000Z</time></trkpt>
        <trkpt lat="29.7280706" lon="104.9226976"><ele>339.72</ele><time>2026-05-17T23:06:31.000Z</time></trkpt>
        <trkpt lat="29.7281594" lon="104.9226647"><ele>340.01</ele><time>2026-05-17T23:06:40.000Z</time></trkpt>
        <trkpt lat="29.7282527" lon="104.92263"><ele>340.13</ele><time>2026-05-17T23:06:48.000Z</time></trkpt>
        <trkpt lat="29.7283377" lon="104.9225828"><ele>340.25</ele><time>2026-05-17T23:06:55.000Z</time></trkpt>
        <trkpt lat="29.7284224" lon="104.9225255"><ele>340.59</ele><time>2026-05-17T23:07:04.000Z</time></trkpt>
        <trkpt lat="29.7285106" lon="104.9224695"><ele>340.59</ele><time>2026-05-17T23:07:12.000Z</time></trkpt>
        <trkpt lat="29.7285886" lon="104.9224098"><ele>339.6</ele><time>2026-05-17T23:07:20.000Z</time></trkpt>
        <trkpt lat="29.7286636" lon="104.9223207"><ele>339.03</ele><time>2026-05-17T23:07:28.000Z</time></trkpt>
        <trkpt lat="29.7287284" lon="104.9222358"><ele>338.94</ele><time>2026-05-17T23:07:36.000Z</time></trkpt>
        <trkpt lat="29.7287972" lon="104.9221435"><ele>338.98</ele><time>2026-05-17T23:07:46.000Z</time></trkpt>
        <trkpt lat="29.7288704" lon="104.922066"><ele>338.43</ele><time>2026-05-17T23:07:56.000Z</time></trkpt>
        <trkpt lat="29.7288662" lon="104.9219728"><ele>337.31</ele><time>2026-05-17T23:08:14.000Z</time></trkpt>
        <trkpt lat="29.7288662" lon="104.9219728"><ele>337.31</ele><time>2026-05-17T23:08:35.000Z</time></trkpt>
        <trkpt lat="29.7288947" lon="104.921881"><ele>336.76</ele><time>2026-05-17T23:08:40.000Z</time></trkpt>
        <trkpt lat="29.7288947" lon="104.921881"><ele>336.76</ele><time>2026-05-17T23:08:55.000Z</time></trkpt>
        <trkpt lat="29.7289551" lon="104.9218049"><ele>336.56</ele><time>2026-05-17T23:09:08.000Z</time></trkpt>
        <trkpt lat="29.7290338" lon="104.9217439"><ele>335.97</ele><time>2026-05-17T23:09:32.000Z</time></trkpt>
        <trkpt lat="29.7290338" lon="104.9217439"><ele>335.97</ele><time>2026-05-17T23:09:55.000Z</time></trkpt>
        <trkpt lat="29.7290338" lon="104.9217439"><ele>335.97</ele><time>2026-05-17T23:09:58.000Z</time></trkpt>
        <trkpt lat="29.7290338" lon="104.9217439"><ele>335.97</ele><time>2026-05-17T23:10:11.000Z</time></trkpt>
        <trkpt lat="29.7290338" lon="104.9217439"><ele>335.97</ele><time>2026-05-17T23:10:14.000Z</time></trkpt>
        <trkpt lat="29.7290338" lon="104.9217439"><ele>335.97</ele><time>2026-05-17T23:10:33.000Z</time></trkpt>
        <trkpt lat="29.7290338" lon="104.9217439"><ele>335.97</ele><time>2026-05-17T23:10:38.000Z</time></trkpt>
        <trkpt lat="29.7290338" lon="104.9217439"><ele>335.97</ele><time>2026-05-17T23:10:49.000Z</time></trkpt>
        <trkpt lat="29.7290338" lon="104.9217439"><ele>335.97</ele><time>2026-05-17T23:10:56.000Z</time></trkpt>
        <trkpt lat="29.7290338" lon="104.9217439"><ele>335.97</ele><time>2026-05-17T23:11:25.000Z</time></trkpt>
        <trkpt lat="29.729087" lon="104.9216501"><ele>335.47</ele><time>2026-05-17T23:11:36.000Z</time></trkpt>
        <trkpt lat="29.729087" lon="104.9216501"><ele>335.47</ele><time>2026-05-17T23:11:37.000Z</time></trkpt>
        <trkpt lat="29.7291717" lon="104.9216016"><ele>335.1</ele><time>2026-05-17T23:11:45.000Z</time></trkpt>
        <trkpt lat="29.7292277" lon="104.9215199"><ele>334.5</ele><time>2026-05-17T23:11:53.000Z</time></trkpt>
        <trkpt lat="29.7292727" lon="104.9214222"><ele>334.19</ele><time>2026-05-17T23:12:01.000Z</time></trkpt>
        <trkpt lat="29.7293143" lon="104.9213199"><ele>333.65</ele><time>2026-05-17T23:12:08.000Z</time></trkpt>
        <trkpt lat="29.7293521" lon="104.9212156"><ele>333.18</ele><time>2026-05-17T23:12:16.000Z</time></trkpt>
        <trkpt lat="29.7293925" lon="104.9211102"><ele>332.36</ele><time>2026-05-17T23:12:24.000Z</time></trkpt>
        <trkpt lat="29.7293797" lon="104.9211595"><ele>331.31</ele><time>2026-05-17T23:12:43.000Z</time></trkpt>
        <trkpt lat="29.7294254" lon="104.9211342"><ele>330.42</ele><time>2026-05-17T23:13:01.000Z</time></trkpt>
        <trkpt lat="29.7294515" lon="104.9210443"><ele>329.52</ele><time>2026-05-17T23:13:08.000Z</time></trkpt>
        <trkpt lat="29.7294633" lon="104.9209351"><ele>329.37</ele><time>2026-05-17T23:13:16.000Z</time></trkpt>
        <trkpt lat="29.7294659" lon="104.9208152"><ele>329.69</ele><time>2026-05-17T23:13:25.000Z</time></trkpt>
        <trkpt lat="29.729474" lon="104.9206959"><ele>330.14</ele><time>2026-05-17T23:13:32.000Z</time></trkpt>
        <trkpt lat="29.7294932" lon="104.9205821"><ele>330.91</ele><time>2026-05-17T23:13:39.000Z</time></trkpt>
        <trkpt lat="29.7294998" lon="104.9204711"><ele>331.9</ele><time>2026-05-17T23:13:47.000Z</time></trkpt>
        <trkpt lat="29.7295139" lon="104.9203637"><ele>332.41</ele><time>2026-05-17T23:13:55.000Z</time></trkpt>
        <trkpt lat="29.7295159" lon="104.9202473"><ele>333.19</ele><time>2026-05-17T23:14:04.000Z</time></trkpt>
        <trkpt lat="29.7295089" lon="104.920133"><ele>334.19</ele><time>2026-05-17T23:14:13.000Z</time></trkpt>
        <trkpt lat="29.7295101" lon="104.9200204"><ele>334.47</ele><time>2026-05-17T23:14:22.000Z</time></trkpt>
        <trkpt lat="29.7295154" lon="104.9199146"><ele>334.83</ele><time>2026-05-17T23:14:30.000Z</time></trkpt>
        <trkpt lat="29.7295176" lon="104.9198085"><ele>335.13</ele><time>2026-05-17T23:14:38.000Z</time></trkpt>
        <trkpt lat="29.7295391" lon="104.9196937"><ele>335.33</ele><time>2026-05-17T23:14:45.000Z</time></trkpt>
        <trkpt lat="29.7295533" lon="104.9195793"><ele>334.96</ele><time>2026-05-17T23:14:54.000Z</time></trkpt>
        <trkpt lat="29.7295621" lon="104.9194711"><ele>333.14</ele><time>2026-05-17T23:15:04.000Z</time></trkpt>
        <trkpt lat="29.7295621" lon="104.9194711"><ele>333.14</ele><time>2026-05-17T23:15:37.000Z</time></trkpt>
        <trkpt lat="29.7295621" lon="104.9194711"><ele>333.14</ele><time>2026-05-17T23:15:52.000Z</time></trkpt>
        <trkpt lat="29.7295621" lon="104.9194711"><ele>333.14</ele><time>2026-05-17T23:16:03.000Z</time></trkpt>
        <trkpt lat="29.7295621" lon="104.9194711"><ele>333.14</ele><time>2026-05-17T23:16:28.000Z</time></trkpt>
        <trkpt lat="29.7295621" lon="104.9194711"><ele>333.14</ele><time>2026-05-17T23:16:39.000Z</time></trkpt>
        <trkpt lat="29.7295621" lon="104.9194711"><ele>333.14</ele><time>2026-05-17T23:16:56.000Z</time></trkpt>
        <trkpt lat="29.7295621" lon="104.9194711"><ele>333.14</ele><time>2026-05-17T23:17:05.000Z</time></trkpt>
        <trkpt lat="29.7295621" lon="104.9194711"><ele>333.14</ele><time>2026-05-17T23:17:06.000Z</time></trkpt>
        <trkpt lat="29.7295621" lon="104.9194711"><ele>333.14</ele><time>2026-05-17T23:17:17.000Z</time></trkpt>
        <trkpt lat="29.7295621" lon="104.9194711"><ele>333.14</ele><time>2026-05-17T23:17:28.000Z</time></trkpt>
        <trkpt lat="29.7295621" lon="104.9194711"><ele>333.14</ele><time>2026-05-17T23:17:43.000Z</time></trkpt>
        <trkpt lat="29.7295621" lon="104.9194711"><ele>333.14</ele><time>2026-05-17T23:17:46.000Z</time></trkpt>
        <trkpt lat="29.7295621" lon="104.9194711"><ele>333.14</ele><time>2026-05-17T23:18:07.000Z</time></trkpt>
        <trkpt lat="29.7295621" lon="104.9194711"><ele>333.14</ele><time>2026-05-17T23:18:14.000Z</time></trkpt>
        <trkpt lat="29.7295621" lon="104.9194711"><ele>333.14</ele><time>2026-05-17T23:18:25.000Z</time></trkpt>
        <trkpt lat="29.7295621" lon="104.9194711"><ele>333.14</ele><time>2026-05-17T23:18:32.000Z</time></trkpt>
        <trkpt lat="29.7295621" lon="104.9194711"><ele>333.14</ele><time>2026-05-17T23:19:11.000Z</time></trkpt>
        <trkpt lat="29.7295549" lon="104.9193485"><ele>332.23</ele><time>2026-05-17T23:19:16.000Z</time></trkpt>
        <trkpt lat="29.7295549" lon="104.9193485"><ele>332.23</ele><time>2026-05-17T23:19:32.000Z</time></trkpt>
        <trkpt lat="29.7295875" lon="104.919233"><ele>331.44</ele><time>2026-05-17T23:19:39.000Z</time></trkpt>
        <trkpt lat="29.7296013" lon="104.9191264"><ele>331.11</ele><time>2026-05-17T23:19:46.000Z</time></trkpt>
        <trkpt lat="29.7296021" lon="104.9190162"><ele>330.68</ele><time>2026-05-17T23:19:53.000Z</time></trkpt>
        <trkpt lat="29.7296097" lon="104.9189053"><ele>330.13</ele><time>2026-05-17T23:20:00.000Z</time></trkpt>
        <trkpt lat="29.7296404" lon="104.9187929"><ele>329.43</ele><time>2026-05-17T23:20:07.000Z</time></trkpt>
        <trkpt lat="29.7297169" lon="104.9187193"><ele>329.13</ele><time>2026-05-17T23:20:12.000Z</time></trkpt>
        <trkpt lat="29.7297965" lon="104.918656"><ele>328.77</ele><time>2026-05-17T23:20:17.000Z</time></trkpt>
        <trkpt lat="29.7298699" lon="104.9185912"><ele>328.77</ele><time>2026-05-17T23:20:23.000Z</time></trkpt>
        <trkpt lat="29.7299561" lon="104.918536"><ele>328.79</ele><time>2026-05-17T23:20:30.000Z</time></trkpt>
        <trkpt lat="29.7300462" lon="104.9185021"><ele>328.73</ele><time>2026-05-17T23:20:36.000Z</time></trkpt>
        <trkpt lat="29.7301347" lon="104.9184716"><ele>329.08</ele><time>2026-05-17T23:20:43.000Z</time></trkpt>
        <trkpt lat="29.7302306" lon="104.918447"><ele>329.89</ele><time>2026-05-17T23:20:51.000Z</time></trkpt>
        <trkpt lat="29.7303405" lon="104.9184666"><ele>330.61</ele><time>2026-05-17T23:20:58.000Z</time></trkpt>
        <trkpt lat="29.7304465" lon="104.9184889"><ele>330.69</ele><time>2026-05-17T23:21:05.000Z</time></trkpt>
        <trkpt lat="29.7305375" lon="104.9184663"><ele>330.71</ele><time>2026-05-17T23:21:11.000Z</time></trkpt>
        <trkpt lat="29.7306313" lon="104.9184793"><ele>330.31</ele><time>2026-05-17T23:21:18.000Z</time></trkpt>
        <trkpt lat="29.7307177" lon="104.9185122"><ele>329.34</ele><time>2026-05-17T23:21:24.000Z</time></trkpt>
        <trkpt lat="29.730815" lon="104.9185388"><ele>328.44</ele><time>2026-05-17T23:21:31.000Z</time></trkpt>
        <trkpt lat="29.7309139" lon="104.9185506"><ele>327.74</ele><time>2026-05-17T23:21:39.000Z</time></trkpt>
        <trkpt lat="29.7310145" lon="104.9185539"><ele>327.33</ele><time>2026-05-17T23:21:55.000Z</time></trkpt>
        <trkpt lat="29.7311102" lon="104.9185676"><ele>326.28</ele><time>2026-05-17T23:22:02.000Z</time></trkpt>
        <trkpt lat="29.7312102" lon="104.9185766"><ele>325.74</ele><time>2026-05-17T23:22:10.000Z</time></trkpt>
        <trkpt lat="29.7313114" lon="104.9185693"><ele>325.63</ele><time>2026-05-17T23:22:17.000Z</time></trkpt>
        <trkpt lat="29.731411" lon="104.9185617"><ele>325.34</ele><time>2026-05-17T23:22:25.000Z</time></trkpt>
        <trkpt lat="29.7315043" lon="104.9185536"><ele>324.86</ele><time>2026-05-17T23:22:34.000Z</time></trkpt>
        <trkpt lat="29.7315043" lon="104.9185536"><ele>324.86</ele><time>2026-05-17T23:22:51.000Z</time></trkpt>
        <trkpt lat="29.7315043" lon="104.9185536"><ele>324.86</ele><time>2026-05-17T23:22:54.000Z</time></trkpt>
        <trkpt lat="29.7315043" lon="104.9185536"><ele>324.86</ele><time>2026-05-17T23:23:03.000Z</time></trkpt>
        <trkpt lat="29.731594" lon="104.9185117"><ele>324.24</ele><time>2026-05-17T23:23:10.000Z</time></trkpt>
        <trkpt lat="29.731594" lon="104.9185117"><ele>324.24</ele><time>2026-05-17T23:23:42.000Z</time></trkpt>
        <trkpt lat="29.7316845" lon="104.9185175"><ele>323.35</ele><time>2026-05-17T23:23:48.000Z</time></trkpt>
        <trkpt lat="29.7317842" lon="104.9185198"><ele>322.77</ele><time>2026-05-17T23:23:56.000Z</time></trkpt>
        <trkpt lat="29.7318771" lon="104.9185305"><ele>322.67</ele><time>2026-05-17T23:24:03.000Z</time></trkpt>
        <trkpt lat="29.7319736" lon="104.9185288"><ele>322.35</ele><time>2026-05-17T23:24:11.000Z</time></trkpt>
        <trkpt lat="29.7320678" lon="104.9185154"><ele>321.4</ele><time>2026-05-17T23:24:18.000Z</time></trkpt>
        <trkpt lat="29.7321669" lon="104.9185226"><ele>320.39</ele><time>2026-05-17T23:24:26.000Z</time></trkpt>
        <trkpt lat="29.7322724" lon="104.9185267"><ele>319.85</ele><time>2026-05-17T23:24:34.000Z</time></trkpt>
        <trkpt lat="29.7323682" lon="104.9185194"><ele>319.52</ele><time>2026-05-17T23:24:41.000Z</time></trkpt>
        <trkpt lat="29.7324629" lon="104.9185122"><ele>319.27</ele><time>2026-05-17T23:24:48.000Z</time></trkpt>
        <trkpt lat="29.7325536" lon="104.9185139"><ele>318.71</ele><time>2026-05-17T23:24:55.000Z</time></trkpt>
        <trkpt lat="29.7326458" lon="104.9185197"><ele>318.49</ele><time>2026-05-17T23:25:02.000Z</time></trkpt>
        <trkpt lat="29.7327371" lon="104.9185236"><ele>318.13</ele><time>2026-05-17T23:25:08.000Z</time></trkpt>
        <trkpt lat="29.7328317" lon="104.9185296"><ele>317.36</ele><time>2026-05-17T23:25:15.000Z</time></trkpt>
        <trkpt lat="29.7329258" lon="104.9185272"><ele>316.95</ele><time>2026-05-17T23:25:23.000Z</time></trkpt>
        <trkpt lat="29.733025" lon="104.9185151"><ele>316.44</ele><time>2026-05-17T23:25:31.000Z</time></trkpt>
        <trkpt lat="29.7331208" lon="104.9185038"><ele>315.88</ele><time>2026-05-17T23:25:38.000Z</time></trkpt>
        <trkpt lat="29.7332198" lon="104.9184769"><ele>315.08</ele><time>2026-05-17T23:25:46.000Z</time></trkpt>
        <trkpt lat="29.7333115" lon="104.9184459"><ele>314.93</ele><time>2026-05-17T23:25:54.000Z</time></trkpt>
        <trkpt lat="29.7334003" lon="104.9184143"><ele>314.75</ele><time>2026-05-17T23:26:02.000Z</time></trkpt>
        <trkpt lat="29.7334924" lon="104.9183869"><ele>313.91</ele><time>2026-05-17T23:26:11.000Z</time></trkpt>
        <trkpt lat="29.7335813" lon="104.9183424"><ele>312.98</ele><time>2026-05-17T23:26:18.000Z</time></trkpt>
        <trkpt lat="29.7336721" lon="104.9183019"><ele>312.12</ele><time>2026-05-17T23:26:26.000Z</time></trkpt>
        <trkpt lat="29.7337555" lon="104.9182386"><ele>311.79</ele><time>2026-05-17T23:26:35.000Z</time></trkpt>
        <trkpt lat="29.7338239" lon="104.918161"><ele>311.17</ele><time>2026-05-17T23:26:42.000Z</time></trkpt>
        <trkpt lat="29.7338991" lon="104.9180966"><ele>310.33</ele><time>2026-05-17T23:26:51.000Z</time></trkpt>
        <trkpt lat="29.7339702" lon="104.9180252"><ele>309.81</ele><time>2026-05-17T23:26:59.000Z</time></trkpt>
        <trkpt lat="29.7340484" lon="104.9179583"><ele>309.19</ele><time>2026-05-17T23:27:07.000Z</time></trkpt>
        <trkpt lat="29.7341336" lon="104.9178838"><ele>308.38</ele><time>2026-05-17T23:27:16.000Z</time></trkpt>
        <trkpt lat="29.7342039" lon="104.9178097"><ele>307.6</ele><time>2026-05-17T23:27:24.000Z</time></trkpt>
        <trkpt lat="29.7342684" lon="104.9177249"><ele>306.86</ele><time>2026-05-17T23:27:35.000Z</time></trkpt>
        <trkpt lat="29.7343443" lon="104.9176597"><ele>306.54</ele><time>2026-05-17T23:27:44.000Z</time></trkpt>
        <trkpt lat="29.7344223" lon="104.9175904"><ele>306.42</ele><time>2026-05-17T23:27:52.000Z</time></trkpt>
        <trkpt lat="29.734504" lon="104.9175262"><ele>306.37</ele><time>2026-05-17T23:28:01.000Z</time></trkpt>
        <trkpt lat="29.7346083" lon="104.9175094"><ele>306.34</ele><time>2026-05-17T23:28:10.000Z</time></trkpt>
        <trkpt lat="29.7347047" lon="104.91755"><ele>305.88</ele><time>2026-05-17T23:28:18.000Z</time></trkpt>
        <trkpt lat="29.7347923" lon="104.9176273"><ele>305.86</ele><time>2026-05-17T23:28:28.000Z</time></trkpt>
        <trkpt lat="29.734851" lon="104.9177282"><ele>305.52</ele><time>2026-05-17T23:28:36.000Z</time></trkpt>
        <trkpt lat="29.7349053" lon="104.9178389"><ele>305.43</ele><time>2026-05-17T23:28:46.000Z</time></trkpt>
        <trkpt lat="29.7349669" lon="104.9179273"><ele>305.5</ele><time>2026-05-17T23:28:55.000Z</time></trkpt>
        <trkpt lat="29.7350392" lon="104.9180159"><ele>305.84</ele><time>2026-05-17T23:29:04.000Z</time></trkpt>
        <trkpt lat="29.7351124" lon="104.9181003"><ele>305.84</ele><time>2026-05-17T23:29:22.000Z</time></trkpt>
        <trkpt lat="29.7351786" lon="104.9181838"><ele>305.3</ele><time>2026-05-17T23:29:30.000Z</time></trkpt>
        <trkpt lat="29.7352508" lon="104.9182598"><ele>304.84</ele><time>2026-05-17T23:29:38.000Z</time></trkpt>
        <trkpt lat="29.735328" lon="104.9183242"><ele>304.4</ele><time>2026-05-17T23:29:47.000Z</time></trkpt>
        <trkpt lat="29.7354136" lon="104.9183773"><ele>304.53</ele><time>2026-05-17T23:30:19.000Z</time></trkpt>
        <trkpt lat="29.7354844" lon="104.9184504"><ele>304.05</ele><time>2026-05-17T23:30:26.000Z</time></trkpt>
        <trkpt lat="29.7355641" lon="104.9185161"><ele>303.48</ele><time>2026-05-17T23:30:35.000Z</time></trkpt>
        <trkpt lat="29.735529" lon="104.9184802"><ele>302.81</ele><time>2026-05-17T23:31:15.000Z</time></trkpt>
        <trkpt lat="29.7354416" lon="104.918419"><ele>303.45</ele><time>2026-05-17T23:31:24.000Z</time></trkpt>
        <trkpt lat="29.7353455" lon="104.918353"><ele>303.99</ele><time>2026-05-17T23:31:32.000Z</time></trkpt>
        <trkpt lat="29.7352649" lon="104.9182665"><ele>304.56</ele><time>2026-05-17T23:31:41.000Z</time></trkpt>
        <trkpt lat="29.7351926" lon="104.9181764"><ele>305.22</ele><time>2026-05-17T23:31:50.000Z</time></trkpt>
        <trkpt lat="29.7351259" lon="104.9180935"><ele>305.94</ele><time>2026-05-17T23:31:58.000Z</time></trkpt>
        <trkpt lat="29.7351054" lon="104.9179923"><ele>307.06</ele><time>2026-05-17T23:32:09.000Z</time></trkpt>
        <trkpt lat="29.7351578" lon="104.9179131"><ele>308.08</ele><time>2026-05-17T23:32:34.000Z</time></trkpt>
        <trkpt lat="29.7352506" lon="104.9178671"><ele>307.7</ele><time>2026-05-17T23:32:55.000Z</time></trkpt>
        <trkpt lat="29.7353475" lon="104.917889"><ele>306.76</ele><time>2026-05-17T23:33:05.000Z</time></trkpt>
        <trkpt lat="29.7354395" lon="104.9179439"><ele>305.86</ele><time>2026-05-17T23:33:11.000Z</time></trkpt>
        <trkpt lat="29.7355373" lon="104.9179551"><ele>304.96</ele><time>2026-05-17T23:33:18.000Z</time></trkpt>
        <trkpt lat="29.7356276" lon="104.9179255"><ele>304.25</ele><time>2026-05-17T23:33:26.000Z</time></trkpt>
        <trkpt lat="29.7356996" lon="104.9178576"><ele>303.51</ele><time>2026-05-17T23:33:42.000Z</time></trkpt>
        <trkpt lat="29.7357695" lon="104.9177833"><ele>303.02</ele><time>2026-05-17T23:33:52.000Z</time></trkpt>
        <trkpt lat="29.7358555" lon="104.9177537"><ele>302.54</ele><time>2026-05-17T23:34:28.000Z</time></trkpt>
        <trkpt lat="29.7359326" lon="104.9176876"><ele>302.29</ele><time>2026-05-17T23:34:35.000Z</time></trkpt>
        <trkpt lat="29.736001" lon="104.9176096"><ele>301.69</ele><time>2026-05-17T23:34:48.000Z</time></trkpt>
        <trkpt lat="29.7360669" lon="104.9175303"><ele>301.79</ele><time>2026-05-17T23:34:57.000Z</time></trkpt>
        <trkpt lat="29.7361257" lon="104.9174416"><ele>301.75</ele><time>2026-05-17T23:35:06.000Z</time></trkpt>
        <trkpt lat="29.7361891" lon="104.9173604"><ele>301.71</ele><time>2026-05-17T23:35:14.000Z</time></trkpt>
        <trkpt lat="29.7362616" lon="104.9172873"><ele>301.76</ele><time>2026-05-17T23:35:22.000Z</time></trkpt>
        <trkpt lat="29.7363409" lon="104.9172313"><ele>301.33</ele><time>2026-05-17T23:35:30.000Z</time></trkpt>
        <trkpt lat="29.7364276" lon="104.9171876"><ele>301.15</ele><time>2026-05-17T23:35:37.000Z</time></trkpt>
        <trkpt lat="29.7365217" lon="104.9171587"><ele>301</ele><time>2026-05-17T23:35:45.000Z</time></trkpt>
        <trkpt lat="29.7366177" lon="104.9171643"><ele>300.49</ele><time>2026-05-17T23:35:53.000Z</time></trkpt>
        <trkpt lat="29.7367096" lon="104.917199"><ele>300.38</ele><time>2026-05-17T23:36:01.000Z</time></trkpt>
        <trkpt lat="29.7368011" lon="104.9171791"><ele>300.99</ele><time>2026-05-17T23:36:09.000Z</time></trkpt>
        <trkpt lat="29.7369023" lon="104.9171325"><ele>301.32</ele><time>2026-05-17T23:36:16.000Z</time></trkpt>
        <trkpt lat="29.7369969" lon="104.9170636"><ele>301.54</ele><time>2026-05-17T23:36:34.000Z</time></trkpt>
        <trkpt lat="29.7370905" lon="104.9170068"><ele>301.24</ele><time>2026-05-17T23:36:42.000Z</time></trkpt>
        <trkpt lat="29.7371765" lon="104.9169613"><ele>301.16</ele><time>2026-05-17T23:36:50.000Z</time></trkpt>
        <trkpt lat="29.737215" lon="104.9168652"><ele>301.07</ele><time>2026-05-17T23:37:15.000Z</time></trkpt>
        <trkpt lat="29.7372184" lon="104.9167526"><ele>300.31</ele><time>2026-05-17T23:37:31.000Z</time></trkpt>
        <trkpt lat="29.7372304" lon="104.9166374"><ele>299.66</ele><time>2026-05-17T23:37:56.000Z</time></trkpt>
        <trkpt lat="29.7372684" lon="104.9165245"><ele>299.91</ele><time>2026-05-17T23:38:04.000Z</time></trkpt>
        <trkpt lat="29.7373435" lon="104.9164705"><ele>300.73</ele><time>2026-05-17T23:38:11.000Z</time></trkpt>
        <trkpt lat="29.7374335" lon="104.9164446"><ele>301.33</ele><time>2026-05-17T23:38:19.000Z</time></trkpt>
        <trkpt lat="29.7375194" lon="104.9163956"><ele>301.88</ele><time>2026-05-17T23:38:28.000Z</time></trkpt>
        <trkpt lat="29.7376014" lon="104.9163424"><ele>302.67</ele><time>2026-05-17T23:38:37.000Z</time></trkpt>
        <trkpt lat="29.7376611" lon="104.9164005"><ele>302.99</ele><time>2026-05-17T23:39:02.000Z</time></trkpt>
        <trkpt lat="29.7377429" lon="104.9164435"><ele>302.97</ele><time>2026-05-17T23:39:20.000Z</time></trkpt>
        <trkpt lat="29.7378376" lon="104.9164471"><ele>302.61</ele><time>2026-05-17T23:39:28.000Z</time></trkpt>
        <trkpt lat="29.7379339" lon="104.9164489"><ele>302.7</ele><time>2026-05-17T23:39:35.000Z</time></trkpt>
        <trkpt lat="29.7379567" lon="104.9163651"><ele>302.68</ele><time>2026-05-17T23:39:57.000Z</time></trkpt>
        <trkpt lat="29.737925" lon="104.9162538"><ele>302.78</ele><time>2026-05-17T23:40:08.000Z</time></trkpt>
        <trkpt lat="29.7378562" lon="104.9161643"><ele>302.63</ele><time>2026-05-17T23:40:15.000Z</time></trkpt>
        <trkpt lat="29.7377788" lon="104.9160875"><ele>302.72</ele><time>2026-05-17T23:40:23.000Z</time></trkpt>
        <trkpt lat="29.7376917" lon="104.9160181"><ele>302.79</ele><time>2026-05-17T23:40:32.000Z</time></trkpt>
        <trkpt lat="29.7376465" lon="104.915927"><ele>302.38</ele><time>2026-05-17T23:41:01.000Z</time></trkpt>
        <trkpt lat="29.7376164" lon="104.9158239"><ele>302.09</ele><time>2026-05-17T23:41:31.000Z</time></trkpt>
        <trkpt lat="29.7375815" lon="104.9157231"><ele>301.79</ele><time>2026-05-17T23:41:50.000Z</time></trkpt>
        <trkpt lat="29.7375873" lon="104.9156072"><ele>300.22</ele><time>2026-05-17T23:41:58.000Z</time></trkpt>
        <trkpt lat="29.7375652" lon="104.9155052"><ele>298.78</ele><time>2026-05-17T23:42:06.000Z</time></trkpt>
        <trkpt lat="29.7375752" lon="104.9153968"><ele>297.57</ele><time>2026-05-17T23:42:14.000Z</time></trkpt>
        <trkpt lat="29.7375931" lon="104.9152879"><ele>296.41</ele><time>2026-05-17T23:42:23.000Z</time></trkpt>
        <trkpt lat="29.7376222" lon="104.9151848"><ele>295.67</ele><time>2026-05-17T23:42:31.000Z</time></trkpt>
        <trkpt lat="29.737678" lon="104.9150961"><ele>294.99</ele><time>2026-05-17T23:42:38.000Z</time></trkpt>
        <trkpt lat="29.7377377" lon="104.9150028"><ele>294.14</ele><time>2026-05-17T23:42:45.000Z</time></trkpt>
        <trkpt lat="29.737777" lon="104.9149024"><ele>292.82</ele><time>2026-05-17T23:42:54.000Z</time></trkpt>
        <trkpt lat="29.7377158" lon="104.914858"><ele>290.94</ele><time>2026-05-17T23:43:35.000Z</time></trkpt>
        <trkpt lat="29.7376275" lon="104.9148194"><ele>289.59</ele><time>2026-05-17T23:43:43.000Z</time></trkpt>
        <trkpt lat="29.7376275" lon="104.9148194"><ele>289.59</ele><time>2026-05-17T23:44:03.000Z</time></trkpt>
        <trkpt lat="29.7376275" lon="104.9148194"><ele>289.59</ele><time>2026-05-17T23:44:18.000Z</time></trkpt>
        <trkpt lat="29.7376275" lon="104.9148194"><ele>289.59</ele><time>2026-05-17T23:44:55.000Z</time></trkpt>
        <trkpt lat="29.7375176" lon="104.9147869"><ele>288.32</ele><time>2026-05-17T23:45:00.000Z</time></trkpt>
        <trkpt lat="29.7375176" lon="104.9147869"><ele>288.32</ele><time>2026-05-17T23:45:42.000Z</time></trkpt>
        <trkpt lat="29.7374394" lon="104.9147136"><ele>286.48</ele><time>2026-05-17T23:45:49.000Z</time></trkpt>
        <trkpt lat="29.7373569" lon="104.9146615"><ele>284.66</ele><time>2026-05-17T23:45:56.000Z</time></trkpt>
        <trkpt lat="29.7373569" lon="104.9146615"><ele>284.66</ele><time>2026-05-17T23:46:19.000Z</time></trkpt>
        <trkpt lat="29.7373569" lon="104.9146615"><ele>284.66</ele><time>2026-05-17T23:47:52.000Z</time></trkpt>
        <trkpt lat="29.7373569" lon="104.9146615"><ele>284.66</ele><time>2026-05-17T23:48:05.000Z</time></trkpt>
        <trkpt lat="29.7373569" lon="104.9146615"><ele>284.66</ele><time>2026-05-17T23:48:16.000Z</time></trkpt>
        <trkpt lat="29.7373569" lon="104.9146615"><ele>284.66</ele><time>2026-05-17T23:48:25.000Z</time></trkpt>
        <trkpt lat="29.7373569" lon="104.9146615"><ele>284.66</ele><time>2026-05-17T23:48:40.000Z</time></trkpt>
        <trkpt lat="29.7373569" lon="104.9146615"><ele>284.66</ele><time>2026-05-17T23:48:51.000Z</time></trkpt>
        <trkpt lat="29.7373569" lon="104.9146615"><ele>284.66</ele><time>2026-05-17T23:48:52.000Z</time></trkpt>
        <trkpt lat="29.7373569" lon="104.9146615"><ele>284.66</ele><time>2026-05-17T23:49:09.000Z</time></trkpt>
        <trkpt lat="29.7374478" lon="104.9147197"><ele>282.85</ele><time>2026-05-17T23:49:20.000Z</time></trkpt>
        <trkpt lat="29.7374478" lon="104.9147197"><ele>282.85</ele><time>2026-05-17T23:49:46.000Z</time></trkpt>
        <trkpt lat="29.7375345" lon="104.9147558"><ele>281.63</ele><time>2026-05-17T23:49:52.000Z</time></trkpt>
        <trkpt lat="29.7376204" lon="104.9148114"><ele>280.81</ele><time>2026-05-17T23:49:59.000Z</time></trkpt>
        <trkpt lat="29.7377093" lon="104.9148702"><ele>280</ele><time>2026-05-17T23:50:06.000Z</time></trkpt>
        <trkpt lat="29.7377859" lon="104.9149358"><ele>279.99</ele><time>2026-05-17T23:50:13.000Z</time></trkpt>
        <trkpt lat="29.7378857" lon="104.9149785"><ele>280.03</ele><time>2026-05-17T23:50:22.000Z</time></trkpt>
        <trkpt lat="29.7379879" lon="104.9149817"><ele>280.01</ele><time>2026-05-17T23:50:29.000Z</time></trkpt>
        <trkpt lat="29.738083" lon="104.9149774"><ele>279.91</ele><time>2026-05-17T23:50:35.000Z</time></trkpt>
        <trkpt lat="29.7381825" lon="104.9149874"><ele>280.02</ele><time>2026-05-17T23:50:41.000Z</time></trkpt>
        <trkpt lat="29.7382752" lon="104.9149979"><ele>280.14</ele><time>2026-05-17T23:50:48.000Z</time></trkpt>
        <trkpt lat="29.7383708" lon="104.9149818"><ele>280.11</ele><time>2026-05-17T23:51:09.000Z</time></trkpt>
        <trkpt lat="29.7384651" lon="104.9149786"><ele>280.6</ele><time>2026-05-17T23:51:16.000Z</time></trkpt>
        <trkpt lat="29.7385596" lon="104.9149767"><ele>280.97</ele><time>2026-05-17T23:51:26.000Z</time></trkpt>
        <trkpt lat="29.7386509" lon="104.9149717"><ele>281.71</ele><time>2026-05-17T23:51:36.000Z</time></trkpt>
        <trkpt lat="29.738743" lon="104.9149679"><ele>281.85</ele><time>2026-05-17T23:51:43.000Z</time></trkpt>
        <trkpt lat="29.7388441" lon="104.9149977"><ele>282.48</ele><time>2026-05-17T23:51:52.000Z</time></trkpt>
        <trkpt lat="29.7389347" lon="104.9150324"><ele>282.54</ele><time>2026-05-17T23:52:00.000Z</time></trkpt>
        <trkpt lat="29.7390238" lon="104.9150515"><ele>281.72</ele><time>2026-05-17T23:52:08.000Z</time></trkpt>
        <trkpt lat="29.7391338" lon="104.9150351"><ele>280.32</ele><time>2026-05-17T23:52:28.000Z</time></trkpt>
        <trkpt lat="29.7392073" lon="104.9149658"><ele>280.4</ele><time>2026-05-17T23:52:36.000Z</time></trkpt>
        <trkpt lat="29.7392073" lon="104.9149658"><ele>280.4</ele><time>2026-05-17T23:53:19.000Z</time></trkpt>
        <trkpt lat="29.7392657" lon="104.9148587"><ele>281.53</ele><time>2026-05-17T23:53:22.000Z</time></trkpt>
        <trkpt lat="29.7392657" lon="104.9148587"><ele>281.53</ele><time>2026-05-17T23:53:37.000Z</time></trkpt>
        <trkpt lat="29.7393221" lon="104.9147505"><ele>282.23</ele><time>2026-05-17T23:53:45.000Z</time></trkpt>
        <trkpt lat="29.73934" lon="104.9146421"><ele>282.37</ele><time>2026-05-17T23:53:51.000Z</time></trkpt>
        <trkpt lat="29.7393356" lon="104.9145358"><ele>282.42</ele><time>2026-05-17T23:54:00.000Z</time></trkpt>
        <trkpt lat="29.7393295" lon="104.9144253"><ele>282.59</ele><time>2026-05-17T23:54:08.000Z</time></trkpt>
        <trkpt lat="29.7393044" lon="104.9143149"><ele>282.62</ele><time>2026-05-17T23:54:18.000Z</time></trkpt>
        <trkpt lat="29.7392987" lon="104.9142039"><ele>282.83</ele><time>2026-05-17T23:54:25.000Z</time></trkpt>
        <trkpt lat="29.7393236" lon="104.9141012"><ele>283.61</ele><time>2026-05-17T23:54:34.000Z</time></trkpt>
        <trkpt lat="29.7393637" lon="104.9140013"><ele>284.53</ele><time>2026-05-17T23:54:41.000Z</time></trkpt>
        <trkpt lat="29.739395" lon="104.9139006"><ele>285.06</ele><time>2026-05-17T23:54:49.000Z</time></trkpt>
        <trkpt lat="29.7394419" lon="104.9138109"><ele>285.63</ele><time>2026-05-17T23:54:57.000Z</time></trkpt>
        <trkpt lat="29.7394943" lon="104.9137245"><ele>285.84</ele><time>2026-05-17T23:55:05.000Z</time></trkpt>
        <trkpt lat="29.739542" lon="104.9136333"><ele>286.17</ele><time>2026-05-17T23:55:13.000Z</time></trkpt>
        <trkpt lat="29.7395882" lon="104.9135346"><ele>286.59</ele><time>2026-05-17T23:55:20.000Z</time></trkpt>
        <trkpt lat="29.739649" lon="104.9134542"><ele>286.85</ele><time>2026-05-17T23:55:29.000Z</time></trkpt>
        <trkpt lat="29.7396892" lon="104.9133523"><ele>287.98</ele><time>2026-05-17T23:55:37.000Z</time></trkpt>
        <trkpt lat="29.7397249" lon="104.9132322"><ele>288.96</ele><time>2026-05-17T23:55:46.000Z</time></trkpt>
        <trkpt lat="29.7397448" lon="104.9131186"><ele>289.59</ele><time>2026-05-17T23:55:54.000Z</time></trkpt>
        <trkpt lat="29.7397474" lon="104.9130029"><ele>290.24</ele><time>2026-05-17T23:56:02.000Z</time></trkpt>
        <trkpt lat="29.7397512" lon="104.91289"><ele>291.03</ele><time>2026-05-17T23:56:10.000Z</time></trkpt>
        <trkpt lat="29.7397514" lon="104.9127766"><ele>291.39</ele><time>2026-05-17T23:56:17.000Z</time></trkpt>
        <trkpt lat="29.7398184" lon="104.9127671"><ele>291.09</ele><time>2026-05-17T23:56:33.000Z</time></trkpt>
        <trkpt lat="29.7398791" lon="104.9127102"><ele>290.13</ele><time>2026-05-17T23:56:45.000Z</time></trkpt>
        <trkpt lat="29.7398478" lon="104.9127519"><ele>289.09</ele><time>2026-05-17T23:57:27.000Z</time></trkpt>
        <trkpt lat="29.7397673" lon="104.912748"><ele>288.08</ele><time>2026-05-17T23:57:38.000Z</time></trkpt>
        <trkpt lat="29.7397127" lon="104.9126724"><ele>288.07</ele><time>2026-05-17T23:57:45.000Z</time></trkpt>
        <trkpt lat="29.7397127" lon="104.9126724"><ele>288.07</ele><time>2026-05-17T23:57:59.000Z</time></trkpt>
        <trkpt lat="29.7396494" lon="104.912579"><ele>288.11</ele><time>2026-05-17T23:58:00.000Z</time></trkpt>
        <trkpt lat="29.7396494" lon="104.912579"><ele>288.11</ele><time>2026-05-17T23:58:10.000Z</time></trkpt>
        <trkpt lat="29.7396902" lon="104.9125971"><ele>288.82</ele><time>2026-05-17T23:58:49.000Z</time></trkpt>
        <trkpt lat="29.7397443" lon="104.9126836"><ele>289.21</ele><time>2026-05-17T23:58:56.000Z</time></trkpt>
        <trkpt lat="29.7398274" lon="104.9127595"><ele>289.37</ele><time>2026-05-17T23:59:05.000Z</time></trkpt>
        <trkpt lat="29.7398974" lon="104.9127217"><ele>289.32</ele><time>2026-05-17T23:59:22.000Z</time></trkpt>
        <trkpt lat="29.7399098" lon="104.912619"><ele>288.28</ele><time>2026-05-17T23:59:31.000Z</time></trkpt>
        <trkpt lat="29.7399283" lon="104.9125003"><ele>287.29</ele><time>2026-05-17T23:59:42.000Z</time></trkpt>
        <trkpt lat="29.7399283" lon="104.9125003"><ele>287.29</ele><time>2026-05-18T00:00:29.000Z</time></trkpt>
        <trkpt lat="29.7399283" lon="104.9125003"><ele>287.29</ele><time>2026-05-18T00:00:30.000Z</time></trkpt>
        <trkpt lat="29.7399283" lon="104.9125003"><ele>287.29</ele><time>2026-05-18T00:00:53.000Z</time></trkpt>
        <trkpt lat="29.7399283" lon="104.9125003"><ele>287.29</ele><time>2026-05-18T00:01:02.000Z</time></trkpt>
        <trkpt lat="29.7399283" lon="104.9125003"><ele>287.29</ele><time>2026-05-18T00:01:53.000Z</time></trkpt>
        <trkpt lat="29.7399283" lon="104.9125003"><ele>287.29</ele><time>2026-05-18T00:01:58.000Z</time></trkpt>
        <trkpt lat="29.7399283" lon="104.9125003"><ele>287.29</ele><time>2026-05-18T00:02:25.000Z</time></trkpt>
        <trkpt lat="29.7399283" lon="104.9125003"><ele>287.29</ele><time>2026-05-18T00:02:30.000Z</time></trkpt>
        <trkpt lat="29.7399283" lon="104.9125003"><ele>287.29</ele><time>2026-05-18T00:02:39.000Z</time></trkpt>
        <trkpt lat="29.7399283" lon="104.9125003"><ele>287.29</ele><time>2026-05-18T00:03:00.000Z</time></trkpt>
        <trkpt lat="29.7399283" lon="104.9125003"><ele>287.29</ele><time>2026-05-18T00:03:09.000Z</time></trkpt>
        <trkpt lat="29.7399283" lon="104.9125003"><ele>287.29</ele><time>2026-05-18T00:03:12.000Z</time></trkpt>
        <trkpt lat="29.7399283" lon="104.9125003"><ele>287.29</ele><time>2026-05-18T00:03:21.000Z</time></trkpt>
        <trkpt lat="29.7399283" lon="104.9125003"><ele>287.29</ele><time>2026-05-18T00:03:46.000Z</time></trkpt>
        <trkpt lat="29.7399283" lon="104.9125003"><ele>287.29</ele><time>2026-05-18T00:04:17.000Z</time></trkpt>
        <trkpt lat="29.7399283" lon="104.9125003"><ele>287.29</ele><time>2026-05-18T00:04:54.000Z</time></trkpt>
        <trkpt lat="29.7399283" lon="104.9125003"><ele>287.29</ele><time>2026-05-18T00:05:23.000Z</time></trkpt>
        <trkpt lat="29.7399283" lon="104.9125003"><ele>287.29</ele><time>2026-05-18T00:05:46.000Z</time></trkpt>
        <trkpt lat="29.7399283" lon="104.9125003"><ele>287.29</ele><time>2026-05-18T00:05:57.000Z</time></trkpt>
        <trkpt lat="29.7399283" lon="104.9125003"><ele>287.29</ele><time>2026-05-18T00:06:16.000Z</time></trkpt>
        <trkpt lat="29.7399283" lon="104.9125003"><ele>287.29</ele><time>2026-05-18T00:06:27.000Z</time></trkpt>
        <trkpt lat="29.7399283" lon="104.9125003"><ele>287.29</ele><time>2026-05-18T00:06:30.000Z</time></trkpt>
        <trkpt lat="29.7399283" lon="104.9125003"><ele>287.29</ele><time>2026-05-18T00:06:49.000Z</time></trkpt>
        <trkpt lat="29.7399283" lon="104.9125003"><ele>287.29</ele><time>2026-05-18T00:06:52.000Z</time></trkpt>
        <trkpt lat="29.7399283" lon="104.9125003"><ele>287.29</ele><time>2026-05-18T00:07:09.000Z</time></trkpt>
        <trkpt lat="29.7399283" lon="104.9125003"><ele>287.29</ele><time>2026-05-18T00:07:24.000Z</time></trkpt>
        <trkpt lat="29.7399283" lon="104.9125003"><ele>287.29</ele><time>2026-05-18T00:08:21.000Z</time></trkpt>
        <trkpt lat="29.7400141" lon="104.9124768"><ele>285.43</ele><time>2026-05-18T00:08:42.000Z</time></trkpt>
        <trkpt lat="29.7400141" lon="104.9124768"><ele>285.43</ele><time>2026-05-18T00:10:00.000Z</time></trkpt>
        <trkpt lat="29.7401164" lon="104.9124647"><ele>282.67</ele><time>2026-05-18T00:10:21.000Z</time></trkpt>
        <trkpt lat="29.7402034" lon="104.9125019"><ele>281.06</ele><time>2026-05-18T00:10:29.000Z</time></trkpt>
        <trkpt lat="29.7402956" lon="104.9125447"><ele>280.04</ele><time>2026-05-18T00:10:38.000Z</time></trkpt>
        <trkpt lat="29.7403852" lon="104.9125387"><ele>279.42</ele><time>2026-05-18T00:10:49.000Z</time></trkpt>
        <trkpt lat="29.7404413" lon="104.9124656"><ele>279.18</ele><time>2026-05-18T00:10:58.000Z</time></trkpt>
        <trkpt lat="29.740516" lon="104.9124008"><ele>278.94</ele><time>2026-05-18T00:11:07.000Z</time></trkpt>
        <trkpt lat="29.7405873" lon="104.9123235"><ele>278.54</ele><time>2026-05-18T00:11:16.000Z</time></trkpt>
        <trkpt lat="29.740638" lon="104.9122315"><ele>277.76</ele><time>2026-05-18T00:11:24.000Z</time></trkpt>
        <trkpt lat="29.7406894" lon="104.9121381"><ele>277.57</ele><time>2026-05-18T00:11:34.000Z</time></trkpt>
        <trkpt lat="29.740731" lon="104.9120414"><ele>276.82</ele><time>2026-05-18T00:11:44.000Z</time></trkpt>
        <trkpt lat="29.740763" lon="104.9119398"><ele>275.69</ele><time>2026-05-18T00:11:53.000Z</time></trkpt>
        <trkpt lat="29.740791" lon="104.9118321"><ele>274.91</ele><time>2026-05-18T00:12:02.000Z</time></trkpt>
        <trkpt lat="29.7408268" lon="104.9117296"><ele>274.74</ele><time>2026-05-18T00:12:11.000Z</time></trkpt>
        <trkpt lat="29.7408268" lon="104.9117296"><ele>274.74</ele><time>2026-05-18T00:12:51.000Z</time></trkpt>
        <trkpt lat="29.7408775" lon="104.9116389"><ele>273.79</ele><time>2026-05-18T00:12:56.000Z</time></trkpt>
        <trkpt lat="29.7408775" lon="104.9116389"><ele>273.79</ele><time>2026-05-18T00:13:04.000Z</time></trkpt>
        <trkpt lat="29.7408961" lon="104.9115331"><ele>273.96</ele><time>2026-05-18T00:13:13.000Z</time></trkpt>
        <trkpt lat="29.7409108" lon="104.9114227"><ele>274.2</ele><time>2026-05-18T00:13:23.000Z</time></trkpt>
        <trkpt lat="29.7409187" lon="104.9113149"><ele>275</ele><time>2026-05-18T00:13:30.000Z</time></trkpt>
        <trkpt lat="29.7409293" lon="104.9112103"><ele>276.39</ele><time>2026-05-18T00:13:44.000Z</time></trkpt>
        <trkpt lat="29.7410002" lon="104.9111943"><ele>276.74</ele><time>2026-05-18T00:14:06.000Z</time></trkpt>
        <trkpt lat="29.7410946" lon="104.9111986"><ele>276.8</ele><time>2026-05-18T00:14:13.000Z</time></trkpt>
        <trkpt lat="29.7410533" lon="104.9112184"><ele>277.22</ele><time>2026-05-18T00:14:46.000Z</time></trkpt>
        <trkpt lat="29.7409637" lon="104.9112081"><ele>278.3</ele><time>2026-05-18T00:14:54.000Z</time></trkpt>
        <trkpt lat="29.7409366" lon="104.9111187"><ele>278.28</ele><time>2026-05-18T00:15:18.000Z</time></trkpt>
        <trkpt lat="29.7409363" lon="104.9111677"><ele>278.3</ele><time>2026-05-18T00:15:43.000Z</time></trkpt>
        <trkpt lat="29.7410047" lon="104.9112158"><ele>279.42</ele><time>2026-05-18T00:15:53.000Z</time></trkpt>
        <trkpt lat="29.7410644" lon="104.9111629"><ele>280.22</ele><time>2026-05-18T00:16:03.000Z</time></trkpt>
        <trkpt lat="29.7410996" lon="104.91105"><ele>280.63</ele><time>2026-05-18T00:16:28.000Z</time></trkpt>
        <trkpt lat="29.7411812" lon="104.9109859"><ele>280.73</ele><time>2026-05-18T00:16:44.000Z</time></trkpt>
        <trkpt lat="29.7412614" lon="104.9109155"><ele>280.6</ele><time>2026-05-18T00:16:54.000Z</time></trkpt>
        <trkpt lat="29.7413542" lon="104.9108698"><ele>281.01</ele><time>2026-05-18T00:20:08.000Z</time></trkpt>
        <trkpt lat="29.7414452" lon="104.9108518"><ele>280.98</ele><time>2026-05-18T00:20:25.000Z</time></trkpt>
        <trkpt lat="29.7414724" lon="104.9109401"><ele>280.53</ele><time>2026-05-18T00:20:35.000Z</time></trkpt>
        <trkpt lat="29.7414807" lon="104.9108787"><ele>280.81</ele><time>2026-05-18T00:20:54.000Z</time></trkpt>
        <trkpt lat="29.7414897" lon="104.9107732"><ele>281.31</ele><time>2026-05-18T00:21:02.000Z</time></trkpt>
        <trkpt lat="29.7415402" lon="104.9106705"><ele>281.04</ele><time>2026-05-18T00:21:10.000Z</time></trkpt>
        <trkpt lat="29.7416139" lon="104.9105842"><ele>281.09</ele><time>2026-05-18T00:21:19.000Z</time></trkpt>
        <trkpt lat="29.7416885" lon="104.9105026"><ele>282.19</ele><time>2026-05-18T00:21:28.000Z</time></trkpt>
        <trkpt lat="29.7416885" lon="104.9105026"><ele>282.19</ele><time>2026-05-18T00:21:49.000Z</time></trkpt>
        <trkpt lat="29.7416885" lon="104.9105026"><ele>282.19</ele><time>2026-05-18T00:21:52.000Z</time></trkpt>
        <trkpt lat="29.7416885" lon="104.9105026"><ele>282.19</ele><time>2026-05-18T00:22:19.000Z</time></trkpt>
        <trkpt lat="29.7416885" lon="104.9105026"><ele>282.19</ele><time>2026-05-18T00:22:24.000Z</time></trkpt>
        <trkpt lat="29.7416885" lon="104.9105026"><ele>282.19</ele><time>2026-05-18T00:22:39.000Z</time></trkpt>
        <trkpt lat="29.7416885" lon="104.9105026"><ele>282.19</ele><time>2026-05-18T00:22:50.000Z</time></trkpt>
        <trkpt lat="29.7416885" lon="104.9105026"><ele>282.19</ele><time>2026-05-18T00:23:03.000Z</time></trkpt>
        <trkpt lat="29.7416212" lon="104.9104366"><ele>283.56</ele><time>2026-05-18T00:23:06.000Z</time></trkpt>
        <trkpt lat="29.7416212" lon="104.9104366"><ele>283.56</ele><time>2026-05-18T00:23:47.000Z</time></trkpt>
        <trkpt lat="29.7415262" lon="104.9104173"><ele>285.14</ele><time>2026-05-18T00:24:23.000Z</time></trkpt>
        <trkpt lat="29.7414331" lon="104.9103976"><ele>285.76</ele><time>2026-05-18T00:24:37.000Z</time></trkpt>
        <trkpt lat="29.7413421" lon="104.9103617"><ele>284.88</ele><time>2026-05-18T00:24:47.000Z</time></trkpt>
        <trkpt lat="29.741251" lon="104.910332"><ele>284.38</ele><time>2026-05-18T00:24:58.000Z</time></trkpt>
        <trkpt lat="29.741176" lon="104.9102751"><ele>284.1</ele><time>2026-05-18T00:25:11.000Z</time></trkpt>
        <trkpt lat="29.7411659" lon="104.9101796"><ele>283.82</ele><time>2026-05-18T00:25:32.000Z</time></trkpt>
        <trkpt lat="29.7411659" lon="104.9101796"><ele>283.82</ele><time>2026-05-18T00:25:43.000Z</time></trkpt>
        <trkpt lat="29.7411659" lon="104.9101796"><ele>283.82</ele><time>2026-05-18T00:25:56.000Z</time></trkpt>
        <trkpt lat="29.7411659" lon="104.9101796"><ele>283.82</ele><time>2026-05-18T00:26:25.000Z</time></trkpt>
        <trkpt lat="29.7410996" lon="104.9101494"><ele>283.37</ele><time>2026-05-18T00:27:04.000Z</time></trkpt>
        <trkpt lat="29.7410996" lon="104.9101494"><ele>283.37</ele><time>2026-05-18T00:27:20.000Z</time></trkpt>
        <trkpt lat="29.7410954" lon="104.9100384"><ele>284.08</ele><time>2026-05-18T00:27:30.000Z</time></trkpt>
        <trkpt lat="29.7410677" lon="104.9099387"><ele>284.11</ele><time>2026-05-18T00:27:41.000Z</time></trkpt>
        <trkpt lat="29.7410368" lon="104.9098326"><ele>284.48</ele><time>2026-05-18T00:27:50.000Z</time></trkpt>
        <trkpt lat="29.7409857" lon="104.9097383"><ele>284.45</ele><time>2026-05-18T00:27:59.000Z</time></trkpt>
        <trkpt lat="29.7409472" lon="104.909641"><ele>284.79</ele><time>2026-05-18T00:28:10.000Z</time></trkpt>
        <trkpt lat="29.7409265" lon="104.909535"><ele>284.85</ele><time>2026-05-18T00:28:18.000Z</time></trkpt>
        <trkpt lat="29.7409131" lon="104.9094177"><ele>284.87</ele><time>2026-05-18T00:28:28.000Z</time></trkpt>
        <trkpt lat="29.7408424" lon="104.909365"><ele>284.28</ele><time>2026-05-18T00:28:36.000Z</time></trkpt>
        <trkpt lat="29.7407745" lon="104.9094179"><ele>284.12</ele><time>2026-05-18T00:28:46.000Z</time></trkpt>
        <trkpt lat="29.7406839" lon="104.909416"><ele>283.7</ele><time>2026-05-18T00:28:55.000Z</time></trkpt>
        <trkpt lat="29.7405772" lon="104.9094265"><ele>283.5</ele><time>2026-05-18T00:29:04.000Z</time></trkpt>
        <trkpt lat="29.7404798" lon="104.9094487"><ele>283.21</ele><time>2026-05-18T00:29:13.000Z</time></trkpt>
        <trkpt lat="29.7403792" lon="104.9094712"><ele>282.98</ele><time>2026-05-18T00:29:23.000Z</time></trkpt>
        <trkpt lat="29.7403043" lon="104.9094219"><ele>282.66</ele><time>2026-05-18T00:29:34.000Z</time></trkpt>
        <trkpt lat="29.7402236" lon="104.9093705"><ele>282.19</ele><time>2026-05-18T00:29:42.000Z</time></trkpt>
        <trkpt lat="29.7401417" lon="104.9093202"><ele>281.97</ele><time>2026-05-18T00:29:50.000Z</time></trkpt>
        <trkpt lat="29.7400594" lon="104.9092733"><ele>281.85</ele><time>2026-05-18T00:29:58.000Z</time></trkpt>
        <trkpt lat="29.7400463" lon="104.9091318"><ele>281.79</ele><time>2026-05-18T00:30:12.000Z</time></trkpt>
        <trkpt lat="29.7400175" lon="104.9090094"><ele>281.93</ele><time>2026-05-18T00:30:34.000Z</time></trkpt>
        <trkpt lat="29.7399784" lon="104.9089046"><ele>283.35</ele><time>2026-05-18T00:30:42.000Z</time></trkpt>
        <trkpt lat="29.7399035" lon="104.90885"><ele>284.47</ele><time>2026-05-18T00:30:49.000Z</time></trkpt>
        <trkpt lat="29.7398305" lon="104.9087827"><ele>284.84</ele><time>2026-05-18T00:30:59.000Z</time></trkpt>
        <trkpt lat="29.7397784" lon="104.9086951"><ele>285.62</ele><time>2026-05-18T00:31:29.000Z</time></trkpt>
        <trkpt lat="29.7397319" lon="104.9086046"><ele>287.04</ele><time>2026-05-18T00:31:40.000Z</time></trkpt>
        <trkpt lat="29.7396777" lon="104.9085095"><ele>287.65</ele><time>2026-05-18T00:31:49.000Z</time></trkpt>
        <trkpt lat="29.7396136" lon="104.9084295"><ele>288.02</ele><time>2026-05-18T00:31:58.000Z</time></trkpt>
        <trkpt lat="29.7396103" lon="104.9083302"><ele>288.69</ele><time>2026-05-18T00:32:14.000Z</time></trkpt>
        <trkpt lat="29.7395853" lon="104.9082305"><ele>288.71</ele><time>2026-05-18T00:32:27.000Z</time></trkpt>
        <trkpt lat="29.7395459" lon="104.9081289"><ele>287.98</ele><time>2026-05-18T00:32:38.000Z</time></trkpt>
        <trkpt lat="29.7394932" lon="104.9080361"><ele>287.1</ele><time>2026-05-18T00:32:46.000Z</time></trkpt>
        <trkpt lat="29.739409" lon="104.9079804"><ele>287.39</ele><time>2026-05-18T00:32:53.000Z</time></trkpt>
        <trkpt lat="29.7393168" lon="104.9079407"><ele>287.95</ele><time>2026-05-18T00:33:00.000Z</time></trkpt>
        <trkpt lat="29.7392236" lon="104.9078978"><ele>288.29</ele><time>2026-05-18T00:33:08.000Z</time></trkpt>
        <trkpt lat="29.7391418" lon="104.9078329"><ele>288.92</ele><time>2026-05-18T00:33:16.000Z</time></trkpt>
        <trkpt lat="29.739076" lon="104.90775"><ele>289.72</ele><time>2026-05-18T00:33:26.000Z</time></trkpt>
        <trkpt lat="29.73902" lon="104.9076559"><ele>291.09</ele><time>2026-05-18T00:33:58.000Z</time></trkpt>
        <trkpt lat="29.7390049" lon="104.9075514"><ele>293.05</ele><time>2026-05-18T00:34:10.000Z</time></trkpt>
        <trkpt lat="29.7390611" lon="104.9074423"><ele>294.45</ele><time>2026-05-18T00:35:13.000Z</time></trkpt>
        <trkpt lat="29.7391003" lon="104.9073359"><ele>295.54</ele><time>2026-05-18T00:35:20.000Z</time></trkpt>
        <trkpt lat="29.739148" lon="104.9072323"><ele>296.39</ele><time>2026-05-18T00:35:28.000Z</time></trkpt>
        <trkpt lat="29.7392042" lon="104.9071444"><ele>297.26</ele><time>2026-05-18T00:35:37.000Z</time></trkpt>
        <trkpt lat="29.7392717" lon="104.9070592"><ele>298.16</ele><time>2026-05-18T00:35:46.000Z</time></trkpt>
        <trkpt lat="29.7393437" lon="104.9069862"><ele>298.66</ele><time>2026-05-18T00:35:54.000Z</time></trkpt>
        <trkpt lat="29.7393949" lon="104.9068994"><ele>298.82</ele><time>2026-05-18T00:36:02.000Z</time></trkpt>
        <trkpt lat="29.739439" lon="104.9068045"><ele>299.22</ele><time>2026-05-18T00:36:11.000Z</time></trkpt>
        <trkpt lat="29.7395" lon="104.9067153"><ele>299.14</ele><time>2026-05-18T00:36:18.000Z</time></trkpt>
        <trkpt lat="29.7395615" lon="104.9066222"><ele>299.25</ele><time>2026-05-18T00:36:26.000Z</time></trkpt>
        <trkpt lat="29.7396178" lon="104.9065275"><ele>299.23</ele><time>2026-05-18T00:36:34.000Z</time></trkpt>
        <trkpt lat="29.7396554" lon="104.9064302"><ele>298.87</ele><time>2026-05-18T00:36:42.000Z</time></trkpt>
        <trkpt lat="29.7397134" lon="104.9063455"><ele>298.82</ele><time>2026-05-18T00:37:10.000Z</time></trkpt>
        <trkpt lat="29.7397679" lon="104.9062546"><ele>299.08</ele><time>2026-05-18T00:37:18.000Z</time></trkpt>
        <trkpt lat="29.7398269" lon="104.9061616"><ele>299.44</ele><time>2026-05-18T00:37:25.000Z</time></trkpt>
        <trkpt lat="29.7399009" lon="104.9060858"><ele>299.48</ele><time>2026-05-18T00:37:32.000Z</time></trkpt>
        <trkpt lat="29.7399851" lon="104.9060324"><ele>299.95</ele><time>2026-05-18T00:37:42.000Z</time></trkpt>
        <trkpt lat="29.7399851" lon="104.9060324"><ele>299.95</ele><time>2026-05-18T00:39:07.000Z</time></trkpt>
        <trkpt lat="29.7400965" lon="104.906045"><ele>300.86</ele><time>2026-05-18T00:39:08.000Z</time></trkpt>
        <trkpt lat="29.7400965" lon="104.906045"><ele>300.86</ele><time>2026-05-18T00:39:16.000Z</time></trkpt>
        <trkpt lat="29.7401868" lon="104.9060489"><ele>302.43</ele><time>2026-05-18T00:39:22.000Z</time></trkpt>
        <trkpt lat="29.7402827" lon="104.9060231"><ele>303.49</ele><time>2026-05-18T00:39:29.000Z</time></trkpt>
        <trkpt lat="29.740375" lon="104.9060026"><ele>303.83</ele><time>2026-05-18T00:39:37.000Z</time></trkpt>
        <trkpt lat="29.7404794" lon="104.9059953"><ele>303.65</ele><time>2026-05-18T00:39:45.000Z</time></trkpt>
        <trkpt lat="29.7405772" lon="104.9059651"><ele>303.27</ele><time>2026-05-18T00:39:53.000Z</time></trkpt>
        <trkpt lat="29.7406691" lon="104.9059181"><ele>302.8</ele><time>2026-05-18T00:40:01.000Z</time></trkpt>
        <trkpt lat="29.7407303" lon="104.9058379"><ele>302.59</ele><time>2026-05-18T00:40:07.000Z</time></trkpt>
        <trkpt lat="29.740807" lon="104.9057828"><ele>301.96</ele><time>2026-05-18T00:40:13.000Z</time></trkpt>
        <trkpt lat="29.7408877" lon="104.9057361"><ele>301.47</ele><time>2026-05-18T00:40:20.000Z</time></trkpt>
        <trkpt lat="29.7409721" lon="104.9056895"><ele>300.78</ele><time>2026-05-18T00:40:28.000Z</time></trkpt>
        <trkpt lat="29.7410531" lon="104.9056318"><ele>299.51</ele><time>2026-05-18T00:40:35.000Z</time></trkpt>
        <trkpt lat="29.7411365" lon="104.9055669"><ele>298.14</ele><time>2026-05-18T00:40:43.000Z</time></trkpt>
        <trkpt lat="29.7412128" lon="104.9054869"><ele>297.3</ele><time>2026-05-18T00:40:51.000Z</time></trkpt>
        <trkpt lat="29.7412866" lon="104.9054052"><ele>296.29</ele><time>2026-05-18T00:40:59.000Z</time></trkpt>
        <trkpt lat="29.7413624" lon="104.9053247"><ele>295.17</ele><time>2026-05-18T00:41:08.000Z</time></trkpt>
        <trkpt lat="29.7414256" lon="104.9052439"><ele>294.04</ele><time>2026-05-18T00:41:15.000Z</time></trkpt>
        <trkpt lat="29.7414989" lon="104.9051638"><ele>293.27</ele><time>2026-05-18T00:41:22.000Z</time></trkpt>
        <trkpt lat="29.7415669" lon="104.9050907"><ele>292.47</ele><time>2026-05-18T00:41:28.000Z</time></trkpt>
        <trkpt lat="29.7416323" lon="104.9050151"><ele>292.04</ele><time>2026-05-18T00:41:35.000Z</time></trkpt>
        <trkpt lat="29.7416954" lon="104.9049369"><ele>291.74</ele><time>2026-05-18T00:41:42.000Z</time></trkpt>
        <trkpt lat="29.7417576" lon="104.9048605"><ele>291.25</ele><time>2026-05-18T00:41:49.000Z</time></trkpt>
        <trkpt lat="29.7418382" lon="104.9047836"><ele>290.87</ele><time>2026-05-18T00:41:58.000Z</time></trkpt>
        <trkpt lat="29.7419135" lon="104.9047031"><ele>290.67</ele><time>2026-05-18T00:42:06.000Z</time></trkpt>
        <trkpt lat="29.7419809" lon="104.9046236"><ele>290.58</ele><time>2026-05-18T00:42:13.000Z</time></trkpt>
        <trkpt lat="29.7420398" lon="104.9045426"><ele>290.18</ele><time>2026-05-18T00:42:19.000Z</time></trkpt>
        <trkpt lat="29.7421065" lon="104.9044686"><ele>289.43</ele><time>2026-05-18T00:42:26.000Z</time></trkpt>
        <trkpt lat="29.742173" lon="104.9043831"><ele>289.01</ele><time>2026-05-18T00:42:34.000Z</time></trkpt>
        <trkpt lat="29.7422369" lon="104.9043053"><ele>288.41</ele><time>2026-05-18T00:42:41.000Z</time></trkpt>
        <trkpt lat="29.7422369" lon="104.9043053"><ele>288.41</ele><time>2026-05-18T00:43:07.000Z</time></trkpt>
        <trkpt lat="29.74233" lon="104.9042496"><ele>287.97</ele><time>2026-05-18T00:43:16.000Z</time></trkpt>
        <trkpt lat="29.74233" lon="104.9042496"><ele>287.97</ele><time>2026-05-18T00:43:28.000Z</time></trkpt>
        <trkpt lat="29.7424088" lon="104.9041883"><ele>286.79</ele><time>2026-05-18T00:43:33.000Z</time></trkpt>
        <trkpt lat="29.7424894" lon="104.9041355"><ele>285.69</ele><time>2026-05-18T00:43:40.000Z</time></trkpt>
        <trkpt lat="29.7425799" lon="104.9041101"><ele>285.03</ele><time>2026-05-18T00:43:47.000Z</time></trkpt>
        <trkpt lat="29.7426731" lon="104.9041022"><ele>285.12</ele><time>2026-05-18T00:43:53.000Z</time></trkpt>
        <trkpt lat="29.7427675" lon="104.9041307"><ele>285.49</ele><time>2026-05-18T00:44:01.000Z</time></trkpt>
        <trkpt lat="29.7428614" lon="104.9041637"><ele>286.78</ele><time>2026-05-18T00:44:08.000Z</time></trkpt>
        <trkpt lat="29.7429526" lon="104.9042004"><ele>287.29</ele><time>2026-05-18T00:44:16.000Z</time></trkpt>
        <trkpt lat="29.7430374" lon="104.9042469"><ele>286.82</ele><time>2026-05-18T00:44:23.000Z</time></trkpt>
        <trkpt lat="29.7431176" lon="104.9043019"><ele>285.47</ele><time>2026-05-18T00:44:30.000Z</time></trkpt>
        <trkpt lat="29.7431752" lon="104.9043902"><ele>283.94</ele><time>2026-05-18T00:44:37.000Z</time></trkpt>
        <trkpt lat="29.7432533" lon="104.9044285"><ele>284.4</ele><time>2026-05-18T00:44:54.000Z</time></trkpt>
        <trkpt lat="29.7433301" lon="104.9043778"><ele>287.5</ele><time>2026-05-18T00:45:08.000Z</time></trkpt>
        <trkpt lat="29.7434189" lon="104.9043123"><ele>289.16</ele><time>2026-05-18T00:45:16.000Z</time></trkpt>
        <trkpt lat="29.7434972" lon="104.9042331"><ele>289.75</ele><time>2026-05-18T00:45:24.000Z</time></trkpt>
        <trkpt lat="29.7435785" lon="104.9041492"><ele>289.78</ele><time>2026-05-18T00:45:34.000Z</time></trkpt>
        <trkpt lat="29.7436417" lon="104.9040638"><ele>289.34</ele><time>2026-05-18T00:45:42.000Z</time></trkpt>
        <trkpt lat="29.7436983" lon="104.9039791"><ele>289.27</ele><time>2026-05-18T00:45:50.000Z</time></trkpt>
        <trkpt lat="29.7437586" lon="104.9038894"><ele>289.29</ele><time>2026-05-18T00:45:59.000Z</time></trkpt>
        <trkpt lat="29.7438166" lon="104.9038041"><ele>288.86</ele><time>2026-05-18T00:46:06.000Z</time></trkpt>
        <trkpt lat="29.7438712" lon="104.9037154"><ele>288.85</ele><time>2026-05-18T00:46:14.000Z</time></trkpt>
        <trkpt lat="29.743929" lon="104.9036311"><ele>288.4</ele><time>2026-05-18T00:46:24.000Z</time></trkpt>
        <trkpt lat="29.7439974" lon="104.9035597"><ele>287.94</ele><time>2026-05-18T00:46:30.000Z</time></trkpt>
        <trkpt lat="29.7440945" lon="104.9035121"><ele>287.23</ele><time>2026-05-18T00:46:36.000Z</time></trkpt>
        <trkpt lat="29.7441961" lon="104.9034833"><ele>286.34</ele><time>2026-05-18T00:46:42.000Z</time></trkpt>
        <trkpt lat="29.7442934" lon="104.9034758"><ele>286</ele><time>2026-05-18T00:46:48.000Z</time></trkpt>
        <trkpt lat="29.7443933" lon="104.9034746"><ele>286.32</ele><time>2026-05-18T00:46:56.000Z</time></trkpt>
        <trkpt lat="29.7444932" lon="104.9035034"><ele>286.81</ele><time>2026-05-18T00:47:04.000Z</time></trkpt>
        <trkpt lat="29.7445885" lon="104.9035516"><ele>287.43</ele><time>2026-05-18T00:47:12.000Z</time></trkpt>
        <trkpt lat="29.7446766" lon="104.9035909"><ele>288.43</ele><time>2026-05-18T00:47:19.000Z</time></trkpt>
        <trkpt lat="29.744761" lon="104.903631"><ele>289.65</ele><time>2026-05-18T00:47:26.000Z</time></trkpt>
        <trkpt lat="29.7448437" lon="104.9036902"><ele>290.69</ele><time>2026-05-18T00:47:34.000Z</time></trkpt>
        <trkpt lat="29.7449227" lon="104.9037541"><ele>291.63</ele><time>2026-05-18T00:47:42.000Z</time></trkpt>
        <trkpt lat="29.7450146" lon="104.9038117"><ele>292.45</ele><time>2026-05-18T00:47:50.000Z</time></trkpt>
        <trkpt lat="29.7451042" lon="104.9038533"><ele>293.16</ele><time>2026-05-18T00:47:56.000Z</time></trkpt>
        <trkpt lat="29.745196" lon="104.9038863"><ele>294.3</ele><time>2026-05-18T00:48:03.000Z</time></trkpt>
        <trkpt lat="29.7452837" lon="104.9039183"><ele>295.17</ele><time>2026-05-18T00:48:10.000Z</time></trkpt>
        <trkpt lat="29.7453704" lon="104.9039642"><ele>295.92</ele><time>2026-05-18T00:48:18.000Z</time></trkpt>
        <trkpt lat="29.7454567" lon="104.9039989"><ele>296.39</ele><time>2026-05-18T00:48:26.000Z</time></trkpt>
        <trkpt lat="29.745544" lon="104.904029"><ele>297.24</ele><time>2026-05-18T00:48:34.000Z</time></trkpt>
        <trkpt lat="29.7456396" lon="104.9040575"><ele>298.09</ele><time>2026-05-18T00:48:41.000Z</time></trkpt>
        <trkpt lat="29.7457301" lon="104.9040814"><ele>298.48</ele><time>2026-05-18T00:48:49.000Z</time></trkpt>
        <trkpt lat="29.7458288" lon="104.9041083"><ele>299</ele><time>2026-05-18T00:48:57.000Z</time></trkpt>
        <trkpt lat="29.7459203" lon="104.9041375"><ele>299.29</ele><time>2026-05-18T00:49:05.000Z</time></trkpt>
        <trkpt lat="29.7460089" lon="104.9041638"><ele>299.6</ele><time>2026-05-18T00:49:13.000Z</time></trkpt>
        <trkpt lat="29.7461067" lon="104.9041633"><ele>300.44</ele><time>2026-05-18T00:49:22.000Z</time></trkpt>
        <trkpt lat="29.7462" lon="104.9041539"><ele>301.41</ele><time>2026-05-18T00:49:29.000Z</time></trkpt>
        <trkpt lat="29.7462913" lon="104.904164"><ele>301.98</ele><time>2026-05-18T00:49:35.000Z</time></trkpt>
        <trkpt lat="29.7463809" lon="104.9041871"><ele>302.1</ele><time>2026-05-18T00:49:42.000Z</time></trkpt>
        <trkpt lat="29.7464704" lon="104.9042084"><ele>302.43</ele><time>2026-05-18T00:49:50.000Z</time></trkpt>
        <trkpt lat="29.7465683" lon="104.9042271"><ele>303</ele><time>2026-05-18T00:49:58.000Z</time></trkpt>
        <trkpt lat="29.7466634" lon="104.9042313"><ele>303.28</ele><time>2026-05-18T00:50:05.000Z</time></trkpt>
        <trkpt lat="29.7467595" lon="104.9042404"><ele>303.06</ele><time>2026-05-18T00:50:13.000Z</time></trkpt>
        <trkpt lat="29.7468662" lon="104.9042486"><ele>302.52</ele><time>2026-05-18T00:50:22.000Z</time></trkpt>
        <trkpt lat="29.7469694" lon="104.904254"><ele>302.29</ele><time>2026-05-18T00:50:31.000Z</time></trkpt>
        <trkpt lat="29.7470652" lon="104.904272"><ele>302.78</ele><time>2026-05-18T00:50:38.000Z</time></trkpt>
        <trkpt lat="29.7471616" lon="104.9043075"><ele>303.09</ele><time>2026-05-18T00:50:46.000Z</time></trkpt>
        <trkpt lat="29.7472585" lon="104.9043301"><ele>303.06</ele><time>2026-05-18T00:50:54.000Z</time></trkpt>
        <trkpt lat="29.7473525" lon="104.9043361"><ele>303.2</ele><time>2026-05-18T00:51:01.000Z</time></trkpt>
        <trkpt lat="29.7474481" lon="104.9043408"><ele>303.77</ele><time>2026-05-18T00:51:08.000Z</time></trkpt>
        <trkpt lat="29.7475447" lon="104.9043532"><ele>304.04</ele><time>2026-05-18T00:51:16.000Z</time></trkpt>
        <trkpt lat="29.7476447" lon="104.9043551"><ele>303.78</ele><time>2026-05-18T00:51:26.000Z</time></trkpt>
        <trkpt lat="29.7477352" lon="104.9043857"><ele>303.09</ele><time>2026-05-18T00:51:32.000Z</time></trkpt>
        <trkpt lat="29.7478263" lon="104.9044058"><ele>302.23</ele><time>2026-05-18T00:51:39.000Z</time></trkpt>
        <trkpt lat="29.7479211" lon="104.9044235"><ele>301.4</ele><time>2026-05-18T00:51:47.000Z</time></trkpt>
        <trkpt lat="29.748018" lon="104.9044474"><ele>301.28</ele><time>2026-05-18T00:51:56.000Z</time></trkpt>
        <trkpt lat="29.7481134" lon="104.9044778"><ele>301.22</ele><time>2026-05-18T00:52:05.000Z</time></trkpt>
        <trkpt lat="29.7482067" lon="104.9045003"><ele>301.56</ele><time>2026-05-18T00:52:13.000Z</time></trkpt>
        <trkpt lat="29.7482942" lon="104.9045355"><ele>301.74</ele><time>2026-05-18T00:52:20.000Z</time></trkpt>
        <trkpt lat="29.7483866" lon="104.9045757"><ele>301.81</ele><time>2026-05-18T00:52:29.000Z</time></trkpt>
        <trkpt lat="29.7484788" lon="104.9046089"><ele>302.05</ele><time>2026-05-18T00:52:36.000Z</time></trkpt>
        <trkpt lat="29.7485708" lon="104.9046383"><ele>302.23</ele><time>2026-05-18T00:52:43.000Z</time></trkpt>
        <trkpt lat="29.7486655" lon="104.9046588"><ele>302.18</ele><time>2026-05-18T00:52:52.000Z</time></trkpt>
        <trkpt lat="29.7487607" lon="104.9046833"><ele>302.18</ele><time>2026-05-18T00:53:01.000Z</time></trkpt>
        <trkpt lat="29.7488507" lon="104.9047295"><ele>301.69</ele><time>2026-05-18T00:53:10.000Z</time></trkpt>
        <trkpt lat="29.7489483" lon="104.9047802"><ele>300.87</ele><time>2026-05-18T00:53:17.000Z</time></trkpt>
        <trkpt lat="29.7490418" lon="104.9048399"><ele>300.5</ele><time>2026-05-18T00:53:24.000Z</time></trkpt>
        <trkpt lat="29.7491256" lon="104.904895"><ele>300.37</ele><time>2026-05-18T00:53:31.000Z</time></trkpt>
        <trkpt lat="29.7491961" lon="104.9049659"><ele>300.17</ele><time>2026-05-18T00:53:40.000Z</time></trkpt>
        <trkpt lat="29.7492587" lon="104.9049297"><ele>300.7</ele><time>2026-05-18T00:54:11.000Z</time></trkpt>
        <trkpt lat="29.7493166" lon="104.9048479"><ele>300.42</ele><time>2026-05-18T00:54:50.000Z</time></trkpt>
        <trkpt lat="29.7493166" lon="104.9048479"><ele>300.42</ele><time>2026-05-18T00:55:03.000Z</time></trkpt>
        <trkpt lat="29.7493494" lon="104.9047384"><ele>299.06</ele><time>2026-05-18T00:55:06.000Z</time></trkpt>
        <trkpt lat="29.7493494" lon="104.9047384"><ele>299.06</ele><time>2026-05-18T00:55:29.000Z</time></trkpt>
        <trkpt lat="29.7494259" lon="104.9046926"><ele>297.77</ele><time>2026-05-18T00:55:41.000Z</time></trkpt>
        <trkpt lat="29.7495052" lon="104.9046343"><ele>296.83</ele><time>2026-05-18T00:55:49.000Z</time></trkpt>
        <trkpt lat="29.7495961" lon="104.9046536"><ele>296.03</ele><time>2026-05-18T00:56:04.000Z</time></trkpt>
        <trkpt lat="29.7496906" lon="104.9046693"><ele>295.72</ele><time>2026-05-18T00:56:16.000Z</time></trkpt>
        <trkpt lat="29.7497856" lon="104.9046943"><ele>295.06</ele><time>2026-05-18T00:56:30.000Z</time></trkpt>
        <trkpt lat="29.749864" lon="104.9047624"><ele>294.32</ele><time>2026-05-18T00:56:37.000Z</time></trkpt>
        <trkpt lat="29.749939" lon="104.9048339"><ele>294.27</ele><time>2026-05-18T00:56:48.000Z</time></trkpt>
        <trkpt lat="29.7500152" lon="104.9049255"><ele>295.02</ele><time>2026-05-18T00:56:58.000Z</time></trkpt>
        <trkpt lat="29.7500788" lon="104.9050163"><ele>295.58</ele><time>2026-05-18T00:57:08.000Z</time></trkpt>
        <trkpt lat="29.7501625" lon="104.9050531"><ele>295.19</ele><time>2026-05-18T00:57:16.000Z</time></trkpt>
        <trkpt lat="29.7502387" lon="104.9051138"><ele>295.17</ele><time>2026-05-18T00:57:24.000Z</time></trkpt>
        <trkpt lat="29.750333" lon="104.9050911"><ele>296.05</ele><time>2026-05-18T00:57:34.000Z</time></trkpt>
        <trkpt lat="29.7504091" lon="104.9050223"><ele>296.1</ele><time>2026-05-18T00:57:42.000Z</time></trkpt>
        <trkpt lat="29.7504852" lon="104.9049515"><ele>295.9</ele><time>2026-05-18T00:57:49.000Z</time></trkpt>
        <trkpt lat="29.7505559" lon="104.9048755"><ele>296.05</ele><time>2026-05-18T00:58:01.000Z</time></trkpt>
        <trkpt lat="29.7506346" lon="104.904798"><ele>295.86</ele><time>2026-05-18T00:58:10.000Z</time></trkpt>
        <trkpt lat="29.7506351" lon="104.9047001"><ele>295.04</ele><time>2026-05-18T00:58:21.000Z</time></trkpt>
        <trkpt lat="29.7506499" lon="104.9045966"><ele>294.58</ele><time>2026-05-18T00:58:35.000Z</time></trkpt>
        <trkpt lat="29.7507159" lon="104.904536"><ele>294.18</ele><time>2026-05-18T00:58:46.000Z</time></trkpt>
        <trkpt lat="29.7507906" lon="104.9044768"><ele>294.21</ele><time>2026-05-18T00:58:59.000Z</time></trkpt>
        <trkpt lat="29.7508196" lon="104.9043801"><ele>293.97</ele><time>2026-05-18T00:59:10.000Z</time></trkpt>
        <trkpt lat="29.7507974" lon="104.9042786"><ele>293.75</ele><time>2026-05-18T00:59:18.000Z</time></trkpt>
        <trkpt lat="29.7508405" lon="104.9042007"><ele>293.67</ele><time>2026-05-18T00:59:26.000Z</time></trkpt>
        <trkpt lat="29.7509024" lon="104.9041126"><ele>293.19</ele><time>2026-05-18T00:59:35.000Z</time></trkpt>
        <trkpt lat="29.7509736" lon="104.9040291"><ele>291.86</ele><time>2026-05-18T00:59:42.000Z</time></trkpt>
        <trkpt lat="29.751037" lon="104.9039437"><ele>290.7</ele><time>2026-05-18T00:59:50.000Z</time></trkpt>
        <trkpt lat="29.7510925" lon="104.903852"><ele>289.73</ele><time>2026-05-18T00:59:59.000Z</time></trkpt>
        <trkpt lat="29.7511441" lon="104.9037629"><ele>288.84</ele><time>2026-05-18T01:00:08.000Z</time></trkpt>
        <trkpt lat="29.7511246" lon="104.9036633"><ele>288.35</ele><time>2026-05-18T01:00:29.000Z</time></trkpt>
        <trkpt lat="29.7510866" lon="104.903561"><ele>289.9</ele><time>2026-05-18T01:00:36.000Z</time></trkpt>
        <trkpt lat="29.7510493" lon="104.9034528"><ele>292.15</ele><time>2026-05-18T01:00:44.000Z</time></trkpt>
        <trkpt lat="29.7510229" lon="104.9033379"><ele>293.7</ele><time>2026-05-18T01:00:52.000Z</time></trkpt>
        <trkpt lat="29.7510163" lon="104.9032286"><ele>295</ele><time>2026-05-18T01:00:59.000Z</time></trkpt>
        <trkpt lat="29.7510134" lon="104.9031203"><ele>295.56</ele><time>2026-05-18T01:01:06.000Z</time></trkpt>
        <trkpt lat="29.7510182" lon="104.9030144"><ele>295.51</ele><time>2026-05-18T01:01:16.000Z</time></trkpt>
        <trkpt lat="29.7510212" lon="104.9029013"><ele>295.94</ele><time>2026-05-18T01:01:25.000Z</time></trkpt>
        <trkpt lat="29.7510102" lon="104.9027949"><ele>296.56</ele><time>2026-05-18T01:01:32.000Z</time></trkpt>
        <trkpt lat="29.7509885" lon="104.9026904"><ele>297.01</ele><time>2026-05-18T01:01:40.000Z</time></trkpt>
        <trkpt lat="29.7509508" lon="104.9025906"><ele>297.5</ele><time>2026-05-18T01:01:48.000Z</time></trkpt>
        <trkpt lat="29.7509078" lon="104.9024959"><ele>298.48</ele><time>2026-05-18T01:02:10.000Z</time></trkpt>
        <trkpt lat="29.7508656" lon="104.9023873"><ele>299.84</ele><time>2026-05-18T01:02:20.000Z</time></trkpt>
        <trkpt lat="29.7508321" lon="104.9022822"><ele>301.26</ele><time>2026-05-18T01:02:26.000Z</time></trkpt>
        <trkpt lat="29.7507995" lon="104.9021751"><ele>301.75</ele><time>2026-05-18T01:03:10.000Z</time></trkpt>
        <trkpt lat="29.750824" lon="104.9020723"><ele>302.06</ele><time>2026-05-18T01:03:20.000Z</time></trkpt>
        <trkpt lat="29.7508739" lon="104.9019745"><ele>301.82</ele><time>2026-05-18T01:03:26.000Z</time></trkpt>
        <trkpt lat="29.7509467" lon="104.9018932"><ele>301.34</ele><time>2026-05-18T01:03:34.000Z</time></trkpt>
        <trkpt lat="29.7510346" lon="104.9018363"><ele>300.44</ele><time>2026-05-18T01:03:54.000Z</time></trkpt>
        <trkpt lat="29.7510964" lon="104.9017557"><ele>299.44</ele><time>2026-05-18T01:03:59.000Z</time></trkpt>
        <trkpt lat="29.7511851" lon="104.901723"><ele>299</ele><time>2026-05-18T01:05:06.000Z</time></trkpt>
        <trkpt lat="29.7512869" lon="104.9017025"><ele>298.91</ele><time>2026-05-18T01:05:14.000Z</time></trkpt>
        <trkpt lat="29.7513713" lon="104.9017585"><ele>298.39</ele><time>2026-05-18T01:05:22.000Z</time></trkpt>
        <trkpt lat="29.7514597" lon="104.9018141"><ele>297.97</ele><time>2026-05-18T01:05:31.000Z</time></trkpt>
        <trkpt lat="29.75155" lon="104.9018702"><ele>297.72</ele><time>2026-05-18T01:05:40.000Z</time></trkpt>
        <trkpt lat="29.7516458" lon="104.9019056"><ele>297.74</ele><time>2026-05-18T01:05:49.000Z</time></trkpt>
        <trkpt lat="29.7517452" lon="104.9019375"><ele>297.5</ele><time>2026-05-18T01:05:58.000Z</time></trkpt>
        <trkpt lat="29.7518438" lon="104.9019692"><ele>297.2</ele><time>2026-05-18T01:06:06.000Z</time></trkpt>
        <trkpt lat="29.7519222" lon="104.9019276"><ele>296.72</ele><time>2026-05-18T01:06:30.000Z</time></trkpt>
        <trkpt lat="29.7519702" lon="104.9018359"><ele>296.51</ele><time>2026-05-18T01:06:38.000Z</time></trkpt>
        <trkpt lat="29.7520097" lon="104.901724"><ele>296.92</ele><time>2026-05-18T01:06:47.000Z</time></trkpt>
        <trkpt lat="29.7520509" lon="104.9016184"><ele>297.71</ele><time>2026-05-18T01:07:20.000Z</time></trkpt>
        <trkpt lat="29.7520079" lon="104.9015332"><ele>297.73</ele><time>2026-05-18T01:07:40.000Z</time></trkpt>
        <trkpt lat="29.7519174" lon="104.9015049"><ele>297.63</ele><time>2026-05-18T01:08:06.000Z</time></trkpt>
        <trkpt lat="29.7519174" lon="104.9015049"><ele>297.63</ele><time>2026-05-18T01:08:29.000Z</time></trkpt>
        <trkpt lat="29.7518009" lon="104.9015739"><ele>298.54</ele><time>2026-05-18T01:08:52.000Z</time></trkpt>
        <trkpt lat="29.7518009" lon="104.9015739"><ele>298.54</ele><time>2026-05-18T01:09:24.000Z</time></trkpt>
        <trkpt lat="29.7517026" lon="104.9015222"><ele>298.79</ele><time>2026-05-18T01:09:34.000Z</time></trkpt>
        <trkpt lat="29.7516248" lon="104.9014511"><ele>299.08</ele><time>2026-05-18T01:09:45.000Z</time></trkpt>
        <trkpt lat="29.7515585" lon="104.9013767"><ele>299.81</ele><time>2026-05-18T01:09:52.000Z</time></trkpt>
        <trkpt lat="29.7514689" lon="104.9013595"><ele>300.57</ele><time>2026-05-18T01:10:02.000Z</time></trkpt>
        <trkpt lat="29.7513727" lon="104.9013733"><ele>301.01</ele><time>2026-05-18T01:10:10.000Z</time></trkpt>
        <trkpt lat="29.7512809" lon="104.9014028"><ele>301.28</ele><time>2026-05-18T01:10:18.000Z</time></trkpt>
        <trkpt lat="29.7512389" lon="104.9013393"><ele>301.68</ele><time>2026-05-18T01:10:32.000Z</time></trkpt>
        <trkpt lat="29.751173" lon="104.9012751"><ele>302.82</ele><time>2026-05-18T01:10:46.000Z</time></trkpt>
        <trkpt lat="29.7510895" lon="104.9012647"><ele>303.42</ele><time>2026-05-18T01:11:15.000Z</time></trkpt>
        <trkpt lat="29.7510835" lon="104.9011878"><ele>302.83</ele><time>2026-05-18T01:11:37.000Z</time></trkpt>
        <trkpt lat="29.7511103" lon="104.9010887"><ele>303.21</ele><time>2026-05-18T01:11:44.000Z</time></trkpt>
        <trkpt lat="29.7510779" lon="104.9009889"><ele>303.31</ele><time>2026-05-18T01:11:55.000Z</time></trkpt>
        <trkpt lat="29.7511336" lon="104.9009183"><ele>303.7</ele><time>2026-05-18T01:12:29.000Z</time></trkpt>
        <trkpt lat="29.7512141" lon="104.9008592"><ele>304.06</ele><time>2026-05-18T01:12:38.000Z</time></trkpt>
        <trkpt lat="29.7512522" lon="104.900925"><ele>304.54</ele><time>2026-05-18T01:12:59.000Z</time></trkpt>
        <trkpt lat="29.7513324" lon="104.9009624"><ele>305.85</ele><time>2026-05-18T01:13:10.000Z</time></trkpt>
        <trkpt lat="29.7514128" lon="104.9009233"><ele>306.61</ele><time>2026-05-18T01:13:20.000Z</time></trkpt>
        <trkpt lat="29.7514815" lon="104.9008291"><ele>307.64</ele><time>2026-05-18T01:13:29.000Z</time></trkpt>
        <trkpt lat="29.7515304" lon="104.9007254"><ele>308.12</ele><time>2026-05-18T01:13:37.000Z</time></trkpt>
        <trkpt lat="29.7515684" lon="104.9006178"><ele>308.91</ele><time>2026-05-18T01:13:44.000Z</time></trkpt>
        <trkpt lat="29.7516191" lon="104.9005242"><ele>309.06</ele><time>2026-05-18T01:13:54.000Z</time></trkpt>
        <trkpt lat="29.7516747" lon="104.9004398"><ele>308.79</ele><time>2026-05-18T01:14:09.000Z</time></trkpt>
        <trkpt lat="29.7517502" lon="104.9004581"><ele>308.84</ele><time>2026-05-18T01:14:22.000Z</time></trkpt>
        <trkpt lat="29.7518102" lon="104.9004082"><ele>310.24</ele><time>2026-05-18T01:14:32.000Z</time></trkpt>
        <trkpt lat="29.7518807" lon="104.9003446"><ele>311.88</ele><time>2026-05-18T01:14:44.000Z</time></trkpt>
        <trkpt lat="29.7519299" lon="104.9002532"><ele>313.34</ele><time>2026-05-18T01:14:55.000Z</time></trkpt>
        <trkpt lat="29.75197" lon="104.9001458"><ele>314.92</ele><time>2026-05-18T01:15:05.000Z</time></trkpt>
        <trkpt lat="29.7520076" lon="104.9000446"><ele>315.97</ele><time>2026-05-18T01:15:12.000Z</time></trkpt>
        <trkpt lat="29.7520042" lon="104.8999392"><ele>316.37</ele><time>2026-05-18T01:15:32.000Z</time></trkpt>
        <trkpt lat="29.75203" lon="104.899989"><ele>316.62</ele><time>2026-05-18T01:15:43.000Z</time></trkpt>
        <trkpt lat="29.75203" lon="104.899989"><ele>316.62</ele><time>2026-05-18T01:16:05.000Z</time></trkpt>
        <trkpt lat="29.75203" lon="104.899989"><ele>316.62</ele><time>2026-05-18T01:16:36.000Z</time></trkpt>
        <trkpt lat="29.75203" lon="104.899989"><ele>316.62</ele><time>2026-05-18T01:17:03.000Z</time></trkpt>
        <trkpt lat="29.7521119" lon="104.9000959"><ele>316.47</ele><time>2026-05-18T01:18:16.000Z</time></trkpt>
        <trkpt lat="29.7521119" lon="104.9000959"><ele>316.47</ele><time>2026-05-18T01:18:26.000Z</time></trkpt>
        <trkpt lat="29.7521996" lon="104.9001286"><ele>316.21</ele><time>2026-05-18T01:18:54.000Z</time></trkpt>
        <trkpt lat="29.7521996" lon="104.9001286"><ele>316.21</ele><time>2026-05-18T01:19:11.000Z</time></trkpt>
        <trkpt lat="29.7522908" lon="104.9000944"><ele>315.49</ele><time>2026-05-18T01:19:12.000Z</time></trkpt>
        <trkpt lat="29.7522908" lon="104.9000944"><ele>315.49</ele><time>2026-05-18T01:19:31.000Z</time></trkpt>
        <trkpt lat="29.7523793" lon="104.9000629"><ele>314.34</ele><time>2026-05-18T01:19:52.000Z</time></trkpt>
        <trkpt lat="29.752457" lon="104.8999947"><ele>312.68</ele><time>2026-05-18T01:20:06.000Z</time></trkpt>
        <trkpt lat="29.7524994" lon="104.8998907"><ele>310.54</ele><time>2026-05-18T01:20:17.000Z</time></trkpt>
        <trkpt lat="29.7525378" lon="104.8997855"><ele>309.47</ele><time>2026-05-18T01:20:24.000Z</time></trkpt>
        <trkpt lat="29.7526196" lon="104.8997577"><ele>308.47</ele><time>2026-05-18T01:20:35.000Z</time></trkpt>
        <trkpt lat="29.7526711" lon="104.8996742"><ele>307.21</ele><time>2026-05-18T01:20:43.000Z</time></trkpt>
        <trkpt lat="29.752719" lon="104.8995797"><ele>306.02</ele><time>2026-05-18T01:20:52.000Z</time></trkpt>
        <trkpt lat="29.7527811" lon="104.8995031"><ele>305.39</ele><time>2026-05-18T01:20:59.000Z</time></trkpt>
        <trkpt lat="29.7528616" lon="104.8994558"><ele>304.65</ele><time>2026-05-18T01:21:10.000Z</time></trkpt>
        <trkpt lat="29.7528473" lon="104.8993776"><ele>304.15</ele><time>2026-05-18T01:21:46.000Z</time></trkpt>
        <trkpt lat="29.7527938" lon="104.8992914"><ele>305.21</ele><time>2026-05-18T01:22:01.000Z</time></trkpt>
        <trkpt lat="29.7527457" lon="104.8991774"><ele>306.21</ele><time>2026-05-18T01:22:10.000Z</time></trkpt>
        <trkpt lat="29.7527237" lon="104.8990605"><ele>306.89</ele><time>2026-05-18T01:22:16.000Z</time></trkpt>
        <trkpt lat="29.7527031" lon="104.8989504"><ele>307.14</ele><time>2026-05-18T01:22:23.000Z</time></trkpt>
        <trkpt lat="29.7526945" lon="104.8988443"><ele>306.98</ele><time>2026-05-18T01:22:33.000Z</time></trkpt>
        <trkpt lat="29.752669" lon="104.8987405"><ele>306.98</ele><time>2026-05-18T01:22:41.000Z</time></trkpt>
        <trkpt lat="29.752669" lon="104.8987405"><ele>306.98</ele><time>2026-05-18T01:22:59.000Z</time></trkpt>
        <trkpt lat="29.7526337" lon="104.8986397"><ele>307.08</ele><time>2026-05-18T01:24:44.000Z</time></trkpt>
        <trkpt lat="29.7526337" lon="104.8986397"><ele>307.08</ele><time>2026-05-18T01:24:56.000Z</time></trkpt>
        <trkpt lat="29.7525968" lon="104.8985411"><ele>306.84</ele><time>2026-05-18T01:25:03.000Z</time></trkpt>
        <trkpt lat="29.7525625" lon="104.8984447"><ele>306.3</ele><time>2026-05-18T01:25:12.000Z</time></trkpt>
        <trkpt lat="29.7525661" lon="104.8983365"><ele>306.43</ele><time>2026-05-18T01:25:21.000Z</time></trkpt>
        <trkpt lat="29.7525881" lon="104.8982265"><ele>306.06</ele><time>2026-05-18T01:25:31.000Z</time></trkpt>
        <trkpt lat="29.7526212" lon="104.8981189"><ele>305.1</ele><time>2026-05-18T01:25:42.000Z</time></trkpt>
        <trkpt lat="29.7526708" lon="104.8980265"><ele>304.94</ele><time>2026-05-18T01:25:49.000Z</time></trkpt>
        <trkpt lat="29.7527252" lon="104.8979402"><ele>304.94</ele><time>2026-05-18T01:25:58.000Z</time></trkpt>
        <trkpt lat="29.7527914" lon="104.8978607"><ele>304.94</ele><time>2026-05-18T01:26:08.000Z</time></trkpt>
        <trkpt lat="29.7528467" lon="104.897773"><ele>305.79</ele><time>2026-05-18T01:26:19.000Z</time></trkpt>
        <trkpt lat="29.7528975" lon="104.8976797"><ele>307.03</ele><time>2026-05-18T01:26:29.000Z</time></trkpt>
        <trkpt lat="29.7529622" lon="104.8975967"><ele>307.95</ele><time>2026-05-18T01:26:38.000Z</time></trkpt>
        <trkpt lat="29.7530163" lon="104.8974959"><ele>307.12</ele><time>2026-05-18T01:26:47.000Z</time></trkpt>
        <trkpt lat="29.7530743" lon="104.8973908"><ele>305.46</ele><time>2026-05-18T01:26:58.000Z</time></trkpt>
        <trkpt lat="29.7531215" lon="104.8972935"><ele>304.16</ele><time>2026-05-18T01:27:05.000Z</time></trkpt>
        <trkpt lat="29.7532019" lon="104.897222"><ele>304</ele><time>2026-05-18T01:27:16.000Z</time></trkpt>
        <trkpt lat="29.7532834" lon="104.8971561"><ele>304.38</ele><time>2026-05-18T01:27:24.000Z</time></trkpt>
        <trkpt lat="29.7533554" lon="104.8970888"><ele>304.93</ele><time>2026-05-18T01:27:32.000Z</time></trkpt>
        <trkpt lat="29.7534253" lon="104.8970136"><ele>305.55</ele><time>2026-05-18T01:27:39.000Z</time></trkpt>
        <trkpt lat="29.7534981" lon="104.8969422"><ele>306.39</ele><time>2026-05-18T01:27:47.000Z</time></trkpt>
        <trkpt lat="29.7535718" lon="104.8968642"><ele>307.08</ele><time>2026-05-18T01:27:55.000Z</time></trkpt>
        <trkpt lat="29.7536531" lon="104.8968144"><ele>307.76</ele><time>2026-05-18T01:28:02.000Z</time></trkpt>
        <trkpt lat="29.7537472" lon="104.8967525"><ele>308.12</ele><time>2026-05-18T01:28:10.000Z</time></trkpt>
        <trkpt lat="29.7538234" lon="104.8966837"><ele>308.02</ele><time>2026-05-18T01:28:16.000Z</time></trkpt>
        <trkpt lat="29.7538434" lon="104.8965819"><ele>307.93</ele><time>2026-05-18T01:28:26.000Z</time></trkpt>
        <trkpt lat="29.7538645" lon="104.8964768"><ele>308.34</ele><time>2026-05-18T01:28:34.000Z</time></trkpt>
        <trkpt lat="29.7539116" lon="104.8963893"><ele>308.81</ele><time>2026-05-18T01:28:41.000Z</time></trkpt>
        <trkpt lat="29.7539917" lon="104.896335"><ele>309.18</ele><time>2026-05-18T01:28:51.000Z</time></trkpt>
        <trkpt lat="29.7540881" lon="104.8963031"><ele>308.85</ele><time>2026-05-18T01:28:59.000Z</time></trkpt>
        <trkpt lat="29.7541765" lon="104.8962633"><ele>308.66</ele><time>2026-05-18T01:29:07.000Z</time></trkpt>
        <trkpt lat="29.7542618" lon="104.8962167"><ele>308.5</ele><time>2026-05-18T01:29:15.000Z</time></trkpt>
        <trkpt lat="29.7543479" lon="104.8961484"><ele>307.65</ele><time>2026-05-18T01:29:22.000Z</time></trkpt>
        <trkpt lat="29.754422" lon="104.8960786"><ele>307.51</ele><time>2026-05-18T01:29:28.000Z</time></trkpt>
        <trkpt lat="29.7544834" lon="104.8959955"><ele>307.8</ele><time>2026-05-18T01:29:36.000Z</time></trkpt>
        <trkpt lat="29.7544698" lon="104.8958724"><ele>307.92</ele><time>2026-05-18T01:31:26.000Z</time></trkpt>
        <trkpt lat="29.7544172" lon="104.8957724"><ele>306.93</ele><time>2026-05-18T01:31:33.000Z</time></trkpt>
        <trkpt lat="29.7543579" lon="104.8956801"><ele>306.5</ele><time>2026-05-18T01:31:43.000Z</time></trkpt>
        <trkpt lat="29.7543474" lon="104.895578"><ele>306.93</ele><time>2026-05-18T01:31:50.000Z</time></trkpt>
        <trkpt lat="29.7543653" lon="104.8954708"><ele>307.17</ele><time>2026-05-18T01:31:58.000Z</time></trkpt>
        <trkpt lat="29.7544164" lon="104.8953807"><ele>307.42</ele><time>2026-05-18T01:32:10.000Z</time></trkpt>
        <trkpt lat="29.7544779" lon="104.8952891"><ele>308.07</ele><time>2026-05-18T01:32:18.000Z</time></trkpt>
        <trkpt lat="29.7545302" lon="104.8951944"><ele>309.25</ele><time>2026-05-18T01:32:25.000Z</time></trkpt>
        <trkpt lat="29.7545787" lon="104.8951003"><ele>310.01</ele><time>2026-05-18T01:32:33.000Z</time></trkpt>
        <trkpt lat="29.7546163" lon="104.8949967"><ele>311.08</ele><time>2026-05-18T01:32:41.000Z</time></trkpt>
        <trkpt lat="29.7546488" lon="104.8948912"><ele>311.8</ele><time>2026-05-18T01:32:50.000Z</time></trkpt>
        <trkpt lat="29.7546668" lon="104.8947813"><ele>312.33</ele><time>2026-05-18T01:32:58.000Z</time></trkpt>
        <trkpt lat="29.7546695" lon="104.8946734"><ele>312.52</ele><time>2026-05-18T01:33:06.000Z</time></trkpt>
        <trkpt lat="29.7546625" lon="104.8945637"><ele>313.47</ele><time>2026-05-18T01:33:14.000Z</time></trkpt>
        <trkpt lat="29.7546652" lon="104.8944492"><ele>313.87</ele><time>2026-05-18T01:33:22.000Z</time></trkpt>
        <trkpt lat="29.7546503" lon="104.8943386"><ele>314.01</ele><time>2026-05-18T01:33:31.000Z</time></trkpt>
        <trkpt lat="29.75466" lon="104.8942328"><ele>314.76</ele><time>2026-05-18T01:33:53.000Z</time></trkpt>
        <trkpt lat="29.7546048" lon="104.8941554"><ele>315.58</ele><time>2026-05-18T01:34:04.000Z</time></trkpt>
        <trkpt lat="29.7545509" lon="104.894072"><ele>315.36</ele><time>2026-05-18T01:34:12.000Z</time></trkpt>
        <trkpt lat="29.7545335" lon="104.8939741"><ele>314.86</ele><time>2026-05-18T01:34:23.000Z</time></trkpt>
        <trkpt lat="29.7546011" lon="104.8939452"><ele>314.42</ele><time>2026-05-18T01:34:52.000Z</time></trkpt>
        <trkpt lat="29.7546974" lon="104.8939548"><ele>314.99</ele><time>2026-05-18T01:35:02.000Z</time></trkpt>
        <trkpt lat="29.7548052" lon="104.893977"><ele>314.37</ele><time>2026-05-18T01:35:11.000Z</time></trkpt>
        <trkpt lat="29.7548713" lon="104.8939191"><ele>313.91</ele><time>2026-05-18T01:35:23.000Z</time></trkpt>
        <trkpt lat="29.754881" lon="104.8938171"><ele>313.32</ele><time>2026-05-18T01:35:29.000Z</time></trkpt>
        <trkpt lat="29.7548709" lon="104.8937045"><ele>312.77</ele><time>2026-05-18T01:35:38.000Z</time></trkpt>
        <trkpt lat="29.754931" lon="104.8936492"><ele>312.56</ele><time>2026-05-18T01:35:53.000Z</time></trkpt>
        <trkpt lat="29.755024" lon="104.8936373"><ele>310.97</ele><time>2026-05-18T01:36:01.000Z</time></trkpt>
        <trkpt lat="29.7551141" lon="104.8936065"><ele>309.56</ele><time>2026-05-18T01:36:08.000Z</time></trkpt>
        <trkpt lat="29.7552026" lon="104.8935436"><ele>308.11</ele><time>2026-05-18T01:36:16.000Z</time></trkpt>
        <trkpt lat="29.7552576" lon="104.893449"><ele>306.12</ele><time>2026-05-18T01:36:24.000Z</time></trkpt>
        <trkpt lat="29.7552824" lon="104.8933412"><ele>303.71</ele><time>2026-05-18T01:36:32.000Z</time></trkpt>
        <trkpt lat="29.7552945" lon="104.8932328"><ele>300.84</ele><time>2026-05-18T01:36:39.000Z</time></trkpt>
        <trkpt lat="29.7553036" lon="104.8931209"><ele>299.16</ele><time>2026-05-18T01:36:45.000Z</time></trkpt>
        <trkpt lat="29.7553567" lon="104.8930366"><ele>298.41</ele><time>2026-05-18T01:36:52.000Z</time></trkpt>
        <trkpt lat="29.7554329" lon="104.8929786"><ele>297.09</ele><time>2026-05-18T01:36:59.000Z</time></trkpt>
        <trkpt lat="29.7555235" lon="104.8929124"><ele>295.88</ele><time>2026-05-18T01:37:10.000Z</time></trkpt>
        <trkpt lat="29.7556265" lon="104.8928661"><ele>294.65</ele><time>2026-05-18T01:37:38.000Z</time></trkpt>
        <trkpt lat="29.7557342" lon="104.8928551"><ele>293.87</ele><time>2026-05-18T01:37:46.000Z</time></trkpt>
        <trkpt lat="29.7558263" lon="104.8928994"><ele>293.99</ele><time>2026-05-18T01:38:01.000Z</time></trkpt>
        <trkpt lat="29.7558976" lon="104.8929796"><ele>293.3</ele><time>2026-05-18T01:38:11.000Z</time></trkpt>
        <trkpt lat="29.7559714" lon="104.893047"><ele>292.86</ele><time>2026-05-18T01:38:19.000Z</time></trkpt>
        <trkpt lat="29.7560563" lon="104.8930636"><ele>292.18</ele><time>2026-05-18T01:38:26.000Z</time></trkpt>
        <trkpt lat="29.7561497" lon="104.8930581"><ele>291.42</ele><time>2026-05-18T01:38:34.000Z</time></trkpt>
        <trkpt lat="29.7561124" lon="104.8930209"><ele>291.53</ele><time>2026-05-18T01:38:48.000Z</time></trkpt>
        <trkpt lat="29.7560288" lon="104.8929426"><ele>291.94</ele><time>2026-05-18T01:38:58.000Z</time></trkpt>
        <trkpt lat="29.7559402" lon="104.8928655"><ele>291.66</ele><time>2026-05-18T01:39:05.000Z</time></trkpt>
        <trkpt lat="29.7558452" lon="104.8928025"><ele>291.28</ele><time>2026-05-18T01:39:12.000Z</time></trkpt>
        <trkpt lat="29.7557571" lon="104.8927331"><ele>290.84</ele><time>2026-05-18T01:39:18.000Z</time></trkpt>
        <trkpt lat="29.7556807" lon="104.8926639"><ele>290.45</ele><time>2026-05-18T01:39:25.000Z</time></trkpt>
        <trkpt lat="29.7556564" lon="104.8925656"><ele>289.81</ele><time>2026-05-18T01:39:32.000Z</time></trkpt>
        <trkpt lat="29.7556599" lon="104.8924527"><ele>289.25</ele><time>2026-05-18T01:39:40.000Z</time></trkpt>
        <trkpt lat="29.7557183" lon="104.8923544"><ele>287.89</ele><time>2026-05-18T01:39:47.000Z</time></trkpt>
        <trkpt lat="29.7558057" lon="104.8923007"><ele>286.75</ele><time>2026-05-18T01:39:54.000Z</time></trkpt>
        <trkpt lat="29.7559039" lon="104.8922864"><ele>285.89</ele><time>2026-05-18T01:40:01.000Z</time></trkpt>
        <trkpt lat="29.7560011" lon="104.8922474"><ele>284.54</ele><time>2026-05-18T01:40:08.000Z</time></trkpt>
        <trkpt lat="29.7560993" lon="104.8922116"><ele>283.43</ele><time>2026-05-18T01:40:16.000Z</time></trkpt>
        <trkpt lat="29.7561935" lon="104.8922383"><ele>282.53</ele><time>2026-05-18T01:40:25.000Z</time></trkpt>
        <trkpt lat="29.7562814" lon="104.8922266"><ele>281.99</ele><time>2026-05-18T01:40:32.000Z</time></trkpt>
        <trkpt lat="29.7563724" lon="104.8921925"><ele>281.61</ele><time>2026-05-18T01:40:41.000Z</time></trkpt>
        <trkpt lat="29.7564675" lon="104.8921935"><ele>281.53</ele><time>2026-05-18T01:40:53.000Z</time></trkpt>
        <trkpt lat="29.7565497" lon="104.8921462"><ele>281.82</ele><time>2026-05-18T01:41:00.000Z</time></trkpt>
        <trkpt lat="29.7566172" lon="104.8920679"><ele>281.56</ele><time>2026-05-18T01:41:10.000Z</time></trkpt>
        <trkpt lat="29.756695" lon="104.8920003"><ele>280.72</ele><time>2026-05-18T01:41:17.000Z</time></trkpt>
        <trkpt lat="29.756768" lon="104.8920323"><ele>280.04</ele><time>2026-05-18T01:41:25.000Z</time></trkpt>
        <trkpt lat="29.7568599" lon="104.8920891"><ele>279.82</ele><time>2026-05-18T01:41:40.000Z</time></trkpt>
        <trkpt lat="29.7568599" lon="104.8920891"><ele>279.82</ele><time>2026-05-18T01:42:05.000Z</time></trkpt>
        <trkpt lat="29.7568599" lon="104.8920891"><ele>279.82</ele><time>2026-05-18T01:42:08.000Z</time></trkpt>
        <trkpt lat="29.7568599" lon="104.8920891"><ele>279.82</ele><time>2026-05-18T01:42:43.000Z</time></trkpt>
        <trkpt lat="29.7568454" lon="104.8922144"><ele>279.84</ele><time>2026-05-18T01:42:46.000Z</time></trkpt>
        <trkpt lat="29.7568454" lon="104.8922144"><ele>279.84</ele><time>2026-05-18T01:43:16.000Z</time></trkpt>
        <trkpt lat="29.75687" lon="104.8923219"><ele>279.31</ele><time>2026-05-18T01:43:24.000Z</time></trkpt>
        <trkpt lat="29.7569412" lon="104.8923807"><ele>278.83</ele><time>2026-05-18T01:43:38.000Z</time></trkpt>
        <trkpt lat="29.7569412" lon="104.8923807"><ele>278.83</ele><time>2026-05-18T01:44:55.000Z</time></trkpt>
        <trkpt lat="29.7568927" lon="104.8924535"><ele>278.95</ele><time>2026-05-18T01:45:06.000Z</time></trkpt>
        <trkpt lat="29.7568927" lon="104.8924535"><ele>278.95</ele><time>2026-05-18T01:45:57.000Z</time></trkpt>
        <trkpt lat="29.7569359" lon="104.8925493"><ele>278.55</ele><time>2026-05-18T01:46:03.000Z</time></trkpt>
        <trkpt lat="29.7570096" lon="104.8925199"><ele>278.15</ele><time>2026-05-18T01:46:15.000Z</time></trkpt>
        <trkpt lat="29.7570949" lon="104.8924729"><ele>277.79</ele><time>2026-05-18T01:46:23.000Z</time></trkpt>
        <trkpt lat="29.7571784" lon="104.8924041"><ele>276.65</ele><time>2026-05-18T01:46:31.000Z</time></trkpt>
        <trkpt lat="29.7572308" lon="104.8923101"><ele>275.56</ele><time>2026-05-18T01:46:42.000Z</time></trkpt>
        <trkpt lat="29.7572843" lon="104.8922041"><ele>274.07</ele><time>2026-05-18T01:47:18.000Z</time></trkpt>
        <trkpt lat="29.7572996" lon="104.8920899"><ele>272.14</ele><time>2026-05-18T01:47:26.000Z</time></trkpt>
        <trkpt lat="29.7573434" lon="104.8919974"><ele>270.02</ele><time>2026-05-18T01:47:37.000Z</time></trkpt>
        <trkpt lat="29.7573872" lon="104.8919062"><ele>268.55</ele><time>2026-05-18T01:47:47.000Z</time></trkpt>
        <trkpt lat="29.757451" lon="104.8918316"><ele>266.87</ele><time>2026-05-18T01:47:55.000Z</time></trkpt>
        <trkpt lat="29.7575381" lon="104.8917894"><ele>265.79</ele><time>2026-05-18T01:48:11.000Z</time></trkpt>
        <trkpt lat="29.7575381" lon="104.8917894"><ele>265.79</ele><time>2026-05-18T01:49:05.000Z</time></trkpt>
        <trkpt lat="29.7575381" lon="104.8917894"><ele>265.79</ele><time>2026-05-18T01:49:12.000Z</time></trkpt>
        <trkpt lat="29.7575381" lon="104.8917894"><ele>265.79</ele><time>2026-05-18T01:50:35.000Z</time></trkpt>
        <trkpt lat="29.7575381" lon="104.8917894"><ele>265.79</ele><time>2026-05-18T01:50:42.000Z</time></trkpt>
        <trkpt lat="29.7575381" lon="104.8917894"><ele>265.79</ele><time>2026-05-18T01:53:47.000Z</time></trkpt>
        <trkpt lat="29.7574642" lon="104.8918413"><ele>264.82</ele><time>2026-05-18T01:54:54.000Z</time></trkpt>
        <trkpt lat="29.7574642" lon="104.8918413"><ele>264.82</ele><time>2026-05-18T01:55:58.000Z</time></trkpt>
        <trkpt lat="29.7573743" lon="104.8918859"><ele>266.14</ele><time>2026-05-18T01:56:06.000Z</time></trkpt>
        <trkpt lat="29.7573142" lon="104.8919727"><ele>266.86</ele><time>2026-05-18T01:56:14.000Z</time></trkpt>
        <trkpt lat="29.7572684" lon="104.8920763"><ele>267.8</ele><time>2026-05-18T01:56:51.000Z</time></trkpt>
        <trkpt lat="29.7572678" lon="104.8921879"><ele>267.83</ele><time>2026-05-18T01:57:35.000Z</time></trkpt>
        <trkpt lat="29.7572249" lon="104.8922757"><ele>266.93</ele><time>2026-05-18T01:57:47.000Z</time></trkpt>
        <trkpt lat="29.7572024" lon="104.8923787"><ele>266.15</ele><time>2026-05-18T01:57:58.000Z</time></trkpt>
        <trkpt lat="29.7571438" lon="104.8924511"><ele>265.49</ele><time>2026-05-18T01:58:07.000Z</time></trkpt>
        <trkpt lat="29.7571639" lon="104.8925433"><ele>265.82</ele><time>2026-05-18T01:58:24.000Z</time></trkpt>
        <trkpt lat="29.757143" lon="104.8926349"><ele>266.23</ele><time>2026-05-18T01:58:33.000Z</time></trkpt>
        <trkpt lat="29.7570654" lon="104.8926701"><ele>267.08</ele><time>2026-05-18T01:58:46.000Z</time></trkpt>
        <trkpt lat="29.7570289" lon="104.8927505"><ele>267.44</ele><time>2026-05-18T01:59:05.000Z</time></trkpt>
        <trkpt lat="29.7570773" lon="104.8928249"><ele>268.58</ele><time>2026-05-18T01:59:12.000Z</time></trkpt>
        <trkpt lat="29.7571285" lon="104.8929208"><ele>269.11</ele><time>2026-05-18T01:59:20.000Z</time></trkpt>
        <trkpt lat="29.7572027" lon="104.8929952"><ele>269.96</ele><time>2026-05-18T01:59:28.000Z</time></trkpt>
        <trkpt lat="29.7573014" lon="104.8930236"><ele>270.28</ele><time>2026-05-18T01:59:35.000Z</time></trkpt>
        <trkpt lat="29.757399" lon="104.893059"><ele>270.27</ele><time>2026-05-18T01:59:43.000Z</time></trkpt>
        <trkpt lat="29.7574911" lon="104.8930375"><ele>270.11</ele><time>2026-05-18T02:00:07.000Z</time></trkpt>
        <trkpt lat="29.7575676" lon="104.8929704"><ele>271.07</ele><time>2026-05-18T02:01:06.000Z</time></trkpt>
        <trkpt lat="29.7576426" lon="104.892901"><ele>271.33</ele><time>2026-05-18T02:01:18.000Z</time></trkpt>
        <trkpt lat="29.7577117" lon="104.8929393"><ele>270.63</ele><time>2026-05-18T02:01:25.000Z</time></trkpt>
        <trkpt lat="29.7577939" lon="104.8929982"><ele>269.61</ele><time>2026-05-18T02:01:34.000Z</time></trkpt>
        <trkpt lat="29.7578795" lon="104.8930507"><ele>268.36</ele><time>2026-05-18T02:01:43.000Z</time></trkpt>
        <trkpt lat="29.7579742" lon="104.8930851"><ele>267.63</ele><time>2026-05-18T02:01:52.000Z</time></trkpt>
        <trkpt lat="29.7580745" lon="104.8930956"><ele>266.8</ele><time>2026-05-18T02:02:01.000Z</time></trkpt>
        <trkpt lat="29.7581736" lon="104.8931138"><ele>266.59</ele><time>2026-05-18T02:02:09.000Z</time></trkpt>
        <trkpt lat="29.7582733" lon="104.8931266"><ele>266.2</ele><time>2026-05-18T02:02:17.000Z</time></trkpt>
        <trkpt lat="29.7583626" lon="104.8931684"><ele>266.11</ele><time>2026-05-18T02:02:27.000Z</time></trkpt>
        <trkpt lat="29.7584518" lon="104.8931859"><ele>266.16</ele><time>2026-05-18T02:02:33.000Z</time></trkpt>
        <trkpt lat="29.7585424" lon="104.8931759"><ele>265.93</ele><time>2026-05-18T02:02:41.000Z</time></trkpt>
        <trkpt lat="29.7586268" lon="104.8931367"><ele>265.95</ele><time>2026-05-18T02:02:50.000Z</time></trkpt>
        <trkpt lat="29.7586268" lon="104.8931367"><ele>265.95</ele><time>2026-05-18T02:03:23.000Z</time></trkpt>
        <trkpt lat="29.758707" lon="104.8931796"><ele>265.74</ele><time>2026-05-18T02:03:26.000Z</time></trkpt>
        <trkpt lat="29.758707" lon="104.8931796"><ele>265.74</ele><time>2026-05-18T02:04:16.000Z</time></trkpt>
        <trkpt lat="29.7587979" lon="104.89318"><ele>266.17</ele><time>2026-05-18T02:04:24.000Z</time></trkpt>
        <trkpt lat="29.7587979" lon="104.89318"><ele>266.17</ele><time>2026-05-18T02:05:05.000Z</time></trkpt>
        <trkpt lat="29.7587103" lon="104.8932035"><ele>266.11</ele><time>2026-05-18T02:05:10.000Z</time></trkpt>
        <trkpt lat="29.7587103" lon="104.8932035"><ele>266.11</ele><time>2026-05-18T02:07:54.000Z</time></trkpt>
        <trkpt lat="29.7586193" lon="104.8931793"><ele>266.43</ele><time>2026-05-18T02:08:04.000Z</time></trkpt>
        <trkpt lat="29.7585286" lon="104.8931761"><ele>266.74</ele><time>2026-05-18T02:08:15.000Z</time></trkpt>
        <trkpt lat="29.7584427" lon="104.8932055"><ele>267.46</ele><time>2026-05-18T02:08:24.000Z</time></trkpt>
        <trkpt lat="29.7583494" lon="104.893217"><ele>268.08</ele><time>2026-05-18T02:08:35.000Z</time></trkpt>
        <trkpt lat="29.7582586" lon="104.8931845"><ele>268.59</ele><time>2026-05-18T02:08:45.000Z</time></trkpt>
        <trkpt lat="29.7582586" lon="104.8931845"><ele>268.59</ele><time>2026-05-18T02:09:17.000Z</time></trkpt>
        <trkpt lat="29.7581653" lon="104.8931831"><ele>268.63</ele><time>2026-05-18T02:09:26.000Z</time></trkpt>
        <trkpt lat="29.7581653" lon="104.8931831"><ele>268.63</ele><time>2026-05-18T02:09:37.000Z</time></trkpt>
        <trkpt lat="29.7580793" lon="104.8931444"><ele>268.22</ele><time>2026-05-18T02:09:45.000Z</time></trkpt>
        <trkpt lat="29.757988" lon="104.8931014"><ele>268.19</ele><time>2026-05-18T02:09:57.000Z</time></trkpt>
        <trkpt lat="29.7578969" lon="104.8930649"><ele>268.99</ele><time>2026-05-18T02:10:11.000Z</time></trkpt>
        <trkpt lat="29.7578063" lon="104.8930415"><ele>269.2</ele><time>2026-05-18T02:10:22.000Z</time></trkpt>
        <trkpt lat="29.757717" lon="104.893"><ele>268.98</ele><time>2026-05-18T02:10:33.000Z</time></trkpt>
        <trkpt lat="29.7576381" lon="104.8929366"><ele>267.86</ele><time>2026-05-18T02:10:42.000Z</time></trkpt>
        <trkpt lat="29.7575496" lon="104.8929462"><ele>267.43</ele><time>2026-05-18T02:10:54.000Z</time></trkpt>
        <trkpt lat="29.757481" lon="104.8930151"><ele>267.31</ele><time>2026-05-18T02:11:04.000Z</time></trkpt>
        <trkpt lat="29.7574083" lon="104.8930886"><ele>267.53</ele><time>2026-05-18T02:11:19.000Z</time></trkpt>
        <trkpt lat="29.7574235" lon="104.8931841"><ele>268.31</ele><time>2026-05-18T02:11:31.000Z</time></trkpt>
        <trkpt lat="29.7575019" lon="104.8932521"><ele>269.64</ele><time>2026-05-18T02:11:40.000Z</time></trkpt>
        <trkpt lat="29.7576021" lon="104.8932928"><ele>270.54</ele><time>2026-05-18T02:11:47.000Z</time></trkpt>
        <trkpt lat="29.7577117" lon="104.8933214"><ele>270.93</ele><time>2026-05-18T02:11:56.000Z</time></trkpt>
        <trkpt lat="29.7578135" lon="104.893354"><ele>271.18</ele><time>2026-05-18T02:12:04.000Z</time></trkpt>
        <trkpt lat="29.7578913" lon="104.8934174"><ele>271.65</ele><time>2026-05-18T02:12:14.000Z</time></trkpt>
        <trkpt lat="29.7579796" lon="104.8934617"><ele>272.7</ele><time>2026-05-18T02:12:23.000Z</time></trkpt>
        <trkpt lat="29.7580649" lon="104.8935042"><ele>274.18</ele><time>2026-05-18T02:12:32.000Z</time></trkpt>
        <trkpt lat="29.7581528" lon="104.8935441"><ele>275.61</ele><time>2026-05-18T02:12:40.000Z</time></trkpt>
        <trkpt lat="29.7582471" lon="104.8935706"><ele>276.94</ele><time>2026-05-18T02:12:49.000Z</time></trkpt>
        <trkpt lat="29.7583463" lon="104.8935714"><ele>278.76</ele><time>2026-05-18T02:12:58.000Z</time></trkpt>
        <trkpt lat="29.7584442" lon="104.8935801"><ele>280.94</ele><time>2026-05-18T02:13:06.000Z</time></trkpt>
        <trkpt lat="29.7585372" lon="104.8936012"><ele>283.09</ele><time>2026-05-18T02:13:13.000Z</time></trkpt>
        <trkpt lat="29.7586326" lon="104.8936204"><ele>284.31</ele><time>2026-05-18T02:13:21.000Z</time></trkpt>
        <trkpt lat="29.7587257" lon="104.8936451"><ele>285.86</ele><time>2026-05-18T02:13:29.000Z</time></trkpt>
        <trkpt lat="29.7588199" lon="104.8936742"><ele>287.12</ele><time>2026-05-18T02:13:37.000Z</time></trkpt>
        <trkpt lat="29.7589122" lon="104.89368"><ele>288.17</ele><time>2026-05-18T02:14:04.000Z</time></trkpt>
        <trkpt lat="29.7590092" lon="104.8936869"><ele>289.89</ele><time>2026-05-18T02:14:13.000Z</time></trkpt>
        <trkpt lat="29.7591102" lon="104.8937051"><ele>290.98</ele><time>2026-05-18T02:14:22.000Z</time></trkpt>
        <trkpt lat="29.7592087" lon="104.8937088"><ele>292.51</ele><time>2026-05-18T02:14:32.000Z</time></trkpt>
        <trkpt lat="29.7593014" lon="104.8937023"><ele>293.22</ele><time>2026-05-18T02:14:46.000Z</time></trkpt>
        <trkpt lat="29.7593935" lon="104.8936921"><ele>293.07</ele><time>2026-05-18T02:15:30.000Z</time></trkpt>
        <trkpt lat="29.7594917" lon="104.893679"><ele>292.22</ele><time>2026-05-18T02:15:38.000Z</time></trkpt>
        <trkpt lat="29.7595808" lon="104.8937051"><ele>291.83</ele><time>2026-05-18T02:15:47.000Z</time></trkpt>
        <trkpt lat="29.7596747" lon="104.8937294"><ele>290.7</ele><time>2026-05-18T02:15:56.000Z</time></trkpt>
        <trkpt lat="29.7596747" lon="104.8937294"><ele>290.7</ele><time>2026-05-18T02:16:07.000Z</time></trkpt>
        <trkpt lat="29.7597777" lon="104.8937599"><ele>289.1</ele><time>2026-05-18T02:16:12.000Z</time></trkpt>
        <trkpt lat="29.7597777" lon="104.8937599"><ele>289.1</ele><time>2026-05-18T02:16:32.000Z</time></trkpt>
        <trkpt lat="29.7598765" lon="104.8937637"><ele>287.87</ele><time>2026-05-18T02:16:40.000Z</time></trkpt>
        <trkpt lat="29.7599743" lon="104.8937499"><ele>286.37</ele><time>2026-05-18T02:16:48.000Z</time></trkpt>
        <trkpt lat="29.7600709" lon="104.89373"><ele>285.14</ele><time>2026-05-18T02:16:56.000Z</time></trkpt>
        <trkpt lat="29.7601686" lon="104.893709"><ele>284.13</ele><time>2026-05-18T02:17:04.000Z</time></trkpt>
        <trkpt lat="29.7602613" lon="104.8937084"><ele>283.71</ele><time>2026-05-18T02:17:11.000Z</time></trkpt>
        <trkpt lat="29.7603566" lon="104.8936992"><ele>283.43</ele><time>2026-05-18T02:17:18.000Z</time></trkpt>
        <trkpt lat="29.7604481" lon="104.8936804"><ele>282.93</ele><time>2026-05-18T02:17:25.000Z</time></trkpt>
        <trkpt lat="29.7605462" lon="104.893653"><ele>282.37</ele><time>2026-05-18T02:17:33.000Z</time></trkpt>
        <trkpt lat="29.760652" lon="104.8936156"><ele>282.28</ele><time>2026-05-18T02:17:40.000Z</time></trkpt>
        <trkpt lat="29.7607484" lon="104.8935783"><ele>281.73</ele><time>2026-05-18T02:17:46.000Z</time></trkpt>
        <trkpt lat="29.7608408" lon="104.89354"><ele>280.85</ele><time>2026-05-18T02:18:05.000Z</time></trkpt>
        <trkpt lat="29.7609343" lon="104.8935419"><ele>280.2</ele><time>2026-05-18T02:18:13.000Z</time></trkpt>
        <trkpt lat="29.7610304" lon="104.8935469"><ele>279.83</ele><time>2026-05-18T02:18:21.000Z</time></trkpt>
        <trkpt lat="29.7611269" lon="104.8935401"><ele>279.91</ele><time>2026-05-18T02:18:29.000Z</time></trkpt>
        <trkpt lat="29.7612226" lon="104.8935378"><ele>280.07</ele><time>2026-05-18T02:18:38.000Z</time></trkpt>
        <trkpt lat="29.7613234" lon="104.8935437"><ele>280.36</ele><time>2026-05-18T02:18:46.000Z</time></trkpt>
        <trkpt lat="29.761426" lon="104.8935495"><ele>280.41</ele><time>2026-05-18T02:18:50.000Z</time></trkpt>
        <trkpt lat="29.7615255" lon="104.8935624"><ele>280.11</ele><time>2026-05-18T02:18:54.000Z</time></trkpt>
        <trkpt lat="29.7616199" lon="104.8935793"><ele>279.83</ele><time>2026-05-18T02:18:58.000Z</time></trkpt>
        <trkpt lat="29.7617301" lon="104.8936086"><ele>279.61</ele><time>2026-05-18T02:19:03.000Z</time></trkpt>
        <trkpt lat="29.7618277" lon="104.8936504"><ele>279.66</ele><time>2026-05-18T02:19:08.000Z</time></trkpt>
        <trkpt lat="29.7619232" lon="104.8936634"><ele>279.69</ele><time>2026-05-18T02:19:19.000Z</time></trkpt>
        <trkpt lat="29.762029" lon="104.8936714"><ele>279.76</ele><time>2026-05-18T02:19:28.000Z</time></trkpt>
        <trkpt lat="29.7621229" lon="104.8936891"><ele>280.06</ele><time>2026-05-18T02:19:36.000Z</time></trkpt>
        <trkpt lat="29.7622122" lon="104.8937101"><ele>279.86</ele><time>2026-05-18T02:19:43.000Z</time></trkpt>
        <trkpt lat="29.7622993" lon="104.8937383"><ele>279.73</ele><time>2026-05-18T02:19:50.000Z</time></trkpt>
        <trkpt lat="29.762385" lon="104.8937726"><ele>280.34</ele><time>2026-05-18T02:20:13.000Z</time></trkpt>
        <trkpt lat="29.7624851" lon="104.8937931"><ele>280.24</ele><time>2026-05-18T02:20:22.000Z</time></trkpt>
        <trkpt lat="29.7625881" lon="104.8938106"><ele>279.86</ele><time>2026-05-18T02:20:30.000Z</time></trkpt>
        <trkpt lat="29.7626906" lon="104.8938362"><ele>279.26</ele><time>2026-05-18T02:20:37.000Z</time></trkpt>
        <trkpt lat="29.7627738" lon="104.8938848"><ele>278.5</ele><time>2026-05-18T02:20:46.000Z</time></trkpt>
        <trkpt lat="29.7628641" lon="104.8939354"><ele>278.36</ele><time>2026-05-18T02:20:55.000Z</time></trkpt>
        <trkpt lat="29.7629494" lon="104.8939955"><ele>277.93</ele><time>2026-05-18T02:21:02.000Z</time></trkpt>
        <trkpt lat="29.7630352" lon="104.8940387"><ele>277.82</ele><time>2026-05-18T02:21:09.000Z</time></trkpt>
        <trkpt lat="29.7631206" lon="104.8940782"><ele>277.71</ele><time>2026-05-18T02:21:16.000Z</time></trkpt>
        <trkpt lat="29.7632085" lon="104.894128"><ele>277.43</ele><time>2026-05-18T02:21:24.000Z</time></trkpt>
        <trkpt lat="29.7632951" lon="104.8941769"><ele>277.07</ele><time>2026-05-18T02:21:31.000Z</time></trkpt>
        <trkpt lat="29.7633822" lon="104.8942127"><ele>276.94</ele><time>2026-05-18T02:21:39.000Z</time></trkpt>
        <trkpt lat="29.7634746" lon="104.8942565"><ele>276.5</ele><time>2026-05-18T02:21:56.000Z</time></trkpt>
        <trkpt lat="29.7635635" lon="104.8943066"><ele>276.43</ele><time>2026-05-18T02:22:07.000Z</time></trkpt>
        <trkpt lat="29.7636483" lon="104.894364"><ele>277.05</ele><time>2026-05-18T02:22:14.000Z</time></trkpt>
        <trkpt lat="29.7637207" lon="104.8944366"><ele>277.62</ele><time>2026-05-18T02:22:21.000Z</time></trkpt>
        <trkpt lat="29.7637967" lon="104.8944942"><ele>278.21</ele><time>2026-05-18T02:22:29.000Z</time></trkpt>
        <trkpt lat="29.7638806" lon="104.8945522"><ele>279</ele><time>2026-05-18T02:22:36.000Z</time></trkpt>
        <trkpt lat="29.7639809" lon="104.8945887"><ele>279.98</ele><time>2026-05-18T02:22:46.000Z</time></trkpt>
        <trkpt lat="29.7640726" lon="104.8946279"><ele>281.55</ele><time>2026-05-18T02:22:54.000Z</time></trkpt>
        <trkpt lat="29.7641581" lon="104.8946688"><ele>282.14</ele><time>2026-05-18T02:23:00.000Z</time></trkpt>
        <trkpt lat="29.7642417" lon="104.8947149"><ele>281.47</ele><time>2026-05-18T02:23:06.000Z</time></trkpt>
        <trkpt lat="29.7643332" lon="104.8947638"><ele>281.15</ele><time>2026-05-18T02:23:12.000Z</time></trkpt>
        <trkpt lat="29.7644363" lon="104.8948123"><ele>281.07</ele><time>2026-05-18T02:23:22.000Z</time></trkpt>
        <trkpt lat="29.7645246" lon="104.8948602"><ele>281.05</ele><time>2026-05-18T02:23:30.000Z</time></trkpt>
        <trkpt lat="29.7646041" lon="104.8949177"><ele>280.12</ele><time>2026-05-18T02:23:42.000Z</time></trkpt>
        <trkpt lat="29.7645898" lon="104.8950119"><ele>278.69</ele><time>2026-05-18T02:24:08.000Z</time></trkpt>
        <trkpt lat="29.7645223" lon="104.8951003"><ele>277.98</ele><time>2026-05-18T02:24:18.000Z</time></trkpt>
        <trkpt lat="29.764433" lon="104.8951674"><ele>277.45</ele><time>2026-05-18T02:24:26.000Z</time></trkpt>
        <trkpt lat="29.7643388" lon="104.8952288"><ele>276.48</ele><time>2026-05-18T02:24:36.000Z</time></trkpt>
        <trkpt lat="29.7642663" lon="104.8953022"><ele>276.29</ele><time>2026-05-18T02:24:46.000Z</time></trkpt>
        <trkpt lat="29.7642663" lon="104.8953022"><ele>276.29</ele><time>2026-05-18T02:24:55.000Z</time></trkpt>
        <trkpt lat="29.7642242" lon="104.8953952"><ele>276.01</ele><time>2026-05-18T02:25:08.000Z</time></trkpt>
        <trkpt lat="29.7642242" lon="104.8953952"><ele>276.01</ele><time>2026-05-18T02:25:18.000Z</time></trkpt>
        <trkpt lat="29.7642121" lon="104.8955034"><ele>275.46</ele><time>2026-05-18T02:25:24.000Z</time></trkpt>
        <trkpt lat="29.7642026" lon="104.8956231"><ele>275.13</ele><time>2026-05-18T02:25:31.000Z</time></trkpt>
        <trkpt lat="29.7641914" lon="104.8957397"><ele>275.24</ele><time>2026-05-18T02:25:39.000Z</time></trkpt>
        <trkpt lat="29.764141" lon="104.8958245"><ele>275.59</ele><time>2026-05-18T02:25:46.000Z</time></trkpt>
        <trkpt lat="29.7640583" lon="104.8958841"><ele>275.65</ele><time>2026-05-18T02:25:53.000Z</time></trkpt>
        <trkpt lat="29.7639649" lon="104.895921"><ele>275.7</ele><time>2026-05-18T02:26:00.000Z</time></trkpt>
        <trkpt lat="29.7638712" lon="104.8959575"><ele>275.66</ele><time>2026-05-18T02:26:10.000Z</time></trkpt>
        <trkpt lat="29.7637694" lon="104.8959736"><ele>274.88</ele><time>2026-05-18T02:26:51.000Z</time></trkpt>
        <trkpt lat="29.7636806" lon="104.8959307"><ele>275.1</ele><time>2026-05-18T02:27:02.000Z</time></trkpt>
        <trkpt lat="29.7635931" lon="104.8958853"><ele>275.45</ele><time>2026-05-18T02:27:10.000Z</time></trkpt>
        <trkpt lat="29.7634891" lon="104.8958804"><ele>275.99</ele><time>2026-05-18T02:27:16.000Z</time></trkpt>
        <trkpt lat="29.7633957" lon="104.8959049"><ele>276.36</ele><time>2026-05-18T02:27:22.000Z</time></trkpt>
        <trkpt lat="29.763309" lon="104.8959526"><ele>276.81</ele><time>2026-05-18T02:27:29.000Z</time></trkpt>
        <trkpt lat="29.7632293" lon="104.8960108"><ele>277.43</ele><time>2026-05-18T02:27:36.000Z</time></trkpt>
        <trkpt lat="29.7631382" lon="104.8960334"><ele>277.94</ele><time>2026-05-18T02:27:44.000Z</time></trkpt>
        <trkpt lat="29.7630384" lon="104.8960433"><ele>277.6</ele><time>2026-05-18T02:27:53.000Z</time></trkpt>
        <trkpt lat="29.7629507" lon="104.896081"><ele>277.43</ele><time>2026-05-18T02:27:59.000Z</time></trkpt>
        <trkpt lat="29.7628644" lon="104.8961298"><ele>277.21</ele><time>2026-05-18T02:28:05.000Z</time></trkpt>
        <trkpt lat="29.7627763" lon="104.8961836"><ele>277.23</ele><time>2026-05-18T02:28:12.000Z</time></trkpt>
        <trkpt lat="29.7627021" lon="104.8962585"><ele>277.63</ele><time>2026-05-18T02:28:19.000Z</time></trkpt>
        <trkpt lat="29.76262" lon="104.8963232"><ele>278.09</ele><time>2026-05-18T02:28:28.000Z</time></trkpt>
        <trkpt lat="29.7625307" lon="104.8963583"><ele>278.76</ele><time>2026-05-18T02:28:35.000Z</time></trkpt>
        <trkpt lat="29.7624409" lon="104.8964031"><ele>279.65</ele><time>2026-05-18T02:28:43.000Z</time></trkpt>
        <trkpt lat="29.7623814" lon="104.8964918"><ele>280.73</ele><time>2026-05-18T02:28:51.000Z</time></trkpt>
        <trkpt lat="29.7623566" lon="104.8966035"><ele>282.24</ele><time>2026-05-18T02:28:59.000Z</time></trkpt>
        <trkpt lat="29.7623381" lon="104.8967163"><ele>283.79</ele><time>2026-05-18T02:29:08.000Z</time></trkpt>
        <trkpt lat="29.762288" lon="104.896691"><ele>284.53</ele><time>2026-05-18T02:29:23.000Z</time></trkpt>
        <trkpt lat="29.7622025" lon="104.896695"><ele>284.97</ele><time>2026-05-18T02:29:30.000Z</time></trkpt>
        <trkpt lat="29.7621064" lon="104.8967118"><ele>285.5</ele><time>2026-05-18T02:29:40.000Z</time></trkpt>
        <trkpt lat="29.7620199" lon="104.8966678"><ele>286.45</ele><time>2026-05-18T02:29:50.000Z</time></trkpt>
        <trkpt lat="29.7619674" lon="104.8967196"><ele>288.33</ele><time>2026-05-18T02:30:00.000Z</time></trkpt>
        <trkpt lat="29.7619442" lon="104.8968185"><ele>289.9</ele><time>2026-05-18T02:30:11.000Z</time></trkpt>
        <trkpt lat="29.761974" lon="104.8969297"><ele>291.63</ele><time>2026-05-18T02:30:20.000Z</time></trkpt>
        <trkpt lat="29.7620287" lon="104.8970324"><ele>292.17</ele><time>2026-05-18T02:30:45.000Z</time></trkpt>
        <trkpt lat="29.7620268" lon="104.8971377"><ele>292.46</ele><time>2026-05-18T02:31:08.000Z</time></trkpt>
        <trkpt lat="29.7619958" lon="104.8972428"><ele>292.88</ele><time>2026-05-18T02:31:15.000Z</time></trkpt>
        <trkpt lat="29.7619737" lon="104.897347"><ele>292.62</ele><time>2026-05-18T02:31:22.000Z</time></trkpt>
        <trkpt lat="29.7619687" lon="104.8974561"><ele>292.02</ele><time>2026-05-18T02:32:06.000Z</time></trkpt>
        <trkpt lat="29.7619519" lon="104.8975712"><ele>291.81</ele><time>2026-05-18T02:32:13.000Z</time></trkpt>
        <trkpt lat="29.7619049" lon="104.89767"><ele>291.32</ele><time>2026-05-18T02:32:23.000Z</time></trkpt>
        <trkpt lat="29.7618269" lon="104.8977473"><ele>291.25</ele><time>2026-05-18T02:32:35.000Z</time></trkpt>
        <trkpt lat="29.7617308" lon="104.8977795"><ele>290.72</ele><time>2026-05-18T02:32:44.000Z</time></trkpt>
        <trkpt lat="29.7616338" lon="104.8978194"><ele>289.98</ele><time>2026-05-18T02:32:53.000Z</time></trkpt>
        <trkpt lat="29.7615399" lon="104.8978582"><ele>289.9</ele><time>2026-05-18T02:33:00.000Z</time></trkpt>
        <trkpt lat="29.7614655" lon="104.897919"><ele>289.92</ele><time>2026-05-18T02:33:07.000Z</time></trkpt>
        <trkpt lat="29.7614081" lon="104.8980037"><ele>289.75</ele><time>2026-05-18T02:33:14.000Z</time></trkpt>
        <trkpt lat="29.7613571" lon="104.8981012"><ele>289.34</ele><time>2026-05-18T02:33:22.000Z</time></trkpt>
        <trkpt lat="29.7613062" lon="104.8982028"><ele>289.14</ele><time>2026-05-18T02:33:29.000Z</time></trkpt>
        <trkpt lat="29.7612559" lon="104.8982947"><ele>289.15</ele><time>2026-05-18T02:33:37.000Z</time></trkpt>
        <trkpt lat="29.7612653" lon="104.8982372"><ele>289.55</ele><time>2026-05-18T02:34:13.000Z</time></trkpt>
        <trkpt lat="29.7613269" lon="104.8981357"><ele>289.86</ele><time>2026-05-18T02:34:20.000Z</time></trkpt>
        <trkpt lat="29.7613793" lon="104.8980247"><ele>290.31</ele><time>2026-05-18T02:34:26.000Z</time></trkpt>
        <trkpt lat="29.7614372" lon="104.8979249"><ele>290.93</ele><time>2026-05-18T02:34:33.000Z</time></trkpt>
        <trkpt lat="29.7615209" lon="104.8978466"><ele>291.28</ele><time>2026-05-18T02:34:43.000Z</time></trkpt>
        <trkpt lat="29.761617" lon="104.8978035"><ele>291.95</ele><time>2026-05-18T02:34:50.000Z</time></trkpt>
        <trkpt lat="29.7617077" lon="104.897768"><ele>292.97</ele><time>2026-05-18T02:34:57.000Z</time></trkpt>
        <trkpt lat="29.7616957" lon="104.897682"><ele>293.78</ele><time>2026-05-18T02:35:04.000Z</time></trkpt>
        <trkpt lat="29.7616283" lon="104.8976084"><ele>294.16</ele><time>2026-05-18T02:35:16.000Z</time></trkpt>
        <trkpt lat="29.7615258" lon="104.8975814"><ele>294.94</ele><time>2026-05-18T02:35:26.000Z</time></trkpt>
        <trkpt lat="29.7614677" lon="104.8975053"><ele>295.4</ele><time>2026-05-18T02:35:35.000Z</time></trkpt>
        <trkpt lat="29.7614658" lon="104.8973995"><ele>296.45</ele><time>2026-05-18T02:35:45.000Z</time></trkpt>
        <trkpt lat="29.7615119" lon="104.8973029"><ele>297.72</ele><time>2026-05-18T02:35:51.000Z</time></trkpt>
        <trkpt lat="29.7615601" lon="104.8971976"><ele>299.07</ele><time>2026-05-18T02:36:00.000Z</time></trkpt>
        <trkpt lat="29.7616162" lon="104.8971049"><ele>300.41</ele><time>2026-05-18T02:36:06.000Z</time></trkpt>
        <trkpt lat="29.7616528" lon="104.8969992"><ele>302.18</ele><time>2026-05-18T02:36:14.000Z</time></trkpt>
        <trkpt lat="29.7616459" lon="104.8968858"><ele>304.14</ele><time>2026-05-18T02:36:24.000Z</time></trkpt>
        <trkpt lat="29.7615971" lon="104.8967825"><ele>305.26</ele><time>2026-05-18T02:36:37.000Z</time></trkpt>
        <trkpt lat="29.761538" lon="104.896691"><ele>309.2</ele><time>2026-05-18T02:36:42.000Z</time></trkpt>
        <trkpt lat="29.7614709" lon="104.8965979"><ele>311.45</ele><time>2026-05-18T02:36:50.000Z</time></trkpt>
        <trkpt lat="29.7614222" lon="104.8964955"><ele>312.39</ele><time>2026-05-18T02:36:58.000Z</time></trkpt>
        <trkpt lat="29.7613645" lon="104.8964112"><ele>312.66</ele><time>2026-05-18T02:37:05.000Z</time></trkpt>
        <trkpt lat="29.7613072" lon="104.8963209"><ele>311.95</ele><time>2026-05-18T02:37:12.000Z</time></trkpt>
        <trkpt lat="29.7612479" lon="104.89623"><ele>311.4</ele><time>2026-05-18T02:37:25.000Z</time></trkpt>
        <trkpt lat="29.7611939" lon="104.8961335"><ele>311.07</ele><time>2026-05-18T02:37:33.000Z</time></trkpt>
        <trkpt lat="29.7611528" lon="104.8960311"><ele>311.77</ele><time>2026-05-18T02:37:41.000Z</time></trkpt>
        <trkpt lat="29.7611059" lon="104.8959336"><ele>312.61</ele><time>2026-05-18T02:37:50.000Z</time></trkpt>
        <trkpt lat="29.7610736" lon="104.895833"><ele>313.65</ele><time>2026-05-18T02:37:58.000Z</time></trkpt>
        <trkpt lat="29.7610314" lon="104.8957382"><ele>314.9</ele><time>2026-05-18T02:38:07.000Z</time></trkpt>
        <trkpt lat="29.761003" lon="104.8956342"><ele>316.06</ele><time>2026-05-18T02:38:16.000Z</time></trkpt>
        <trkpt lat="29.7610275" lon="104.8955356"><ele>317.21</ele><time>2026-05-18T02:38:24.000Z</time></trkpt>
        <trkpt lat="29.7610632" lon="104.8954328"><ele>318.35</ele><time>2026-05-18T02:38:32.000Z</time></trkpt>
        <trkpt lat="29.7611027" lon="104.8953248"><ele>319.46</ele><time>2026-05-18T02:38:39.000Z</time></trkpt>
        <trkpt lat="29.7611329" lon="104.8952178"><ele>321.19</ele><time>2026-05-18T02:38:56.000Z</time></trkpt>
        <trkpt lat="29.7611191" lon="104.8951073"><ele>323.14</ele><time>2026-05-18T02:39:05.000Z</time></trkpt>
        <trkpt lat="29.761137" lon="104.8949992"><ele>324.41</ele><time>2026-05-18T02:39:13.000Z</time></trkpt>
        <trkpt lat="29.7611692" lon="104.8948945"><ele>325.58</ele><time>2026-05-18T02:39:20.000Z</time></trkpt>
        <trkpt lat="29.7612287" lon="104.8948072"><ele>326.27</ele><time>2026-05-18T02:39:27.000Z</time></trkpt>
        <trkpt lat="29.7613065" lon="104.8947486"><ele>327.49</ele><time>2026-05-18T02:39:35.000Z</time></trkpt>
        <trkpt lat="29.7613981" lon="104.8947165"><ele>328.78</ele><time>2026-05-18T02:39:43.000Z</time></trkpt>
        <trkpt lat="29.7615064" lon="104.8946853"><ele>329.83</ele><time>2026-05-18T02:39:52.000Z</time></trkpt>
        <trkpt lat="29.7614885" lon="104.8946217"><ele>332.27</ele><time>2026-05-18T02:40:13.000Z</time></trkpt>
        <trkpt lat="29.761413" lon="104.8945479"><ele>335.49</ele><time>2026-05-18T02:40:28.000Z</time></trkpt>
        <trkpt lat="29.7613235" lon="104.8944809"><ele>338.49</ele><time>2026-05-18T02:40:58.000Z</time></trkpt>
        <trkpt lat="29.7613235" lon="104.8944809"><ele>338.49</ele><time>2026-05-18T02:43:07.000Z</time></trkpt>
        <trkpt lat="29.7613235" lon="104.8944809"><ele>338.49</ele><time>2026-05-18T02:43:12.000Z</time></trkpt>
        <trkpt lat="29.7613235" lon="104.8944809"><ele>338.49</ele><time>2026-05-18T02:44:21.000Z</time></trkpt>
        <trkpt lat="29.7613705" lon="104.8945473"><ele>341.6</ele><time>2026-05-18T02:44:26.000Z</time></trkpt>
        <trkpt lat="29.7613705" lon="104.8945473"><ele>341.6</ele><time>2026-05-18T02:45:48.000Z</time></trkpt>
        <trkpt lat="29.7614431" lon="104.8946148"><ele>342.91</ele><time>2026-05-18T02:45:56.000Z</time></trkpt>
        <trkpt lat="29.7615237" lon="104.894672"><ele>343.89</ele><time>2026-05-18T02:46:06.000Z</time></trkpt>
        <trkpt lat="29.7614738" lon="104.8947249"><ele>343.49</ele><time>2026-05-18T02:46:18.000Z</time></trkpt>
        <trkpt lat="29.7613824" lon="104.8947623"><ele>343.42</ele><time>2026-05-18T02:46:25.000Z</time></trkpt>
        <trkpt lat="29.761283" lon="104.8948007"><ele>343.25</ele><time>2026-05-18T02:46:33.000Z</time></trkpt>
        <trkpt lat="29.7611972" lon="104.8948691"><ele>342.99</ele><time>2026-05-18T02:46:41.000Z</time></trkpt>
        <trkpt lat="29.7611321" lon="104.8949555"><ele>342.07</ele><time>2026-05-18T02:46:49.000Z</time></trkpt>
        <trkpt lat="29.761098" lon="104.8950652"><ele>341.28</ele><time>2026-05-18T02:46:57.000Z</time></trkpt>
        <trkpt lat="29.7610967" lon="104.8951804"><ele>340.27</ele><time>2026-05-18T02:47:04.000Z</time></trkpt>
        <trkpt lat="29.761122" lon="104.8953008"><ele>339.13</ele><time>2026-05-18T02:47:11.000Z</time></trkpt>
        <trkpt lat="29.761118" lon="104.8954116"><ele>337.75</ele><time>2026-05-18T02:47:15.000Z</time></trkpt>
        <trkpt lat="29.7610805" lon="104.8955253"><ele>336.55</ele><time>2026-05-18T02:47:22.000Z</time></trkpt>
        <trkpt lat="29.7609976" lon="104.8955833"><ele>335.46</ele><time>2026-05-18T02:47:34.000Z</time></trkpt>
        <trkpt lat="29.7609171" lon="104.8955401"><ele>334.47</ele><time>2026-05-18T02:47:43.000Z</time></trkpt>
        <trkpt lat="29.7608347" lon="104.8955547"><ele>333.59</ele><time>2026-05-18T02:47:51.000Z</time></trkpt>
        <trkpt lat="29.7607468" lon="104.8955878"><ele>332.77</ele><time>2026-05-18T02:47:58.000Z</time></trkpt>
        <trkpt lat="29.7606672" lon="104.8956428"><ele>331.22</ele><time>2026-05-18T02:48:06.000Z</time></trkpt>
        <trkpt lat="29.7605788" lon="104.8956985"><ele>329.22</ele><time>2026-05-18T02:48:14.000Z</time></trkpt>
        <trkpt lat="29.7605056" lon="104.8957742"><ele>327.28</ele><time>2026-05-18T02:48:22.000Z</time></trkpt>
        <trkpt lat="29.7604218" lon="104.895828"><ele>325.53</ele><time>2026-05-18T02:48:29.000Z</time></trkpt>
        <trkpt lat="29.7603289" lon="104.8958488"><ele>324.56</ele><time>2026-05-18T02:48:34.000Z</time></trkpt>
        <trkpt lat="29.7602317" lon="104.895847"><ele>323.77</ele><time>2026-05-18T02:48:55.000Z</time></trkpt>
        <trkpt lat="29.7602317" lon="104.895847"><ele>323.77</ele><time>2026-05-18T02:49:47.000Z</time></trkpt>
        <trkpt lat="29.7601367" lon="104.8958462"><ele>323.57</ele><time>2026-05-18T02:49:50.000Z</time></trkpt>
        <trkpt lat="29.7601367" lon="104.8958462"><ele>323.57</ele><time>2026-05-18T02:49:56.000Z</time></trkpt>
        <trkpt lat="29.7600498" lon="104.8958754"><ele>323.66</ele><time>2026-05-18T02:50:06.000Z</time></trkpt>
        <trkpt lat="29.7599833" lon="104.895815"><ele>323.4</ele><time>2026-05-18T02:50:14.000Z</time></trkpt>
        <trkpt lat="29.7599164" lon="104.8957368"><ele>322.38</ele><time>2026-05-18T02:50:24.000Z</time></trkpt>
        <trkpt lat="29.7598319" lon="104.8956981"><ele>320.44</ele><time>2026-05-18T02:50:49.000Z</time></trkpt>
        <trkpt lat="29.7598093" lon="104.8957677"><ele>319.19</ele><time>2026-05-18T02:50:58.000Z</time></trkpt>
        <trkpt lat="29.7597834" lon="104.895872"><ele>317.42</ele><time>2026-05-18T02:51:07.000Z</time></trkpt>
        <trkpt lat="29.7597756" lon="104.896008"><ele>315.95</ele><time>2026-05-18T02:51:16.000Z</time></trkpt>
        <trkpt lat="29.7597058" lon="104.8960602"><ele>314.35</ele><time>2026-05-18T02:51:35.000Z</time></trkpt>
        <trkpt lat="29.75961" lon="104.8960456"><ele>311.54</ele><time>2026-05-18T02:51:42.000Z</time></trkpt>
        <trkpt lat="29.7595181" lon="104.8959958"><ele>309.03</ele><time>2026-05-18T02:51:48.000Z</time></trkpt>
        <trkpt lat="29.7594296" lon="104.8959383"><ele>307.6</ele><time>2026-05-18T02:51:56.000Z</time></trkpt>
        <trkpt lat="29.7593398" lon="104.8958877"><ele>306.42</ele><time>2026-05-18T02:52:03.000Z</time></trkpt>
        <trkpt lat="29.7592464" lon="104.8958461"><ele>305.13</ele><time>2026-05-18T02:52:11.000Z</time></trkpt>
        <trkpt lat="29.7591528" lon="104.895827"><ele>303.67</ele><time>2026-05-18T02:52:18.000Z</time></trkpt>
        <trkpt lat="29.7590609" lon="104.8958326"><ele>302.64</ele><time>2026-05-18T02:52:24.000Z</time></trkpt>
        <trkpt lat="29.7589698" lon="104.8958069"><ele>301.01</ele><time>2026-05-18T02:52:32.000Z</time></trkpt>
        <trkpt lat="29.7589043" lon="104.8957277"><ele>299.44</ele><time>2026-05-18T02:52:40.000Z</time></trkpt>
        <trkpt lat="29.7588309" lon="104.895653"><ele>298.02</ele><time>2026-05-18T02:52:48.000Z</time></trkpt>
        <trkpt lat="29.7587465" lon="104.8956001"><ele>296.62</ele><time>2026-05-18T02:52:55.000Z</time></trkpt>
        <trkpt lat="29.7586516" lon="104.8955597"><ele>294.98</ele><time>2026-05-18T02:53:04.000Z</time></trkpt>
        <trkpt lat="29.7585632" lon="104.8955077"><ele>293.72</ele><time>2026-05-18T02:53:11.000Z</time></trkpt>
        <trkpt lat="29.7584773" lon="104.8954667"><ele>292.76</ele><time>2026-05-18T02:53:17.000Z</time></trkpt>
        <trkpt lat="29.7583912" lon="104.8954309"><ele>291.86</ele><time>2026-05-18T02:53:24.000Z</time></trkpt>
        <trkpt lat="29.7583075" lon="104.8953726"><ele>290.73</ele><time>2026-05-18T02:53:32.000Z</time></trkpt>
        <trkpt lat="29.7582353" lon="104.8953022"><ele>290.42</ele><time>2026-05-18T02:53:49.000Z</time></trkpt>
        <trkpt lat="29.7581533" lon="104.8952397"><ele>289.99</ele><time>2026-05-18T02:53:58.000Z</time></trkpt>
        <trkpt lat="29.7580603" lon="104.8952444"><ele>289.71</ele><time>2026-05-18T02:55:05.000Z</time></trkpt>
        <trkpt lat="29.7579604" lon="104.89525"><ele>291.19</ele><time>2026-05-18T02:55:13.000Z</time></trkpt>
        <trkpt lat="29.7578647" lon="104.8952422"><ele>291.89</ele><time>2026-05-18T02:55:21.000Z</time></trkpt>
        <trkpt lat="29.7579139" lon="104.8952323"><ele>292.05</ele><time>2026-05-18T02:55:35.000Z</time></trkpt>
        <trkpt lat="29.7578772" lon="104.8951862"><ele>291.39</ele><time>2026-05-18T02:55:46.000Z</time></trkpt>
        <trkpt lat="29.7578036" lon="104.8951344"><ele>291.06</ele><time>2026-05-18T02:55:53.000Z</time></trkpt>
        <trkpt lat="29.7577327" lon="104.8950627"><ele>290.82</ele><time>2026-05-18T02:56:01.000Z</time></trkpt>
        <trkpt lat="29.7576938" lon="104.8949652"><ele>290.74</ele><time>2026-05-18T02:56:11.000Z</time></trkpt>
        <trkpt lat="29.757693" lon="104.8948579"><ele>289.93</ele><time>2026-05-18T02:56:20.000Z</time></trkpt>
        <trkpt lat="29.757695" lon="104.8947415"><ele>288.97</ele><time>2026-05-18T02:56:30.000Z</time></trkpt>
        <trkpt lat="29.7577038" lon="104.8946272"><ele>287.82</ele><time>2026-05-18T02:56:47.000Z</time></trkpt>
        <trkpt lat="29.7576784" lon="104.8945153"><ele>285.91</ele><time>2026-05-18T02:56:58.000Z</time></trkpt>
        <trkpt lat="29.7576403" lon="104.8944138"><ele>285.27</ele><time>2026-05-18T02:57:08.000Z</time></trkpt>
        <trkpt lat="29.7575951" lon="104.8943135"><ele>285.3</ele><time>2026-05-18T02:57:19.000Z</time></trkpt>
        <trkpt lat="29.757562" lon="104.8942085"><ele>284.75</ele><time>2026-05-18T02:57:25.000Z</time></trkpt>
        <trkpt lat="29.7575269" lon="104.8941042"><ele>284.22</ele><time>2026-05-18T02:57:32.000Z</time></trkpt>
        <trkpt lat="29.7575252" lon="104.8939955"><ele>283.48</ele><time>2026-05-18T02:57:41.000Z</time></trkpt>
        <trkpt lat="29.7575281" lon="104.893886"><ele>282.4</ele><time>2026-05-18T02:57:47.000Z</time></trkpt>
        <trkpt lat="29.7575559" lon="104.8937777"><ele>281.99</ele><time>2026-05-18T02:57:55.000Z</time></trkpt>
        <trkpt lat="29.7575338" lon="104.8936706"><ele>282.48</ele><time>2026-05-18T02:58:04.000Z</time></trkpt>
        <trkpt lat="29.7575108" lon="104.8935664"><ele>282.76</ele><time>2026-05-18T02:58:13.000Z</time></trkpt>
        <trkpt lat="29.7575079" lon="104.8934534"><ele>283.01</ele><time>2026-05-18T02:58:20.000Z</time></trkpt>
        <trkpt lat="29.7574971" lon="104.893335"><ele>283.05</ele><time>2026-05-18T02:58:28.000Z</time></trkpt>
        <trkpt lat="29.7574754" lon="104.8932257"><ele>282.57</ele><time>2026-05-18T02:58:34.000Z</time></trkpt>
        <trkpt lat="29.7574443" lon="104.8931254"><ele>282.06</ele><time>2026-05-18T02:58:41.000Z</time></trkpt>
        <trkpt lat="29.7573993" lon="104.8930284"><ele>281.84</ele><time>2026-05-18T02:58:49.000Z</time></trkpt>
        <trkpt lat="29.757317" lon="104.8929736"><ele>281.49</ele><time>2026-05-18T02:58:59.000Z</time></trkpt>
        <trkpt lat="29.7573471" lon="104.8930109"><ele>280.21</ele><time>2026-05-18T02:59:27.000Z</time></trkpt>
        <trkpt lat="29.7574114" lon="104.8930936"><ele>279.11</ele><time>2026-05-18T02:59:35.000Z</time></trkpt>
        <trkpt lat="29.7574755" lon="104.8931995"><ele>277.92</ele><time>2026-05-18T02:59:44.000Z</time></trkpt>
        <trkpt lat="29.7575138" lon="104.8933148"><ele>277.12</ele><time>2026-05-18T02:59:52.000Z</time></trkpt>
        <trkpt lat="29.7575379" lon="104.8934269"><ele>276.62</ele><time>2026-05-18T03:00:01.000Z</time></trkpt>
        <trkpt lat="29.7575494" lon="104.8935349"><ele>276.22</ele><time>2026-05-18T03:00:10.000Z</time></trkpt>
        <trkpt lat="29.7575717" lon="104.8936395"><ele>275.44</ele><time>2026-05-18T03:00:18.000Z</time></trkpt>
        <trkpt lat="29.7575903" lon="104.8937454"><ele>275</ele><time>2026-05-18T03:00:26.000Z</time></trkpt>
        <trkpt lat="29.7575874" lon="104.8938554"><ele>274.87</ele><time>2026-05-18T03:00:34.000Z</time></trkpt>
        <trkpt lat="29.7575848" lon="104.8939704"><ele>274.84</ele><time>2026-05-18T03:00:42.000Z</time></trkpt>
        <trkpt lat="29.7575731" lon="104.8940839"><ele>274.96</ele><time>2026-05-18T03:00:52.000Z</time></trkpt>
        <trkpt lat="29.7575842" lon="104.8941941"><ele>275.13</ele><time>2026-05-18T03:01:00.000Z</time></trkpt>
        <trkpt lat="29.7576125" lon="104.8943015"><ele>275.24</ele><time>2026-05-18T03:01:07.000Z</time></trkpt>
        <trkpt lat="29.7576737" lon="104.8943888"><ele>275.18</ele><time>2026-05-18T03:01:14.000Z</time></trkpt>
        <trkpt lat="29.7577607" lon="104.8944492"><ele>275.34</ele><time>2026-05-18T03:01:20.000Z</time></trkpt>
        <trkpt lat="29.7578541" lon="104.8944883"><ele>275.74</ele><time>2026-05-18T03:01:29.000Z</time></trkpt>
        <trkpt lat="29.7579493" lon="104.8945224"><ele>276.53</ele><time>2026-05-18T03:01:37.000Z</time></trkpt>
        <trkpt lat="29.7580287" lon="104.894589"><ele>276.84</ele><time>2026-05-18T03:02:11.000Z</time></trkpt>
        <trkpt lat="29.7580738" lon="104.8946889"><ele>277.52</ele><time>2026-05-18T03:02:18.000Z</time></trkpt>
        <trkpt lat="29.7580876" lon="104.8947999"><ele>277.68</ele><time>2026-05-18T03:02:26.000Z</time></trkpt>
        <trkpt lat="29.7581085" lon="104.8949069"><ele>278.05</ele><time>2026-05-18T03:02:34.000Z</time></trkpt>
        <trkpt lat="29.7581085" lon="104.8949069"><ele>278.05</ele><time>2026-05-18T03:02:57.000Z</time></trkpt>
        <trkpt lat="29.7581085" lon="104.8949069"><ele>278.05</ele><time>2026-05-18T03:03:00.000Z</time></trkpt>
        <trkpt lat="29.7581085" lon="104.8949069"><ele>278.05</ele><time>2026-05-18T03:03:51.000Z</time></trkpt>
        <trkpt lat="29.7581154" lon="104.8950217"><ele>278.6</ele><time>2026-05-18T03:03:54.000Z</time></trkpt>
        <trkpt lat="29.7581154" lon="104.8950217"><ele>278.6</ele><time>2026-05-18T03:03:55.000Z</time></trkpt>
        <trkpt lat="29.7581154" lon="104.8950217"><ele>278.6</ele><time>2026-05-18T03:04:27.000Z</time></trkpt>
        <trkpt lat="29.7581154" lon="104.8950217"><ele>278.6</ele><time>2026-05-18T03:04:30.000Z</time></trkpt>
        <trkpt lat="29.7581154" lon="104.8950217"><ele>278.6</ele><time>2026-05-18T03:04:41.000Z</time></trkpt>
        <trkpt lat="29.7581502" lon="104.8951321"><ele>279</ele><time>2026-05-18T03:04:42.000Z</time></trkpt>
        <trkpt lat="29.7581502" lon="104.8951321"><ele>279</ele><time>2026-05-18T03:06:39.000Z</time></trkpt>
        <trkpt lat="29.7581832" lon="104.8952368"><ele>279.1</ele><time>2026-05-18T03:06:48.000Z</time></trkpt>
        <trkpt lat="29.7582459" lon="104.8953333"><ele>279.69</ele><time>2026-05-18T03:06:55.000Z</time></trkpt>
        <trkpt lat="29.7583259" lon="104.8954072"><ele>280.38</ele><time>2026-05-18T03:07:01.000Z</time></trkpt>
        <trkpt lat="29.7584093" lon="104.895459"><ele>280.45</ele><time>2026-05-18T03:07:07.000Z</time></trkpt>
        <trkpt lat="29.7584998" lon="104.895506"><ele>280.65</ele><time>2026-05-18T03:07:14.000Z</time></trkpt>
        <trkpt lat="29.7585829" lon="104.8955625"><ele>281.19</ele><time>2026-05-18T03:07:20.000Z</time></trkpt>
        <trkpt lat="29.7586604" lon="104.8956191"><ele>281.59</ele><time>2026-05-18T03:07:26.000Z</time></trkpt>
        <trkpt lat="29.7587444" lon="104.8956604"><ele>281.74</ele><time>2026-05-18T03:07:33.000Z</time></trkpt>
        <trkpt lat="29.7588058" lon="104.8956048"><ele>282.01</ele><time>2026-05-18T03:07:53.000Z</time></trkpt>
        <trkpt lat="29.7588666" lon="104.8956361"><ele>282.55</ele><time>2026-05-18T03:08:17.000Z</time></trkpt>
        <trkpt lat="29.7589204" lon="104.8957208"><ele>282.6</ele><time>2026-05-18T03:08:26.000Z</time></trkpt>
        <trkpt lat="29.7589862" lon="104.8958091"><ele>282.69</ele><time>2026-05-18T03:08:34.000Z</time></trkpt>
        <trkpt lat="29.7590117" lon="104.8959215"><ele>283.49</ele><time>2026-05-18T03:08:42.000Z</time></trkpt>
        <trkpt lat="29.7590234" lon="104.8960383"><ele>284.28</ele><time>2026-05-18T03:08:50.000Z</time></trkpt>
        <trkpt lat="29.759055" lon="104.896147"><ele>285.02</ele><time>2026-05-18T03:08:58.000Z</time></trkpt>
        <trkpt lat="29.7591026" lon="104.8962465"><ele>285.53</ele><time>2026-05-18T03:09:06.000Z</time></trkpt>
        <trkpt lat="29.7591652" lon="104.8963373"><ele>285.84</ele><time>2026-05-18T03:09:14.000Z</time></trkpt>
        <trkpt lat="29.7592078" lon="104.8964313"><ele>286.28</ele><time>2026-05-18T03:09:22.000Z</time></trkpt>
        <trkpt lat="29.7592285" lon="104.8965373"><ele>287.12</ele><time>2026-05-18T03:09:29.000Z</time></trkpt>
        <trkpt lat="29.7592577" lon="104.8966458"><ele>288.47</ele><time>2026-05-18T03:09:35.000Z</time></trkpt>
        <trkpt lat="29.7593045" lon="104.8967384"><ele>289.73</ele><time>2026-05-18T03:09:42.000Z</time></trkpt>
        <trkpt lat="29.759356" lon="104.896825"><ele>290.23</ele><time>2026-05-18T03:09:50.000Z</time></trkpt>
        <trkpt lat="29.7594154" lon="104.8969067"><ele>290.39</ele><time>2026-05-18T03:09:57.000Z</time></trkpt>
        <trkpt lat="29.7594822" lon="104.8969884"><ele>290.64</ele><time>2026-05-18T03:10:04.000Z</time></trkpt>
        <trkpt lat="29.7595294" lon="104.8970838"><ele>290.93</ele><time>2026-05-18T03:10:12.000Z</time></trkpt>
        <trkpt lat="29.7595359" lon="104.8971966"><ele>290.93</ele><time>2026-05-18T03:10:21.000Z</time></trkpt>
        <trkpt lat="29.7595102" lon="104.8973057"><ele>291.46</ele><time>2026-05-18T03:10:29.000Z</time></trkpt>
        <trkpt lat="29.7594421" lon="104.8973923"><ele>292.09</ele><time>2026-05-18T03:10:37.000Z</time></trkpt>
        <trkpt lat="29.7593883" lon="104.8974908"><ele>292.64</ele><time>2026-05-18T03:10:44.000Z</time></trkpt>
        <trkpt lat="29.7593378" lon="104.8975919"><ele>292.92</ele><time>2026-05-18T03:10:53.000Z</time></trkpt>
        <trkpt lat="29.7593202" lon="104.8976993"><ele>293.91</ele><time>2026-05-18T03:11:00.000Z</time></trkpt>
        <trkpt lat="29.7593701" lon="104.8977884"><ele>294.33</ele><time>2026-05-18T03:11:09.000Z</time></trkpt>
        <trkpt lat="29.7593635" lon="104.89788"><ele>294.7</ele><time>2026-05-18T03:11:18.000Z</time></trkpt>
        <trkpt lat="29.7592999" lon="104.8979397"><ele>295.54</ele><time>2026-05-18T03:11:25.000Z</time></trkpt>
        <trkpt lat="29.7592143" lon="104.8979936"><ele>296.53</ele><time>2026-05-18T03:11:33.000Z</time></trkpt>
        <trkpt lat="29.759134" lon="104.898053"><ele>297.53</ele><time>2026-05-18T03:11:40.000Z</time></trkpt>
        <trkpt lat="29.7590554" lon="104.8981112"><ele>298.71</ele><time>2026-05-18T03:11:48.000Z</time></trkpt>
        <trkpt lat="29.7589782" lon="104.8981695"><ele>300.12</ele><time>2026-05-18T03:11:55.000Z</time></trkpt>
        <trkpt lat="29.758892" lon="104.8982168"><ele>300.79</ele><time>2026-05-18T03:12:03.000Z</time></trkpt>
        <trkpt lat="29.7587927" lon="104.8982354"><ele>301.97</ele><time>2026-05-18T03:12:11.000Z</time></trkpt>
        <trkpt lat="29.7586922" lon="104.8982395"><ele>302.82</ele><time>2026-05-18T03:12:18.000Z</time></trkpt>
        <trkpt lat="29.7586922" lon="104.8982395"><ele>302.82</ele><time>2026-05-18T03:13:43.000Z</time></trkpt>
        <trkpt lat="29.7586922" lon="104.8982395"><ele>302.82</ele><time>2026-05-18T03:13:46.000Z</time></trkpt>
        <trkpt lat="29.7586922" lon="104.8982395"><ele>302.82</ele><time>2026-05-18T03:13:59.000Z</time></trkpt>
        <trkpt lat="29.7586922" lon="104.8982395"><ele>302.82</ele><time>2026-05-18T03:14:02.000Z</time></trkpt>
        <trkpt lat="29.7586922" lon="104.8982395"><ele>302.82</ele><time>2026-05-18T03:14:37.000Z</time></trkpt>
        <trkpt lat="29.7586922" lon="104.8982395"><ele>302.82</ele><time>2026-05-18T03:14:50.000Z</time></trkpt>
        <trkpt lat="29.7586922" lon="104.8982395"><ele>302.82</ele><time>2026-05-18T03:14:59.000Z</time></trkpt>
        <trkpt lat="29.7586922" lon="104.8982395"><ele>302.82</ele><time>2026-05-18T03:15:04.000Z</time></trkpt>
        <trkpt lat="29.7586922" lon="104.8982395"><ele>302.82</ele><time>2026-05-18T03:15:15.000Z</time></trkpt>
        <trkpt lat="29.7586922" lon="104.8982395"><ele>302.82</ele><time>2026-05-18T03:15:18.000Z</time></trkpt>
        <trkpt lat="29.7586922" lon="104.8982395"><ele>302.82</ele><time>2026-05-18T03:15:29.000Z</time></trkpt>
        <trkpt lat="29.7586922" lon="104.8982395"><ele>302.82</ele><time>2026-05-18T03:15:44.000Z</time></trkpt>
        <trkpt lat="29.7586922" lon="104.8982395"><ele>302.82</ele><time>2026-05-18T03:16:11.000Z</time></trkpt>
        <trkpt lat="29.7586922" lon="104.8982395"><ele>302.82</ele><time>2026-05-18T03:16:20.000Z</time></trkpt>
        <trkpt lat="29.7586922" lon="104.8982395"><ele>302.82</ele><time>2026-05-18T03:16:41.000Z</time></trkpt>
        <trkpt lat="29.7586922" lon="104.8982395"><ele>302.82</ele><time>2026-05-18T03:17:00.000Z</time></trkpt>
        <trkpt lat="29.7586922" lon="104.8982395"><ele>302.82</ele><time>2026-05-18T03:17:27.000Z</time></trkpt>
        <trkpt lat="29.7587772" lon="104.8982073"><ele>303.61</ele><time>2026-05-18T03:17:36.000Z</time></trkpt>
        <trkpt lat="29.7587772" lon="104.8982073"><ele>303.61</ele><time>2026-05-18T03:17:51.000Z</time></trkpt>
        <trkpt lat="29.7588815" lon="104.8982003"><ele>304.87</ele><time>2026-05-18T03:17:55.000Z</time></trkpt>
        <trkpt lat="29.758975" lon="104.8981699"><ele>305.55</ele><time>2026-05-18T03:17:59.000Z</time></trkpt>
        <trkpt lat="29.7590611" lon="104.898117"><ele>305.91</ele><time>2026-05-18T03:18:05.000Z</time></trkpt>
        <trkpt lat="29.7591358" lon="104.898045"><ele>305.9</ele><time>2026-05-18T03:18:11.000Z</time></trkpt>
        <trkpt lat="29.7592466" lon="104.8979522"><ele>305.55</ele><time>2026-05-18T03:18:16.000Z</time></trkpt>
        <trkpt lat="29.7593445" lon="104.8978724"><ele>304.7</ele><time>2026-05-18T03:18:20.000Z</time></trkpt>
        <trkpt lat="29.7593522" lon="104.8977638"><ele>304.02</ele><time>2026-05-18T03:18:28.000Z</time></trkpt>
        <trkpt lat="29.7593394" lon="104.8976476"><ele>303.22</ele><time>2026-05-18T03:18:32.000Z</time></trkpt>
        <trkpt lat="29.7593425" lon="104.8975191"><ele>302.55</ele><time>2026-05-18T03:18:36.000Z</time></trkpt>
        <trkpt lat="29.7593759" lon="104.8974002"><ele>302</ele><time>2026-05-18T03:18:40.000Z</time></trkpt>
        <trkpt lat="29.7594477" lon="104.8973159"><ele>301.49</ele><time>2026-05-18T03:18:44.000Z</time></trkpt>
        <trkpt lat="29.7594853" lon="104.8972072"><ele>300.82</ele><time>2026-05-18T03:18:48.000Z</time></trkpt>
        <trkpt lat="29.7594884" lon="104.8970874"><ele>300.17</ele><time>2026-05-18T03:18:52.000Z</time></trkpt>
        <trkpt lat="29.7594596" lon="104.8969763"><ele>299.65</ele><time>2026-05-18T03:18:56.000Z</time></trkpt>
        <trkpt lat="29.7593994" lon="104.8968902"><ele>299.08</ele><time>2026-05-18T03:18:59.000Z</time></trkpt>
        <trkpt lat="29.7593321" lon="104.8968117"><ele>298.46</ele><time>2026-05-18T03:19:03.000Z</time></trkpt>
        <trkpt lat="29.7592719" lon="104.8967205"><ele>297.82</ele><time>2026-05-18T03:19:07.000Z</time></trkpt>
        <trkpt lat="29.7592196" lon="104.8966242"><ele>297.22</ele><time>2026-05-18T03:19:11.000Z</time></trkpt>
        <trkpt lat="29.7591916" lon="104.8965158"><ele>296.73</ele><time>2026-05-18T03:19:16.000Z</time></trkpt>
        <trkpt lat="29.7591736" lon="104.8964039"><ele>296.25</ele><time>2026-05-18T03:19:21.000Z</time></trkpt>
        <trkpt lat="29.7591354" lon="104.8963058"><ele>296.18</ele><time>2026-05-18T03:19:25.000Z</time></trkpt>
        <trkpt lat="29.7590818" lon="104.8962"><ele>295.93</ele><time>2026-05-18T03:19:30.000Z</time></trkpt>
        <trkpt lat="29.7590376" lon="104.8960786"><ele>295.46</ele><time>2026-05-18T03:19:35.000Z</time></trkpt>
        <trkpt lat="29.7589906" lon="104.895958"><ele>294.76</ele><time>2026-05-18T03:19:38.000Z</time></trkpt>
        <trkpt lat="29.7589552" lon="104.8958449"><ele>293.71</ele><time>2026-05-18T03:19:41.000Z</time></trkpt>
        <trkpt lat="29.7588886" lon="104.8957223"><ele>293.15</ele><time>2026-05-18T03:19:46.000Z</time></trkpt>
        <trkpt lat="29.7588065" lon="104.8956488"><ele>292.73</ele><time>2026-05-18T03:19:50.000Z</time></trkpt>
        <trkpt lat="29.7587168" lon="104.8956041"><ele>292.4</ele><time>2026-05-18T03:19:54.000Z</time></trkpt>
        <trkpt lat="29.7586148" lon="104.8955598"><ele>292.14</ele><time>2026-05-18T03:19:59.000Z</time></trkpt>
        <trkpt lat="29.758494" lon="104.8954911"><ele>291.66</ele><time>2026-05-18T03:20:04.000Z</time></trkpt>
        <trkpt lat="29.7583893" lon="104.8954323"><ele>291.33</ele><time>2026-05-18T03:20:08.000Z</time></trkpt>
        <trkpt lat="29.7582999" lon="104.8953735"><ele>291.3</ele><time>2026-05-18T03:20:12.000Z</time></trkpt>
        <trkpt lat="29.75822" lon="104.8953114"><ele>291.3</ele><time>2026-05-18T03:20:16.000Z</time></trkpt>
        <trkpt lat="29.7581438" lon="104.8952333"><ele>291.14</ele><time>2026-05-18T03:20:22.000Z</time></trkpt>
        <trkpt lat="29.7581056" lon="104.8951305"><ele>290.69</ele><time>2026-05-18T03:20:26.000Z</time></trkpt>
        <trkpt lat="29.7580835" lon="104.8950019"><ele>290.16</ele><time>2026-05-18T03:20:30.000Z</time></trkpt>
        <trkpt lat="29.7580698" lon="104.894883"><ele>289.83</ele><time>2026-05-18T03:20:34.000Z</time></trkpt>
        <trkpt lat="29.758051" lon="104.8947718"><ele>289.46</ele><time>2026-05-18T03:20:38.000Z</time></trkpt>
        <trkpt lat="29.7580323" lon="104.8946636"><ele>288.84</ele><time>2026-05-18T03:20:42.000Z</time></trkpt>
        <trkpt lat="29.7580117" lon="104.8945547"><ele>288.1</ele><time>2026-05-18T03:20:46.000Z</time></trkpt>
        <trkpt lat="29.7579465" lon="104.8944753"><ele>287.54</ele><time>2026-05-18T03:20:50.000Z</time></trkpt>
        <trkpt lat="29.7578455" lon="104.8944406"><ele>287.54</ele><time>2026-05-18T03:20:55.000Z</time></trkpt>
        <trkpt lat="29.7577483" lon="104.8944145"><ele>287.39</ele><time>2026-05-18T03:21:02.000Z</time></trkpt>
        <trkpt lat="29.7576614" lon="104.894375"><ele>286.93</ele><time>2026-05-18T03:21:08.000Z</time></trkpt>
        <trkpt lat="29.7575952" lon="104.8942873"><ele>286.07</ele><time>2026-05-18T03:21:16.000Z</time></trkpt>
        <trkpt lat="29.7575604" lon="104.8941841"><ele>285</ele><time>2026-05-18T03:21:21.000Z</time></trkpt>
        <trkpt lat="29.7575387" lon="104.8940715"><ele>284.92</ele><time>2026-05-18T03:21:26.000Z</time></trkpt>
        <trkpt lat="29.7575365" lon="104.8939513"><ele>284.67</ele><time>2026-05-18T03:21:31.000Z</time></trkpt>
        <trkpt lat="29.7575292" lon="104.8938367"><ele>284.14</ele><time>2026-05-18T03:21:36.000Z</time></trkpt>
        <trkpt lat="29.7575191" lon="104.8937143"><ele>283.24</ele><time>2026-05-18T03:21:41.000Z</time></trkpt>
        <trkpt lat="29.7575078" lon="104.8935979"><ele>282.27</ele><time>2026-05-18T03:21:46.000Z</time></trkpt>
        <trkpt lat="29.7574989" lon="104.893481"><ele>281.55</ele><time>2026-05-18T03:21:53.000Z</time></trkpt>
        <trkpt lat="29.7574933" lon="104.8933613"><ele>280.47</ele><time>2026-05-18T03:21:58.000Z</time></trkpt>
        <trkpt lat="29.757464" lon="104.8932525"><ele>279.51</ele><time>2026-05-18T03:22:02.000Z</time></trkpt>
        <trkpt lat="29.7574246" lon="104.8931563"><ele>278.82</ele><time>2026-05-18T03:22:06.000Z</time></trkpt>
        <trkpt lat="29.7573739" lon="104.8930626"><ele>278.1</ele><time>2026-05-18T03:22:12.000Z</time></trkpt>
        <trkpt lat="29.7572937" lon="104.8929936"><ele>277.87</ele><time>2026-05-18T03:22:17.000Z</time></trkpt>
        <trkpt lat="29.7571876" lon="104.8929635"><ele>277.98</ele><time>2026-05-18T03:22:22.000Z</time></trkpt>
        <trkpt lat="29.7571199" lon="104.8928895"><ele>277.49</ele><time>2026-05-18T03:22:28.000Z</time></trkpt>
        <trkpt lat="29.7570629" lon="104.8928015"><ele>277.12</ele><time>2026-05-18T03:22:34.000Z</time></trkpt>
        <trkpt lat="29.7570121" lon="104.8927059"><ele>276.71</ele><time>2026-05-18T03:22:41.000Z</time></trkpt>
        <trkpt lat="29.756959" lon="104.8926136"><ele>276.16</ele><time>2026-05-18T03:22:48.000Z</time></trkpt>
        <trkpt lat="29.7569064" lon="104.8925214"><ele>275.87</ele><time>2026-05-18T03:22:56.000Z</time></trkpt>
        <trkpt lat="29.7568584" lon="104.8924317"><ele>275.66</ele><time>2026-05-18T03:23:07.000Z</time></trkpt>
        <trkpt lat="29.7568376" lon="104.8923261"><ele>275.24</ele><time>2026-05-18T03:23:14.000Z</time></trkpt>
        <trkpt lat="29.7567929" lon="104.8922379"><ele>274.65</ele><time>2026-05-18T03:23:27.000Z</time></trkpt>
        <trkpt lat="29.7567471" lon="104.892133"><ele>273.77</ele><time>2026-05-18T03:23:31.000Z</time></trkpt>
        <trkpt lat="29.7567214" lon="104.8920201"><ele>273.71</ele><time>2026-05-18T03:23:35.000Z</time></trkpt>
        <trkpt lat="29.7566873" lon="104.8919164"><ele>273.93</ele><time>2026-05-18T03:23:40.000Z</time></trkpt>
        <trkpt lat="29.7566499" lon="104.8918128"><ele>274.24</ele><time>2026-05-18T03:23:44.000Z</time></trkpt>
        <trkpt lat="29.7566139" lon="104.8917155"><ele>274.53</ele><time>2026-05-18T03:23:48.000Z</time></trkpt>
        <trkpt lat="29.7565711" lon="104.8916186"><ele>274.7</ele><time>2026-05-18T03:23:55.000Z</time></trkpt>
        <trkpt lat="29.7565279" lon="104.8915231"><ele>275.45</ele><time>2026-05-18T03:24:02.000Z</time></trkpt>
        <trkpt lat="29.7564998" lon="104.8914244"><ele>276.52</ele><time>2026-05-18T03:24:09.000Z</time></trkpt>
        <trkpt lat="29.7565074" lon="104.8913189"><ele>277.33</ele><time>2026-05-18T03:24:24.000Z</time></trkpt>
        <trkpt lat="29.7564735" lon="104.891216"><ele>277.91</ele><time>2026-05-18T03:24:30.000Z</time></trkpt>
        <trkpt lat="29.7564431" lon="104.8911121"><ele>277.85</ele><time>2026-05-18T03:24:37.000Z</time></trkpt>
        <trkpt lat="29.7564137" lon="104.8910006"><ele>277.44</ele><time>2026-05-18T03:24:42.000Z</time></trkpt>
        <trkpt lat="29.7564034" lon="104.8908928"><ele>277.11</ele><time>2026-05-18T03:24:49.000Z</time></trkpt>
        <trkpt lat="29.7563867" lon="104.8907893"><ele>276.68</ele><time>2026-05-18T03:24:56.000Z</time></trkpt>
        <trkpt lat="29.7563679" lon="104.8906866"><ele>276.57</ele><time>2026-05-18T03:25:03.000Z</time></trkpt>
        <trkpt lat="29.7563421" lon="104.890579"><ele>276.54</ele><time>2026-05-18T03:25:11.000Z</time></trkpt>
        <trkpt lat="29.7563171" lon="104.8904719"><ele>276.58</ele><time>2026-05-18T03:25:34.000Z</time></trkpt>
        <trkpt lat="29.756299" lon="104.8903596"><ele>277.16</ele><time>2026-05-18T03:25:41.000Z</time></trkpt>
        <trkpt lat="29.7562649" lon="104.890257"><ele>277.43</ele><time>2026-05-18T03:25:47.000Z</time></trkpt>
        <trkpt lat="29.7562461" lon="104.8901338"><ele>277.23</ele><time>2026-05-18T03:25:52.000Z</time></trkpt>
        <trkpt lat="29.7562211" lon="104.8900224"><ele>277.26</ele><time>2026-05-18T03:25:58.000Z</time></trkpt>
        <trkpt lat="29.7562145" lon="104.889908"><ele>277.64</ele><time>2026-05-18T03:26:07.000Z</time></trkpt>
        <trkpt lat="29.7562077" lon="104.8897952"><ele>278.34</ele><time>2026-05-18T03:26:13.000Z</time></trkpt>
        <trkpt lat="29.7562046" lon="104.8896858"><ele>279.01</ele><time>2026-05-18T03:26:17.000Z</time></trkpt>
        <trkpt lat="29.7562006" lon="104.8895808"><ele>279.57</ele><time>2026-05-18T03:26:23.000Z</time></trkpt>
        <trkpt lat="29.7561954" lon="104.889477"><ele>280.05</ele><time>2026-05-18T03:26:30.000Z</time></trkpt>
        <trkpt lat="29.7562017" lon="104.8893665"><ele>280.73</ele><time>2026-05-18T03:26:36.000Z</time></trkpt>
        <trkpt lat="29.756204" lon="104.8892605"><ele>281.21</ele><time>2026-05-18T03:26:40.000Z</time></trkpt>
        <trkpt lat="29.7562171" lon="104.8891481"><ele>281.6</ele><time>2026-05-18T03:26:44.000Z</time></trkpt>
        <trkpt lat="29.7562263" lon="104.8890408"><ele>281.72</ele><time>2026-05-18T03:26:51.000Z</time></trkpt>
        <trkpt lat="29.7562407" lon="104.8889344"><ele>281.64</ele><time>2026-05-18T03:26:56.000Z</time></trkpt>
        <trkpt lat="29.7562668" lon="104.8888211"><ele>281.48</ele><time>2026-05-18T03:27:00.000Z</time></trkpt>
        <trkpt lat="29.7562848" lon="104.8887091"><ele>281.41</ele><time>2026-05-18T03:27:04.000Z</time></trkpt>
        <trkpt lat="29.7563186" lon="104.8886007"><ele>281.3</ele><time>2026-05-18T03:27:10.000Z</time></trkpt>
        <trkpt lat="29.7563562" lon="104.8884907"><ele>281</ele><time>2026-05-18T03:27:17.000Z</time></trkpt>
        <trkpt lat="29.756409" lon="104.8883939"><ele>280.57</ele><time>2026-05-18T03:27:23.000Z</time></trkpt>
        <trkpt lat="29.7564689" lon="104.8882964"><ele>280.07</ele><time>2026-05-18T03:27:31.000Z</time></trkpt>
        <trkpt lat="29.7565119" lon="104.8881888"><ele>279.35</ele><time>2026-05-18T03:27:36.000Z</time></trkpt>
        <trkpt lat="29.7565309" lon="104.8880833"><ele>278.73</ele><time>2026-05-18T03:27:42.000Z</time></trkpt>
        <trkpt lat="29.7565508" lon="104.8879788"><ele>277.63</ele><time>2026-05-18T03:27:50.000Z</time></trkpt>
        <trkpt lat="29.7565489" lon="104.8878736"><ele>276.5</ele><time>2026-05-18T03:27:59.000Z</time></trkpt>
        <trkpt lat="29.7565475" lon="104.8877506"><ele>275.95</ele><time>2026-05-18T03:28:10.000Z</time></trkpt>
        <trkpt lat="29.7565601" lon="104.8876407"><ele>275.61</ele><time>2026-05-18T03:28:25.000Z</time></trkpt>
        <trkpt lat="29.7566079" lon="104.8875473"><ele>275.69</ele><time>2026-05-18T03:28:32.000Z</time></trkpt>
        <trkpt lat="29.7566454" lon="104.887448"><ele>276.05</ele><time>2026-05-18T03:28:40.000Z</time></trkpt>
        <trkpt lat="29.7566891" lon="104.8873461"><ele>276.19</ele><time>2026-05-18T03:28:57.000Z</time></trkpt>
        <trkpt lat="29.7567637" lon="104.887248"><ele>276.27</ele><time>2026-05-18T03:29:04.000Z</time></trkpt>
        <trkpt lat="29.7567637" lon="104.887248"><ele>276.27</ele><time>2026-05-18T03:29:19.000Z</time></trkpt>
        <trkpt lat="29.7568178" lon="104.8871547"><ele>275.83</ele><time>2026-05-18T03:29:24.000Z</time></trkpt>
        <trkpt lat="29.7568178" lon="104.8871547"><ele>275.83</ele><time>2026-05-18T03:30:10.000Z</time></trkpt>
        <trkpt lat="29.7568671" lon="104.8870618"><ele>276.49</ele><time>2026-05-18T03:30:18.000Z</time></trkpt>
        <trkpt lat="29.7569157" lon="104.8869699"><ele>277.08</ele><time>2026-05-18T03:30:26.000Z</time></trkpt>
        <trkpt lat="29.7569642" lon="104.8868617"><ele>277.36</ele><time>2026-05-18T03:30:34.000Z</time></trkpt>
        <trkpt lat="29.757007" lon="104.8867636"><ele>277.69</ele><time>2026-05-18T03:30:42.000Z</time></trkpt>
        <trkpt lat="29.7569699" lon="104.8868392"><ele>277.75</ele><time>2026-05-18T03:30:52.000Z</time></trkpt>
        <trkpt lat="29.7569041" lon="104.8869538"><ele>277.73</ele><time>2026-05-18T03:30:57.000Z</time></trkpt>
        <trkpt lat="29.7568452" lon="104.8870849"><ele>277.59</ele><time>2026-05-18T03:31:00.000Z</time></trkpt>
        <trkpt lat="29.7567926" lon="104.8872054"><ele>277.43</ele><time>2026-05-18T03:31:04.000Z</time></trkpt>
        <trkpt lat="29.7568239" lon="104.8871769"><ele>277.27</ele><time>2026-05-18T03:31:15.000Z</time></trkpt>
        <trkpt lat="29.7568822" lon="104.8870648"><ele>277.41</ele><time>2026-05-18T03:31:20.000Z</time></trkpt>
        <trkpt lat="29.7569362" lon="104.8869371"><ele>277.66</ele><time>2026-05-18T03:31:24.000Z</time></trkpt>
        <trkpt lat="29.7569858" lon="104.8868034"><ele>277.91</ele><time>2026-05-18T03:31:29.000Z</time></trkpt>
        <trkpt lat="29.7570281" lon="104.8866814"><ele>277.96</ele><time>2026-05-18T03:31:34.000Z</time></trkpt>
        <trkpt lat="29.7570764" lon="104.8865687"><ele>277.84</ele><time>2026-05-18T03:31:46.000Z</time></trkpt>
        <trkpt lat="29.7571432" lon="104.8864832"><ele>276.97</ele><time>2026-05-18T03:31:55.000Z</time></trkpt>
        <trkpt lat="29.7572434" lon="104.8864473"><ele>275.81</ele><time>2026-05-18T03:32:04.000Z</time></trkpt>
        <trkpt lat="29.7573127" lon="104.8863825"><ele>275.32</ele><time>2026-05-18T03:32:12.000Z</time></trkpt>
        <trkpt lat="29.7573784" lon="104.8863015"><ele>275.05</ele><time>2026-05-18T03:32:20.000Z</time></trkpt>
        <trkpt lat="29.7574476" lon="104.8862295"><ele>274.91</ele><time>2026-05-18T03:32:28.000Z</time></trkpt>
        <trkpt lat="29.7575374" lon="104.886163"><ele>274.62</ele><time>2026-05-18T03:32:35.000Z</time></trkpt>
        <trkpt lat="29.7576194" lon="104.8860906"><ele>273.98</ele><time>2026-05-18T03:32:40.000Z</time></trkpt>
        <trkpt lat="29.7576895" lon="104.886017"><ele>273.16</ele><time>2026-05-18T03:32:44.000Z</time></trkpt>
        <trkpt lat="29.7577556" lon="104.8859339"><ele>272.58</ele><time>2026-05-18T03:32:48.000Z</time></trkpt>
        <trkpt lat="29.7578322" lon="104.8858674"><ele>272.05</ele><time>2026-05-18T03:32:52.000Z</time></trkpt>
        <trkpt lat="29.7578969" lon="104.8857829"><ele>271.58</ele><time>2026-05-18T03:32:58.000Z</time></trkpt>
        <trkpt lat="29.757953" lon="104.8856928"><ele>271.41</ele><time>2026-05-18T03:33:03.000Z</time></trkpt>
        <trkpt lat="29.7580292" lon="104.8856435"><ele>270.94</ele><time>2026-05-18T03:33:13.000Z</time></trkpt>
        <trkpt lat="29.7580805" lon="104.885556"><ele>270</ele><time>2026-05-18T03:33:31.000Z</time></trkpt>
        <trkpt lat="29.7581369" lon="104.8854704"><ele>269.43</ele><time>2026-05-18T03:33:38.000Z</time></trkpt>
        <trkpt lat="29.7582005" lon="104.8853955"><ele>269.2</ele><time>2026-05-18T03:33:45.000Z</time></trkpt>
        <trkpt lat="29.7582684" lon="104.8853211"><ele>268.8</ele><time>2026-05-18T03:33:49.000Z</time></trkpt>
        <trkpt lat="29.7583405" lon="104.8852476"><ele>268.42</ele><time>2026-05-18T03:33:54.000Z</time></trkpt>
        <trkpt lat="29.7584105" lon="104.8851638"><ele>268.29</ele><time>2026-05-18T03:33:59.000Z</time></trkpt>
        <trkpt lat="29.7584827" lon="104.8850807"><ele>268.36</ele><time>2026-05-18T03:34:04.000Z</time></trkpt>
        <trkpt lat="29.7585785" lon="104.8850095"><ele>268.65</ele><time>2026-05-18T03:34:10.000Z</time></trkpt>
        <trkpt lat="29.7586706" lon="104.8849601"><ele>268.54</ele><time>2026-05-18T03:34:15.000Z</time></trkpt>
        <trkpt lat="29.7587577" lon="104.88492"><ele>268.46</ele><time>2026-05-18T03:34:21.000Z</time></trkpt>
        <trkpt lat="29.75885" lon="104.8848747"><ele>268.41</ele><time>2026-05-18T03:34:28.000Z</time></trkpt>
        <trkpt lat="29.7589383" lon="104.8848193"><ele>268.1</ele><time>2026-05-18T03:34:36.000Z</time></trkpt>
        <trkpt lat="29.7590039" lon="104.884745"><ele>268.04</ele><time>2026-05-18T03:34:42.000Z</time></trkpt>
        <trkpt lat="29.7590693" lon="104.8846738"><ele>267.85</ele><time>2026-05-18T03:34:47.000Z</time></trkpt>
        <trkpt lat="29.7591061" lon="104.8845785"><ele>267.1</ele><time>2026-05-18T03:34:55.000Z</time></trkpt>
        <trkpt lat="29.7591758" lon="104.8845053"><ele>266.09</ele><time>2026-05-18T03:35:00.000Z</time></trkpt>
        <trkpt lat="29.7592485" lon="104.8844399"><ele>264.96</ele><time>2026-05-18T03:35:08.000Z</time></trkpt>
        <trkpt lat="29.7592796" lon="104.8843446"><ele>264.04</ele><time>2026-05-18T03:35:17.000Z</time></trkpt>
        <trkpt lat="29.7593282" lon="104.8842579"><ele>263.4</ele><time>2026-05-18T03:35:24.000Z</time></trkpt>
        <trkpt lat="29.7593801" lon="104.8841683"><ele>262.62</ele><time>2026-05-18T03:35:32.000Z</time></trkpt>
        <trkpt lat="29.7594314" lon="104.8840592"><ele>262.17</ele><time>2026-05-18T03:35:40.000Z</time></trkpt>
        <trkpt lat="29.7594974" lon="104.883967"><ele>262.46</ele><time>2026-05-18T03:35:47.000Z</time></trkpt>
        <trkpt lat="29.7595584" lon="104.883883"><ele>262.74</ele><time>2026-05-18T03:35:54.000Z</time></trkpt>
        <trkpt lat="29.759641" lon="104.8838239"><ele>262.97</ele><time>2026-05-18T03:36:04.000Z</time></trkpt>
        <trkpt lat="29.7597236" lon="104.8837606"><ele>263.29</ele><time>2026-05-18T03:36:11.000Z</time></trkpt>
        <trkpt lat="29.7598102" lon="104.883681"><ele>263.85</ele><time>2026-05-18T03:36:34.000Z</time></trkpt>
        <trkpt lat="29.7598893" lon="104.8836095"><ele>264.8</ele><time>2026-05-18T03:36:42.000Z</time></trkpt>
        <trkpt lat="29.7599685" lon="104.8835391"><ele>265.15</ele><time>2026-05-18T03:36:49.000Z</time></trkpt>
        <trkpt lat="29.7600498" lon="104.8834667"><ele>265.09</ele><time>2026-05-18T03:36:56.000Z</time></trkpt>
        <trkpt lat="29.7601215" lon="104.8833937"><ele>265.38</ele><time>2026-05-18T03:37:01.000Z</time></trkpt>
        <trkpt lat="29.7601979" lon="104.8833016"><ele>265.73</ele><time>2026-05-18T03:37:10.000Z</time></trkpt>
        <trkpt lat="29.7602826" lon="104.8832476"><ele>265.57</ele><time>2026-05-18T03:37:17.000Z</time></trkpt>
        <trkpt lat="29.7603738" lon="104.8832039"><ele>265.35</ele><time>2026-05-18T03:37:25.000Z</time></trkpt>
        <trkpt lat="29.7604646" lon="104.8831742"><ele>265.06</ele><time>2026-05-18T03:37:31.000Z</time></trkpt>
        <trkpt lat="29.7605586" lon="104.8831275"><ele>265.08</ele><time>2026-05-18T03:37:39.000Z</time></trkpt>
        <trkpt lat="29.7606401" lon="104.8830722"><ele>265.12</ele><time>2026-05-18T03:37:43.000Z</time></trkpt>
        <trkpt lat="29.7607071" lon="104.8829998"><ele>265.3</ele><time>2026-05-18T03:37:48.000Z</time></trkpt>
        <trkpt lat="29.7607701" lon="104.8829228"><ele>265.24</ele><time>2026-05-18T03:37:54.000Z</time></trkpt>
        <trkpt lat="29.7608494" lon="104.8828669"><ele>264.9</ele><time>2026-05-18T03:38:02.000Z</time></trkpt>
        <trkpt lat="29.760866" lon="104.8827704"><ele>264.5</ele><time>2026-05-18T03:38:45.000Z</time></trkpt>
        <trkpt lat="29.7609081" lon="104.8826791"><ele>265.57</ele><time>2026-05-18T03:38:53.000Z</time></trkpt>
        <trkpt lat="29.7609548" lon="104.8825887"><ele>265.99</ele><time>2026-05-18T03:39:01.000Z</time></trkpt>
        <trkpt lat="29.7610034" lon="104.8824968"><ele>266.51</ele><time>2026-05-18T03:39:09.000Z</time></trkpt>
        <trkpt lat="29.7610527" lon="104.8824035"><ele>267.05</ele><time>2026-05-18T03:39:17.000Z</time></trkpt>
        <trkpt lat="29.7611108" lon="104.8823126"><ele>267.74</ele><time>2026-05-18T03:39:26.000Z</time></trkpt>
        <trkpt lat="29.7611829" lon="104.8822221"><ele>268.47</ele><time>2026-05-18T03:39:34.000Z</time></trkpt>
        <trkpt lat="29.7612453" lon="104.8821262"><ele>268.74</ele><time>2026-05-18T03:39:40.000Z</time></trkpt>
        <trkpt lat="29.76131" lon="104.8820326"><ele>268.57</ele><time>2026-05-18T03:39:45.000Z</time></trkpt>
        <trkpt lat="29.7613736" lon="104.8819452"><ele>268.38</ele><time>2026-05-18T03:39:54.000Z</time></trkpt>
        <trkpt lat="29.761452" lon="104.8818589"><ele>267.86</ele><time>2026-05-18T03:40:00.000Z</time></trkpt>
        <trkpt lat="29.7615181" lon="104.8817566"><ele>267.18</ele><time>2026-05-18T03:40:05.000Z</time></trkpt>
        <trkpt lat="29.7615834" lon="104.8816713"><ele>266.61</ele><time>2026-05-18T03:40:11.000Z</time></trkpt>
        <trkpt lat="29.7616651" lon="104.8815981"><ele>266.3</ele><time>2026-05-18T03:40:16.000Z</time></trkpt>
        <trkpt lat="29.7617424" lon="104.8815263"><ele>265.82</ele><time>2026-05-18T03:40:22.000Z</time></trkpt>
        <trkpt lat="29.7618202" lon="104.8814549"><ele>265.54</ele><time>2026-05-18T03:40:30.000Z</time></trkpt>
        <trkpt lat="29.7618904" lon="104.8813767"><ele>265.05</ele><time>2026-05-18T03:40:38.000Z</time></trkpt>
        <trkpt lat="29.7619633" lon="104.8813098"><ele>264.47</ele><time>2026-05-18T03:40:46.000Z</time></trkpt>
        <trkpt lat="29.7620363" lon="104.8812431"><ele>263.85</ele><time>2026-05-18T03:40:53.000Z</time></trkpt>
        <trkpt lat="29.7621121" lon="104.8811619"><ele>263.2</ele><time>2026-05-18T03:40:58.000Z</time></trkpt>
        <trkpt lat="29.7621817" lon="104.8810835"><ele>262.77</ele><time>2026-05-18T03:41:05.000Z</time></trkpt>
        <trkpt lat="29.7622526" lon="104.8810135"><ele>262.25</ele><time>2026-05-18T03:41:13.000Z</time></trkpt>
        <trkpt lat="29.7623258" lon="104.8809447"><ele>261.92</ele><time>2026-05-18T03:41:22.000Z</time></trkpt>
        <trkpt lat="29.7623931" lon="104.8808582"><ele>261.99</ele><time>2026-05-18T03:41:30.000Z</time></trkpt>
        <trkpt lat="29.762463" lon="104.8807741"><ele>261.87</ele><time>2026-05-18T03:41:37.000Z</time></trkpt>
        <trkpt lat="29.7625208" lon="104.8806851"><ele>261.96</ele><time>2026-05-18T03:41:45.000Z</time></trkpt>
        <trkpt lat="29.7625821" lon="104.8805984"><ele>262.08</ele><time>2026-05-18T03:41:53.000Z</time></trkpt>
        <trkpt lat="29.7626328" lon="104.8805072"><ele>262.06</ele><time>2026-05-18T03:42:00.000Z</time></trkpt>
        <trkpt lat="29.762679" lon="104.8804039"><ele>262.42</ele><time>2026-05-18T03:42:45.000Z</time></trkpt>
        <trkpt lat="29.7627364" lon="104.8803157"><ele>263.39</ele><time>2026-05-18T03:42:55.000Z</time></trkpt>
        <trkpt lat="29.7627871" lon="104.8802254"><ele>264.36</ele><time>2026-05-18T03:43:03.000Z</time></trkpt>
        <trkpt lat="29.7628012" lon="104.8801216"><ele>264.55</ele><time>2026-05-18T03:43:11.000Z</time></trkpt>
        <trkpt lat="29.7628228" lon="104.8800138"><ele>264.55</ele><time>2026-05-18T03:43:20.000Z</time></trkpt>
        <trkpt lat="29.762859" lon="104.8799119"><ele>264.68</ele><time>2026-05-18T03:43:28.000Z</time></trkpt>
        <trkpt lat="29.762909" lon="104.8798156"><ele>265.12</ele><time>2026-05-18T03:43:35.000Z</time></trkpt>
        <trkpt lat="29.7629593" lon="104.8797166"><ele>265.7</ele><time>2026-05-18T03:43:42.000Z</time></trkpt>
        <trkpt lat="29.7630154" lon="104.8796226"><ele>266.2</ele><time>2026-05-18T03:43:50.000Z</time></trkpt>
        <trkpt lat="29.7630983" lon="104.8795632"><ele>267.31</ele><time>2026-05-18T03:43:57.000Z</time></trkpt>
        <trkpt lat="29.7631932" lon="104.8795488"><ele>268.37</ele><time>2026-05-18T03:44:04.000Z</time></trkpt>
        <trkpt lat="29.7632848" lon="104.8795298"><ele>268.83</ele><time>2026-05-18T03:44:13.000Z</time></trkpt>
        <trkpt lat="29.7633601" lon="104.8794568"><ele>269.83</ele><time>2026-05-18T03:44:22.000Z</time></trkpt>
        <trkpt lat="29.7634435" lon="104.8794052"><ele>270.38</ele><time>2026-05-18T03:44:28.000Z</time></trkpt>
        <trkpt lat="29.7635131" lon="104.8793327"><ele>270.96</ele><time>2026-05-18T03:44:35.000Z</time></trkpt>
        <trkpt lat="29.7635827" lon="104.8792569"><ele>271.77</ele><time>2026-05-18T03:44:42.000Z</time></trkpt>
        <trkpt lat="29.7636507" lon="104.8791718"><ele>272.04</ele><time>2026-05-18T03:44:49.000Z</time></trkpt>
        <trkpt lat="29.7637169" lon="104.87908"><ele>271.98</ele><time>2026-05-18T03:44:56.000Z</time></trkpt>
        <trkpt lat="29.7637793" lon="104.8789981"><ele>271.95</ele><time>2026-05-18T03:45:18.000Z</time></trkpt>
        <trkpt lat="29.7637793" lon="104.8789981"><ele>271.95</ele><time>2026-05-18T03:45:51.000Z</time></trkpt>
        <trkpt lat="29.7638247" lon="104.8788977"><ele>272.34</ele><time>2026-05-18T03:45:52.000Z</time></trkpt>
        <trkpt lat="29.7638247" lon="104.8788977"><ele>272.34</ele><time>2026-05-18T03:46:24.000Z</time></trkpt>
        <trkpt lat="29.7638865" lon="104.8788093"><ele>272.11</ele><time>2026-05-18T03:46:31.000Z</time></trkpt>
        <trkpt lat="29.7639328" lon="104.8787167"><ele>271.73</ele><time>2026-05-18T03:46:37.000Z</time></trkpt>
        <trkpt lat="29.7639955" lon="104.8786246"><ele>270.92</ele><time>2026-05-18T03:46:44.000Z</time></trkpt>
        <trkpt lat="29.7640728" lon="104.8785603"><ele>270.23</ele><time>2026-05-18T03:46:50.000Z</time></trkpt>
        <trkpt lat="29.7641116" lon="104.8784639"><ele>270.01</ele><time>2026-05-18T03:46:58.000Z</time></trkpt>
        <trkpt lat="29.7641603" lon="104.8783644"><ele>270.52</ele><time>2026-05-18T03:47:05.000Z</time></trkpt>
        <trkpt lat="29.764231" lon="104.8782842"><ele>270.77</ele><time>2026-05-18T03:47:12.000Z</time></trkpt>
        <trkpt lat="29.764301" lon="104.8782126"><ele>271.11</ele><time>2026-05-18T03:47:20.000Z</time></trkpt>
        <trkpt lat="29.7643724" lon="104.8781422"><ele>271.65</ele><time>2026-05-18T03:47:28.000Z</time></trkpt>
        <trkpt lat="29.7644321" lon="104.8780614"><ele>272.26</ele><time>2026-05-18T03:47:35.000Z</time></trkpt>
        <trkpt lat="29.7644825" lon="104.8779657"><ele>273.25</ele><time>2026-05-18T03:47:42.000Z</time></trkpt>
        <trkpt lat="29.7645405" lon="104.8778821"><ele>273.45</ele><time>2026-05-18T03:47:49.000Z</time></trkpt>
        <trkpt lat="29.7646037" lon="104.8777992"><ele>273.95</ele><time>2026-05-18T03:47:56.000Z</time></trkpt>
        <trkpt lat="29.7646643" lon="104.8777144"><ele>275.12</ele><time>2026-05-18T03:48:02.000Z</time></trkpt>
        <trkpt lat="29.7647265" lon="104.8776202"><ele>275.96</ele><time>2026-05-18T03:48:10.000Z</time></trkpt>
        <trkpt lat="29.7647831" lon="104.8775334"><ele>276.63</ele><time>2026-05-18T03:48:16.000Z</time></trkpt>
        <trkpt lat="29.7648334" lon="104.8774413"><ele>277.33</ele><time>2026-05-18T03:48:23.000Z</time></trkpt>
        <trkpt lat="29.7648934" lon="104.8773499"><ele>277.65</ele><time>2026-05-18T03:48:30.000Z</time></trkpt>
        <trkpt lat="29.76495" lon="104.8772554"><ele>278.32</ele><time>2026-05-18T03:48:39.000Z</time></trkpt>
        <trkpt lat="29.7650066" lon="104.8771614"><ele>278.72</ele><time>2026-05-18T03:48:47.000Z</time></trkpt>
        <trkpt lat="29.7650789" lon="104.8770829"><ele>278.72</ele><time>2026-05-18T03:48:52.000Z</time></trkpt>
        <trkpt lat="29.7651529" lon="104.877009"><ele>278.21</ele><time>2026-05-18T03:48:59.000Z</time></trkpt>
        <trkpt lat="29.7652066" lon="104.8769204"><ele>277.54</ele><time>2026-05-18T03:49:11.000Z</time></trkpt>
        <trkpt lat="29.7652532" lon="104.8768291"><ele>277.15</ele><time>2026-05-18T03:49:18.000Z</time></trkpt>
        <trkpt lat="29.765297" lon="104.8767316"><ele>276.47</ele><time>2026-05-18T03:49:26.000Z</time></trkpt>
        <trkpt lat="29.7653429" lon="104.8766295"><ele>275.72</ele><time>2026-05-18T03:49:33.000Z</time></trkpt>
        <trkpt lat="29.7653829" lon="104.8765226"><ele>274.95</ele><time>2026-05-18T03:49:41.000Z</time></trkpt>
        <trkpt lat="29.7654418" lon="104.8764387"><ele>274.44</ele><time>2026-05-18T03:49:51.000Z</time></trkpt>
        <trkpt lat="29.7654913" lon="104.876347"><ele>274.15</ele><time>2026-05-18T03:49:58.000Z</time></trkpt>
        <trkpt lat="29.7655539" lon="104.8762382"><ele>274.14</ele><time>2026-05-18T03:50:04.000Z</time></trkpt>
        <trkpt lat="29.7656254" lon="104.8761612"><ele>273.99</ele><time>2026-05-18T03:50:11.000Z</time></trkpt>
        <trkpt lat="29.7656829" lon="104.8760773"><ele>274.09</ele><time>2026-05-18T03:50:19.000Z</time></trkpt>
        <trkpt lat="29.7657336" lon="104.8759811"><ele>274.27</ele><time>2026-05-18T03:50:27.000Z</time></trkpt>
        <trkpt lat="29.7657803" lon="104.8758872"><ele>274.12</ele><time>2026-05-18T03:50:33.000Z</time></trkpt>
        <trkpt lat="29.7658312" lon="104.875784"><ele>274.19</ele><time>2026-05-18T03:50:40.000Z</time></trkpt>
        <trkpt lat="29.7658717" lon="104.875685"><ele>274.35</ele><time>2026-05-18T03:50:46.000Z</time></trkpt>
        <trkpt lat="29.7659189" lon="104.8755883"><ele>274.45</ele><time>2026-05-18T03:50:53.000Z</time></trkpt>
        <trkpt lat="29.7659669" lon="104.875491"><ele>274.32</ele><time>2026-05-18T03:51:01.000Z</time></trkpt>
        <trkpt lat="29.7660288" lon="104.8753967"><ele>274.01</ele><time>2026-05-18T03:51:07.000Z</time></trkpt>
        <trkpt lat="29.7660811" lon="104.8753049"><ele>273.88</ele><time>2026-05-18T03:51:13.000Z</time></trkpt>
        <trkpt lat="29.7661249" lon="104.8752069"><ele>273.96</ele><time>2026-05-18T03:51:20.000Z</time></trkpt>
        <trkpt lat="29.7661741" lon="104.8751112"><ele>274.56</ele><time>2026-05-18T03:51:26.000Z</time></trkpt>
        <trkpt lat="29.7662318" lon="104.8750221"><ele>274.96</ele><time>2026-05-18T03:51:33.000Z</time></trkpt>
        <trkpt lat="29.7662789" lon="104.8749316"><ele>276.65</ele><time>2026-05-18T03:51:40.000Z</time></trkpt>
        <trkpt lat="29.7663272" lon="104.8748329"><ele>278.3</ele><time>2026-05-18T03:51:48.000Z</time></trkpt>
        <trkpt lat="29.7663765" lon="104.8747322"><ele>279.84</ele><time>2026-05-18T03:51:57.000Z</time></trkpt>
        <trkpt lat="29.7664356" lon="104.8746417"><ele>280.96</ele><time>2026-05-18T03:52:05.000Z</time></trkpt>
        <trkpt lat="29.7665011" lon="104.8745541"><ele>281.91</ele><time>2026-05-18T03:52:13.000Z</time></trkpt>
        <trkpt lat="29.7665617" lon="104.8744669"><ele>282.42</ele><time>2026-05-18T03:52:20.000Z</time></trkpt>
        <trkpt lat="29.7666103" lon="104.8743521"><ele>282.7</ele><time>2026-05-18T03:52:28.000Z</time></trkpt>
        <trkpt lat="29.7666467" lon="104.8742461"><ele>283.06</ele><time>2026-05-18T03:52:35.000Z</time></trkpt>
        <trkpt lat="29.7666887" lon="104.8741459"><ele>283.44</ele><time>2026-05-18T03:52:41.000Z</time></trkpt>
        <trkpt lat="29.7667287" lon="104.8740405"><ele>283.95</ele><time>2026-05-18T03:52:47.000Z</time></trkpt>
        <trkpt lat="29.7667872" lon="104.8739476"><ele>284.01</ele><time>2026-05-18T03:52:55.000Z</time></trkpt>
        <trkpt lat="29.7668427" lon="104.8738556"><ele>283.92</ele><time>2026-05-18T03:53:02.000Z</time></trkpt>
        <trkpt lat="29.7668887" lon="104.8737611"><ele>284.51</ele><time>2026-05-18T03:53:08.000Z</time></trkpt>
        <trkpt lat="29.7669389" lon="104.8736605"><ele>284.99</ele><time>2026-05-18T03:53:15.000Z</time></trkpt>
        <trkpt lat="29.7669823" lon="104.8735566"><ele>285.19</ele><time>2026-05-18T03:53:25.000Z</time></trkpt>
        <trkpt lat="29.7670294" lon="104.8734604"><ele>285.02</ele><time>2026-05-18T03:53:31.000Z</time></trkpt>
        <trkpt lat="29.7670816" lon="104.8733717"><ele>284.97</ele><time>2026-05-18T03:53:40.000Z</time></trkpt>
        <trkpt lat="29.7671278" lon="104.8732782"><ele>284.82</ele><time>2026-05-18T03:53:52.000Z</time></trkpt>
        <trkpt lat="29.7671821" lon="104.8731864"><ele>284.44</ele><time>2026-05-18T03:54:01.000Z</time></trkpt>
        <trkpt lat="29.7672358" lon="104.8730923"><ele>284.22</ele><time>2026-05-18T03:54:10.000Z</time></trkpt>
        <trkpt lat="29.7672803" lon="104.8729855"><ele>283.55</ele><time>2026-05-18T03:54:18.000Z</time></trkpt>
        <trkpt lat="29.7673184" lon="104.8728766"><ele>282.57</ele><time>2026-05-18T03:54:25.000Z</time></trkpt>
        <trkpt lat="29.767361" lon="104.872779"><ele>281.94</ele><time>2026-05-18T03:54:32.000Z</time></trkpt>
        <trkpt lat="29.7673919" lon="104.872674"><ele>281.68</ele><time>2026-05-18T03:54:40.000Z</time></trkpt>
        <trkpt lat="29.7674287" lon="104.8725774"><ele>281.24</ele><time>2026-05-18T03:54:46.000Z</time></trkpt>
        <trkpt lat="29.7674509" lon="104.8724683"><ele>281.01</ele><time>2026-05-18T03:54:54.000Z</time></trkpt>
        <trkpt lat="29.7674983" lon="104.8723752"><ele>280.9</ele><time>2026-05-18T03:55:02.000Z</time></trkpt>
        <trkpt lat="29.7675647" lon="104.8723035"><ele>281.38</ele><time>2026-05-18T03:55:10.000Z</time></trkpt>
        <trkpt lat="29.7676582" lon="104.8723676"><ele>281.7</ele><time>2026-05-18T03:56:51.000Z</time></trkpt>
        <trkpt lat="29.7677139" lon="104.8724613"><ele>282.85</ele><time>2026-05-18T03:57:40.000Z</time></trkpt>
        <trkpt lat="29.7677904" lon="104.872547"><ele>282.31</ele><time>2026-05-18T03:57:47.000Z</time></trkpt>
        <trkpt lat="29.7678701" lon="104.8726288"><ele>281.89</ele><time>2026-05-18T03:57:53.000Z</time></trkpt>
        <trkpt lat="29.7679524" lon="104.8726981"><ele>281.84</ele><time>2026-05-18T03:57:58.000Z</time></trkpt>
        <trkpt lat="29.7680363" lon="104.8727593"><ele>281.97</ele><time>2026-05-18T03:58:06.000Z</time></trkpt>
        <trkpt lat="29.7681234" lon="104.8728198"><ele>281.74</ele><time>2026-05-18T03:58:13.000Z</time></trkpt>
        <trkpt lat="29.7682144" lon="104.8728696"><ele>281.63</ele><time>2026-05-18T03:58:20.000Z</time></trkpt>
        <trkpt lat="29.7683084" lon="104.8729208"><ele>281.83</ele><time>2026-05-18T03:58:24.000Z</time></trkpt>
        <trkpt lat="29.7684091" lon="104.8729613"><ele>281.91</ele><time>2026-05-18T03:58:28.000Z</time></trkpt>
        <trkpt lat="29.7685022" lon="104.8729914"><ele>281.88</ele><time>2026-05-18T03:58:32.000Z</time></trkpt>
        <trkpt lat="29.768587" lon="104.8730313"><ele>282.08</ele><time>2026-05-18T03:58:37.000Z</time></trkpt>
        <trkpt lat="29.7686853" lon="104.8730667"><ele>282.12</ele><time>2026-05-18T03:58:42.000Z</time></trkpt>
        <trkpt lat="29.7687964" lon="104.873093"><ele>282.12</ele><time>2026-05-18T03:58:47.000Z</time></trkpt>
        <trkpt lat="29.7689044" lon="104.8731247"><ele>281.47</ele><time>2026-05-18T03:58:51.000Z</time></trkpt>
        <trkpt lat="29.769016" lon="104.8731614"><ele>280.66</ele><time>2026-05-18T03:58:55.000Z</time></trkpt>
        <trkpt lat="29.7691165" lon="104.8731974"><ele>279.28</ele><time>2026-05-18T03:58:59.000Z</time></trkpt>
        <trkpt lat="29.7692117" lon="104.8732029"><ele>278.25</ele><time>2026-05-18T03:59:05.000Z</time></trkpt>
        <trkpt lat="29.7692972" lon="104.873167"><ele>277.77</ele><time>2026-05-18T03:59:11.000Z</time></trkpt>
        <trkpt lat="29.7693422" lon="104.8730681"><ele>277.95</ele><time>2026-05-18T03:59:25.000Z</time></trkpt>
        <trkpt lat="29.7693595" lon="104.8729494"><ele>278.65</ele><time>2026-05-18T03:59:32.000Z</time></trkpt>
        <trkpt lat="29.7693819" lon="104.8728347"><ele>278.31</ele><time>2026-05-18T03:59:38.000Z</time></trkpt>
        <trkpt lat="29.7694214" lon="104.8727297"><ele>277.84</ele><time>2026-05-18T03:59:46.000Z</time></trkpt>
        <trkpt lat="29.7694645" lon="104.8726261"><ele>277.8</ele><time>2026-05-18T03:59:56.000Z</time></trkpt>
        <trkpt lat="29.7695154" lon="104.8725329"><ele>277.87</ele><time>2026-05-18T04:00:04.000Z</time></trkpt>
        <trkpt lat="29.7695727" lon="104.8724427"><ele>277.82</ele><time>2026-05-18T04:00:12.000Z</time></trkpt>
        <trkpt lat="29.7696252" lon="104.8723557"><ele>277.83</ele><time>2026-05-18T04:00:21.000Z</time></trkpt>
        <trkpt lat="29.769673" lon="104.8722577"><ele>277.64</ele><time>2026-05-18T04:00:28.000Z</time></trkpt>
        <trkpt lat="29.7697038" lon="104.8721482"><ele>277.39</ele><time>2026-05-18T04:00:35.000Z</time></trkpt>
        <trkpt lat="29.7697259" lon="104.8720406"><ele>277.29</ele><time>2026-05-18T04:00:41.000Z</time></trkpt>
        <trkpt lat="29.7697405" lon="104.8719265"><ele>277.13</ele><time>2026-05-18T04:00:48.000Z</time></trkpt>
        <trkpt lat="29.7697587" lon="104.8718148"><ele>277</ele><time>2026-05-18T04:00:56.000Z</time></trkpt>
        <trkpt lat="29.769777" lon="104.8717031"><ele>277.27</ele><time>2026-05-18T04:01:05.000Z</time></trkpt>
        <trkpt lat="29.7698109" lon="104.8716016"><ele>277.6</ele><time>2026-05-18T04:01:13.000Z</time></trkpt>
        <trkpt lat="29.7698381" lon="104.8714961"><ele>277.82</ele><time>2026-05-18T04:01:21.000Z</time></trkpt>
        <trkpt lat="29.7698631" lon="104.8713859"><ele>278.02</ele><time>2026-05-18T04:01:30.000Z</time></trkpt>
        <trkpt lat="29.7698906" lon="104.8712772"><ele>278.03</ele><time>2026-05-18T04:01:37.000Z</time></trkpt>
        <trkpt lat="29.7699172" lon="104.8711584"><ele>277.7</ele><time>2026-05-18T04:01:46.000Z</time></trkpt>
        <trkpt lat="29.7699418" lon="104.8710525"><ele>277.37</ele><time>2026-05-18T04:01:55.000Z</time></trkpt>
        <trkpt lat="29.7699662" lon="104.8709383"><ele>277.39</ele><time>2026-05-18T04:02:04.000Z</time></trkpt>
        <trkpt lat="29.7699956" lon="104.8708293"><ele>277.67</ele><time>2026-05-18T04:02:12.000Z</time></trkpt>
        <trkpt lat="29.7700236" lon="104.8707224"><ele>277.66</ele><time>2026-05-18T04:02:21.000Z</time></trkpt>
        <trkpt lat="29.7700511" lon="104.8706193"><ele>277.78</ele><time>2026-05-18T04:02:29.000Z</time></trkpt>
        <trkpt lat="29.7700776" lon="104.8705135"><ele>277.98</ele><time>2026-05-18T04:02:36.000Z</time></trkpt>
        <trkpt lat="29.7700842" lon="104.8704077"><ele>278.16</ele><time>2026-05-18T04:02:44.000Z</time></trkpt>
        <trkpt lat="29.7701121" lon="104.8703054"><ele>278.1</ele><time>2026-05-18T04:02:52.000Z</time></trkpt>
        <trkpt lat="29.7701471" lon="104.870202"><ele>277.92</ele><time>2026-05-18T04:02:59.000Z</time></trkpt>
        <trkpt lat="29.7701866" lon="104.8701059"><ele>277.28</ele><time>2026-05-18T04:03:04.000Z</time></trkpt>
        <trkpt lat="29.770204" lon="104.8699991"><ele>276.82</ele><time>2026-05-18T04:03:11.000Z</time></trkpt>
        <trkpt lat="29.7702312" lon="104.869897"><ele>275.99</ele><time>2026-05-18T04:03:21.000Z</time></trkpt>
        <trkpt lat="29.7702312" lon="104.869897"><ele>275.99</ele><time>2026-05-18T04:03:53.000Z</time></trkpt>
        <trkpt lat="29.7702591" lon="104.8697901"><ele>274.86</ele><time>2026-05-18T04:04:00.000Z</time></trkpt>
        <trkpt lat="29.7702591" lon="104.8697901"><ele>274.86</ele><time>2026-05-18T04:04:11.000Z</time></trkpt>
        <trkpt lat="29.7702591" lon="104.869678"><ele>273.47</ele><time>2026-05-18T04:04:20.000Z</time></trkpt>
        <trkpt lat="29.7702591" lon="104.869678"><ele>273.47</ele><time>2026-05-18T04:04:51.000Z</time></trkpt>
        <trkpt lat="29.7702326" lon="104.8695733"><ele>272.11</ele><time>2026-05-18T04:04:56.000Z</time></trkpt>
        <trkpt lat="29.7702326" lon="104.8695733"><ele>272.11</ele><time>2026-05-18T04:05:10.000Z</time></trkpt>
        <trkpt lat="29.7702668" lon="104.8694722"><ele>271.23</ele><time>2026-05-18T04:05:30.000Z</time></trkpt>
        <trkpt lat="29.7703212" lon="104.8693702"><ele>271.28</ele><time>2026-05-18T04:05:34.000Z</time></trkpt>
        <trkpt lat="29.7703659" lon="104.869263"><ele>270.9</ele><time>2026-05-18T04:05:38.000Z</time></trkpt>
        <trkpt lat="29.7704086" lon="104.8691593"><ele>270.4</ele><time>2026-05-18T04:05:42.000Z</time></trkpt>
        <trkpt lat="29.770436" lon="104.8690442"><ele>270.3</ele><time>2026-05-18T04:05:47.000Z</time></trkpt>
        <trkpt lat="29.7704523" lon="104.8689294"><ele>270.76</ele><time>2026-05-18T04:05:52.000Z</time></trkpt>
        <trkpt lat="29.7704755" lon="104.8688183"><ele>271.16</ele><time>2026-05-18T04:05:56.000Z</time></trkpt>
        <trkpt lat="29.7704976" lon="104.8687014"><ele>271.27</ele><time>2026-05-18T04:06:01.000Z</time></trkpt>
        <trkpt lat="29.7705218" lon="104.8685888"><ele>271.29</ele><time>2026-05-18T04:06:05.000Z</time></trkpt>
        <trkpt lat="29.7705423" lon="104.8684662"><ele>271.13</ele><time>2026-05-18T04:06:10.000Z</time></trkpt>
        <trkpt lat="29.7705601" lon="104.8683574"><ele>270.9</ele><time>2026-05-18T04:06:14.000Z</time></trkpt>
        <trkpt lat="29.7705781" lon="104.8682463"><ele>270.89</ele><time>2026-05-18T04:06:21.000Z</time></trkpt>
        <trkpt lat="29.7706174" lon="104.8681419"><ele>271.48</ele><time>2026-05-18T04:06:28.000Z</time></trkpt>
        <trkpt lat="29.7706518" lon="104.8680397"><ele>272.32</ele><time>2026-05-18T04:06:35.000Z</time></trkpt>
        <trkpt lat="29.770686" lon="104.8679383"><ele>273.25</ele><time>2026-05-18T04:06:43.000Z</time></trkpt>
        <trkpt lat="29.7707171" lon="104.8678336"><ele>273.69</ele><time>2026-05-18T04:06:50.000Z</time></trkpt>
        <trkpt lat="29.7707501" lon="104.8677354"><ele>274.31</ele><time>2026-05-18T04:06:57.000Z</time></trkpt>
        <trkpt lat="29.7707734" lon="104.8676276"><ele>274.78</ele><time>2026-05-18T04:07:03.000Z</time></trkpt>
        <trkpt lat="29.7707912" lon="104.8675053"><ele>275.24</ele><time>2026-05-18T04:07:10.000Z</time></trkpt>
        <trkpt lat="29.7708071" lon="104.8673908"><ele>275.63</ele><time>2026-05-18T04:07:17.000Z</time></trkpt>
        <trkpt lat="29.7708234" lon="104.867277"><ele>276.26</ele><time>2026-05-18T04:07:24.000Z</time></trkpt>
        <trkpt lat="29.7708505" lon="104.8671744"><ele>276.78</ele><time>2026-05-18T04:07:30.000Z</time></trkpt>
        <trkpt lat="29.7708837" lon="104.8670739"><ele>277.25</ele><time>2026-05-18T04:07:39.000Z</time></trkpt>
        <trkpt lat="29.7709131" lon="104.8669618"><ele>277.57</ele><time>2026-05-18T04:07:47.000Z</time></trkpt>
        <trkpt lat="29.7709473" lon="104.8668521"><ele>277.86</ele><time>2026-05-18T04:07:53.000Z</time></trkpt>
        <trkpt lat="29.7709856" lon="104.866747"><ele>277.51</ele><time>2026-05-18T04:07:56.000Z</time></trkpt>
        <trkpt lat="29.7710135" lon="104.8666326"><ele>277.01</ele><time>2026-05-18T04:08:00.000Z</time></trkpt>
        <trkpt lat="29.7710426" lon="104.8665187"><ele>276.4</ele><time>2026-05-18T04:08:04.000Z</time></trkpt>
        <trkpt lat="29.771077" lon="104.8664062"><ele>275.64</ele><time>2026-05-18T04:08:09.000Z</time></trkpt>
        <trkpt lat="29.7711129" lon="104.8662961"><ele>275.11</ele><time>2026-05-18T04:08:17.000Z</time></trkpt>
        <trkpt lat="29.7711521" lon="104.8661969"><ele>275.3</ele><time>2026-05-18T04:08:23.000Z</time></trkpt>
        <trkpt lat="29.7711884" lon="104.866084"><ele>275.72</ele><time>2026-05-18T04:08:27.000Z</time></trkpt>
        <trkpt lat="29.7712203" lon="104.8659815"><ele>276.03</ele><time>2026-05-18T04:08:30.000Z</time></trkpt>
        <trkpt lat="29.771259" lon="104.8658603"><ele>276.36</ele><time>2026-05-18T04:08:34.000Z</time></trkpt>
        <trkpt lat="29.7712961" lon="104.8657338"><ele>276.47</ele><time>2026-05-18T04:08:38.000Z</time></trkpt>
        <trkpt lat="29.7713413" lon="104.8656084"><ele>276.4</ele><time>2026-05-18T04:08:42.000Z</time></trkpt>
        <trkpt lat="29.7713819" lon="104.8655059"><ele>276.2</ele><time>2026-05-18T04:08:45.000Z</time></trkpt>
        <trkpt lat="29.7714271" lon="104.8653899"><ele>276.08</ele><time>2026-05-18T04:08:49.000Z</time></trkpt>
        <trkpt lat="29.7714533" lon="104.8652712"><ele>276</ele><time>2026-05-18T04:08:53.000Z</time></trkpt>
        <trkpt lat="29.7714839" lon="104.8651253"><ele>275.88</ele><time>2026-05-18T04:08:58.000Z</time></trkpt>
        <trkpt lat="29.7715155" lon="104.8649936"><ele>275.87</ele><time>2026-05-18T04:09:02.000Z</time></trkpt>
        <trkpt lat="29.7715472" lon="104.8648723"><ele>275.64</ele><time>2026-05-18T04:09:06.000Z</time></trkpt>
        <trkpt lat="29.7715738" lon="104.8647505"><ele>275.31</ele><time>2026-05-18T04:09:10.000Z</time></trkpt>
        <trkpt lat="29.7715875" lon="104.8646383"><ele>275.11</ele><time>2026-05-18T04:09:14.000Z</time></trkpt>
        <trkpt lat="29.7716185" lon="104.8645366"><ele>274.96</ele><time>2026-05-18T04:09:18.000Z</time></trkpt>
        <trkpt lat="29.77166" lon="104.8644371"><ele>274.55</ele><time>2026-05-18T04:09:22.000Z</time></trkpt>
        <trkpt lat="29.7716945" lon="104.864328"><ele>274.25</ele><time>2026-05-18T04:09:27.000Z</time></trkpt>
        <trkpt lat="29.7717282" lon="104.8642229"><ele>273.95</ele><time>2026-05-18T04:09:31.000Z</time></trkpt>
        <trkpt lat="29.7717713" lon="104.864111"><ele>273.84</ele><time>2026-05-18T04:09:36.000Z</time></trkpt>
        <trkpt lat="29.7718171" lon="104.8639952"><ele>273.81</ele><time>2026-05-18T04:09:41.000Z</time></trkpt>
        <trkpt lat="29.7718602" lon="104.863888"><ele>274.02</ele><time>2026-05-18T04:09:47.000Z</time></trkpt>
        <trkpt lat="29.7718849" lon="104.8637785"><ele>274.28</ele><time>2026-05-18T04:09:54.000Z</time></trkpt>
        <trkpt lat="29.7719148" lon="104.8636795"><ele>274.39</ele><time>2026-05-18T04:10:03.000Z</time></trkpt>
        <trkpt lat="29.7719511" lon="104.8635808"><ele>274.69</ele><time>2026-05-18T04:10:11.000Z</time></trkpt>
        <trkpt lat="29.7719882" lon="104.8634744"><ele>274.25</ele><time>2026-05-18T04:10:17.000Z</time></trkpt>
        <trkpt lat="29.7720157" lon="104.8633574"><ele>274.04</ele><time>2026-05-18T04:10:22.000Z</time></trkpt>
        <trkpt lat="29.7720371" lon="104.8632499"><ele>274.27</ele><time>2026-05-18T04:10:26.000Z</time></trkpt>
        <trkpt lat="29.772071" lon="104.863141"><ele>274.73</ele><time>2026-05-18T04:10:30.000Z</time></trkpt>
        <trkpt lat="29.7721073" lon="104.8630333"><ele>274.76</ele><time>2026-05-18T04:10:37.000Z</time></trkpt>
        <trkpt lat="29.7721333" lon="104.8629245"><ele>274.76</ele><time>2026-05-18T04:10:44.000Z</time></trkpt>
        <trkpt lat="29.7721744" lon="104.862819"><ele>275</ele><time>2026-05-18T04:10:51.000Z</time></trkpt>
        <trkpt lat="29.7722182" lon="104.8627182"><ele>275.79</ele><time>2026-05-18T04:10:58.000Z</time></trkpt>
        <trkpt lat="29.7722672" lon="104.8626222"><ele>276.47</ele><time>2026-05-18T04:11:05.000Z</time></trkpt>
        <trkpt lat="29.7723059" lon="104.8625182"><ele>276.84</ele><time>2026-05-18T04:11:12.000Z</time></trkpt>
        <trkpt lat="29.7723335" lon="104.8624139"><ele>276.82</ele><time>2026-05-18T04:11:19.000Z</time></trkpt>
        <trkpt lat="29.7723756" lon="104.862311"><ele>277.04</ele><time>2026-05-18T04:11:27.000Z</time></trkpt>
        <trkpt lat="29.7724022" lon="104.8622093"><ele>277.31</ele><time>2026-05-18T04:11:33.000Z</time></trkpt>
        <trkpt lat="29.7724237" lon="104.8620953"><ele>277.64</ele><time>2026-05-18T04:11:40.000Z</time></trkpt>
        <trkpt lat="29.7724369" lon="104.8619875"><ele>278.03</ele><time>2026-05-18T04:11:48.000Z</time></trkpt>
        <trkpt lat="29.7724576" lon="104.8618802"><ele>278.1</ele><time>2026-05-18T04:11:54.000Z</time></trkpt>
        <trkpt lat="29.7724943" lon="104.86178"><ele>278.27</ele><time>2026-05-18T04:12:02.000Z</time></trkpt>
        <trkpt lat="29.7725291" lon="104.8616813"><ele>278.14</ele><time>2026-05-18T04:12:13.000Z</time></trkpt>
        <trkpt lat="29.7725532" lon="104.8615725"><ele>277.85</ele><time>2026-05-18T04:12:21.000Z</time></trkpt>
        <trkpt lat="29.7725876" lon="104.8614688"><ele>277.54</ele><time>2026-05-18T04:12:28.000Z</time></trkpt>
        <trkpt lat="29.7726184" lon="104.8613615"><ele>277.22</ele><time>2026-05-18T04:12:36.000Z</time></trkpt>
        <trkpt lat="29.7726501" lon="104.8612573"><ele>277.31</ele><time>2026-05-18T04:12:44.000Z</time></trkpt>
        <trkpt lat="29.7726897" lon="104.8611532"><ele>277.37</ele><time>2026-05-18T04:12:52.000Z</time></trkpt>
        <trkpt lat="29.7727168" lon="104.8610481"><ele>277.25</ele><time>2026-05-18T04:13:00.000Z</time></trkpt>
        <trkpt lat="29.772743" lon="104.8609455"><ele>277.7</ele><time>2026-05-18T04:13:08.000Z</time></trkpt>
        <trkpt lat="29.7727694" lon="104.8608407"><ele>278.23</ele><time>2026-05-18T04:13:16.000Z</time></trkpt>
        <trkpt lat="29.7728126" lon="104.8607426"><ele>278.92</ele><time>2026-05-18T04:13:24.000Z</time></trkpt>
        <trkpt lat="29.7728512" lon="104.8606391"><ele>279.28</ele><time>2026-05-18T04:13:32.000Z</time></trkpt>
        <trkpt lat="29.7728792" lon="104.8605345"><ele>279.33</ele><time>2026-05-18T04:13:41.000Z</time></trkpt>
        <trkpt lat="29.7729067" lon="104.8604326"><ele>279.78</ele><time>2026-05-18T04:13:48.000Z</time></trkpt>
        <trkpt lat="29.7729319" lon="104.8603242"><ele>280.01</ele><time>2026-05-18T04:13:56.000Z</time></trkpt>
        <trkpt lat="29.7729541" lon="104.8602132"><ele>280.04</ele><time>2026-05-18T04:14:04.000Z</time></trkpt>
        <trkpt lat="29.7729616" lon="104.860107"><ele>279.64</ele><time>2026-05-18T04:14:11.000Z</time></trkpt>
        <trkpt lat="29.7730034" lon="104.8600141"><ele>279.13</ele><time>2026-05-18T04:14:18.000Z</time></trkpt>
        <trkpt lat="29.7730484" lon="104.8599226"><ele>278.83</ele><time>2026-05-18T04:14:24.000Z</time></trkpt>
        <trkpt lat="29.7730918" lon="104.859819"><ele>278.69</ele><time>2026-05-18T04:14:31.000Z</time></trkpt>
        <trkpt lat="29.773131" lon="104.8597079"><ele>278.79</ele><time>2026-05-18T04:14:40.000Z</time></trkpt>
        <trkpt lat="29.773171" lon="104.8596062"><ele>278.47</ele><time>2026-05-18T04:15:03.000Z</time></trkpt>
        <trkpt lat="29.7731881" lon="104.8595028"><ele>277.65</ele><time>2026-05-18T04:15:10.000Z</time></trkpt>
        <trkpt lat="29.7731998" lon="104.8593929"><ele>276.93</ele><time>2026-05-18T04:15:18.000Z</time></trkpt>
        <trkpt lat="29.7732294" lon="104.8592921"><ele>276.17</ele><time>2026-05-18T04:15:24.000Z</time></trkpt>
        <trkpt lat="29.7732428" lon="104.8591875"><ele>275.64</ele><time>2026-05-18T04:15:30.000Z</time></trkpt>
        <trkpt lat="29.7732647" lon="104.8590786"><ele>275.28</ele><time>2026-05-18T04:15:37.000Z</time></trkpt>
        <trkpt lat="29.7732647" lon="104.8590786"><ele>275.28</ele><time>2026-05-18T04:16:03.000Z</time></trkpt>
        <trkpt lat="29.7732962" lon="104.8589763"><ele>274.54</ele><time>2026-05-18T04:16:08.000Z</time></trkpt>
        <trkpt lat="29.7732962" lon="104.8589763"><ele>274.54</ele><time>2026-05-18T04:16:21.000Z</time></trkpt>
        <trkpt lat="29.7733351" lon="104.8588709"><ele>275.36</ele><time>2026-05-18T04:16:31.000Z</time></trkpt>
        <trkpt lat="29.7733428" lon="104.8587632"><ele>275.9</ele><time>2026-05-18T04:16:50.000Z</time></trkpt>
        <trkpt lat="29.7733553" lon="104.8586543"><ele>276.41</ele><time>2026-05-18T04:16:58.000Z</time></trkpt>
        <trkpt lat="29.7733743" lon="104.8585508"><ele>276.54</ele><time>2026-05-18T04:17:06.000Z</time></trkpt>
        <trkpt lat="29.7734329" lon="104.8584745"><ele>275.85</ele><time>2026-05-18T04:17:26.000Z</time></trkpt>
        <trkpt lat="29.7735212" lon="104.8584592"><ele>275.6</ele><time>2026-05-18T04:17:48.000Z</time></trkpt>
        <trkpt lat="29.773616" lon="104.8584872"><ele>275.1</ele><time>2026-05-18T04:18:01.000Z</time></trkpt>
        <trkpt lat="29.7737018" lon="104.8585487"><ele>274.29</ele><time>2026-05-18T04:18:10.000Z</time></trkpt>
        <trkpt lat="29.7737493" lon="104.8586535"><ele>273.79</ele><time>2026-05-18T04:18:18.000Z</time></trkpt>
        <trkpt lat="29.7737523" lon="104.8587688"><ele>273.27</ele><time>2026-05-18T04:18:35.000Z</time></trkpt>
        <trkpt lat="29.7737523" lon="104.8587688"><ele>273.27</ele><time>2026-05-18T04:19:47.000Z</time></trkpt>
        <trkpt lat="29.7736984" lon="104.8586805"><ele>272.28</ele><time>2026-05-18T04:20:02.000Z</time></trkpt>
        <trkpt lat="29.7736984" lon="104.8586805"><ele>272.28</ele><time>2026-05-18T04:20:22.000Z</time></trkpt>
        <trkpt lat="29.7737242" lon="104.8585761"><ele>270.76</ele><time>2026-05-18T04:20:29.000Z</time></trkpt>
        <trkpt lat="29.773745" lon="104.8584703"><ele>269.84</ele><time>2026-05-18T04:20:37.000Z</time></trkpt>
        <trkpt lat="29.7737584" lon="104.858356"><ele>269.12</ele><time>2026-05-18T04:20:44.000Z</time></trkpt>
        <trkpt lat="29.7737559" lon="104.8582414"><ele>268.77</ele><time>2026-05-18T04:21:07.000Z</time></trkpt>
        <trkpt lat="29.7737611" lon="104.8581242"><ele>268.91</ele><time>2026-05-18T04:21:24.000Z</time></trkpt>
        <trkpt lat="29.7737592" lon="104.8580016"><ele>268.5</ele><time>2026-05-18T04:21:30.000Z</time></trkpt>
        <trkpt lat="29.7737559" lon="104.8578863"><ele>268.09</ele><time>2026-05-18T04:21:37.000Z</time></trkpt>
        <trkpt lat="29.7737495" lon="104.8577793"><ele>268.11</ele><time>2026-05-18T04:21:44.000Z</time></trkpt>
        <trkpt lat="29.7737457" lon="104.8576601"><ele>268.11</ele><time>2026-05-18T04:21:52.000Z</time></trkpt>
        <trkpt lat="29.7737448" lon="104.8575429"><ele>268.49</ele><time>2026-05-18T04:22:01.000Z</time></trkpt>
        <trkpt lat="29.7737408" lon="104.857426"><ele>268.82</ele><time>2026-05-18T04:22:10.000Z</time></trkpt>
        <trkpt lat="29.7737384" lon="104.8573178"><ele>269.1</ele><time>2026-05-18T04:22:19.000Z</time></trkpt>
        <trkpt lat="29.7737299" lon="104.8572108"><ele>269.32</ele><time>2026-05-18T04:22:28.000Z</time></trkpt>
        <trkpt lat="29.7737284" lon="104.8571014"><ele>269.46</ele><time>2026-05-18T04:22:37.000Z</time></trkpt>
        <trkpt lat="29.7737271" lon="104.8569813"><ele>270.21</ele><time>2026-05-18T04:22:46.000Z</time></trkpt>
        <trkpt lat="29.77372" lon="104.8568703"><ele>270.97</ele><time>2026-05-18T04:22:53.000Z</time></trkpt>
        <trkpt lat="29.7737199" lon="104.8567647"><ele>271.39</ele><time>2026-05-18T04:23:01.000Z</time></trkpt>
        <trkpt lat="29.7737179" lon="104.8566603"><ele>271.9</ele><time>2026-05-18T04:23:09.000Z</time></trkpt>
        <trkpt lat="29.7737274" lon="104.8565388"><ele>272.28</ele><time>2026-05-18T04:23:22.000Z</time></trkpt>
        <trkpt lat="29.7737152" lon="104.8564276"><ele>272.2</ele><time>2026-05-18T04:23:30.000Z</time></trkpt>
        <trkpt lat="29.7737159" lon="104.856316"><ele>272.05</ele><time>2026-05-18T04:23:38.000Z</time></trkpt>
        <trkpt lat="29.7737013" lon="104.8562109"><ele>271.81</ele><time>2026-05-18T04:23:48.000Z</time></trkpt>
        <trkpt lat="29.7736938" lon="104.8561042"><ele>271.84</ele><time>2026-05-18T04:23:55.000Z</time></trkpt>
        <trkpt lat="29.7736872" lon="104.8559929"><ele>271.7</ele><time>2026-05-18T04:24:05.000Z</time></trkpt>
        <trkpt lat="29.7736937" lon="104.8558827"><ele>271.6</ele><time>2026-05-18T04:24:14.000Z</time></trkpt>
        <trkpt lat="29.7736852" lon="104.8557746"><ele>271.44</ele><time>2026-05-18T04:24:24.000Z</time></trkpt>
        <trkpt lat="29.7736903" lon="104.8556628"><ele>271.58</ele><time>2026-05-18T04:24:33.000Z</time></trkpt>
        <trkpt lat="29.7736868" lon="104.8555563"><ele>271.44</ele><time>2026-05-18T04:24:41.000Z</time></trkpt>
        <trkpt lat="29.7736805" lon="104.8554519"><ele>271.38</ele><time>2026-05-18T04:24:54.000Z</time></trkpt>
        <trkpt lat="29.7736894" lon="104.8553435"><ele>271.31</ele><time>2026-05-18T04:25:13.000Z</time></trkpt>
        <trkpt lat="29.7736979" lon="104.8552327"><ele>270.93</ele><time>2026-05-18T04:25:21.000Z</time></trkpt>
        <trkpt lat="29.7736901" lon="104.8551201"><ele>270.5</ele><time>2026-05-18T04:25:30.000Z</time></trkpt>
        <trkpt lat="29.7736931" lon="104.8550073"><ele>270.57</ele><time>2026-05-18T04:25:39.000Z</time></trkpt>
        <trkpt lat="29.7736891" lon="104.8548991"><ele>271.16</ele><time>2026-05-18T04:25:47.000Z</time></trkpt>
        <trkpt lat="29.7736897" lon="104.8547875"><ele>271.7</ele><time>2026-05-18T04:25:56.000Z</time></trkpt>
        <trkpt lat="29.7736882" lon="104.8546805"><ele>272.04</ele><time>2026-05-18T04:26:03.000Z</time></trkpt>
        <trkpt lat="29.7736877" lon="104.8545714"><ele>272.11</ele><time>2026-05-18T04:26:11.000Z</time></trkpt>
        <trkpt lat="29.7736827" lon="104.854458"><ele>271.97</ele><time>2026-05-18T04:26:19.000Z</time></trkpt>
        <trkpt lat="29.773681" lon="104.8543425"><ele>271.62</ele><time>2026-05-18T04:26:27.000Z</time></trkpt>
        <trkpt lat="29.7736769" lon="104.8542312"><ele>271.64</ele><time>2026-05-18T04:26:38.000Z</time></trkpt>
        <trkpt lat="29.7736731" lon="104.8541144"><ele>271.77</ele><time>2026-05-18T04:26:58.000Z</time></trkpt>
        <trkpt lat="29.7736662" lon="104.8540021"><ele>272.07</ele><time>2026-05-18T04:27:08.000Z</time></trkpt>
        <trkpt lat="29.7736767" lon="104.8538936"><ele>272.04</ele><time>2026-05-18T04:27:19.000Z</time></trkpt>
        <trkpt lat="29.7736808" lon="104.8537826"><ele>271.35</ele><time>2026-05-18T04:27:29.000Z</time></trkpt>
        <trkpt lat="29.7736742" lon="104.8536777"><ele>270.56</ele><time>2026-05-18T04:27:37.000Z</time></trkpt>
        <trkpt lat="29.7736598" lon="104.8535674"><ele>269.94</ele><time>2026-05-18T04:27:45.000Z</time></trkpt>
        <trkpt lat="29.7736582" lon="104.8534533"><ele>269.73</ele><time>2026-05-18T04:27:53.000Z</time></trkpt>
        <trkpt lat="29.7736594" lon="104.853337"><ele>268.99</ele><time>2026-05-18T04:28:00.000Z</time></trkpt>
        <trkpt lat="29.7736663" lon="104.8532286"><ele>267.87</ele><time>2026-05-18T04:28:06.000Z</time></trkpt>
        <trkpt lat="29.7736642" lon="104.8531167"><ele>266.56</ele><time>2026-05-18T04:28:14.000Z</time></trkpt>
        <trkpt lat="29.773669" lon="104.8530035"><ele>266.08</ele><time>2026-05-18T04:28:22.000Z</time></trkpt>
        <trkpt lat="29.7736642" lon="104.852887"><ele>265.32</ele><time>2026-05-18T04:28:29.000Z</time></trkpt>
        <trkpt lat="29.7736605" lon="104.8527783"><ele>264.56</ele><time>2026-05-18T04:28:35.000Z</time></trkpt>
        <trkpt lat="29.7736592" lon="104.8526733"><ele>263.91</ele><time>2026-05-18T04:28:42.000Z</time></trkpt>
        <trkpt lat="29.7736608" lon="104.8525603"><ele>263.65</ele><time>2026-05-18T04:28:50.000Z</time></trkpt>
        <trkpt lat="29.7736505" lon="104.8524491"><ele>263.17</ele><time>2026-05-18T04:28:57.000Z</time></trkpt>
        <trkpt lat="29.7736477" lon="104.8523327"><ele>262.92</ele><time>2026-05-18T04:29:04.000Z</time></trkpt>
        <trkpt lat="29.7736398" lon="104.8522201"><ele>262.58</ele><time>2026-05-18T04:29:11.000Z</time></trkpt>
        <trkpt lat="29.7736326" lon="104.8521065"><ele>262.62</ele><time>2026-05-18T04:29:19.000Z</time></trkpt>
        <trkpt lat="29.7736209" lon="104.8519864"><ele>263.43</ele><time>2026-05-18T04:29:27.000Z</time></trkpt>
        <trkpt lat="29.7736258" lon="104.8518749"><ele>263.68</ele><time>2026-05-18T04:29:33.000Z</time></trkpt>
        <trkpt lat="29.7736286" lon="104.8517653"><ele>263.86</ele><time>2026-05-18T04:29:40.000Z</time></trkpt>
        <trkpt lat="29.7736399" lon="104.8516489"><ele>264.13</ele><time>2026-05-18T04:29:47.000Z</time></trkpt>
        <trkpt lat="29.7736449" lon="104.8515397"><ele>264.96</ele><time>2026-05-18T04:29:53.000Z</time></trkpt>
        <trkpt lat="29.7736521" lon="104.8514308"><ele>265.59</ele><time>2026-05-18T04:30:00.000Z</time></trkpt>
        <trkpt lat="29.773662" lon="104.8513234"><ele>265.92</ele><time>2026-05-18T04:30:07.000Z</time></trkpt>
        <trkpt lat="29.7736797" lon="104.8512175"><ele>265.69</ele><time>2026-05-18T04:30:14.000Z</time></trkpt>
        <trkpt lat="29.7736926" lon="104.8511094"><ele>265.33</ele><time>2026-05-18T04:30:21.000Z</time></trkpt>
        <trkpt lat="29.7737111" lon="104.8510011"><ele>265.25</ele><time>2026-05-18T04:30:28.000Z</time></trkpt>
        <trkpt lat="29.7737256" lon="104.8508932"><ele>265.52</ele><time>2026-05-18T04:30:35.000Z</time></trkpt>
        <trkpt lat="29.7737277" lon="104.850788"><ele>265.62</ele><time>2026-05-18T04:30:41.000Z</time></trkpt>
        <trkpt lat="29.7737417" lon="104.8506758"><ele>265.69</ele><time>2026-05-18T04:30:48.000Z</time></trkpt>
        <trkpt lat="29.773754" lon="104.8505605"><ele>265.52</ele><time>2026-05-18T04:30:55.000Z</time></trkpt>
        <trkpt lat="29.7737776" lon="104.850449"><ele>265.95</ele><time>2026-05-18T04:31:03.000Z</time></trkpt>
        <trkpt lat="29.7738002" lon="104.8503304"><ele>266.54</ele><time>2026-05-18T04:31:10.000Z</time></trkpt>
        <trkpt lat="29.7738072" lon="104.8502199"><ele>266.81</ele><time>2026-05-18T04:31:17.000Z</time></trkpt>
        <trkpt lat="29.7738147" lon="104.8501155"><ele>266.9</ele><time>2026-05-18T04:31:23.000Z</time></trkpt>
        <trkpt lat="29.7738412" lon="104.8500096"><ele>267.54</ele><time>2026-05-18T04:31:30.000Z</time></trkpt>
        <trkpt lat="29.7738522" lon="104.8498967"><ele>267.73</ele><time>2026-05-18T04:31:38.000Z</time></trkpt>
        <trkpt lat="29.7738821" lon="104.8497766"><ele>267.44</ele><time>2026-05-18T04:31:46.000Z</time></trkpt>
        <trkpt lat="29.7739135" lon="104.8496702"><ele>266.82</ele><time>2026-05-18T04:31:52.000Z</time></trkpt>
        <trkpt lat="29.7739356" lon="104.8495615"><ele>266.51</ele><time>2026-05-18T04:32:00.000Z</time></trkpt>
        <trkpt lat="29.7739739" lon="104.8494597"><ele>266.23</ele><time>2026-05-18T04:32:54.000Z</time></trkpt>
        <trkpt lat="29.7740019" lon="104.8493599"><ele>265.84</ele><time>2026-05-18T04:33:00.000Z</time></trkpt>
        <trkpt lat="29.7740216" lon="104.8492503"><ele>265.63</ele><time>2026-05-18T04:33:07.000Z</time></trkpt>
        <trkpt lat="29.7740506" lon="104.8491331"><ele>265.48</ele><time>2026-05-18T04:33:16.000Z</time></trkpt>
        <trkpt lat="29.7740703" lon="104.8490172"><ele>265.21</ele><time>2026-05-18T04:33:24.000Z</time></trkpt>
        <trkpt lat="29.7741016" lon="104.8489143"><ele>264.92</ele><time>2026-05-18T04:33:30.000Z</time></trkpt>
        <trkpt lat="29.7741344" lon="104.8488144"><ele>264.67</ele><time>2026-05-18T04:33:36.000Z</time></trkpt>
        <trkpt lat="29.7741575" lon="104.848702"><ele>264.71</ele><time>2026-05-18T04:33:43.000Z</time></trkpt>
        <trkpt lat="29.7741745" lon="104.8485879"><ele>264.88</ele><time>2026-05-18T04:33:50.000Z</time></trkpt>
        <trkpt lat="29.7742028" lon="104.8484768"><ele>265.03</ele><time>2026-05-18T04:33:57.000Z</time></trkpt>
        <trkpt lat="29.7742512" lon="104.8483801"><ele>264.86</ele><time>2026-05-18T04:34:04.000Z</time></trkpt>
        <trkpt lat="29.7742888" lon="104.8482774"><ele>265.12</ele><time>2026-05-18T04:34:12.000Z</time></trkpt>
        <trkpt lat="29.7743279" lon="104.8481773"><ele>265.37</ele><time>2026-05-18T04:34:19.000Z</time></trkpt>
        <trkpt lat="29.7743749" lon="104.8480588"><ele>265.68</ele><time>2026-05-18T04:34:28.000Z</time></trkpt>
        <trkpt lat="29.7744175" lon="104.8479483"><ele>265.69</ele><time>2026-05-18T04:34:35.000Z</time></trkpt>
        <trkpt lat="29.7744598" lon="104.8478399"><ele>265.79</ele><time>2026-05-18T04:34:42.000Z</time></trkpt>
        <trkpt lat="29.7745034" lon="104.8477409"><ele>265.82</ele><time>2026-05-18T04:34:48.000Z</time></trkpt>
        <trkpt lat="29.7745567" lon="104.8476418"><ele>265.78</ele><time>2026-05-18T04:34:55.000Z</time></trkpt>
        <trkpt lat="29.7746038" lon="104.8475494"><ele>265.92</ele><time>2026-05-18T04:35:02.000Z</time></trkpt>
        <trkpt lat="29.7746575" lon="104.8474536"><ele>265.61</ele><time>2026-05-18T04:35:09.000Z</time></trkpt>
        <trkpt lat="29.7747157" lon="104.8473601"><ele>265.51</ele><time>2026-05-18T04:35:16.000Z</time></trkpt>
        <trkpt lat="29.7747645" lon="104.8472606"><ele>265.6</ele><time>2026-05-18T04:35:24.000Z</time></trkpt>
        <trkpt lat="29.7748218" lon="104.8471611"><ele>265.94</ele><time>2026-05-18T04:35:31.000Z</time></trkpt>
        <trkpt lat="29.7748823" lon="104.847063"><ele>265.42</ele><time>2026-05-18T04:35:38.000Z</time></trkpt>
        <trkpt lat="29.7749246" lon="104.8469637"><ele>264.96</ele><time>2026-05-18T04:35:45.000Z</time></trkpt>
        <trkpt lat="29.7749831" lon="104.8468772"><ele>264.52</ele><time>2026-05-18T04:35:52.000Z</time></trkpt>
        <trkpt lat="29.7750286" lon="104.8467763"><ele>264.6</ele><time>2026-05-18T04:35:59.000Z</time></trkpt>
        <trkpt lat="29.7750879" lon="104.8466906"><ele>264.66</ele><time>2026-05-18T04:36:05.000Z</time></trkpt>
        <trkpt lat="29.7751478" lon="104.8466023"><ele>265.03</ele><time>2026-05-18T04:36:12.000Z</time></trkpt>
        <trkpt lat="29.7751972" lon="104.8465061"><ele>265.37</ele><time>2026-05-18T04:36:19.000Z</time></trkpt>
        <trkpt lat="29.7752399" lon="104.846406"><ele>265.64</ele><time>2026-05-18T04:36:27.000Z</time></trkpt>
        <trkpt lat="29.7752654" lon="104.8463008"><ele>266.11</ele><time>2026-05-18T04:36:34.000Z</time></trkpt>
        <trkpt lat="29.775272" lon="104.8461909"><ele>266.25</ele><time>2026-05-18T04:36:41.000Z</time></trkpt>
        <trkpt lat="29.7752521" lon="104.846085"><ele>266.29</ele><time>2026-05-18T04:37:22.000Z</time></trkpt>
        <trkpt lat="29.7751969" lon="104.8459957"><ele>266.73</ele><time>2026-05-18T04:37:30.000Z</time></trkpt>
        <trkpt lat="29.7751337" lon="104.845897"><ele>266.72</ele><time>2026-05-18T04:37:47.000Z</time></trkpt>
        <trkpt lat="29.7750697" lon="104.8458091"><ele>266.36</ele><time>2026-05-18T04:37:55.000Z</time></trkpt>
        <trkpt lat="29.7750345" lon="104.8456977"><ele>266.58</ele><time>2026-05-18T04:38:04.000Z</time></trkpt>
        <trkpt lat="29.7750026" lon="104.8455856"><ele>266.69</ele><time>2026-05-18T04:38:15.000Z</time></trkpt>
        <trkpt lat="29.774964" lon="104.8454876"><ele>265.87</ele><time>2026-05-18T04:38:29.000Z</time></trkpt>
        <trkpt lat="29.7749249" lon="104.8453889"><ele>265.9</ele><time>2026-05-18T04:38:38.000Z</time></trkpt>
        <trkpt lat="29.7748783" lon="104.8452975"><ele>266.54</ele><time>2026-05-18T04:38:46.000Z</time></trkpt>
        <trkpt lat="29.7748188" lon="104.8452069"><ele>267.61</ele><time>2026-05-18T04:38:52.000Z</time></trkpt>
        <trkpt lat="29.7747581" lon="104.8450869"><ele>267.95</ele><time>2026-05-18T04:38:58.000Z</time></trkpt>
        <trkpt lat="29.7747057" lon="104.8449741"><ele>267.95</ele><time>2026-05-18T04:39:04.000Z</time></trkpt>
        <trkpt lat="29.77468" lon="104.8448689"><ele>267.99</ele><time>2026-05-18T04:39:12.000Z</time></trkpt>
        <trkpt lat="29.7746531" lon="104.8447614"><ele>267.95</ele><time>2026-05-18T04:39:24.000Z</time></trkpt>
        <trkpt lat="29.774652" lon="104.8446488"><ele>268.28</ele><time>2026-05-18T04:39:29.000Z</time></trkpt>
        <trkpt lat="29.7746554" lon="104.8445341"><ele>268.74</ele><time>2026-05-18T04:39:36.000Z</time></trkpt>
        <trkpt lat="29.774641" lon="104.8444196"><ele>269.28</ele><time>2026-05-18T04:39:42.000Z</time></trkpt>
        <trkpt lat="29.7746008" lon="104.8443214"><ele>269.45</ele><time>2026-05-18T04:39:53.000Z</time></trkpt>
        <trkpt lat="29.7746048" lon="104.8442227"><ele>269.71</ele><time>2026-05-18T04:39:59.000Z</time></trkpt>
        <trkpt lat="29.774631" lon="104.8441227"><ele>269.89</ele><time>2026-05-18T04:40:04.000Z</time></trkpt>
        <trkpt lat="29.77469" lon="104.8440409"><ele>269.8</ele><time>2026-05-18T04:40:08.000Z</time></trkpt>
        <trkpt lat="29.7747222" lon="104.8439366"><ele>270.15</ele><time>2026-05-18T04:40:13.000Z</time></trkpt>
        <trkpt lat="29.774784" lon="104.8438566"><ele>270.15</ele><time>2026-05-18T04:40:30.000Z</time></trkpt>
        <trkpt lat="29.7748062" lon="104.843755"><ele>271.02</ele><time>2026-05-18T04:40:36.000Z</time></trkpt>
        <trkpt lat="29.7747986" lon="104.8436413"><ele>271.35</ele><time>2026-05-18T04:40:43.000Z</time></trkpt>
        <trkpt lat="29.7747955" lon="104.8435252"><ele>270.59</ele><time>2026-05-18T04:40:51.000Z</time></trkpt>
        <trkpt lat="29.7748065" lon="104.8434075"><ele>269.84</ele><time>2026-05-18T04:40:58.000Z</time></trkpt>
        <trkpt lat="29.7748732" lon="104.8433274"><ele>270.08</ele><time>2026-05-18T04:41:05.000Z</time></trkpt>
        <trkpt lat="29.7749654" lon="104.8433084"><ele>271.08</ele><time>2026-05-18T04:41:11.000Z</time></trkpt>
        <trkpt lat="29.7750712" lon="104.8433256"><ele>271.61</ele><time>2026-05-18T04:41:17.000Z</time></trkpt>
        <trkpt lat="29.7751814" lon="104.8433475"><ele>272.71</ele><time>2026-05-18T04:41:25.000Z</time></trkpt>
        <trkpt lat="29.7752882" lon="104.8433329"><ele>274.57</ele><time>2026-05-18T04:41:33.000Z</time></trkpt>
        <trkpt lat="29.7753196" lon="104.8432375"><ele>275.31</ele><time>2026-05-18T04:41:44.000Z</time></trkpt>
        <trkpt lat="29.7753003" lon="104.8431217"><ele>275.43</ele><time>2026-05-18T04:41:50.000Z</time></trkpt>
        <trkpt lat="29.7752686" lon="104.8429883"><ele>275.51</ele><time>2026-05-18T04:41:58.000Z</time></trkpt>
        <trkpt lat="29.7752621" lon="104.8428693"><ele>275.72</ele><time>2026-05-18T04:42:06.000Z</time></trkpt>
        <trkpt lat="29.775245" lon="104.8427529"><ele>276.35</ele><time>2026-05-18T04:42:13.000Z</time></trkpt>
        <trkpt lat="29.7752281" lon="104.8426397"><ele>276.83</ele><time>2026-05-18T04:42:22.000Z</time></trkpt>
        <trkpt lat="29.7751905" lon="104.8425363"><ele>278.59</ele><time>2026-05-18T04:42:40.000Z</time></trkpt>
        <trkpt lat="29.7751905" lon="104.8425363"><ele>278.59</ele><time>2026-05-18T04:43:15.000Z</time></trkpt>
        <trkpt lat="29.775268" lon="104.8424917"><ele>280.8</ele><time>2026-05-18T04:43:20.000Z</time></trkpt>
        <trkpt lat="29.775268" lon="104.8424917"><ele>280.8</ele><time>2026-05-18T04:44:03.000Z</time></trkpt>
        <trkpt lat="29.775268" lon="104.8424917"><ele>280.8</ele><time>2026-05-18T04:44:23.000Z</time></trkpt>
        <trkpt lat="29.7755799" lon="104.8422265"><ele>282.32</ele><time>2026-05-18T04:53:52.000Z</time></trkpt>
        <trkpt lat="29.7755799" lon="104.8422265"><ele>282.32</ele><time>2026-05-18T04:54:03.000Z</time></trkpt>
        <trkpt lat="29.7754827" lon="104.8422047"><ele>281.64</ele><time>2026-05-18T04:54:08.000Z</time></trkpt>
        <trkpt lat="29.775399" lon="104.8422464"><ele>287.22</ele><time>2026-05-18T04:54:12.000Z</time></trkpt>
        <trkpt lat="29.775399" lon="104.8422464"><ele>287.22</ele><time>2026-05-18T04:54:29.000Z</time></trkpt>
        <trkpt lat="29.7753364" lon="104.8421994"><ele>290.41</ele><time>2026-05-18T04:54:36.000Z</time></trkpt>
        <trkpt lat="29.7753364" lon="104.8421994"><ele>290.41</ele><time>2026-05-18T04:54:46.000Z</time></trkpt>
        <trkpt lat="29.7753475" lon="104.8422628"><ele>292.91</ele><time>2026-05-18T04:55:03.000Z</time></trkpt>
        <trkpt lat="29.7753118" lon="104.8423576"><ele>294.47</ele><time>2026-05-18T04:55:32.000Z</time></trkpt>
        <trkpt lat="29.7753118" lon="104.8423576"><ele>294.47</ele><time>2026-05-18T04:56:19.000Z</time></trkpt>
        <trkpt lat="29.7754015" lon="104.8423354"><ele>297.28</ele><time>2026-05-18T04:56:22.000Z</time></trkpt>
        <trkpt lat="29.7754015" lon="104.8423354"><ele>297.28</ele><time>2026-05-18T04:56:37.000Z</time></trkpt>
        <trkpt lat="29.7754238" lon="104.8424423"><ele>300.27</ele><time>2026-05-18T04:56:44.000Z</time></trkpt>
        <trkpt lat="29.7754724" lon="104.8425335"><ele>303.67</ele><time>2026-05-18T04:56:50.000Z</time></trkpt>
        <trkpt lat="29.7755419" lon="104.842504"><ele>306.81</ele><time>2026-05-18T04:57:04.000Z</time></trkpt>
        <trkpt lat="29.775632" lon="104.8425011"><ele>306.02</ele><time>2026-05-18T04:57:10.000Z</time></trkpt>
        <trkpt lat="29.7757207" lon="104.8425275"><ele>305.05</ele><time>2026-05-18T04:57:16.000Z</time></trkpt>
        <trkpt lat="29.7758133" lon="104.8425686"><ele>303.14</ele><time>2026-05-18T04:57:23.000Z</time></trkpt>
        <trkpt lat="29.7759046" lon="104.8426058"><ele>301.3</ele><time>2026-05-18T04:57:29.000Z</time></trkpt>
        <trkpt lat="29.776005" lon="104.842638"><ele>300.26</ele><time>2026-05-18T04:57:36.000Z</time></trkpt>
        <trkpt lat="29.7761069" lon="104.8426596"><ele>299.29</ele><time>2026-05-18T04:57:44.000Z</time></trkpt>
        <trkpt lat="29.7762021" lon="104.8426786"><ele>298.43</ele><time>2026-05-18T04:57:53.000Z</time></trkpt>
        <trkpt lat="29.776296" lon="104.8427017"><ele>297.69</ele><time>2026-05-18T04:58:01.000Z</time></trkpt>
        <trkpt lat="29.7763878" lon="104.8427217"><ele>296.84</ele><time>2026-05-18T04:58:08.000Z</time></trkpt>
        <trkpt lat="29.7764837" lon="104.8427392"><ele>295.49</ele><time>2026-05-18T04:58:15.000Z</time></trkpt>
        <trkpt lat="29.7765815" lon="104.84275"><ele>294.37</ele><time>2026-05-18T04:58:22.000Z</time></trkpt>
        <trkpt lat="29.7766753" lon="104.842769"><ele>293.26</ele><time>2026-05-18T04:58:30.000Z</time></trkpt>
        <trkpt lat="29.7767685" lon="104.8427815"><ele>292.54</ele><time>2026-05-18T04:58:39.000Z</time></trkpt>
        <trkpt lat="29.7768617" lon="104.8427948"><ele>292.36</ele><time>2026-05-18T04:58:47.000Z</time></trkpt>
        <trkpt lat="29.776957" lon="104.8428192"><ele>292.31</ele><time>2026-05-18T04:58:55.000Z</time></trkpt>
        <trkpt lat="29.7770523" lon="104.842838"><ele>292.44</ele><time>2026-05-18T04:59:02.000Z</time></trkpt>
        <trkpt lat="29.7771575" lon="104.8428587"><ele>292.44</ele><time>2026-05-18T04:59:11.000Z</time></trkpt>
        <trkpt lat="29.7772608" lon="104.8428802"><ele>292.18</ele><time>2026-05-18T04:59:20.000Z</time></trkpt>
        <trkpt lat="29.7773623" lon="104.8428993"><ele>291.75</ele><time>2026-05-18T04:59:29.000Z</time></trkpt>
        <trkpt lat="29.777456" lon="104.8429166"><ele>291.16</ele><time>2026-05-18T04:59:37.000Z</time></trkpt>
        <trkpt lat="29.7775448" lon="104.8429377"><ele>290.71</ele><time>2026-05-18T04:59:46.000Z</time></trkpt>
        <trkpt lat="29.7776348" lon="104.8429491"><ele>290.52</ele><time>2026-05-18T04:59:53.000Z</time></trkpt>
        <trkpt lat="29.7777249" lon="104.842977"><ele>289.96</ele><time>2026-05-18T05:00:01.000Z</time></trkpt>
        <trkpt lat="29.777816" lon="104.8429937"><ele>289.54</ele><time>2026-05-18T05:00:09.000Z</time></trkpt>
        <trkpt lat="29.77791" lon="104.8430048"><ele>289.08</ele><time>2026-05-18T05:00:17.000Z</time></trkpt>
        <trkpt lat="29.7780076" lon="104.8430148"><ele>288.53</ele><time>2026-05-18T05:00:25.000Z</time></trkpt>
        <trkpt lat="29.7781218" lon="104.8430264"><ele>288.37</ele><time>2026-05-18T05:00:34.000Z</time></trkpt>
        <trkpt lat="29.7782245" lon="104.8430388"><ele>288.85</ele><time>2026-05-18T05:00:42.000Z</time></trkpt>
        <trkpt lat="29.7783219" lon="104.8430663"><ele>289.1</ele><time>2026-05-18T05:00:52.000Z</time></trkpt>
        <trkpt lat="29.7784167" lon="104.8430869"><ele>289.74</ele><time>2026-05-18T05:01:01.000Z</time></trkpt>
        <trkpt lat="29.7785156" lon="104.8431016"><ele>290.25</ele><time>2026-05-18T05:01:10.000Z</time></trkpt>
        <trkpt lat="29.7786079" lon="104.8431247"><ele>290.74</ele><time>2026-05-18T05:01:18.000Z</time></trkpt>
        <trkpt lat="29.7787025" lon="104.8431439"><ele>291.15</ele><time>2026-05-18T05:01:25.000Z</time></trkpt>
        <trkpt lat="29.7787972" lon="104.8431554"><ele>291.4</ele><time>2026-05-18T05:01:33.000Z</time></trkpt>
        <trkpt lat="29.778893" lon="104.8431687"><ele>291.48</ele><time>2026-05-18T05:01:41.000Z</time></trkpt>
        <trkpt lat="29.7789854" lon="104.8431851"><ele>291.58</ele><time>2026-05-18T05:01:49.000Z</time></trkpt>
        <trkpt lat="29.779082" lon="104.8432009"><ele>291.23</ele><time>2026-05-18T05:01:57.000Z</time></trkpt>
        <trkpt lat="29.7791795" lon="104.8432233"><ele>290.55</ele><time>2026-05-18T05:02:05.000Z</time></trkpt>
        <trkpt lat="29.7792703" lon="104.8432452"><ele>290.07</ele><time>2026-05-18T05:02:12.000Z</time></trkpt>
        <trkpt lat="29.779365" lon="104.843261"><ele>289.38</ele><time>2026-05-18T05:02:22.000Z</time></trkpt>
        <trkpt lat="29.7794535" lon="104.8432866"><ele>289.16</ele><time>2026-05-18T05:02:31.000Z</time></trkpt>
        <trkpt lat="29.7795542" lon="104.8433016"><ele>289.23</ele><time>2026-05-18T05:02:42.000Z</time></trkpt>
        <trkpt lat="29.7796518" lon="104.8433252"><ele>289.27</ele><time>2026-05-18T05:02:50.000Z</time></trkpt>
        <trkpt lat="29.7797485" lon="104.8433543"><ele>289.95</ele><time>2026-05-18T05:03:02.000Z</time></trkpt>
        <trkpt lat="29.7798407" lon="104.8433308"><ele>289.91</ele><time>2026-05-18T05:03:10.000Z</time></trkpt>
        <trkpt lat="29.7799373" lon="104.8433191"><ele>291.19</ele><time>2026-05-18T05:03:24.000Z</time></trkpt>
        <trkpt lat="29.7800382" lon="104.843317"><ele>293.16</ele><time>2026-05-18T05:03:31.000Z</time></trkpt>
        <trkpt lat="29.7801362" lon="104.8433065"><ele>293.87</ele><time>2026-05-18T05:03:41.000Z</time></trkpt>
        <trkpt lat="29.7802285" lon="104.8433128"><ele>294.99</ele><time>2026-05-18T05:03:59.000Z</time></trkpt>
        <trkpt lat="29.7802724" lon="104.8433954"><ele>295.08</ele><time>2026-05-18T05:04:12.000Z</time></trkpt>
        <trkpt lat="29.7803321" lon="104.8433745"><ele>295.48</ele><time>2026-05-18T05:04:32.000Z</time></trkpt>
        <trkpt lat="29.7803945" lon="104.8433198"><ele>294.38</ele><time>2026-05-18T05:04:38.000Z</time></trkpt>
        <trkpt lat="29.7804819" lon="104.8432906"><ele>295.31</ele><time>2026-05-18T05:04:44.000Z</time></trkpt>
        <trkpt lat="29.7805615" lon="104.8433413"><ele>296.37</ele><time>2026-05-18T05:04:52.000Z</time></trkpt>
        <trkpt lat="29.7806071" lon="104.8434381"><ele>299.51</ele><time>2026-05-18T05:04:59.000Z</time></trkpt>
        <trkpt lat="29.7806165" lon="104.8435564"><ele>301.99</ele><time>2026-05-18T05:05:06.000Z</time></trkpt>
        <trkpt lat="29.7805859" lon="104.8436734"><ele>304.25</ele><time>2026-05-18T05:05:11.000Z</time></trkpt>
        <trkpt lat="29.7805348" lon="104.8437779"><ele>305.16</ele><time>2026-05-18T05:05:15.000Z</time></trkpt>
        <trkpt lat="29.7805011" lon="104.8438968"><ele>304.25</ele><time>2026-05-18T05:05:20.000Z</time></trkpt>
        <trkpt lat="29.7804727" lon="104.8440139"><ele>302.61</ele><time>2026-05-18T05:05:27.000Z</time></trkpt>
        <trkpt lat="29.7804446" lon="104.8441231"><ele>301.4</ele><time>2026-05-18T05:05:35.000Z</time></trkpt>
        <trkpt lat="29.7804358" lon="104.8442349"><ele>299.99</ele><time>2026-05-18T05:05:44.000Z</time></trkpt>
        <trkpt lat="29.7804273" lon="104.8443531"><ele>298.38</ele><time>2026-05-18T05:05:51.000Z</time></trkpt>
        <trkpt lat="29.7804011" lon="104.8444597"><ele>297.29</ele><time>2026-05-18T05:06:00.000Z</time></trkpt>
        <trkpt lat="29.7803711" lon="104.844569"><ele>297.21</ele><time>2026-05-18T05:06:07.000Z</time></trkpt>
        <trkpt lat="29.7803739" lon="104.8446901"><ele>296.85</ele><time>2026-05-18T05:06:16.000Z</time></trkpt>
        <trkpt lat="29.7803701" lon="104.8448074"><ele>297.48</ele><time>2026-05-18T05:06:24.000Z</time></trkpt>
        <trkpt lat="29.7803363" lon="104.8449249"><ele>298.28</ele><time>2026-05-18T05:06:34.000Z</time></trkpt>
        <trkpt lat="29.7803363" lon="104.8449249"><ele>298.28</ele><time>2026-05-18T05:07:17.000Z</time></trkpt>
        <trkpt lat="29.7802768" lon="104.8450265"><ele>299.53</ele><time>2026-05-18T05:07:18.000Z</time></trkpt>
        <trkpt lat="29.7802768" lon="104.8450265"><ele>299.53</ele><time>2026-05-18T05:08:04.000Z</time></trkpt>
        <trkpt lat="29.7803038" lon="104.8449102"><ele>300.98</ele><time>2026-05-18T05:08:14.000Z</time></trkpt>
        <trkpt lat="29.7803774" lon="104.8448492"><ele>301.57</ele><time>2026-05-18T05:08:25.000Z</time></trkpt>
        <trkpt lat="29.7804378" lon="104.8447697"><ele>301.89</ele><time>2026-05-18T05:08:35.000Z</time></trkpt>
        <trkpt lat="29.780476" lon="104.8446748"><ele>302.21</ele><time>2026-05-18T05:08:43.000Z</time></trkpt>
        <trkpt lat="29.7804702" lon="104.8445721"><ele>302.25</ele><time>2026-05-18T05:08:50.000Z</time></trkpt>
        <trkpt lat="29.7804702" lon="104.8445721"><ele>302.25</ele><time>2026-05-18T05:09:05.000Z</time></trkpt>
        <trkpt lat="29.7803896" lon="104.8446427"><ele>302.35</ele><time>2026-05-18T05:09:06.000Z</time></trkpt>
        <trkpt lat="29.7803896" lon="104.8446427"><ele>302.35</ele><time>2026-05-18T05:10:05.000Z</time></trkpt>
        <trkpt lat="29.7803754" lon="104.8447491"><ele>301.67</ele><time>2026-05-18T05:10:13.000Z</time></trkpt>
        <trkpt lat="29.7803508" lon="104.8448617"><ele>301.1</ele><time>2026-05-18T05:10:23.000Z</time></trkpt>
        <trkpt lat="29.78033" lon="104.8449678"><ele>300.58</ele><time>2026-05-18T05:10:32.000Z</time></trkpt>
        <trkpt lat="29.7802932" lon="104.8450639"><ele>300.47</ele><time>2026-05-18T05:10:39.000Z</time></trkpt>
        <trkpt lat="29.7802663" lon="104.8451647"><ele>300.65</ele><time>2026-05-18T05:10:53.000Z</time></trkpt>
        <trkpt lat="29.7802663" lon="104.8451647"><ele>300.65</ele><time>2026-05-18T05:11:21.000Z</time></trkpt>
        <trkpt lat="29.7802663" lon="104.8451647"><ele>300.65</ele><time>2026-05-18T05:11:34.000Z</time></trkpt>
        <trkpt lat="29.7802663" lon="104.8451647"><ele>300.65</ele><time>2026-05-18T05:12:03.000Z</time></trkpt>
        <trkpt lat="29.7802039" lon="104.8452413"><ele>299.25</ele><time>2026-05-18T05:12:12.000Z</time></trkpt>
        <trkpt lat="29.7802039" lon="104.8452413"><ele>299.25</ele><time>2026-05-18T05:12:49.000Z</time></trkpt>
        <trkpt lat="29.7801102" lon="104.8452541"><ele>295.33</ele><time>2026-05-18T05:12:58.000Z</time></trkpt>
        <trkpt lat="29.780017" lon="104.8452597"><ele>292.79</ele><time>2026-05-18T05:13:08.000Z</time></trkpt>
        <trkpt lat="29.7799222" lon="104.8452388"><ele>290.65</ele><time>2026-05-18T05:13:13.000Z</time></trkpt>
        <trkpt lat="29.7798252" lon="104.8452234"><ele>289.38</ele><time>2026-05-18T05:13:20.000Z</time></trkpt>
        <trkpt lat="29.7798774" lon="104.8452245"><ele>291.58</ele><time>2026-05-18T05:13:37.000Z</time></trkpt>
        <trkpt lat="29.7799462" lon="104.8452939"><ele>292.02</ele><time>2026-05-18T05:13:43.000Z</time></trkpt>
        <trkpt lat="29.7799439" lon="104.8453988"><ele>292.01</ele><time>2026-05-18T05:13:51.000Z</time></trkpt>
        <trkpt lat="29.7798798" lon="104.8454845"><ele>291.65</ele><time>2026-05-18T05:13:58.000Z</time></trkpt>
        <trkpt lat="29.7798004" lon="104.8455682"><ele>290.89</ele><time>2026-05-18T05:14:07.000Z</time></trkpt>
        <trkpt lat="29.7797204" lon="104.8456455"><ele>290.15</ele><time>2026-05-18T05:14:15.000Z</time></trkpt>
        <trkpt lat="29.7796446" lon="104.8457237"><ele>289.4</ele><time>2026-05-18T05:14:23.000Z</time></trkpt>
        <trkpt lat="29.7795782" lon="104.845807"><ele>289.32</ele><time>2026-05-18T05:14:31.000Z</time></trkpt>
        <trkpt lat="29.7794873" lon="104.8458526"><ele>290.92</ele><time>2026-05-18T05:14:38.000Z</time></trkpt>
        <trkpt lat="29.779399" lon="104.8458982"><ele>292.78</ele><time>2026-05-18T05:14:44.000Z</time></trkpt>
        <trkpt lat="29.7793114" lon="104.8459419"><ele>294.18</ele><time>2026-05-18T05:14:52.000Z</time></trkpt>
        <trkpt lat="29.7792423" lon="104.8460078"><ele>295.42</ele><time>2026-05-18T05:14:59.000Z</time></trkpt>
        <trkpt lat="29.7791847" lon="104.846092"><ele>296.04</ele><time>2026-05-18T05:15:07.000Z</time></trkpt>
        <trkpt lat="29.7791491" lon="104.8461988"><ele>296.86</ele><time>2026-05-18T05:15:17.000Z</time></trkpt>
        <trkpt lat="29.7791325" lon="104.8463116"><ele>297.59</ele><time>2026-05-18T05:15:25.000Z</time></trkpt>
        <trkpt lat="29.7791452" lon="104.8464194"><ele>298.3</ele><time>2026-05-18T05:15:37.000Z</time></trkpt>
        <trkpt lat="29.7791444" lon="104.846527"><ele>297.62</ele><time>2026-05-18T05:15:44.000Z</time></trkpt>
        <trkpt lat="29.7791464" lon="104.8466381"><ele>295.35</ele><time>2026-05-18T05:15:52.000Z</time></trkpt>
        <trkpt lat="29.7791431" lon="104.8467452"><ele>293.35</ele><time>2026-05-18T05:16:00.000Z</time></trkpt>
        <trkpt lat="29.7791562" lon="104.8468492"><ele>291.93</ele><time>2026-05-18T05:16:08.000Z</time></trkpt>
        <trkpt lat="29.7791322" lon="104.8469559"><ele>291.26</ele><time>2026-05-18T05:16:17.000Z</time></trkpt>
        <trkpt lat="29.779098" lon="104.8470587"><ele>291.58</ele><time>2026-05-18T05:16:25.000Z</time></trkpt>
        <trkpt lat="29.7790862" lon="104.8471671"><ele>292.17</ele><time>2026-05-18T05:16:33.000Z</time></trkpt>
        <trkpt lat="29.7790725" lon="104.8472752"><ele>291.96</ele><time>2026-05-18T05:16:40.000Z</time></trkpt>
        <trkpt lat="29.7790578" lon="104.8473844"><ele>292.83</ele><time>2026-05-18T05:16:49.000Z</time></trkpt>
        <trkpt lat="29.7790656" lon="104.8474974"><ele>292.21</ele><time>2026-05-18T05:16:58.000Z</time></trkpt>
        <trkpt lat="29.7790828" lon="104.8476088"><ele>290.46</ele><time>2026-05-18T05:17:06.000Z</time></trkpt>
        <trkpt lat="29.7791051" lon="104.8477234"><ele>289.71</ele><time>2026-05-18T05:17:14.000Z</time></trkpt>
        <trkpt lat="29.7791245" lon="104.8478428"><ele>289.1</ele><time>2026-05-18T05:17:22.000Z</time></trkpt>
        <trkpt lat="29.7791596" lon="104.8479489"><ele>288.28</ele><time>2026-05-18T05:17:29.000Z</time></trkpt>
        <trkpt lat="29.7791145" lon="104.8480256"><ele>287.67</ele><time>2026-05-18T05:17:55.000Z</time></trkpt>
        <trkpt lat="29.7791062" lon="104.8481321"><ele>287.87</ele><time>2026-05-18T05:18:05.000Z</time></trkpt>
        <trkpt lat="29.779078" lon="104.8482329"><ele>288.01</ele><time>2026-05-18T05:18:17.000Z</time></trkpt>
        <trkpt lat="29.7791008" lon="104.8483317"><ele>288.11</ele><time>2026-05-18T05:18:26.000Z</time></trkpt>
        <trkpt lat="29.7791204" lon="104.8484651"><ele>288.45</ele><time>2026-05-18T05:18:34.000Z</time></trkpt>
        <trkpt lat="29.7791306" lon="104.8485826"><ele>290.23</ele><time>2026-05-18T05:18:41.000Z</time></trkpt>
        <trkpt lat="29.7791295" lon="104.8486972"><ele>292.14</ele><time>2026-05-18T05:18:49.000Z</time></trkpt>
        <trkpt lat="29.7791395" lon="104.8488067"><ele>294.2</ele><time>2026-05-18T05:18:57.000Z</time></trkpt>
        <trkpt lat="29.7791357" lon="104.8489187"><ele>295.93</ele><time>2026-05-18T05:19:07.000Z</time></trkpt>
        <trkpt lat="29.7791119" lon="104.8490313"><ele>298.6</ele><time>2026-05-18T05:19:13.000Z</time></trkpt>
        <trkpt lat="29.7790893" lon="104.8491396"><ele>301.11</ele><time>2026-05-18T05:19:20.000Z</time></trkpt>
        <trkpt lat="29.7790473" lon="104.849234"><ele>302.72</ele><time>2026-05-18T05:19:29.000Z</time></trkpt>
        <trkpt lat="29.779014" lon="104.8493302"><ele>303.8</ele><time>2026-05-18T05:19:41.000Z</time></trkpt>
        <trkpt lat="29.7790647" lon="104.8494129"><ele>305.02</ele><time>2026-05-18T05:19:47.000Z</time></trkpt>
        <trkpt lat="29.7791272" lon="104.8494941"><ele>304.65</ele><time>2026-05-18T05:19:53.000Z</time></trkpt>
        <trkpt lat="29.7791474" lon="104.8495934"><ele>303.15</ele><time>2026-05-18T05:19:58.000Z</time></trkpt>
        <trkpt lat="29.7791365" lon="104.8497002"><ele>302.22</ele><time>2026-05-18T05:20:03.000Z</time></trkpt>
        <trkpt lat="29.779078" lon="104.8497802"><ele>301.68</ele><time>2026-05-18T05:20:54.000Z</time></trkpt>
        <trkpt lat="29.779078" lon="104.8497802"><ele>301.68</ele><time>2026-05-18T05:21:05.000Z</time></trkpt>
      </trkseg>
  </trk>
</gpx>